<?xml version="1.0" encoding="UTF-8"?>
<TrainingCenterDatabase xmlns="http://www.garmin.com/xmlschemas/TrainingCenterDatabase/v2" xmlns:xsi="http://www.w3.org/2001/XMLSchema-instance" xsi:schemaLocation="http://www.garmin.com/xmlschemas/TrainingCenterDatabase/v2 http://www.garmin.com/xmlschemas/TrainingCenterDatabasev2.xsd">
  <Activities>
    <Activity Sport="Other">
      <Id>2022-06-01T17:32:43.000Z</Id>
      <Lap StartTime="2022-06-01T17:32:43.000Z">
        <TotalTimeSeconds>2953</TotalTimeSeconds>
        <DistanceMeters>7880</DistanceMeters>
        <Track>
          <Trackpoint>
            <Time>2022-06-01T17:32:43.000Z</Time>
            <Position>
              <LatitudeDegrees>39.41730740480124950408935546875</LatitudeDegrees>
              <LongitudeDegrees>-0.7905279658734798431396484375</LongitudeDegrees>
            </Position>
            <AltitudeMeters>348.20001220703125</AltitudeMeters>
            <DistanceMeters>0</DistanceMeters>
          </Trackpoint>
          <Trackpoint>
            <Time>2022-06-01T17:32:44.000Z</Time>
            <Position>
              <LatitudeDegrees>39.41731645725667476654052734375</LatitudeDegrees>
              <LongitudeDegrees>-0.79052385874092578887939453125</LongitudeDegrees>
            </Position>
            <AltitudeMeters>348.20001220703125</AltitudeMeters>
            <DistanceMeters>1.0666722232899</DistanceMeters>
          </Trackpoint>
          <Trackpoint>
            <Time>2022-06-01T17:32:45.000Z</Time>
            <Position>
              <LatitudeDegrees>39.4173277728259563446044921875</LatitudeDegrees>
              <LongitudeDegrees>-0.7905189134180545806884765625</LongitudeDegrees>
            </Position>
            <AltitudeMeters>348.20001220703125</AltitudeMeters>
            <DistanceMeters>2.3970462244697</DistanceMeters>
          </Trackpoint>
          <Trackpoint>
            <Time>2022-06-01T17:32:47.000Z</Time>
            <Position>
              <LatitudeDegrees>39.41736205480992794036865234375</LatitudeDegrees>
              <LongitudeDegrees>-0.7905019819736480712890625</LongitudeDegrees>
            </Position>
            <AltitudeMeters>348.600006103515625</AltitudeMeters>
            <DistanceMeters>6.4820898311437</DistanceMeters>
          </Trackpoint>
          <Trackpoint>
            <Time>2022-06-01T17:32:48.000Z</Time>
            <Position>
              <LatitudeDegrees>39.4173780642449855804443359375</LatitudeDegrees>
              <LongitudeDegrees>-0.7904954440891742706298828125</LongitudeDegrees>
            </Position>
            <AltitudeMeters>348.79998779296875</AltitudeMeters>
            <DistanceMeters>8.3490685421542</DistanceMeters>
          </Trackpoint>
          <Trackpoint>
            <Time>2022-06-01T17:32:49.000Z</Time>
            <Position>
              <LatitudeDegrees>39.4173961691558361053466796875</LatitudeDegrees>
              <LongitudeDegrees>-0.7904853858053684234619140625</LongitudeDegrees>
            </Position>
            <AltitudeMeters>349.399993896484375</AltitudeMeters>
            <DistanceMeters>10.54087160543</DistanceMeters>
          </Trackpoint>
          <Trackpoint>
            <Time>2022-06-01T17:32:50.000Z</Time>
            <Position>
              <LatitudeDegrees>39.4174146093428134918212890625</LatitudeDegrees>
              <LongitudeDegrees>-0.79048044048249721527099609375</LongitudeDegrees>
            </Position>
            <AltitudeMeters>349.600006103515625</AltitudeMeters>
            <DistanceMeters>12.635774264687</DistanceMeters>
          </Trackpoint>
          <Trackpoint>
            <Time>2022-06-01T17:32:51.000Z</Time>
            <Position>
              <LatitudeDegrees>39.41743195988237857818603515625</LatitudeDegrees>
              <LongitudeDegrees>-0.79047708772122859954833984375</LongitudeDegrees>
            </Position>
            <AltitudeMeters>349.79998779296875</AltitudeMeters>
            <DistanceMeters>14.587873713831</DistanceMeters>
          </Trackpoint>
          <Trackpoint>
            <Time>2022-06-01T17:32:52.000Z</Time>
            <Position>
              <LatitudeDegrees>39.41744796931743621826171875</LatitudeDegrees>
              <LongitudeDegrees>-0.790478847920894622802734375</LongitudeDegrees>
            </Position>
            <AltitudeMeters>350</AltitudeMeters>
            <DistanceMeters>16.373263582939</DistanceMeters>
          </Trackpoint>
          <Trackpoint>
            <Time>2022-06-01T17:32:54.000Z</Time>
            <Position>
              <LatitudeDegrees>39.41747881472110748291015625</LatitudeDegrees>
              <LongitudeDegrees>-0.7905028201639652252197265625</LongitudeDegrees>
            </Position>
            <AltitudeMeters>350.20001220703125</AltitudeMeters>
            <DistanceMeters>20.376810221611</DistanceMeters>
          </Trackpoint>
          <Trackpoint>
            <Time>2022-06-01T17:32:55.000Z</Time>
            <Position>
              <LatitudeDegrees>39.41749381832778453826904296875</LatitudeDegrees>
              <LongitudeDegrees>-0.79051681794226169586181640625</LongitudeDegrees>
            </Position>
            <AltitudeMeters>350.20001220703125</AltitudeMeters>
            <DistanceMeters>22.436940297276</DistanceMeters>
          </Trackpoint>
          <Trackpoint>
            <Time>2022-06-01T17:32:56.000Z</Time>
            <Position>
              <LatitudeDegrees>39.417507648468017578125</LatitudeDegrees>
              <LongitudeDegrees>-0.79053609631955623626708984375</LongitudeDegrees>
            </Position>
            <AltitudeMeters>350.399993896484375</AltitudeMeters>
            <DistanceMeters>24.697697530434</DistanceMeters>
          </Trackpoint>
          <Trackpoint>
            <Time>2022-06-01T17:32:58.000Z</Time>
            <Position>
              <LatitudeDegrees>39.4175306148827075958251953125</LatitudeDegrees>
              <LongitudeDegrees>-0.79057867638766765594482421875</LongitudeDegrees>
            </Position>
            <AltitudeMeters>350.399993896484375</AltitudeMeters>
            <DistanceMeters>29.162942068895</DistanceMeters>
          </Trackpoint>
          <Trackpoint>
            <Time>2022-06-01T17:33:14.000Z</Time>
            <Position>
              <LatitudeDegrees>39.41763631068170070648193359375</LatitudeDegrees>
              <LongitudeDegrees>-0.79072167165577411651611328125</LongitudeDegrees>
            </Position>
            <AltitudeMeters>350</AltitudeMeters>
            <DistanceMeters>46.179889251186</DistanceMeters>
          </Trackpoint>
          <Trackpoint>
            <Time>2022-06-01T17:33:16.000Z</Time>
            <Position>
              <LatitudeDegrees>39.41759171895682811737060546875</LatitudeDegrees>
              <LongitudeDegrees>-0.790706165134906768798828125</LongitudeDegrees>
            </Position>
            <AltitudeMeters>350</AltitudeMeters>
            <DistanceMeters>51.318366021799</DistanceMeters>
          </Trackpoint>
          <Trackpoint>
            <Time>2022-06-01T17:33:17.000Z</Time>
            <Position>
              <LatitudeDegrees>39.4176838360726833343505859375</LatitudeDegrees>
              <LongitudeDegrees>-0.79084002412855625152587890625</LongitudeDegrees>
            </Position>
            <AltitudeMeters>350</AltitudeMeters>
            <DistanceMeters>66.732624725786</DistanceMeters>
          </Trackpoint>
          <Trackpoint>
            <Time>2022-06-01T17:33:18.000Z</Time>
            <Position>
              <LatitudeDegrees>39.41770202480256557464599609375</LatitudeDegrees>
              <LongitudeDegrees>-0.79088218510150909423828125</LongitudeDegrees>
            </Position>
            <AltitudeMeters>350</AltitudeMeters>
            <DistanceMeters>70.885629181352</DistanceMeters>
          </Trackpoint>
          <Trackpoint>
            <Time>2022-06-01T17:33:19.000Z</Time>
            <Position>
              <LatitudeDegrees>39.417719878256320953369140625</LatitudeDegrees>
              <LongitudeDegrees>-0.7909257709980010986328125</LongitudeDegrees>
            </Position>
            <AltitudeMeters>350</AltitudeMeters>
            <DistanceMeters>75.126845077337</DistanceMeters>
          </Trackpoint>
          <Trackpoint>
            <Time>2022-06-01T17:33:22.000Z</Time>
            <Position>
              <LatitudeDegrees>39.41778081469237804412841796875</LatitudeDegrees>
              <LongitudeDegrees>-0.79104043543338775634765625</LongitudeDegrees>
            </Position>
            <AltitudeMeters>350</AltitudeMeters>
            <DistanceMeters>87.093421540481</DistanceMeters>
          </Trackpoint>
          <Trackpoint>
            <Time>2022-06-01T17:33:27.000Z</Time>
            <Position>
              <LatitudeDegrees>39.417861364781856536865234375</LatitudeDegrees>
              <LongitudeDegrees>-0.791197009384632110595703125</LongitudeDegrees>
            </Position>
            <AltitudeMeters>349.600006103515625</AltitudeMeters>
            <DistanceMeters>103.26863204567</DistanceMeters>
          </Trackpoint>
          <Trackpoint>
            <Time>2022-06-01T17:33:32.000Z</Time>
            <Position>
              <LatitudeDegrees>39.41793303005397319793701171875</LatitudeDegrees>
              <LongitudeDegrees>-0.79139255918562412261962890625</LongitudeDegrees>
            </Position>
            <AltitudeMeters>349.399993896484375</AltitudeMeters>
            <DistanceMeters>121.87907486706</DistanceMeters>
          </Trackpoint>
          <Trackpoint>
            <Time>2022-06-01T17:33:33.000Z</Time>
            <Position>
              <LatitudeDegrees>39.41794526763260364532470703125</LatitudeDegrees>
              <LongitudeDegrees>-0.79143195413053035736083984375</LongitudeDegrees>
            </Position>
            <AltitudeMeters>349.399993896484375</AltitudeMeters>
            <DistanceMeters>125.53235462423</DistanceMeters>
          </Trackpoint>
          <Trackpoint>
            <Time>2022-06-01T17:33:39.000Z</Time>
            <Position>
              <LatitudeDegrees>39.4180228002369403839111328125</LatitudeDegrees>
              <LongitudeDegrees>-0.7916192896664142608642578125</LongitudeDegrees>
            </Position>
            <AltitudeMeters>349.600006103515625</AltitudeMeters>
            <DistanceMeters>143.80616722308</DistanceMeters>
          </Trackpoint>
          <Trackpoint>
            <Time>2022-06-01T17:33:41.000Z</Time>
            <Position>
              <LatitudeDegrees>39.41804082132875919342041015625</LatitudeDegrees>
              <LongitudeDegrees>-0.7916856743395328521728515625</LongitudeDegrees>
            </Position>
            <AltitudeMeters>349.399993896484375</AltitudeMeters>
            <DistanceMeters>149.85586968083</DistanceMeters>
          </Trackpoint>
          <Trackpoint>
            <Time>2022-06-01T17:33:42.000Z</Time>
            <Position>
              <LatitudeDegrees>39.41804878413677215576171875</LatitudeDegrees>
              <LongitudeDegrees>-0.7917269133031368255615234375</LongitudeDegrees>
            </Position>
            <AltitudeMeters>349.600006103515625</AltitudeMeters>
            <DistanceMeters>153.51038511528</DistanceMeters>
          </Trackpoint>
          <Trackpoint>
            <Time>2022-06-01T17:33:45.000Z</Time>
            <Position>
              <LatitudeDegrees>39.4180700741708278656005859375</LatitudeDegrees>
              <LongitudeDegrees>-0.7918556593358516693115234375</LongitudeDegrees>
            </Position>
            <AltitudeMeters>349.600006103515625</AltitudeMeters>
            <DistanceMeters>164.830934788</DistanceMeters>
          </Trackpoint>
          <Trackpoint>
            <Time>2022-06-01T17:33:50.000Z</Time>
            <Position>
              <LatitudeDegrees>39.41809027455747127532958984375</LatitudeDegrees>
              <LongitudeDegrees>-0.79205699265003204345703125</LongitudeDegrees>
            </Position>
            <AltitudeMeters>349.399993896484375</AltitudeMeters>
            <DistanceMeters>182.2879396809</DistanceMeters>
          </Trackpoint>
          <Trackpoint>
            <Time>2022-06-01T17:33:56.000Z</Time>
            <Position>
              <LatitudeDegrees>39.41809731535613536834716796875</LatitudeDegrees>
              <LongitudeDegrees>-0.79227953217923641204833984375</LongitudeDegrees>
            </Position>
            <AltitudeMeters>349.20001220703125</AltitudeMeters>
            <DistanceMeters>201.43859305605</DistanceMeters>
          </Trackpoint>
          <Trackpoint>
            <Time>2022-06-01T17:33:57.000Z</Time>
            <Position>
              <LatitudeDegrees>39.41809714771807193756103515625</LatitudeDegrees>
              <LongitudeDegrees>-0.7923139818012714385986328125</LongitudeDegrees>
            </Position>
            <AltitudeMeters>349.20001220703125</AltitudeMeters>
            <DistanceMeters>204.40123280862</DistanceMeters>
          </Trackpoint>
          <Trackpoint>
            <Time>2022-06-01T17:34:02.000Z</Time>
            <Position>
              <LatitudeDegrees>39.41809530369937419891357421875</LatitudeDegrees>
              <LongitudeDegrees>-0.7924363575875759124755859375</LongitudeDegrees>
            </Position>
            <AltitudeMeters>349.399993896484375</AltitudeMeters>
            <DistanceMeters>214.92520010167</DistanceMeters>
          </Trackpoint>
          <Trackpoint>
            <Time>2022-06-01T17:34:06.000Z</Time>
            <Position>
              <LatitudeDegrees>39.418063871562480926513671875</LatitudeDegrees>
              <LongitudeDegrees>-0.79245865345001220703125</LongitudeDegrees>
            </Position>
            <AltitudeMeters>349.20001220703125</AltitudeMeters>
            <DistanceMeters>218.91405892272</DistanceMeters>
          </Trackpoint>
          <Trackpoint>
            <Time>2022-06-01T17:34:10.000Z</Time>
            <Position>
              <LatitudeDegrees>39.41798449493944644927978515625</LatitudeDegrees>
              <LongitudeDegrees>-0.7924527861177921295166015625</LongitudeDegrees>
            </Position>
            <AltitudeMeters>348</AltitudeMeters>
            <DistanceMeters>227.76328617271</DistanceMeters>
          </Trackpoint>
          <Trackpoint>
            <Time>2022-06-01T17:34:11.000Z</Time>
            <Position>
              <LatitudeDegrees>39.41796286962926387786865234375</LatitudeDegrees>
              <LongitudeDegrees>-0.79245085828006267547607421875</LongitudeDegrees>
            </Position>
            <AltitudeMeters>347.79998779296875</AltitudeMeters>
            <DistanceMeters>230.17853551445</DistanceMeters>
          </Trackpoint>
          <Trackpoint>
            <Time>2022-06-01T17:34:16.000Z</Time>
            <Position>
              <LatitudeDegrees>39.4178876839578151702880859375</LatitudeDegrees>
              <LongitudeDegrees>-0.792479775846004486083984375</LongitudeDegrees>
            </Position>
            <AltitudeMeters>347</AltitudeMeters>
            <DistanceMeters>238.9085896487</DistanceMeters>
          </Trackpoint>
          <Trackpoint>
            <Time>2022-06-01T17:34:18.000Z</Time>
            <Position>
              <LatitudeDegrees>39.41785809583961963653564453125</LatitudeDegrees>
              <LongitudeDegrees>-0.79250634647905826568603515625</LongitudeDegrees>
            </Position>
            <AltitudeMeters>345.79998779296875</AltitudeMeters>
            <DistanceMeters>242.91551813788</DistanceMeters>
          </Trackpoint>
          <Trackpoint>
            <Time>2022-06-01T17:34:20.000Z</Time>
            <Position>
              <LatitudeDegrees>39.4178300164639949798583984375</LatitudeDegrees>
              <LongitudeDegrees>-0.7925469987094402313232421875</LongitudeDegrees>
            </Position>
            <AltitudeMeters>345.399993896484375</AltitudeMeters>
            <DistanceMeters>247.60467969844</DistanceMeters>
          </Trackpoint>
          <Trackpoint>
            <Time>2022-06-01T17:34:23.000Z</Time>
            <Position>
              <LatitudeDegrees>39.41779573448002338409423828125</LatitudeDegrees>
              <LongitudeDegrees>-0.79263274557888507843017578125</LongitudeDegrees>
            </Position>
            <AltitudeMeters>345.20001220703125</AltitudeMeters>
            <DistanceMeters>255.90688262879</DistanceMeters>
          </Trackpoint>
          <Trackpoint>
            <Time>2022-06-01T17:34:24.000Z</Time>
            <Position>
              <LatitudeDegrees>39.41778550855815410614013671875</LatitudeDegrees>
              <LongitudeDegrees>-0.79266409389674663543701171875</LongitudeDegrees>
            </Position>
            <AltitudeMeters>345.20001220703125</AltitudeMeters>
            <DistanceMeters>258.83426072963</DistanceMeters>
          </Trackpoint>
          <Trackpoint>
            <Time>2022-06-01T17:34:27.000Z</Time>
            <Position>
              <LatitudeDegrees>39.417751394212245941162109375</LatitudeDegrees>
              <LongitudeDegrees>-0.7927558757364749908447265625</LongitudeDegrees>
            </Position>
            <AltitudeMeters>345.600006103515625</AltitudeMeters>
            <DistanceMeters>267.59219823312</DistanceMeters>
          </Trackpoint>
          <Trackpoint>
            <Time>2022-06-01T17:34:32.000Z</Time>
            <Position>
              <LatitudeDegrees>39.4176761247217655181884765625</LatitudeDegrees>
              <LongitudeDegrees>-0.7929060794413089752197265625</LongitudeDegrees>
            </Position>
            <AltitudeMeters>345.399993896484375</AltitudeMeters>
            <DistanceMeters>282.98652596106</DistanceMeters>
          </Trackpoint>
          <Trackpoint>
            <Time>2022-06-01T17:34:36.000Z</Time>
            <Position>
              <LatitudeDegrees>39.4176174513995647430419921875</LatitudeDegrees>
              <LongitudeDegrees>-0.793039686977863311767578125</LongitudeDegrees>
            </Position>
            <AltitudeMeters>345</AltitudeMeters>
            <DistanceMeters>296.20104896695</DistanceMeters>
          </Trackpoint>
          <Trackpoint>
            <Time>2022-06-01T17:34:39.000Z</Time>
            <Position>
              <LatitudeDegrees>39.41754058934748172760009765625</LatitudeDegrees>
              <LongitudeDegrees>-0.793163068592548370361328125</LongitudeDegrees>
            </Position>
            <AltitudeMeters>344.79998779296875</AltitudeMeters>
            <DistanceMeters>309.8300134343</DistanceMeters>
          </Trackpoint>
          <Trackpoint>
            <Time>2022-06-01T17:35:01.000Z</Time>
            <Position>
              <LatitudeDegrees>39.417566992342472076416015625</LatitudeDegrees>
              <LongitudeDegrees>-0.79313565976917743682861328125</LongitudeDegrees>
            </Position>
            <AltitudeMeters>344.79998779296875</AltitudeMeters>
            <DistanceMeters>313.59647730555</DistanceMeters>
          </Trackpoint>
          <Trackpoint>
            <Time>2022-06-01T17:35:02.000Z</Time>
            <Position>
              <LatitudeDegrees>39.41755115054547786712646484375</LatitudeDegrees>
              <LongitudeDegrees>-0.7931461371481418609619140625</LongitudeDegrees>
            </Position>
            <AltitudeMeters>344.79998779296875</AltitudeMeters>
            <DistanceMeters>315.57613716944</DistanceMeters>
          </Trackpoint>
          <Trackpoint>
            <Time>2022-06-01T17:35:06.000Z</Time>
            <Position>
              <LatitudeDegrees>39.41747386939823627471923828125</LatitudeDegrees>
              <LongitudeDegrees>-0.7932309620082378387451171875</LongitudeDegrees>
            </Position>
            <AltitudeMeters>344.600006103515625</AltitudeMeters>
            <DistanceMeters>326.85353033615</DistanceMeters>
          </Trackpoint>
          <Trackpoint>
            <Time>2022-06-01T17:35:10.000Z</Time>
            <Position>
              <LatitudeDegrees>39.41740195266902446746826171875</LatitudeDegrees>
              <LongitudeDegrees>-0.793339423835277557373046875</LongitudeDegrees>
            </Position>
            <AltitudeMeters>344.600006103515625</AltitudeMeters>
            <DistanceMeters>339.14324386421</DistanceMeters>
          </Trackpoint>
          <Trackpoint>
            <Time>2022-06-01T17:35:11.000Z</Time>
            <Position>
              <LatitudeDegrees>39.41739424131810665130615234375</LatitudeDegrees>
              <LongitudeDegrees>-0.7933647371828556060791015625</LongitudeDegrees>
            </Position>
            <AltitudeMeters>344.600006103515625</AltitudeMeters>
            <DistanceMeters>341.48252288242</DistanceMeters>
          </Trackpoint>
          <Trackpoint>
            <Time>2022-06-01T17:35:13.000Z</Time>
            <Position>
              <LatitudeDegrees>39.41741184331476688385009765625</LatitudeDegrees>
              <LongitudeDegrees>-0.79341041855514049530029296875</LongitudeDegrees>
            </Position>
            <AltitudeMeters>344.79998779296875</AltitudeMeters>
            <DistanceMeters>345.87230455482</DistanceMeters>
          </Trackpoint>
          <Trackpoint>
            <Time>2022-06-01T17:35:15.000Z</Time>
            <Position>
              <LatitudeDegrees>39.41744931042194366455078125</LatitudeDegrees>
              <LongitudeDegrees>-0.7934416830539703369140625</LongitudeDegrees>
            </Position>
            <AltitudeMeters>345</AltitudeMeters>
            <DistanceMeters>350.83284467761</DistanceMeters>
          </Trackpoint>
          <Trackpoint>
            <Time>2022-06-01T17:35:17.000Z</Time>
            <Position>
              <LatitudeDegrees>39.41747881472110748291015625</LatitudeDegrees>
              <LongitudeDegrees>-0.7934658229351043701171875</LongitudeDegrees>
            </Position>
            <AltitudeMeters>346.399993896484375</AltitudeMeters>
            <DistanceMeters>354.71617155819</DistanceMeters>
          </Trackpoint>
          <Trackpoint>
            <Time>2022-06-01T17:35:19.000Z</Time>
            <Position>
              <LatitudeDegrees>39.41750152967870235443115234375</LatitudeDegrees>
              <LongitudeDegrees>-0.7934981770813465118408203125</LongitudeDegrees>
            </Position>
            <AltitudeMeters>347.600006103515625</AltitudeMeters>
            <DistanceMeters>358.47423483045</DistanceMeters>
          </Trackpoint>
          <Trackpoint>
            <Time>2022-06-01T17:35:20.000Z</Time>
            <Position>
              <LatitudeDegrees>39.4175143539905548095703125</LatitudeDegrees>
              <LongitudeDegrees>-0.79351368360221385955810546875</LongitudeDegrees>
            </Position>
            <AltitudeMeters>347.79998779296875</AltitudeMeters>
            <DistanceMeters>360.42633427959</DistanceMeters>
          </Trackpoint>
          <Trackpoint>
            <Time>2022-06-01T17:35:23.000Z</Time>
            <Position>
              <LatitudeDegrees>39.41756975837051868438720703125</LatitudeDegrees>
              <LongitudeDegrees>-0.79354159533977508544921875</LongitudeDegrees>
            </Position>
            <AltitudeMeters>348.79998779296875</AltitudeMeters>
            <DistanceMeters>367.04417915185</DistanceMeters>
          </Trackpoint>
          <Trackpoint>
            <Time>2022-06-01T17:35:24.000Z</Time>
            <Position>
              <LatitudeDegrees>39.417592473328113555908203125</LatitudeDegrees>
              <LongitudeDegrees>-0.793549977242946624755859375</LongitudeDegrees>
            </Position>
            <AltitudeMeters>349.20001220703125</AltitudeMeters>
            <DistanceMeters>369.67248820514</DistanceMeters>
          </Trackpoint>
          <Trackpoint>
            <Time>2022-06-01T17:35:25.000Z</Time>
            <Position>
              <LatitudeDegrees>39.41761904396116733551025390625</LatitudeDegrees>
              <LongitudeDegrees>-0.7935585267841815948486328125</LongitudeDegrees>
            </Position>
            <AltitudeMeters>349.79998779296875</AltitudeMeters>
            <DistanceMeters>372.71927644596</DistanceMeters>
          </Trackpoint>
          <Trackpoint>
            <Time>2022-06-01T17:35:26.000Z</Time>
            <Position>
              <LatitudeDegrees>39.41764720715582370758056640625</LatitudeDegrees>
              <LongitudeDegrees>-0.793566070497035980224609375</LongitudeDegrees>
            </Position>
            <AltitudeMeters>350</AltitudeMeters>
            <DistanceMeters>375.920703747</DistanceMeters>
          </Trackpoint>
          <Trackpoint>
            <Time>2022-06-01T17:35:28.000Z</Time>
            <Position>
              <LatitudeDegrees>39.41770068369805812835693359375</LatitudeDegrees>
              <LongitudeDegrees>-0.79357906244695186614990234375</LongitudeDegrees>
            </Position>
            <AltitudeMeters>350.79998779296875</AltitudeMeters>
            <DistanceMeters>381.97711939616</DistanceMeters>
          </Trackpoint>
          <Trackpoint>
            <Time>2022-06-01T17:35:31.000Z</Time>
            <Position>
              <LatitudeDegrees>39.4177508912980556488037109375</LatitudeDegrees>
              <LongitudeDegrees>-0.79360454343259334564208984375</LongitudeDegrees>
            </Position>
            <AltitudeMeters>351.600006103515625</AltitudeMeters>
            <DistanceMeters>387.98037143883</DistanceMeters>
          </Trackpoint>
          <Trackpoint>
            <Time>2022-06-01T17:35:32.000Z</Time>
            <Position>
              <LatitudeDegrees>39.41775642335414886474609375</LatitudeDegrees>
              <LongitudeDegrees>-0.79362181015312671661376953125</LongitudeDegrees>
            </Position>
            <AltitudeMeters>351.79998779296875</AltitudeMeters>
            <DistanceMeters>389.58741899972</DistanceMeters>
          </Trackpoint>
          <Trackpoint>
            <Time>2022-06-01T17:35:35.000Z</Time>
            <Position>
              <LatitudeDegrees>39.41779933869838714599609375</LatitudeDegrees>
              <LongitudeDegrees>-0.7936668209731578826904296875</LongitudeDegrees>
            </Position>
            <AltitudeMeters>351.79998779296875</AltitudeMeters>
            <DistanceMeters>395.73558132634</DistanceMeters>
          </Trackpoint>
          <Trackpoint>
            <Time>2022-06-01T17:35:36.000Z</Time>
            <Position>
              <LatitudeDegrees>39.41781769506633281707763671875</LatitudeDegrees>
              <LongitudeDegrees>-0.79368417151272296905517578125</LongitudeDegrees>
            </Position>
            <AltitudeMeters>352</AltitudeMeters>
            <DistanceMeters>398.26407774166</DistanceMeters>
          </Trackpoint>
          <Trackpoint>
            <Time>2022-06-01T17:35:40.000Z</Time>
            <Position>
              <LatitudeDegrees>39.41787779331207275390625</LatitudeDegrees>
              <LongitudeDegrees>-0.79375508241355419158935546875</LongitudeDegrees>
            </Position>
            <AltitudeMeters>351.600006103515625</AltitudeMeters>
            <DistanceMeters>407.31509169036</DistanceMeters>
          </Trackpoint>
          <Trackpoint>
            <Time>2022-06-01T17:35:44.000Z</Time>
            <Position>
              <LatitudeDegrees>39.4179118238389492034912109375</LatitudeDegrees>
              <LongitudeDegrees>-0.79383538104593753814697265625</LongitudeDegrees>
            </Position>
            <AltitudeMeters>350.79998779296875</AltitudeMeters>
            <DistanceMeters>415.1902783559</DistanceMeters>
          </Trackpoint>
          <Trackpoint>
            <Time>2022-06-01T17:35:52.000Z</Time>
            <Position>
              <LatitudeDegrees>39.4179128296673297882080078125</LatitudeDegrees>
              <LongitudeDegrees>-0.79398675821721553802490234375</LongitudeDegrees>
            </Position>
            <AltitudeMeters>351.399993896484375</AltitudeMeters>
            <DistanceMeters>428.20685718131</DistanceMeters>
          </Trackpoint>
          <Trackpoint>
            <Time>2022-06-01T17:35:53.000Z</Time>
            <Position>
              <LatitudeDegrees>39.4178980775177478790283203125</LatitudeDegrees>
              <LongitudeDegrees>-0.794018693268299102783203125</LongitudeDegrees>
            </Position>
            <AltitudeMeters>351.399993896484375</AltitudeMeters>
            <DistanceMeters>431.40687385118</DistanceMeters>
          </Trackpoint>
          <Trackpoint>
            <Time>2022-06-01T17:35:57.000Z</Time>
            <Position>
              <LatitudeDegrees>39.41779137589037418365478515625</LatitudeDegrees>
              <LongitudeDegrees>-0.79416520893573760986328125</LongitudeDegrees>
            </Position>
            <AltitudeMeters>351.20001220703125</AltitudeMeters>
            <DistanceMeters>448.72052215631</DistanceMeters>
          </Trackpoint>
          <Trackpoint>
            <Time>2022-06-01T17:36:03.000Z</Time>
            <Position>
              <LatitudeDegrees>39.4176610372960567474365234375</LatitudeDegrees>
              <LongitudeDegrees>-0.79435606487095355987548828125</LongitudeDegrees>
            </Position>
            <AltitudeMeters>351.600006103515625</AltitudeMeters>
            <DistanceMeters>470.62412828561</DistanceMeters>
          </Trackpoint>
          <Trackpoint>
            <Time>2022-06-01T17:36:04.000Z</Time>
            <Position>
              <LatitudeDegrees>39.41764670424163341522216796875</LatitudeDegrees>
              <LongitudeDegrees>-0.794390849769115447998046875</LongitudeDegrees>
            </Position>
            <AltitudeMeters>351.600006103515625</AltitudeMeters>
            <DistanceMeters>474.01459835821</DistanceMeters>
          </Trackpoint>
          <Trackpoint>
            <Time>2022-06-01T17:36:09.000Z</Time>
            <Position>
              <LatitudeDegrees>39.41763714887201786041259765625</LatitudeDegrees>
              <LongitudeDegrees>-0.79456460662186145782470703125</LongitudeDegrees>
            </Position>
            <AltitudeMeters>351.79998779296875</AltitudeMeters>
            <DistanceMeters>488.9929911041</DistanceMeters>
          </Trackpoint>
          <Trackpoint>
            <Time>2022-06-01T17:36:10.000Z</Time>
            <Position>
              <LatitudeDegrees>39.41764653660356998443603515625</LatitudeDegrees>
              <LongitudeDegrees>-0.79460249282419681549072265625</LongitudeDegrees>
            </Position>
            <AltitudeMeters>352</AltitudeMeters>
            <DistanceMeters>492.41395282142</DistanceMeters>
          </Trackpoint>
          <Trackpoint>
            <Time>2022-06-01T17:36:15.000Z</Time>
            <Position>
              <LatitudeDegrees>39.41767570562660694122314453125</LatitudeDegrees>
              <LongitudeDegrees>-0.7948144711554050445556640625</LongitudeDegrees>
            </Position>
            <AltitudeMeters>351.399993896484375</AltitudeMeters>
            <DistanceMeters>510.92782982381</DistanceMeters>
          </Trackpoint>
          <Trackpoint>
            <Time>2022-06-01T17:36:19.000Z</Time>
            <Position>
              <LatitudeDegrees>39.417724907398223876953125</LatitudeDegrees>
              <LongitudeDegrees>-0.79495520330965518951416015625</LongitudeDegrees>
            </Position>
            <AltitudeMeters>351.20001220703125</AltitudeMeters>
            <DistanceMeters>524.21051153957</DistanceMeters>
          </Trackpoint>
          <Trackpoint>
            <Time>2022-06-01T17:36:25.000Z</Time>
            <Position>
              <LatitudeDegrees>39.41775382496416568756103515625</LatitudeDegrees>
              <LongitudeDegrees>-0.79509727656841278076171875</LongitudeDegrees>
            </Position>
            <AltitudeMeters>351.399993896484375</AltitudeMeters>
            <DistanceMeters>536.84298995505</DistanceMeters>
          </Trackpoint>
          <Trackpoint>
            <Time>2022-06-01T17:36:48.000Z</Time>
            <Position>
              <LatitudeDegrees>39.41785440780222415924072265625</LatitudeDegrees>
              <LongitudeDegrees>-0.79514346085488796234130859375</LongitudeDegrees>
            </Position>
            <AltitudeMeters>350.79998779296875</AltitudeMeters>
            <DistanceMeters>548.7213292513</DistanceMeters>
          </Trackpoint>
          <Trackpoint>
            <Time>2022-06-01T17:36:49.000Z</Time>
            <Position>
              <LatitudeDegrees>39.41786563955247402191162109375</LatitudeDegrees>
              <LongitudeDegrees>-0.79516542144119739532470703125</LongitudeDegrees>
            </Position>
            <AltitudeMeters>350.79998779296875</AltitudeMeters>
            <DistanceMeters>550.9860772329</DistanceMeters>
          </Trackpoint>
          <Trackpoint>
            <Time>2022-06-01T17:36:51.000Z</Time>
            <Position>
              <LatitudeDegrees>39.41788491792976856231689453125</LatitudeDegrees>
              <LongitudeDegrees>-0.79520850442349910736083984375</LongitudeDegrees>
            </Position>
            <AltitudeMeters>350.79998779296875</AltitudeMeters>
            <DistanceMeters>555.26755538667</DistanceMeters>
          </Trackpoint>
          <Trackpoint>
            <Time>2022-06-01T17:36:53.000Z</Time>
            <Position>
              <LatitudeDegrees>39.41790117882192134857177734375</LatitudeDegrees>
              <LongitudeDegrees>-0.79525326378643512725830078125</LongitudeDegrees>
            </Position>
            <AltitudeMeters>351.20001220703125</AltitudeMeters>
            <DistanceMeters>559.52046534542</DistanceMeters>
          </Trackpoint>
          <Trackpoint>
            <Time>2022-06-01T17:36:54.000Z</Time>
            <Position>
              <LatitudeDegrees>39.417906962335109710693359375</LatitudeDegrees>
              <LongitudeDegrees>-0.79527966678142547607421875</LongitudeDegrees>
            </Position>
            <AltitudeMeters>351.399993896484375</AltitudeMeters>
            <DistanceMeters>561.88279200411</DistanceMeters>
          </Trackpoint>
          <Trackpoint>
            <Time>2022-06-01T17:36:56.000Z</Time>
            <Position>
              <LatitudeDegrees>39.41792079247534275054931640625</LatitudeDegrees>
              <LongitudeDegrees>-0.79532987438142299652099609375</LongitudeDegrees>
            </Position>
            <AltitudeMeters>351.79998779296875</AltitudeMeters>
            <DistanceMeters>566.46579951105</DistanceMeters>
          </Trackpoint>
          <Trackpoint>
            <Time>2022-06-01T17:37:01.000Z</Time>
            <Position>
              <LatitudeDegrees>39.417928755283355712890625</LatitudeDegrees>
              <LongitudeDegrees>-0.7954843528568744659423828125</LongitudeDegrees>
            </Position>
            <AltitudeMeters>352.20001220703125</AltitudeMeters>
            <DistanceMeters>579.77802134712</DistanceMeters>
          </Trackpoint>
          <Trackpoint>
            <Time>2022-06-01T17:37:06.000Z</Time>
            <Position>
              <LatitudeDegrees>39.4178890250623226165771484375</LatitudeDegrees>
              <LongitudeDegrees>-0.795696079730987548828125</LongitudeDegrees>
            </Position>
            <AltitudeMeters>352</AltitudeMeters>
            <DistanceMeters>598.51250856251</DistanceMeters>
          </Trackpoint>
          <Trackpoint>
            <Time>2022-06-01T17:37:07.000Z</Time>
            <Position>
              <LatitudeDegrees>39.41787955351173877716064453125</LatitudeDegrees>
              <LongitudeDegrees>-0.79572902061045169830322265625</LongitudeDegrees>
            </Position>
            <AltitudeMeters>351.79998779296875</AltitudeMeters>
            <DistanceMeters>601.53549340556</DistanceMeters>
          </Trackpoint>
          <Trackpoint>
            <Time>2022-06-01T17:37:10.000Z</Time>
            <Position>
              <LatitudeDegrees>39.4178585149347782135009765625</LatitudeDegrees>
              <LongitudeDegrees>-0.79582356847822666168212890625</LongitudeDegrees>
            </Position>
            <AltitudeMeters>351.20001220703125</AltitudeMeters>
            <DistanceMeters>609.99553985311</DistanceMeters>
          </Trackpoint>
          <Trackpoint>
            <Time>2022-06-01T17:37:15.000Z</Time>
            <Position>
              <LatitudeDegrees>39.41785742528736591339111328125</LatitudeDegrees>
              <LongitudeDegrees>-0.7959993369877338409423828125</LongitudeDegrees>
            </Position>
            <AltitudeMeters>350.79998779296875</AltitudeMeters>
            <DistanceMeters>625.10956790003</DistanceMeters>
          </Trackpoint>
          <Trackpoint>
            <Time>2022-06-01T17:37:20.000Z</Time>
            <Position>
              <LatitudeDegrees>39.4178679026663303375244140625</LatitudeDegrees>
              <LongitudeDegrees>-0.7961850799620151519775390625</LongitudeDegrees>
            </Position>
            <AltitudeMeters>350.600006103515625</AltitudeMeters>
            <DistanceMeters>641.12319056498</DistanceMeters>
          </Trackpoint>
          <Trackpoint>
            <Time>2022-06-01T17:37:27.000Z</Time>
            <Position>
              <LatitudeDegrees>39.41787955351173877716064453125</LatitudeDegrees>
              <LongitudeDegrees>-0.79641767777502536773681640625</LongitudeDegrees>
            </Position>
            <AltitudeMeters>350.399993896484375</AltitudeMeters>
            <DistanceMeters>661.16504328324</DistanceMeters>
          </Trackpoint>
          <Trackpoint>
            <Time>2022-06-01T17:37:33.000Z</Time>
            <Position>
              <LatitudeDegrees>39.41788843832910060882568359375</LatitudeDegrees>
              <LongitudeDegrees>-0.79657425172626972198486328125</LongitudeDegrees>
            </Position>
            <AltitudeMeters>350.399993896484375</AltitudeMeters>
            <DistanceMeters>674.66418927989</DistanceMeters>
          </Trackpoint>
          <Trackpoint>
            <Time>2022-06-01T17:37:37.000Z</Time>
            <Position>
              <LatitudeDegrees>39.417862705886363983154296875</LatitudeDegrees>
              <LongitudeDegrees>-0.7967278920114040374755859375</LongitudeDegrees>
            </Position>
            <AltitudeMeters>351.20001220703125</AltitudeMeters>
            <DistanceMeters>688.1813845055</DistanceMeters>
          </Trackpoint>
          <Trackpoint>
            <Time>2022-06-01T17:37:38.000Z</Time>
            <Position>
              <LatitudeDegrees>39.417848624289035797119140625</LatitudeDegrees>
              <LongitudeDegrees>-0.796766616404056549072265625</LongitudeDegrees>
            </Position>
            <AltitudeMeters>351.399993896484375</AltitudeMeters>
            <DistanceMeters>691.86175332749</DistanceMeters>
          </Trackpoint>
          <Trackpoint>
            <Time>2022-06-01T17:37:43.000Z</Time>
            <Position>
              <LatitudeDegrees>39.41778131760656833648681640625</LatitudeDegrees>
              <LongitudeDegrees>-0.79696048982441425323486328125</LongitudeDegrees>
            </Position>
            <AltitudeMeters>350.79998779296875</AltitudeMeters>
            <DistanceMeters>710.13803652901</DistanceMeters>
          </Trackpoint>
          <Trackpoint>
            <Time>2022-06-01T17:37:47.000Z</Time>
            <Position>
              <LatitudeDegrees>39.41776321269571781158447265625</LatitudeDegrees>
              <LongitudeDegrees>-0.79712712205946445465087890625</LongitudeDegrees>
            </Position>
            <AltitudeMeters>350.79998779296875</AltitudeMeters>
            <DistanceMeters>724.60708253339</DistanceMeters>
          </Trackpoint>
          <Trackpoint>
            <Time>2022-06-01T17:37:48.000Z</Time>
            <Position>
              <LatitudeDegrees>39.4177616201341152191162109375</LatitudeDegrees>
              <LongitudeDegrees>-0.79716785810887813568115234375</LongitudeDegrees>
            </Position>
            <AltitudeMeters>350.79998779296875</AltitudeMeters>
            <DistanceMeters>728.11407043138</DistanceMeters>
          </Trackpoint>
          <Trackpoint>
            <Time>2022-06-01T17:37:53.000Z</Time>
            <Position>
              <LatitudeDegrees>39.417767487466335296630859375</LatitudeDegrees>
              <LongitudeDegrees>-0.79731278121471405029296875</LongitudeDegrees>
            </Position>
            <AltitudeMeters>350.79998779296875</AltitudeMeters>
            <DistanceMeters>740.59263758469</DistanceMeters>
          </Trackpoint>
          <Trackpoint>
            <Time>2022-06-01T17:37:57.000Z</Time>
            <Position>
              <LatitudeDegrees>39.4177837483584880828857421875</LatitudeDegrees>
              <LongitudeDegrees>-0.79746407456696033477783203125</LongitudeDegrees>
            </Position>
            <AltitudeMeters>351</AltitudeMeters>
            <DistanceMeters>753.72696590346</DistanceMeters>
          </Trackpoint>
          <Trackpoint>
            <Time>2022-06-01T17:38:01.000Z</Time>
            <Position>
              <LatitudeDegrees>39.41783211193978786468505859375</LatitudeDegrees>
              <LongitudeDegrees>-0.79758703708648681640625</LongitudeDegrees>
            </Position>
            <AltitudeMeters>351</AltitudeMeters>
            <DistanceMeters>765.59085234644</DistanceMeters>
          </Trackpoint>
          <Trackpoint>
            <Time>2022-06-01T17:38:03.000Z</Time>
            <Position>
              <LatitudeDegrees>39.4178484566509723663330078125</LatitudeDegrees>
              <LongitudeDegrees>-0.79765501432120800018310546875</LongitudeDegrees>
            </Position>
            <AltitudeMeters>351.600006103515625</AltitudeMeters>
            <DistanceMeters>771.71104491609</DistanceMeters>
          </Trackpoint>
          <Trackpoint>
            <Time>2022-06-01T17:38:08.000Z</Time>
            <Position>
              <LatitudeDegrees>39.41788692958652973175048828125</LatitudeDegrees>
              <LongitudeDegrees>-0.79785651527345180511474609375</LongitudeDegrees>
            </Position>
            <AltitudeMeters>350.79998779296875</AltitudeMeters>
            <DistanceMeters>789.55836730585</DistanceMeters>
          </Trackpoint>
          <Trackpoint>
            <Time>2022-06-01T17:38:12.000Z</Time>
            <Position>
              <LatitudeDegrees>39.4179252348840236663818359375</LatitudeDegrees>
              <LongitudeDegrees>-0.79799163155257701873779296875</LongitudeDegrees>
            </Position>
            <AltitudeMeters>351</AltitudeMeters>
            <DistanceMeters>801.9341148213</DistanceMeters>
          </Trackpoint>
          <Trackpoint>
            <Time>2022-06-01T17:38:17.000Z</Time>
            <Position>
              <LatitudeDegrees>39.4179527275264263153076171875</LatitudeDegrees>
              <LongitudeDegrees>-0.7981672324240207672119140625</LongitudeDegrees>
            </Position>
            <AltitudeMeters>350.79998779296875</AltitudeMeters>
            <DistanceMeters>817.34016977553</DistanceMeters>
          </Trackpoint>
          <Trackpoint>
            <Time>2022-06-01T17:38:18.000Z</Time>
            <Position>
              <LatitudeDegrees>39.41796052269637584686279296875</LatitudeDegrees>
              <LongitudeDegrees>-0.79819816164672374725341796875</LongitudeDegrees>
            </Position>
            <AltitudeMeters>350.600006103515625</AltitudeMeters>
            <DistanceMeters>820.13660432697</DistanceMeters>
          </Trackpoint>
          <Trackpoint>
            <Time>2022-06-01T17:38:22.000Z</Time>
            <Position>
              <LatitudeDegrees>39.41799254156649112701416015625</LatitudeDegrees>
              <LongitudeDegrees>-0.79830628819763660430908203125</LongitudeDegrees>
            </Position>
            <AltitudeMeters>350.600006103515625</AltitudeMeters>
            <DistanceMeters>830.09311873723</DistanceMeters>
          </Trackpoint>
          <Trackpoint>
            <Time>2022-06-01T17:38:23.000Z</Time>
            <Position>
              <LatitudeDegrees>39.41799723543226718902587890625</LatitudeDegrees>
              <LongitudeDegrees>-0.79832439310848712921142578125</LongitudeDegrees>
            </Position>
            <AltitudeMeters>350.79998779296875</AltitudeMeters>
            <DistanceMeters>831.73628423612</DistanceMeters>
          </Trackpoint>
          <Trackpoint>
            <Time>2022-06-01T17:38:27.000Z</Time>
            <Position>
              <LatitudeDegrees>39.417997486889362335205078125</LatitudeDegrees>
              <LongitudeDegrees>-0.79843386076390743255615234375</LongitudeDegrees>
            </Position>
            <AltitudeMeters>351</AltitudeMeters>
            <DistanceMeters>841.14872706419</DistanceMeters>
          </Trackpoint>
          <Trackpoint>
            <Time>2022-06-01T17:38:33.000Z</Time>
            <Position>
              <LatitudeDegrees>39.4180668890476226806640625</LatitudeDegrees>
              <LongitudeDegrees>-0.79860032536089420318603515625</LongitudeDegrees>
            </Position>
            <AltitudeMeters>351</AltitudeMeters>
            <DistanceMeters>857.41357011607</DistanceMeters>
          </Trackpoint>
          <Trackpoint>
            <Time>2022-06-01T17:38:37.000Z</Time>
            <Position>
              <LatitudeDegrees>39.41810552962124347686767578125</LatitudeDegrees>
              <LongitudeDegrees>-0.79869487322866916656494140625</LongitudeDegrees>
            </Position>
            <AltitudeMeters>352.20001220703125</AltitudeMeters>
            <DistanceMeters>866.61056560647</DistanceMeters>
          </Trackpoint>
          <Trackpoint>
            <Time>2022-06-01T17:38:38.000Z</Time>
            <Position>
              <LatitudeDegrees>39.41811055876314640045166015625</LatitudeDegrees>
              <LongitudeDegrees>-0.79872337169945240020751953125</LongitudeDegrees>
            </Position>
            <AltitudeMeters>352.600006103515625</AltitudeMeters>
            <DistanceMeters>869.12473614778</DistanceMeters>
          </Trackpoint>
          <Trackpoint>
            <Time>2022-06-01T17:38:39.000Z</Time>
            <Position>
              <LatitudeDegrees>39.418114162981510162353515625</LatitudeDegrees>
              <LongitudeDegrees>-0.79875270836055278778076171875</LongitudeDegrees>
            </Position>
            <AltitudeMeters>353.20001220703125</AltitudeMeters>
            <DistanceMeters>871.6816435269</DistanceMeters>
          </Trackpoint>
          <Trackpoint>
            <Time>2022-06-01T17:38:44.000Z</Time>
            <Position>
              <LatitudeDegrees>39.41815934143960475921630859375</LatitudeDegrees>
              <LongitudeDegrees>-0.798845328390598297119140625</LongitudeDegrees>
            </Position>
            <AltitudeMeters>354.399993896484375</AltitudeMeters>
            <DistanceMeters>881.10079959642</DistanceMeters>
          </Trackpoint>
          <Trackpoint>
            <Time>2022-06-01T17:38:47.000Z</Time>
            <Position>
              <LatitudeDegrees>39.4181773625314235687255859375</LatitudeDegrees>
              <LongitudeDegrees>-0.798880867660045623779296875</LongitudeDegrees>
            </Position>
            <AltitudeMeters>355.399993896484375</AltitudeMeters>
            <DistanceMeters>884.75655029047</DistanceMeters>
          </Trackpoint>
          <Trackpoint>
            <Time>2022-06-01T17:38:49.000Z</Time>
            <Position>
              <LatitudeDegrees>39.41816789098083972930908203125</LatitudeDegrees>
              <LongitudeDegrees>-0.79892034642398357391357421875</LongitudeDegrees>
            </Position>
            <AltitudeMeters>356</AltitudeMeters>
            <DistanceMeters>888.30958376465</DistanceMeters>
          </Trackpoint>
          <Trackpoint>
            <Time>2022-06-01T17:38:52.000Z</Time>
            <Position>
              <LatitudeDegrees>39.4181186892092227935791015625</LatitudeDegrees>
              <LongitudeDegrees>-0.7989745773375034332275390625</LongitudeDegrees>
            </Position>
            <AltitudeMeters>356.399993896484375</AltitudeMeters>
            <DistanceMeters>895.50217077819</DistanceMeters>
          </Trackpoint>
          <Trackpoint>
            <Time>2022-06-01T17:38:53.000Z</Time>
            <Position>
              <LatitudeDegrees>39.41808901727199554443359375</LatitudeDegrees>
              <LongitudeDegrees>-0.7989946939051151275634765625</LongitudeDegrees>
            </Position>
            <AltitudeMeters>356.600006103515625</AltitudeMeters>
            <DistanceMeters>899.23007738207</DistanceMeters>
          </Trackpoint>
          <Trackpoint>
            <Time>2022-06-01T17:38:56.000Z</Time>
            <Position>
              <LatitudeDegrees>39.4180073775351047515869140625</LatitudeDegrees>
              <LongitudeDegrees>-0.79902897588908672332763671875</LongitudeDegrees>
            </Position>
            <AltitudeMeters>356.79998779296875</AltitudeMeters>
            <DistanceMeters>908.78298021538</DistanceMeters>
          </Trackpoint>
          <Trackpoint>
            <Time>2022-06-01T17:39:01.000Z</Time>
            <Position>
              <LatitudeDegrees>39.41787972114980220794677734375</LatitudeDegrees>
              <LongitudeDegrees>-0.79900668002665042877197265625</LongitudeDegrees>
            </Position>
            <AltitudeMeters>357.20001220703125</AltitudeMeters>
            <DistanceMeters>923.1203670125</DistanceMeters>
          </Trackpoint>
          <Trackpoint>
            <Time>2022-06-01T17:39:04.000Z</Time>
            <Position>
              <LatitudeDegrees>39.41781652159988880157470703125</LatitudeDegrees>
              <LongitudeDegrees>-0.798962004482746124267578125</LongitudeDegrees>
            </Position>
            <AltitudeMeters>356.600006103515625</AltitudeMeters>
            <DistanceMeters>931.13478737494</DistanceMeters>
          </Trackpoint>
          <Trackpoint>
            <Time>2022-06-01T17:39:06.000Z</Time>
            <Position>
              <LatitudeDegrees>39.4177807308733463287353515625</LatitudeDegrees>
              <LongitudeDegrees>-0.79890509136021137237548828125</LongitudeDegrees>
            </Position>
            <AltitudeMeters>357</AltitudeMeters>
            <DistanceMeters>937.44530535034</DistanceMeters>
          </Trackpoint>
          <Trackpoint>
            <Time>2022-06-01T17:39:07.000Z</Time>
            <Position>
              <LatitudeDegrees>39.4177609495818614959716796875</LatitudeDegrees>
              <LongitudeDegrees>-0.79887508414685726165771484375</LongitudeDegrees>
            </Position>
            <AltitudeMeters>357.20001220703125</AltitudeMeters>
            <DistanceMeters>940.83710684654</DistanceMeters>
          </Trackpoint>
          <Trackpoint>
            <Time>2022-06-01T17:39:10.000Z</Time>
            <Position>
              <LatitudeDegrees>39.4177047908306121826171875</LatitudeDegrees>
              <LongitudeDegrees>-0.7987794466316699981689453125</LongitudeDegrees>
            </Position>
            <AltitudeMeters>357.79998779296875</AltitudeMeters>
            <DistanceMeters>951.16620909142</DistanceMeters>
          </Trackpoint>
          <Trackpoint>
            <Time>2022-06-01T17:39:11.000Z</Time>
            <Position>
              <LatitudeDegrees>39.41768668591976165771484375</LatitudeDegrees>
              <LongitudeDegrees>-0.79874784685671329498291015625</LongitudeDegrees>
            </Position>
            <AltitudeMeters>358</AltitudeMeters>
            <DistanceMeters>954.54867961672</DistanceMeters>
          </Trackpoint>
          <Trackpoint>
            <Time>2022-06-01T17:39:16.000Z</Time>
            <Position>
              <LatitudeDegrees>39.41760513000190258026123046875</LatitudeDegrees>
              <LongitudeDegrees>-0.79859328456223011016845703125</LongitudeDegrees>
            </Position>
            <AltitudeMeters>359.20001220703125</AltitudeMeters>
            <DistanceMeters>970.64273792152</DistanceMeters>
          </Trackpoint>
          <Trackpoint>
            <Time>2022-06-01T17:39:17.000Z</Time>
            <Position>
              <LatitudeDegrees>39.417590461671352386474609375</LatitudeDegrees>
              <LongitudeDegrees>-0.7985668815672397613525390625</LongitudeDegrees>
            </Position>
            <AltitudeMeters>359.399993896484375</AltitudeMeters>
            <DistanceMeters>973.43917247296</DistanceMeters>
          </Trackpoint>
          <Trackpoint>
            <Time>2022-06-01T17:39:22.000Z</Time>
            <Position>
              <LatitudeDegrees>39.4175094924867153167724609375</LatitudeDegrees>
              <LongitudeDegrees>-0.79841877333819866180419921875</LongitudeDegrees>
            </Position>
            <AltitudeMeters>360.20001220703125</AltitudeMeters>
            <DistanceMeters>989.0406374858</DistanceMeters>
          </Trackpoint>
          <Trackpoint>
            <Time>2022-06-01T17:39:28.000Z</Time>
            <Position>
              <LatitudeDegrees>39.41741134040057659149169921875</LatitudeDegrees>
              <LongitudeDegrees>-0.798225067555904388427734375</LongitudeDegrees>
            </Position>
            <AltitudeMeters>360.79998779296875</AltitudeMeters>
            <DistanceMeters>1008.9595606192</DistanceMeters>
          </Trackpoint>
          <Trackpoint>
            <Time>2022-06-01T17:39:30.000Z</Time>
            <Position>
              <LatitudeDegrees>39.417374543845653533935546875</LatitudeDegrees>
              <LongitudeDegrees>-0.79816698096692562103271484375</LongitudeDegrees>
            </Position>
            <AltitudeMeters>361.20001220703125</AltitudeMeters>
            <DistanceMeters>1015.4192806787</DistanceMeters>
          </Trackpoint>
          <Trackpoint>
            <Time>2022-06-01T17:39:31.000Z</Time>
            <Position>
              <LatitudeDegrees>39.4173596240580081939697265625</LatitudeDegrees>
              <LongitudeDegrees>-0.79813630320131778717041015625</LongitudeDegrees>
            </Position>
            <AltitudeMeters>361.399993896484375</AltitudeMeters>
            <DistanceMeters>1018.5363886739</DistanceMeters>
          </Trackpoint>
          <Trackpoint>
            <Time>2022-06-01T17:39:33.000Z</Time>
            <Position>
              <LatitudeDegrees>39.417327605187892913818359375</LatitudeDegrees>
              <LongitudeDegrees>-0.798075199127197265625</LongitudeDegrees>
            </Position>
            <AltitudeMeters>361.399993896484375</AltitudeMeters>
            <DistanceMeters>1024.8854249194</DistanceMeters>
          </Trackpoint>
          <Trackpoint>
            <Time>2022-06-01T17:39:35.000Z</Time>
            <Position>
              <LatitudeDegrees>39.417301453649997711181640625</LatitudeDegrees>
              <LongitudeDegrees>-0.79800747334957122802734375</LongitudeDegrees>
            </Position>
            <AltitudeMeters>362.20001220703125</AltitudeMeters>
            <DistanceMeters>1031.3952750522</DistanceMeters>
          </Trackpoint>
          <Trackpoint>
            <Time>2022-06-01T17:39:37.000Z</Time>
            <Position>
              <LatitudeDegrees>39.41728108562529087066650390625</LatitudeDegrees>
              <LongitudeDegrees>-0.79793413169682025909423828125</LongitudeDegrees>
            </Position>
            <AltitudeMeters>362.600006103515625</AltitudeMeters>
            <DistanceMeters>1038.0965115169</DistanceMeters>
          </Trackpoint>
          <Trackpoint>
            <Time>2022-06-01T17:39:41.000Z</Time>
            <Position>
              <LatitudeDegrees>39.417253844439983367919921875</LatitudeDegrees>
              <LongitudeDegrees>-0.7977632246911525726318359375</LongitudeDegrees>
            </Position>
            <AltitudeMeters>363.399993896484375</AltitudeMeters>
            <DistanceMeters>1053.1014072505</DistanceMeters>
          </Trackpoint>
          <Trackpoint>
            <Time>2022-06-01T17:39:43.000Z</Time>
            <Position>
              <LatitudeDegrees>39.41724403761327266693115234375</LatitudeDegrees>
              <LongitudeDegrees>-0.79767462797462940216064453125</LongitudeDegrees>
            </Position>
            <AltitudeMeters>363.399993896484375</AltitudeMeters>
            <DistanceMeters>1060.7968111593</DistanceMeters>
          </Trackpoint>
          <Trackpoint>
            <Time>2022-06-01T17:39:48.000Z</Time>
            <Position>
              <LatitudeDegrees>39.41722542978823184967041015625</LatitudeDegrees>
              <LongitudeDegrees>-0.79746625386178493499755859375</LongitudeDegrees>
            </Position>
            <AltitudeMeters>364.399993896484375</AltitudeMeters>
            <DistanceMeters>1078.8328715334</DistanceMeters>
          </Trackpoint>
          <Trackpoint>
            <Time>2022-06-01T17:39:50.000Z</Time>
            <Position>
              <LatitudeDegrees>39.4172191433608531951904296875</LatitudeDegrees>
              <LongitudeDegrees>-0.7973934151232242584228515625</LongitudeDegrees>
            </Position>
            <AltitudeMeters>364.79998779296875</AltitudeMeters>
            <DistanceMeters>1085.1347979214</DistanceMeters>
          </Trackpoint>
          <Trackpoint>
            <Time>2022-06-01T17:39:56.000Z</Time>
            <Position>
              <LatitudeDegrees>39.41720187664031982421875</LatitudeDegrees>
              <LongitudeDegrees>-0.797176323831081390380859375</LongitudeDegrees>
            </Position>
            <AltitudeMeters>365.20001220703125</AltitudeMeters>
            <DistanceMeters>1103.9005891694</DistanceMeters>
          </Trackpoint>
          <Trackpoint>
            <Time>2022-06-01T17:39:57.000Z</Time>
            <Position>
              <LatitudeDegrees>39.41719718277454376220703125</LatitudeDegrees>
              <LongitudeDegrees>-0.79714103601872920989990234375</LongitudeDegrees>
            </Position>
            <AltitudeMeters>365.20001220703125</AltitudeMeters>
            <DistanceMeters>1106.9783400023</DistanceMeters>
          </Trackpoint>
          <Trackpoint>
            <Time>2022-06-01T17:40:00.000Z</Time>
            <Position>
              <LatitudeDegrees>39.4171842746436595916748046875</LatitudeDegrees>
              <LongitudeDegrees>-0.79703425057232379913330078125</LongitudeDegrees>
            </Position>
            <AltitudeMeters>365.79998779296875</AltitudeMeters>
            <DistanceMeters>1116.2725162037</DistanceMeters>
          </Trackpoint>
          <Trackpoint>
            <Time>2022-06-01T17:40:03.000Z</Time>
            <Position>
              <LatitudeDegrees>39.4171748869121074676513671875</LatitudeDegrees>
              <LongitudeDegrees>-0.7969250343739986419677734375</LongitudeDegrees>
            </Position>
            <AltitudeMeters>366.399993896484375</AltitudeMeters>
            <DistanceMeters>1125.7208671564</DistanceMeters>
          </Trackpoint>
          <Trackpoint>
            <Time>2022-06-01T17:40:07.000Z</Time>
            <Position>
              <LatitudeDegrees>39.41715954802930355072021484375</LatitudeDegrees>
              <LongitudeDegrees>-0.79676921479403972625732421875</LongitudeDegrees>
            </Position>
            <AltitudeMeters>366.79998779296875</AltitudeMeters>
            <DistanceMeters>1139.2273694542</DistanceMeters>
          </Trackpoint>
          <Trackpoint>
            <Time>2022-06-01T17:40:09.000Z</Time>
            <Position>
              <LatitudeDegrees>39.4171500764787197113037109375</LatitudeDegrees>
              <LongitudeDegrees>-0.7966898381710052490234375</LongitudeDegrees>
            </Position>
            <AltitudeMeters>367.399993896484375</AltitudeMeters>
            <DistanceMeters>1146.1336610624</DistanceMeters>
          </Trackpoint>
          <Trackpoint>
            <Time>2022-06-01T17:40:13.000Z</Time>
            <Position>
              <LatitudeDegrees>39.417135156691074371337890625</LatitudeDegrees>
              <LongitudeDegrees>-0.79652613960206508636474609375</LongitudeDegrees>
            </Position>
            <AltitudeMeters>368</AltitudeMeters>
            <DistanceMeters>1160.3066653486</DistanceMeters>
          </Trackpoint>
          <Trackpoint>
            <Time>2022-06-01T17:40:16.000Z</Time>
            <Position>
              <LatitudeDegrees>39.41712216474115848541259765625</LatitudeDegrees>
              <LongitudeDegrees>-0.796405188739299774169921875</LongitudeDegrees>
            </Position>
            <AltitudeMeters>368</AltitudeMeters>
            <DistanceMeters>1170.8070097896</DistanceMeters>
          </Trackpoint>
          <Trackpoint>
            <Time>2022-06-01T17:40:22.000Z</Time>
            <Position>
              <LatitudeDegrees>39.4170937500894069671630859375</LatitudeDegrees>
              <LongitudeDegrees>-0.79615381546318531036376953125</LongitudeDegrees>
            </Position>
            <AltitudeMeters>368.600006103515625</AltitudeMeters>
            <DistanceMeters>1192.6517892502</DistanceMeters>
          </Trackpoint>
          <Trackpoint>
            <Time>2022-06-01T17:40:24.000Z</Time>
            <Position>
              <LatitudeDegrees>39.41708478145301342010498046875</LatitudeDegrees>
              <LongitudeDegrees>-0.79607762396335601806640625</LongitudeDegrees>
            </Position>
            <AltitudeMeters>369.20001220703125</AltitudeMeters>
            <DistanceMeters>1199.2778160891</DistanceMeters>
          </Trackpoint>
          <Trackpoint>
            <Time>2022-06-01T17:40:27.000Z</Time>
            <Position>
              <LatitudeDegrees>39.41706843674182891845703125</LatitudeDegrees>
              <LongitudeDegrees>-0.79597427509725093841552734375</LongitudeDegrees>
            </Position>
            <AltitudeMeters>369.399993896484375</AltitudeMeters>
            <DistanceMeters>1208.3482640649</DistanceMeters>
          </Trackpoint>
          <Trackpoint>
            <Time>2022-06-01T17:40:31.000Z</Time>
            <Position>
              <LatitudeDegrees>39.41703449003398418426513671875</LatitudeDegrees>
              <LongitudeDegrees>-0.7958368957042694091796875</LongitudeDegrees>
            </Position>
            <AltitudeMeters>370.20001220703125</AltitudeMeters>
            <DistanceMeters>1220.7506155414</DistanceMeters>
          </Trackpoint>
          <Trackpoint>
            <Time>2022-06-01T17:40:33.000Z</Time>
            <Position>
              <LatitudeDegrees>39.41701504401862621307373046875</LatitudeDegrees>
              <LongitudeDegrees>-0.79577042721211910247802734375</LongitudeDegrees>
            </Position>
            <AltitudeMeters>370.600006103515625</AltitudeMeters>
            <DistanceMeters>1226.8619489615</DistanceMeters>
          </Trackpoint>
          <Trackpoint>
            <Time>2022-06-01T17:40:37.000Z</Time>
            <Position>
              <LatitudeDegrees>39.4169676862657070159912109375</LatitudeDegrees>
              <LongitudeDegrees>-0.79564034007489681243896484375</LongitudeDegrees>
            </Position>
            <AltitudeMeters>371.399993896484375</AltitudeMeters>
            <DistanceMeters>1239.2278421562</DistanceMeters>
          </Trackpoint>
          <Trackpoint>
            <Time>2022-06-01T17:40:40.000Z</Time>
            <Position>
              <LatitudeDegrees>39.4169197417795658111572265625</LatitudeDegrees>
              <LongitudeDegrees>-0.7955493964254856109619140625</LongitudeDegrees>
            </Position>
            <AltitudeMeters>371.600006103515625</AltitudeMeters>
            <DistanceMeters>1248.6952884213</DistanceMeters>
          </Trackpoint>
          <Trackpoint>
            <Time>2022-06-01T17:40:45.000Z</Time>
            <Position>
              <LatitudeDegrees>39.4168330729007720947265625</LatitudeDegrees>
              <LongitudeDegrees>-0.79541687853634357452392578125</LongitudeDegrees>
            </Position>
            <AltitudeMeters>372.399993896484375</AltitudeMeters>
            <DistanceMeters>1263.6250709697</DistanceMeters>
          </Trackpoint>
          <Trackpoint>
            <Time>2022-06-01T17:40:52.000Z</Time>
            <Position>
              <LatitudeDegrees>39.4167192466557025909423828125</LatitudeDegrees>
              <LongitudeDegrees>-0.79526960849761962890625</LongitudeDegrees>
            </Position>
            <AltitudeMeters>373.600006103515625</AltitudeMeters>
            <DistanceMeters>1281.5375436133</DistanceMeters>
          </Trackpoint>
          <Trackpoint>
            <Time>2022-06-01T17:40:58.000Z</Time>
            <Position>
              <LatitudeDegrees>39.41661774180829524993896484375</LatitudeDegrees>
              <LongitudeDegrees>-0.79514178447425365447998046875</LongitudeDegrees>
            </Position>
            <AltitudeMeters>374.399993896484375</AltitudeMeters>
            <DistanceMeters>1297.2993792655</DistanceMeters>
          </Trackpoint>
          <Trackpoint>
            <Time>2022-06-01T17:40:59.000Z</Time>
            <Position>
              <LatitudeDegrees>39.41659980453550815582275390625</LatitudeDegrees>
              <LongitudeDegrees>-0.79511965624988079071044921875</LongitudeDegrees>
            </Position>
            <AltitudeMeters>374.600006103515625</AltitudeMeters>
            <DistanceMeters>1300.0567918871</DistanceMeters>
          </Trackpoint>
          <Trackpoint>
            <Time>2022-06-01T17:41:06.000Z</Time>
            <Position>
              <LatitudeDegrees>39.4164736568927764892578125</LatitudeDegrees>
              <LongitudeDegrees>-0.79494707286357879638671875</LongitudeDegrees>
            </Position>
            <AltitudeMeters>375.600006103515625</AltitudeMeters>
            <DistanceMeters>1320.4859884715</DistanceMeters>
          </Trackpoint>
          <Trackpoint>
            <Time>2022-06-01T17:41:12.000Z</Time>
            <Position>
              <LatitudeDegrees>39.41635706461966037750244140625</LatitudeDegrees>
              <LongitudeDegrees>-0.79479821026325225830078125</LongitudeDegrees>
            </Position>
            <AltitudeMeters>376.399993896484375</AltitudeMeters>
            <DistanceMeters>1338.7132914132</DistanceMeters>
          </Trackpoint>
          <Trackpoint>
            <Time>2022-06-01T17:41:13.000Z</Time>
            <Position>
              <LatitudeDegrees>39.41633560694754123687744140625</LatitudeDegrees>
              <LongitudeDegrees>-0.79477415420114994049072265625</LongitudeDegrees>
            </Position>
            <AltitudeMeters>377</AltitudeMeters>
            <DistanceMeters>1341.8735547799</DistanceMeters>
          </Trackpoint>
          <Trackpoint>
            <Time>2022-06-01T17:41:17.000Z</Time>
            <Position>
              <LatitudeDegrees>39.4162429869174957275390625</LatitudeDegrees>
              <LongitudeDegrees>-0.79466870985925197601318359375</LongitudeDegrees>
            </Position>
            <AltitudeMeters>377.399993896484375</AltitudeMeters>
            <DistanceMeters>1355.602202038</DistanceMeters>
          </Trackpoint>
          <Trackpoint>
            <Time>2022-06-01T17:41:20.000Z</Time>
            <Position>
              <LatitudeDegrees>39.41617668606340885162353515625</LatitudeDegrees>
              <LongitudeDegrees>-0.794608108699321746826171875</LongitudeDegrees>
            </Position>
            <AltitudeMeters>377.79998779296875</AltitudeMeters>
            <DistanceMeters>1364.6362393913</DistanceMeters>
          </Trackpoint>
          <Trackpoint>
            <Time>2022-06-01T17:41:21.000Z</Time>
            <Position>
              <LatitudeDegrees>39.41615355201065540313720703125</LatitudeDegrees>
              <LongitudeDegrees>-0.79459427855908870697021484375</LongitudeDegrees>
            </Position>
            <AltitudeMeters>378</AltitudeMeters>
            <DistanceMeters>1367.4711587967</DistanceMeters>
          </Trackpoint>
          <Trackpoint>
            <Time>2022-06-01T17:41:22.000Z</Time>
            <Position>
              <LatitudeDegrees>39.41612874157726764678955078125</LatitudeDegrees>
              <LongitudeDegrees>-0.7945821247994899749755859375</LongitudeDegrees>
            </Position>
            <AltitudeMeters>378.600006103515625</AltitudeMeters>
            <DistanceMeters>1370.4246404447</DistanceMeters>
          </Trackpoint>
          <Trackpoint>
            <Time>2022-06-01T17:41:23.000Z</Time>
            <Position>
              <LatitudeDegrees>39.41610409878194332122802734375</LatitudeDegrees>
              <LongitudeDegrees>-0.79457449726760387420654296875</LongitudeDegrees>
            </Position>
            <AltitudeMeters>379.20001220703125</AltitudeMeters>
            <DistanceMeters>1373.2467898779</DistanceMeters>
          </Trackpoint>
          <Trackpoint>
            <Time>2022-06-01T17:41:27.000Z</Time>
            <Position>
              <LatitudeDegrees>39.416026733815670013427734375</LatitudeDegrees>
              <LongitudeDegrees>-0.79461556859314441680908203125</LongitudeDegrees>
            </Position>
            <AltitudeMeters>380</AltitudeMeters>
            <DistanceMeters>1382.5535881056</DistanceMeters>
          </Trackpoint>
          <Trackpoint>
            <Time>2022-06-01T17:41:29.000Z</Time>
            <Position>
              <LatitudeDegrees>39.41601357422769069671630859375</LatitudeDegrees>
              <LongitudeDegrees>-0.79465831629931926727294921875</LongitudeDegrees>
            </Position>
            <AltitudeMeters>380.20001220703125</AltitudeMeters>
            <DistanceMeters>1386.510626462</DistanceMeters>
          </Trackpoint>
          <Trackpoint>
            <Time>2022-06-01T17:41:31.000Z</Time>
            <Position>
              <LatitudeDegrees>39.41601038910448551177978515625</LatitudeDegrees>
              <LongitudeDegrees>-0.79470290802419185638427734375</LongitudeDegrees>
            </Position>
            <AltitudeMeters>380.600006103515625</AltitudeMeters>
            <DistanceMeters>1390.3612608929</DistanceMeters>
          </Trackpoint>
          <Trackpoint>
            <Time>2022-06-01T17:41:33.000Z</Time>
            <Position>
              <LatitudeDegrees>39.41600686870515346527099609375</LatitudeDegrees>
              <LongitudeDegrees>-0.79473693855106830596923828125</LongitudeDegrees>
            </Position>
            <AltitudeMeters>381.399993896484375</AltitudeMeters>
            <DistanceMeters>1393.3147425409</DistanceMeters>
          </Trackpoint>
          <Trackpoint>
            <Time>2022-06-01T17:41:36.000Z</Time>
            <Position>
              <LatitudeDegrees>39.41600083373486995697021484375</LatitudeDegrees>
              <LongitudeDegrees>-0.79477675259113311767578125</LongitudeDegrees>
            </Position>
            <AltitudeMeters>381.600006103515625</AltitudeMeters>
            <DistanceMeters>1396.8036597148</DistanceMeters>
          </Trackpoint>
          <Trackpoint>
            <Time>2022-06-01T17:41:37.000Z</Time>
            <Position>
              <LatitudeDegrees>39.4159980677068233489990234375</LatitudeDegrees>
              <LongitudeDegrees>-0.7947876490652561187744140625</LongitudeDegrees>
            </Position>
            <AltitudeMeters>382</AltitudeMeters>
            <DistanceMeters>1397.7957677394</DistanceMeters>
          </Trackpoint>
          <Trackpoint>
            <Time>2022-06-01T17:41:38.000Z</Time>
            <Position>
              <LatitudeDegrees>39.4159947149455547332763671875</LatitudeDegrees>
              <LongitudeDegrees>-0.794798545539379119873046875</LongitudeDegrees>
            </Position>
            <AltitudeMeters>382.600006103515625</AltitudeMeters>
            <DistanceMeters>1398.8059155692</DistanceMeters>
          </Trackpoint>
          <Trackpoint>
            <Time>2022-06-01T17:41:39.000Z</Time>
            <Position>
              <LatitudeDegrees>39.415991194546222686767578125</LatitudeDegrees>
              <LongitudeDegrees>-0.79480885528028011322021484375</LongitudeDegrees>
            </Position>
            <AltitudeMeters>382.79998779296875</AltitudeMeters>
            <DistanceMeters>1399.775001711</DistanceMeters>
          </Trackpoint>
          <Trackpoint>
            <Time>2022-06-01T17:41:42.000Z</Time>
            <Position>
              <LatitudeDegrees>39.415988512337207794189453125</LatitudeDegrees>
              <LongitudeDegrees>-0.79483819194138050079345703125</LongitudeDegrees>
            </Position>
            <AltitudeMeters>383.399993896484375</AltitudeMeters>
            <DistanceMeters>1402.3141894908</DistanceMeters>
          </Trackpoint>
          <Trackpoint>
            <Time>2022-06-01T17:41:44.000Z</Time>
            <Position>
              <LatitudeDegrees>39.41597853787243366241455078125</LatitudeDegrees>
              <LongitudeDegrees>-0.794858224689960479736328125</LongitudeDegrees>
            </Position>
            <AltitudeMeters>383.79998779296875</AltitudeMeters>
            <DistanceMeters>1404.3655343235</DistanceMeters>
          </Trackpoint>
          <Trackpoint>
            <Time>2022-06-01T17:41:47.000Z</Time>
            <Position>
              <LatitudeDegrees>39.415963031351566314697265625</LatitudeDegrees>
              <LongitudeDegrees>-0.79490482807159423828125</LongitudeDegrees>
            </Position>
            <AltitudeMeters>384.79998779296875</AltitudeMeters>
            <DistanceMeters>1408.7295269015</DistanceMeters>
          </Trackpoint>
          <Trackpoint>
            <Time>2022-06-01T17:41:48.000Z</Time>
            <Position>
              <LatitudeDegrees>39.41596546210348606109619140625</LatitudeDegrees>
              <LongitudeDegrees>-0.79492134042084217071533203125</LongitudeDegrees>
            </Position>
            <AltitudeMeters>385</AltitudeMeters>
            <DistanceMeters>1410.1769306927</DistanceMeters>
          </Trackpoint>
          <Trackpoint>
            <Time>2022-06-01T17:41:51.000Z</Time>
            <Position>
              <LatitudeDegrees>39.415989182889461517333984375</LatitudeDegrees>
              <LongitudeDegrees>-0.794965513050556182861328125</LongitudeDegrees>
            </Position>
            <AltitudeMeters>386</AltitudeMeters>
            <DistanceMeters>1414.8030825679</DistanceMeters>
          </Trackpoint>
          <Trackpoint>
            <Time>2022-06-01T17:41:52.000Z</Time>
            <Position>
              <LatitudeDegrees>39.4159957207739353179931640625</LatitudeDegrees>
              <LongitudeDegrees>-0.7949790917336940765380859375</LongitudeDegrees>
            </Position>
            <AltitudeMeters>386.399993896484375</AltitudeMeters>
            <DistanceMeters>1416.1768678411</DistanceMeters>
          </Trackpoint>
          <Trackpoint>
            <Time>2022-06-01T17:41:56.000Z</Time>
            <Position>
              <LatitudeDegrees>39.41601759754121303558349609375</LatitudeDegrees>
              <LongitudeDegrees>-0.795025862753391265869140625</LongitudeDegrees>
            </Position>
            <AltitudeMeters>387.20001220703125</AltitudeMeters>
            <DistanceMeters>1420.8775696034</DistanceMeters>
          </Trackpoint>
          <Trackpoint>
            <Time>2022-06-01T17:41:58.000Z</Time>
            <Position>
              <LatitudeDegrees>39.41602899692952632904052734375</LatitudeDegrees>
              <LongitudeDegrees>-0.79504363238811492919921875</LongitudeDegrees>
            </Position>
            <AltitudeMeters>387.600006103515625</AltitudeMeters>
            <DistanceMeters>1422.8617856525</DistanceMeters>
          </Trackpoint>
          <Trackpoint>
            <Time>2022-06-01T17:42:00.000Z</Time>
            <Position>
              <LatitudeDegrees>39.4160362891852855682373046875</LatitudeDegrees>
              <LongitudeDegrees>-0.79506165347993373870849609375</LongitudeDegrees>
            </Position>
            <AltitudeMeters>388.399993896484375</AltitudeMeters>
            <DistanceMeters>1424.6139916881</DistanceMeters>
          </Trackpoint>
          <Trackpoint>
            <Time>2022-06-01T17:42:03.000Z</Time>
            <Position>
              <LatitudeDegrees>39.41605112515389919281005859375</LatitudeDegrees>
              <LongitudeDegrees>-0.79510423354804515838623046875</LongitudeDegrees>
            </Position>
            <AltitudeMeters>389.20001220703125</AltitudeMeters>
            <DistanceMeters>1428.6299245223</DistanceMeters>
          </Trackpoint>
          <Trackpoint>
            <Time>2022-06-01T17:42:04.000Z</Time>
            <Position>
              <LatitudeDegrees>39.41605632193386554718017578125</LatitudeDegrees>
              <LongitudeDegrees>-0.79511647112667560577392578125</LongitudeDegrees>
            </Position>
            <AltitudeMeters>389.399993896484375</AltitudeMeters>
            <DistanceMeters>1429.8243918002</DistanceMeters>
          </Trackpoint>
          <Trackpoint>
            <Time>2022-06-01T17:42:07.000Z</Time>
            <Position>
              <LatitudeDegrees>39.4160711579024791717529296875</LatitudeDegrees>
              <LongitudeDegrees>-0.79514580778777599334716796875</LongitudeDegrees>
            </Position>
            <AltitudeMeters>390.20001220703125</AltitudeMeters>
            <DistanceMeters>1432.8413964498</DistanceMeters>
          </Trackpoint>
          <Trackpoint>
            <Time>2022-06-01T17:42:08.000Z</Time>
            <Position>
              <LatitudeDegrees>39.41607459448277950286865234375</LatitudeDegrees>
              <LongitudeDegrees>-0.795157290995121002197265625</LongitudeDegrees>
            </Position>
            <AltitudeMeters>390.600006103515625</AltitudeMeters>
            <DistanceMeters>1433.8995691574</DistanceMeters>
          </Trackpoint>
          <Trackpoint>
            <Time>2022-06-01T17:42:12.000Z</Time>
            <Position>
              <LatitudeDegrees>39.41610828973352909088134765625</LatitudeDegrees>
              <LongitudeDegrees>-0.7951919920742511749267578125</LongitudeDegrees>
            </Position>
            <AltitudeMeters>391.600006103515625</AltitudeMeters>
            <DistanceMeters>1438.6925342598</DistanceMeters>
          </Trackpoint>
          <Trackpoint>
            <Time>2022-06-01T17:42:14.000Z</Time>
            <Position>
              <LatitudeDegrees>39.41613293252885341644287109375</LatitudeDegrees>
              <LongitudeDegrees>-0.79520029015839099884033203125</LongitudeDegrees>
            </Position>
            <AltitudeMeters>392.399993896484375</AltitudeMeters>
            <DistanceMeters>1441.5274536652</DistanceMeters>
          </Trackpoint>
          <Trackpoint>
            <Time>2022-06-01T17:42:15.000Z</Time>
            <Position>
              <LatitudeDegrees>39.4161425717175006866455078125</LatitudeDegrees>
              <LongitudeDegrees>-0.79520464874804019927978515625</LongitudeDegrees>
            </Position>
            <AltitudeMeters>392.600006103515625</AltitudeMeters>
            <DistanceMeters>1442.659827656</DistanceMeters>
          </Trackpoint>
          <Trackpoint>
            <Time>2022-06-01T17:42:20.000Z</Time>
            <Position>
              <LatitudeDegrees>39.41618137992918491363525390625</LatitudeDegrees>
              <LongitudeDegrees>-0.79524236731231212615966796875</LongitudeDegrees>
            </Position>
            <AltitudeMeters>393.79998779296875</AltitudeMeters>
            <DistanceMeters>1448.0604893668</DistanceMeters>
          </Trackpoint>
          <Trackpoint>
            <Time>2022-06-01T17:42:21.000Z</Time>
            <Position>
              <LatitudeDegrees>39.41618791781365871429443359375</LatitudeDegrees>
              <LongitudeDegrees>-0.79525150358676910400390625</LongitudeDegrees>
            </Position>
            <AltitudeMeters>394.20001220703125</AltitudeMeters>
            <DistanceMeters>1449.1355939128</DistanceMeters>
          </Trackpoint>
          <Trackpoint>
            <Time>2022-06-01T17:42:24.000Z</Time>
            <Position>
              <LatitudeDegrees>39.4162045978009700775146484375</LatitudeDegrees>
              <LongitudeDegrees>-0.795279331505298614501953125</LongitudeDegrees>
            </Position>
            <AltitudeMeters>395.20001220703125</AltitudeMeters>
            <DistanceMeters>1452.1645471424</DistanceMeters>
          </Trackpoint>
          <Trackpoint>
            <Time>2022-06-01T17:42:27.000Z</Time>
            <Position>
              <LatitudeDegrees>39.41621943376958370208740234375</LatitudeDegrees>
              <LongitudeDegrees>-0.79531294293701648712158203125</LongitudeDegrees>
            </Position>
            <AltitudeMeters>396.20001220703125</AltitudeMeters>
            <DistanceMeters>1455.493196087</DistanceMeters>
          </Trackpoint>
          <Trackpoint>
            <Time>2022-06-01T17:42:28.000Z</Time>
            <Position>
              <LatitudeDegrees>39.416227228939533233642578125</LatitudeDegrees>
              <LongitudeDegrees>-0.795331299304962158203125</LongitudeDegrees>
            </Position>
            <AltitudeMeters>396.399993896484375</AltitudeMeters>
            <DistanceMeters>1457.2962012229</DistanceMeters>
          </Trackpoint>
          <Trackpoint>
            <Time>2022-06-01T17:42:32.000Z</Time>
            <Position>
              <LatitudeDegrees>39.41626184619963169097900390625</LatitudeDegrees>
              <LongitudeDegrees>-0.7954243384301662445068359375</LongitudeDegrees>
            </Position>
            <AltitudeMeters>397.399993896484375</AltitudeMeters>
            <DistanceMeters>1466.1759888053</DistanceMeters>
          </Trackpoint>
          <Trackpoint>
            <Time>2022-06-01T17:42:33.000Z</Time>
            <Position>
              <LatitudeDegrees>39.4162729941308498382568359375</LatitudeDegrees>
              <LongitudeDegrees>-0.79544470645487308502197265625</LongitudeDegrees>
            </Position>
            <AltitudeMeters>397.399993896484375</AltitudeMeters>
            <DistanceMeters>1468.3219941609</DistanceMeters>
          </Trackpoint>
          <Trackpoint>
            <Time>2022-06-01T17:42:39.000Z</Time>
            <Position>
              <LatitudeDegrees>39.41631867550313472747802734375</LatitudeDegrees>
              <LongitudeDegrees>-0.7955510728061199188232421875</LongitudeDegrees>
            </Position>
            <AltitudeMeters>398.20001220703125</AltitudeMeters>
            <DistanceMeters>1478.7861571451</DistanceMeters>
          </Trackpoint>
          <Trackpoint>
            <Time>2022-06-01T17:42:40.000Z</Time>
            <Position>
              <LatitudeDegrees>39.41632370464503765106201171875</LatitudeDegrees>
              <LongitudeDegrees>-0.79556909389793872833251953125</LongitudeDegrees>
            </Position>
            <AltitudeMeters>398.399993896484375</AltitudeMeters>
            <DistanceMeters>1480.4348090215</DistanceMeters>
          </Trackpoint>
          <Trackpoint>
            <Time>2022-06-01T17:42:43.000Z</Time>
            <Position>
              <LatitudeDegrees>39.4163353554904460906982421875</LatitudeDegrees>
              <LongitudeDegrees>-0.79561804421246051788330078125</LongitudeDegrees>
            </Position>
            <AltitudeMeters>399.399993896484375</AltitudeMeters>
            <DistanceMeters>1484.8389666256</DistanceMeters>
          </Trackpoint>
          <Trackpoint>
            <Time>2022-06-01T17:42:44.000Z</Time>
            <Position>
              <LatitudeDegrees>39.4163382053375244140625</LatitudeDegrees>
              <LongitudeDegrees>-0.79563179053366184234619140625</LongitudeDegrees>
            </Position>
            <AltitudeMeters>399.600006103515625</AltitudeMeters>
            <DistanceMeters>1486.0633001952</DistanceMeters>
          </Trackpoint>
          <Trackpoint>
            <Time>2022-06-01T17:42:46.000Z</Time>
            <Position>
              <LatitudeDegrees>39.41634449176490306854248046875</LatitudeDegrees>
              <LongitudeDegrees>-0.79566280357539653778076171875</LongitudeDegrees>
            </Position>
            <AltitudeMeters>400</AltitudeMeters>
            <DistanceMeters>1488.8207128168</DistanceMeters>
          </Trackpoint>
          <Trackpoint>
            <Time>2022-06-01T17:42:49.000Z</Time>
            <Position>
              <LatitudeDegrees>39.4163564778864383697509765625</LatitudeDegrees>
              <LongitudeDegrees>-0.7957079820334911346435546875</LongitudeDegrees>
            </Position>
            <AltitudeMeters>400.600006103515625</AltitudeMeters>
            <DistanceMeters>1492.9278021508</DistanceMeters>
          </Trackpoint>
          <Trackpoint>
            <Time>2022-06-01T17:42:50.000Z</Time>
            <Position>
              <LatitudeDegrees>39.4163631834089756011962890625</LatitudeDegrees>
              <LongitudeDegrees>-0.79571912996470928192138671875</LongitudeDegrees>
            </Position>
            <AltitudeMeters>401</AltitudeMeters>
            <DistanceMeters>1494.1372947651</DistanceMeters>
          </Trackpoint>
          <Trackpoint>
            <Time>2022-06-01T17:42:55.000Z</Time>
            <Position>
              <LatitudeDegrees>39.4163856469094753265380859375</LatitudeDegrees>
              <LongitudeDegrees>-0.79578467644751071929931640625</LongitudeDegrees>
            </Position>
            <AltitudeMeters>401.600006103515625</AltitudeMeters>
            <DistanceMeters>1500.303056829</DistanceMeters>
          </Trackpoint>
          <Trackpoint>
            <Time>2022-06-01T17:42:58.000Z</Time>
            <Position>
              <LatitudeDegrees>39.4163886643946170806884765625</LatitudeDegrees>
              <LongitudeDegrees>-0.79583882354199886322021484375</LongitudeDegrees>
            </Position>
            <AltitudeMeters>402</AltitudeMeters>
            <DistanceMeters>1504.9700199082</DistanceMeters>
          </Trackpoint>
          <Trackpoint>
            <Time>2022-06-01T17:43:01.000Z</Time>
            <Position>
              <LatitudeDegrees>39.4164017401635646820068359375</LatitudeDegrees>
              <LongitudeDegrees>-0.795897580683231353759765625</LongitudeDegrees>
            </Position>
            <AltitudeMeters>402.600006103515625</AltitudeMeters>
            <DistanceMeters>1510.2266380148</DistanceMeters>
          </Trackpoint>
          <Trackpoint>
            <Time>2022-06-01T17:43:04.000Z</Time>
            <Position>
              <LatitudeDegrees>39.41640718840062618255615234375</LatitudeDegrees>
              <LongitudeDegrees>-0.7959426753222942352294921875</LongitudeDegrees>
            </Position>
            <AltitudeMeters>403.20001220703125</AltitudeMeters>
            <DistanceMeters>1514.1504474313</DistanceMeters>
          </Trackpoint>
          <Trackpoint>
            <Time>2022-06-01T17:43:09.000Z</Time>
            <Position>
              <LatitudeDegrees>39.4164268858730792999267578125</LatitudeDegrees>
              <LongitudeDegrees>-0.79602758400142192840576171875</LongitudeDegrees>
            </Position>
            <AltitudeMeters>404.20001220703125</AltitudeMeters>
            <DistanceMeters>1521.7739356088</DistanceMeters>
          </Trackpoint>
          <Trackpoint>
            <Time>2022-06-01T17:43:12.000Z</Time>
            <Position>
              <LatitudeDegrees>39.41643409430980682373046875</LatitudeDegrees>
              <LongitudeDegrees>-0.796075277030467987060546875</LongitudeDegrees>
            </Position>
            <AltitudeMeters>404.79998779296875</AltitudeMeters>
            <DistanceMeters>1525.952950785</DistanceMeters>
          </Trackpoint>
          <Trackpoint>
            <Time>2022-06-01T17:43:14.000Z</Time>
            <Position>
              <LatitudeDegrees>39.41643903963267803192138671875</LatitudeDegrees>
              <LongitudeDegrees>-0.796106122434139251708984375</LongitudeDegrees>
            </Position>
            <AltitudeMeters>405.20001220703125</AltitudeMeters>
            <DistanceMeters>1528.6607953286</DistanceMeters>
          </Trackpoint>
          <Trackpoint>
            <Time>2022-06-01T17:43:16.000Z</Time>
            <Position>
              <LatitudeDegrees>39.4164342619478702545166015625</LatitudeDegrees>
              <LongitudeDegrees>-0.79614291898906230926513671875</LongitudeDegrees>
            </Position>
            <AltitudeMeters>405.399993896484375</AltitudeMeters>
            <DistanceMeters>1531.8692664826</DistanceMeters>
          </Trackpoint>
          <Trackpoint>
            <Time>2022-06-01T17:43:19.000Z</Time>
            <Position>
              <LatitudeDegrees>39.4164268858730792999267578125</LatitudeDegrees>
              <LongitudeDegrees>-0.79620745964348316192626953125</LongitudeDegrees>
            </Position>
            <AltitudeMeters>406</AltitudeMeters>
            <DistanceMeters>1537.4798677413</DistanceMeters>
          </Trackpoint>
          <Trackpoint>
            <Time>2022-06-01T17:43:21.000Z</Time>
            <Position>
              <LatitudeDegrees>39.41642160527408123016357421875</LatitudeDegrees>
              <LongitudeDegrees>-0.7962497882544994354248046875</LongitudeDegrees>
            </Position>
            <AltitudeMeters>406.600006103515625</AltitudeMeters>
            <DistanceMeters>1541.1675899549</DistanceMeters>
          </Trackpoint>
          <Trackpoint>
            <Time>2022-06-01T17:43:23.000Z</Time>
            <Position>
              <LatitudeDegrees>39.41641531884670257568359375</LatitudeDegrees>
              <LongitudeDegrees>-0.79629127867519855499267578125</LongitudeDegrees>
            </Position>
            <AltitudeMeters>406.600006103515625</AltitudeMeters>
            <DistanceMeters>1544.8035261361</DistanceMeters>
          </Trackpoint>
          <Trackpoint>
            <Time>2022-06-01T17:43:29.000Z</Time>
            <Position>
              <LatitudeDegrees>39.41637651063501834869384765625</LatitudeDegrees>
              <LongitudeDegrees>-0.79638314433395862579345703125</LongitudeDegrees>
            </Position>
            <AltitudeMeters>407.79998779296875</AltitudeMeters>
            <DistanceMeters>1553.806523757</DistanceMeters>
          </Trackpoint>
          <Trackpoint>
            <Time>2022-06-01T17:43:30.000Z</Time>
            <Position>
              <LatitudeDegrees>39.41637030802667140960693359375</LatitudeDegrees>
              <LongitudeDegrees>-0.7964003272354602813720703125</LongitudeDegrees>
            </Position>
            <AltitudeMeters>408</AltitudeMeters>
            <DistanceMeters>1555.4414251691</DistanceMeters>
          </Trackpoint>
          <Trackpoint>
            <Time>2022-06-01T17:43:37.000Z</Time>
            <Position>
              <LatitudeDegrees>39.41632437519729137420654296875</LatitudeDegrees>
              <LongitudeDegrees>-0.79650409519672393798828125</LongitudeDegrees>
            </Position>
            <AltitudeMeters>409</AltitudeMeters>
            <DistanceMeters>1565.7245275783</DistanceMeters>
          </Trackpoint>
          <Trackpoint>
            <Time>2022-06-01T17:43:38.000Z</Time>
            <Position>
              <LatitudeDegrees>39.41631180234253406524658203125</LatitudeDegrees>
              <LongitudeDegrees>-0.79651541076600551605224609375</LongitudeDegrees>
            </Position>
            <AltitudeMeters>409.20001220703125</AltitudeMeters>
            <DistanceMeters>1567.4244171224</DistanceMeters>
          </Trackpoint>
          <Trackpoint>
            <Time>2022-06-01T17:43:43.000Z</Time>
            <Position>
              <LatitudeDegrees>39.4162582419812679290771484375</LatitudeDegrees>
              <LongitudeDegrees>-0.79657626338303089141845703125</LongitudeDegrees>
            </Position>
            <AltitudeMeters>410.20001220703125</AltitudeMeters>
            <DistanceMeters>1575.356159843</DistanceMeters>
          </Trackpoint>
          <Trackpoint>
            <Time>2022-06-01T17:43:45.000Z</Time>
            <Position>
              <LatitudeDegrees>39.41623753868043422698974609375</LatitudeDegrees>
              <LongitudeDegrees>-0.79660744406282901763916015625</LongitudeDegrees>
            </Position>
            <AltitudeMeters>410.600006103515625</AltitudeMeters>
            <DistanceMeters>1578.8913579701</DistanceMeters>
          </Trackpoint>
          <Trackpoint>
            <Time>2022-06-01T17:43:47.000Z</Time>
            <Position>
              <LatitudeDegrees>39.4162186793982982635498046875</LatitudeDegrees>
              <LongitudeDegrees>-0.796633176505565643310546875</LongitudeDegrees>
            </Position>
            <AltitudeMeters>411.399993896484375</AltitudeMeters>
            <DistanceMeters>1581.9411085726</DistanceMeters>
          </Trackpoint>
          <Trackpoint>
            <Time>2022-06-01T17:43:51.000Z</Time>
            <Position>
              <LatitudeDegrees>39.41620585508644580841064453125</LatitudeDegrees>
              <LongitudeDegrees>-0.7966957055032253265380859375</LongitudeDegrees>
            </Position>
            <AltitudeMeters>412</AltitudeMeters>
            <DistanceMeters>1587.5032162574</DistanceMeters>
          </Trackpoint>
          <Trackpoint>
            <Time>2022-06-01T17:43:53.000Z</Time>
            <Position>
              <LatitudeDegrees>39.41620183177292346954345703125</LatitudeDegrees>
              <LongitudeDegrees>-0.79673836939036846160888671875</LongitudeDegrees>
            </Position>
            <AltitudeMeters>412.79998779296875</AltitudeMeters>
            <DistanceMeters>1591.1982772289</DistanceMeters>
          </Trackpoint>
          <Trackpoint>
            <Time>2022-06-01T17:43:54.000Z</Time>
            <Position>
              <LatitudeDegrees>39.4161968864500522613525390625</LatitudeDegrees>
              <LongitudeDegrees>-0.79675915651023387908935546875</LongitudeDegrees>
            </Position>
            <AltitudeMeters>413.20001220703125</AltitudeMeters>
            <DistanceMeters>1593.0676727418</DistanceMeters>
          </Trackpoint>
          <Trackpoint>
            <Time>2022-06-01T17:43:56.000Z</Time>
            <Position>
              <LatitudeDegrees>39.4161898456513881683349609375</LatitudeDegrees>
              <LongitudeDegrees>-0.79680710099637508392333984375</LongitudeDegrees>
            </Position>
            <AltitudeMeters>414</AltitudeMeters>
            <DistanceMeters>1597.263938828</DistanceMeters>
          </Trackpoint>
          <Trackpoint>
            <Time>2022-06-01T17:43:58.000Z</Time>
            <Position>
              <LatitudeDegrees>39.41618464887142181396484375</LatitudeDegrees>
              <LongitudeDegrees>-0.79685420729219913482666015625</LongitudeDegrees>
            </Position>
            <AltitudeMeters>414.399993896484375</AltitudeMeters>
            <DistanceMeters>1601.3556086249</DistanceMeters>
          </Trackpoint>
          <Trackpoint>
            <Time>2022-06-01T17:44:03.000Z</Time>
            <Position>
              <LatitudeDegrees>39.41616050899028778076171875</LatitudeDegrees>
              <LongitudeDegrees>-0.79697423614561557769775390625</LongitudeDegrees>
            </Position>
            <AltitudeMeters>415</AltitudeMeters>
            <DistanceMeters>1612.0206375929</DistanceMeters>
          </Trackpoint>
          <Trackpoint>
            <Time>2022-06-01T17:44:04.000Z</Time>
            <Position>
              <LatitudeDegrees>39.41615380346775054931640625</LatitudeDegrees>
              <LongitudeDegrees>-0.7970004715025424957275390625</LongitudeDegrees>
            </Position>
            <AltitudeMeters>415.20001220703125</AltitudeMeters>
            <DistanceMeters>1614.3944041571</DistanceMeters>
          </Trackpoint>
          <Trackpoint>
            <Time>2022-06-01T17:44:09.000Z</Time>
            <Position>
              <LatitudeDegrees>39.41613645292818546295166015625</LatitudeDegrees>
              <LongitudeDegrees>-0.7971282117068767547607421875</LongitudeDegrees>
            </Position>
            <AltitudeMeters>416</AltitudeMeters>
            <DistanceMeters>1625.5469945709</DistanceMeters>
          </Trackpoint>
          <Trackpoint>
            <Time>2022-06-01T17:44:10.000Z</Time>
            <Position>
              <LatitudeDegrees>39.41613209433853626251220703125</LatitudeDegrees>
              <LongitudeDegrees>-0.797152183949947357177734375</LongitudeDegrees>
            </Position>
            <AltitudeMeters>416.20001220703125</AltitudeMeters>
            <DistanceMeters>1627.663339986</DistanceMeters>
          </Trackpoint>
          <Trackpoint>
            <Time>2022-06-01T17:44:11.000Z</Time>
            <Position>
              <LatitudeDegrees>39.41612706519663333892822265625</LatitudeDegrees>
              <LongitudeDegrees>-0.7971758209168910980224609375</LongitudeDegrees>
            </Position>
            <AltitudeMeters>416.600006103515625</AltitudeMeters>
            <DistanceMeters>1629.7711344757</DistanceMeters>
          </Trackpoint>
          <Trackpoint>
            <Time>2022-06-01T17:44:13.000Z</Time>
            <Position>
              <LatitudeDegrees>39.4161150790750980377197265625</LatitudeDegrees>
              <LongitudeDegrees>-0.79721395857632160186767578125</LongitudeDegrees>
            </Position>
            <AltitudeMeters>417.20001220703125</AltitudeMeters>
            <DistanceMeters>1633.3114375847</DistanceMeters>
          </Trackpoint>
          <Trackpoint>
            <Time>2022-06-01T17:44:14.000Z</Time>
            <Position>
              <LatitudeDegrees>39.41611080430448055267333984375</LatitudeDegrees>
              <LongitudeDegrees>-0.797231979668140411376953125</LongitudeDegrees>
            </Position>
            <AltitudeMeters>417.399993896484375</AltitudeMeters>
            <DistanceMeters>1634.9324718981</DistanceMeters>
          </Trackpoint>
          <Trackpoint>
            <Time>2022-06-01T17:44:15.000Z</Time>
            <Position>
              <LatitudeDegrees>39.41610728390514850616455078125</LatitudeDegrees>
              <LongitudeDegrees>-0.79724731855094432830810546875</LongitudeDegrees>
            </Position>
            <AltitudeMeters>417.79998779296875</AltitudeMeters>
            <DistanceMeters>1636.309539817</DistanceMeters>
          </Trackpoint>
          <Trackpoint>
            <Time>2022-06-01T17:44:18.000Z</Time>
            <Position>
              <LatitudeDegrees>39.4161040149629116058349609375</LatitudeDegrees>
              <LongitudeDegrees>-0.7972898148000240325927734375</LongitudeDegrees>
            </Position>
            <AltitudeMeters>418.600006103515625</AltitudeMeters>
            <DistanceMeters>1639.9825405259</DistanceMeters>
          </Trackpoint>
          <Trackpoint>
            <Time>2022-06-01T17:44:22.000Z</Time>
            <Position>
              <LatitudeDegrees>39.4161117263138294219970703125</LatitudeDegrees>
              <LongitudeDegrees>-0.79735460691154003143310546875</LongitudeDegrees>
            </Position>
            <AltitudeMeters>419.399993896484375</AltitudeMeters>
            <DistanceMeters>1645.6196354343</DistanceMeters>
          </Trackpoint>
          <Trackpoint>
            <Time>2022-06-01T17:44:23.000Z</Time>
            <Position>
              <LatitudeDegrees>39.41611063666641712188720703125</LatitudeDegrees>
              <LongitudeDegrees>-0.79737246036529541015625</LongitudeDegrees>
            </Position>
            <AltitudeMeters>419.79998779296875</AltitudeMeters>
            <DistanceMeters>1647.1577771795</DistanceMeters>
          </Trackpoint>
          <Trackpoint>
            <Time>2022-06-01T17:44:27.000Z</Time>
            <Position>
              <LatitudeDegrees>39.416095130145549774169921875</LatitudeDegrees>
              <LongitudeDegrees>-0.797445885837078094482421875</LongitudeDegrees>
            </Position>
            <AltitudeMeters>420.79998779296875</AltitudeMeters>
            <DistanceMeters>1653.7029038131</DistanceMeters>
          </Trackpoint>
          <Trackpoint>
            <Time>2022-06-01T17:44:30.000Z</Time>
            <Position>
              <LatitudeDegrees>39.4160792045295238494873046875</LatitudeDegrees>
              <LongitudeDegrees>-0.7975050620734691619873046875</LongitudeDegrees>
            </Position>
            <AltitudeMeters>421.600006103515625</AltitudeMeters>
            <DistanceMeters>1659.0918485933</DistanceMeters>
          </Trackpoint>
          <Trackpoint>
            <Time>2022-06-01T17:44:35.000Z</Time>
            <Position>
              <LatitudeDegrees>39.41604911349713802337646484375</LatitudeDegrees>
              <LongitudeDegrees>-0.7975989393889904022216796875</LongitudeDegrees>
            </Position>
            <AltitudeMeters>422.20001220703125</AltitudeMeters>
            <DistanceMeters>1667.8312070687</DistanceMeters>
          </Trackpoint>
          <Trackpoint>
            <Time>2022-06-01T17:44:37.000Z</Time>
            <Position>
              <LatitudeDegrees>39.41604316234588623046875</LatitudeDegrees>
              <LongitudeDegrees>-0.79764512367546558380126953125</LongitudeDegrees>
            </Position>
            <AltitudeMeters>422.399993896484375</AltitudeMeters>
            <DistanceMeters>1671.856124104</DistanceMeters>
          </Trackpoint>
          <Trackpoint>
            <Time>2022-06-01T17:44:41.000Z</Time>
            <Position>
              <LatitudeDegrees>39.416040144860744476318359375</LatitudeDegrees>
              <LongitudeDegrees>-0.79775400459766387939453125</LongitudeDegrees>
            </Position>
            <AltitudeMeters>423</AltitudeMeters>
            <DistanceMeters>1681.2248136087</DistanceMeters>
          </Trackpoint>
          <Trackpoint>
            <Time>2022-06-01T17:44:42.000Z</Time>
            <Position>
              <LatitudeDegrees>39.4160383008420467376708984375</LatitudeDegrees>
              <LongitudeDegrees>-0.79777990467846393585205078125</LongitudeDegrees>
            </Position>
            <AltitudeMeters>423</AltitudeMeters>
            <DistanceMeters>1683.4614768265</DistanceMeters>
          </Trackpoint>
          <Trackpoint>
            <Time>2022-06-01T17:44:43.000Z</Time>
            <Position>
              <LatitudeDegrees>39.41603452898561954498291015625</LatitudeDegrees>
              <LongitudeDegrees>-0.7978044636547565460205078125</LongitudeDegrees>
            </Position>
            <AltitudeMeters>423.20001220703125</AltitudeMeters>
            <DistanceMeters>1685.6158814524</DistanceMeters>
          </Trackpoint>
          <Trackpoint>
            <Time>2022-06-01T17:44:47.000Z</Time>
            <Position>
              <LatitudeDegrees>39.416038133203983306884765625</LatitudeDegrees>
              <LongitudeDegrees>-0.7979083992540836334228515625</LongitudeDegrees>
            </Position>
            <AltitudeMeters>423.399993896484375</AltitudeMeters>
            <DistanceMeters>1694.5620296472</DistanceMeters>
          </Trackpoint>
          <Trackpoint>
            <Time>2022-06-01T17:44:49.000Z</Time>
            <Position>
              <LatitudeDegrees>39.41603100858628749847412109375</LatitudeDegrees>
              <LongitudeDegrees>-0.79794921912252902984619140625</LongitudeDegrees>
            </Position>
            <AltitudeMeters>423.600006103515625</AltitudeMeters>
            <DistanceMeters>1698.1592646331</DistanceMeters>
          </Trackpoint>
          <Trackpoint>
            <Time>2022-06-01T17:44:52.000Z</Time>
            <Position>
              <LatitudeDegrees>39.41601910628378391265869140625</LatitudeDegrees>
              <LongitudeDegrees>-0.798001773655414581298828125</LongitudeDegrees>
            </Position>
            <AltitudeMeters>424.20001220703125</AltitudeMeters>
            <DistanceMeters>1702.866685115</DistanceMeters>
          </Trackpoint>
          <Trackpoint>
            <Time>2022-06-01T17:44:54.000Z</Time>
            <Position>
              <LatitudeDegrees>39.41602011211216449737548828125</LatitudeDegrees>
              <LongitudeDegrees>-0.79803404398262500762939453125</LongitudeDegrees>
            </Position>
            <AltitudeMeters>425</AltitudeMeters>
            <DistanceMeters>1705.6436772438</DistanceMeters>
          </Trackpoint>
          <Trackpoint>
            <Time>2022-06-01T17:44:55.000Z</Time>
            <Position>
              <LatitudeDegrees>39.41602027975022792816162109375</LatitudeDegrees>
              <LongitudeDegrees>-0.798056758940219879150390625</LongitudeDegrees>
            </Position>
            <AltitudeMeters>425.20001220703125</AltitudeMeters>
            <DistanceMeters>1707.5957766929</DistanceMeters>
          </Trackpoint>
          <Trackpoint>
            <Time>2022-06-01T17:44:56.000Z</Time>
            <Position>
              <LatitudeDegrees>39.4160176813602447509765625</LatitudeDegrees>
              <LongitudeDegrees>-0.798071511089801788330078125</LongitudeDegrees>
            </Position>
            <AltitudeMeters>425.600006103515625</AltitudeMeters>
            <DistanceMeters>1708.8952474679</DistanceMeters>
          </Trackpoint>
          <Trackpoint>
            <Time>2022-06-01T17:44:57.000Z</Time>
            <Position>
              <LatitudeDegrees>39.4160165078938007354736328125</LatitudeDegrees>
              <LongitudeDegrees>-0.7980850897729396820068359375</LongitudeDegrees>
            </Position>
            <AltitudeMeters>425.79998779296875</AltitudeMeters>
            <DistanceMeters>1710.0706630097</DistanceMeters>
          </Trackpoint>
          <Trackpoint>
            <Time>2022-06-01T17:45:00.000Z</Time>
            <Position>
              <LatitudeDegrees>39.41601424477994441986083984375</LatitudeDegrees>
              <LongitudeDegrees>-0.798132531344890594482421875</LongitudeDegrees>
            </Position>
            <AltitudeMeters>426.20001220703125</AltitudeMeters>
            <DistanceMeters>1714.1579165401</DistanceMeters>
          </Trackpoint>
          <Trackpoint>
            <Time>2022-06-01T17:45:03.000Z</Time>
            <Position>
              <LatitudeDegrees>39.41602648235857486724853515625</LatitudeDegrees>
              <LongitudeDegrees>-0.79820486716926097869873046875</LongitudeDegrees>
            </Position>
            <AltitudeMeters>426.79998779296875</AltitudeMeters>
            <DistanceMeters>1720.5247064028</DistanceMeters>
          </Trackpoint>
          <Trackpoint>
            <Time>2022-06-01T17:45:06.000Z</Time>
            <Position>
              <LatitudeDegrees>39.41603243350982666015625</LatitudeDegrees>
              <LongitudeDegrees>-0.79829472117125988006591796875</LongitudeDegrees>
            </Position>
            <AltitudeMeters>427.399993896484375</AltitudeMeters>
            <DistanceMeters>1728.2797247211</DistanceMeters>
          </Trackpoint>
          <Trackpoint>
            <Time>2022-06-01T17:45:07.000Z</Time>
            <Position>
              <LatitudeDegrees>39.416031427681446075439453125</LatitudeDegrees>
              <LongitudeDegrees>-0.798324644565582275390625</LongitudeDegrees>
            </Position>
            <AltitudeMeters>427.399993896484375</AltitudeMeters>
            <DistanceMeters>1730.8542297434</DistanceMeters>
          </Trackpoint>
          <Trackpoint>
            <Time>2022-06-01T17:45:08.000Z</Time>
            <Position>
              <LatitudeDegrees>39.416026063263416290283203125</LatitudeDegrees>
              <LongitudeDegrees>-0.798348449170589447021484375</LongitudeDegrees>
            </Position>
            <AltitudeMeters>427.79998779296875</AltitudeMeters>
            <DistanceMeters>1732.98757419</DistanceMeters>
          </Trackpoint>
          <Trackpoint>
            <Time>2022-06-01T17:45:12.000Z</Time>
            <Position>
              <LatitudeDegrees>39.416035450994968414306640625</LatitudeDegrees>
              <LongitudeDegrees>-0.79846017993986606597900390625</LongitudeDegrees>
            </Position>
            <AltitudeMeters>428.20001220703125</AltitudeMeters>
            <DistanceMeters>1742.6513752322</DistanceMeters>
          </Trackpoint>
          <Trackpoint>
            <Time>2022-06-01T17:45:13.000Z</Time>
            <Position>
              <LatitudeDegrees>39.4160377979278564453125</LatitudeDegrees>
              <LongitudeDegrees>-0.79849295318126678466796875</LongitudeDegrees>
            </Position>
            <AltitudeMeters>428.600006103515625</AltitudeMeters>
            <DistanceMeters>1745.4799168581</DistanceMeters>
          </Trackpoint>
          <Trackpoint>
            <Time>2022-06-01T17:45:18.000Z</Time>
            <Position>
              <LatitudeDegrees>39.4160148315131664276123046875</LatitudeDegrees>
              <LongitudeDegrees>-0.79863955266773700714111328125</LongitudeDegrees>
            </Position>
            <AltitudeMeters>429.600006103515625</AltitudeMeters>
            <DistanceMeters>1758.3419151652</DistanceMeters>
          </Trackpoint>
          <Trackpoint>
            <Time>2022-06-01T17:45:22.000Z</Time>
            <Position>
              <LatitudeDegrees>39.41600200720131397247314453125</LatitudeDegrees>
              <LongitudeDegrees>-0.7987361960113048553466796875</LongitudeDegrees>
            </Position>
            <AltitudeMeters>430.79998779296875</AltitudeMeters>
            <DistanceMeters>1766.7730931237</DistanceMeters>
          </Trackpoint>
          <Trackpoint>
            <Time>2022-06-01T17:45:24.000Z</Time>
            <Position>
              <LatitudeDegrees>39.4159977324306964874267578125</LatitudeDegrees>
              <LongitudeDegrees>-0.7987827993929386138916015625</LongitudeDegrees>
            </Position>
            <AltitudeMeters>431</AltitudeMeters>
            <DistanceMeters>1770.8092122875</DistanceMeters>
          </Trackpoint>
          <Trackpoint>
            <Time>2022-06-01T17:45:28.000Z</Time>
            <Position>
              <LatitudeDegrees>39.41598993726074695587158203125</LatitudeDegrees>
              <LongitudeDegrees>-0.798855386674404144287109375</LongitudeDegrees>
            </Position>
            <AltitudeMeters>432.20001220703125</AltitudeMeters>
            <DistanceMeters>1777.1111386756</DistanceMeters>
          </Trackpoint>
          <Trackpoint>
            <Time>2022-06-01T17:45:30.000Z</Time>
            <Position>
              <LatitudeDegrees>39.41598893143236637115478515625</LatitudeDegrees>
              <LongitudeDegrees>-0.798884890973567962646484375</LongitudeDegrees>
            </Position>
            <AltitudeMeters>433</AltitudeMeters>
            <DistanceMeters>1779.6503264554</DistanceMeters>
          </Trackpoint>
          <Trackpoint>
            <Time>2022-06-01T17:45:31.000Z</Time>
            <Position>
              <LatitudeDegrees>39.41598842851817607879638671875</LatitudeDegrees>
              <LongitudeDegrees>-0.79890056513249874114990234375</LongitudeDegrees>
            </Position>
            <AltitudeMeters>433.399993896484375</AltitudeMeters>
            <DistanceMeters>1780.9975626504</DistanceMeters>
          </Trackpoint>
          <Trackpoint>
            <Time>2022-06-01T17:45:35.000Z</Time>
            <Position>
              <LatitudeDegrees>39.41598122008144855499267578125</LatitudeDegrees>
              <LongitudeDegrees>-0.799006931483745574951171875</LongitudeDegrees>
            </Position>
            <AltitudeMeters>434.600006103515625</AltitudeMeters>
            <DistanceMeters>1790.1793268426</DistanceMeters>
          </Trackpoint>
          <Trackpoint>
            <Time>2022-06-01T17:45:36.000Z</Time>
            <Position>
              <LatitudeDegrees>39.415981471538543701171875</LatitudeDegrees>
              <LongitudeDegrees>-0.79901958815753459930419921875</LongitudeDegrees>
            </Position>
            <AltitudeMeters>435</AltitudeMeters>
            <DistanceMeters>1791.2711006702</DistanceMeters>
          </Trackpoint>
          <Trackpoint>
            <Time>2022-06-01T17:45:40.000Z</Time>
            <Position>
              <LatitudeDegrees>39.41598138771951198577880859375</LatitudeDegrees>
              <LongitudeDegrees>-0.79908706247806549072265625</LongitudeDegrees>
            </Position>
            <AltitudeMeters>435.600006103515625</AltitudeMeters>
            <DistanceMeters>1797.0739581611</DistanceMeters>
          </Trackpoint>
          <Trackpoint>
            <Time>2022-06-01T17:45:43.000Z</Time>
            <Position>
              <LatitudeDegrees>39.4159705750644207000732421875</LatitudeDegrees>
              <LongitudeDegrees>-0.79915009438991546630859375</LongitudeDegrees>
            </Position>
            <AltitudeMeters>436.399993896484375</AltitudeMeters>
            <DistanceMeters>1802.6263163069</DistanceMeters>
          </Trackpoint>
          <Trackpoint>
            <Time>2022-06-01T17:45:44.000Z</Time>
            <Position>
              <LatitudeDegrees>39.4159611873328685760498046875</LatitudeDegrees>
              <LongitudeDegrees>-0.7991680316627025604248046875</LongitudeDegrees>
            </Position>
            <AltitudeMeters>436.79998779296875</AltitudeMeters>
            <DistanceMeters>1804.488452004</DistanceMeters>
          </Trackpoint>
          <Trackpoint>
            <Time>2022-06-01T17:45:47.000Z</Time>
            <Position>
              <LatitudeDegrees>39.4159373827278614044189453125</LatitudeDegrees>
              <LongitudeDegrees>-0.79921270720660686492919921875</LongitudeDegrees>
            </Position>
            <AltitudeMeters>438</AltitudeMeters>
            <DistanceMeters>1809.1554150833</DistanceMeters>
          </Trackpoint>
          <Trackpoint>
            <Time>2022-06-01T17:45:50.000Z</Time>
            <Position>
              <LatitudeDegrees>39.41592690534889698028564453125</LatitudeDegrees>
              <LongitudeDegrees>-0.79924992285668849945068359375</LongitudeDegrees>
            </Position>
            <AltitudeMeters>438.20001220703125</AltitudeMeters>
            <DistanceMeters>1812.561827893</DistanceMeters>
          </Trackpoint>
          <Trackpoint>
            <Time>2022-06-01T17:45:53.000Z</Time>
            <Position>
              <LatitudeDegrees>39.41591416485607624053955078125</LatitudeDegrees>
              <LongitudeDegrees>-0.7992907427251338958740234375</LongitudeDegrees>
            </Position>
            <AltitudeMeters>438.79998779296875</AltitudeMeters>
            <DistanceMeters>1816.3462302554</DistanceMeters>
          </Trackpoint>
          <Trackpoint>
            <Time>2022-06-01T17:45:55.000Z</Time>
            <Position>
              <LatitudeDegrees>39.415905363857746124267578125</LatitudeDegrees>
              <LongitudeDegrees>-0.799328126013278961181640625</LongitudeDegrees>
            </Position>
            <AltitudeMeters>439</AltitudeMeters>
            <DistanceMeters>1819.7059319616</DistanceMeters>
          </Trackpoint>
          <Trackpoint>
            <Time>2022-06-01T17:45:59.000Z</Time>
            <Position>
              <LatitudeDegrees>39.415866471827030181884765625</LatitudeDegrees>
              <LongitudeDegrees>-0.79939962364733219146728515625</LongitudeDegrees>
            </Position>
            <AltitudeMeters>440</AltitudeMeters>
            <DistanceMeters>1827.2244609759</DistanceMeters>
          </Trackpoint>
          <Trackpoint>
            <Time>2022-06-01T17:46:05.000Z</Time>
            <Position>
              <LatitudeDegrees>39.41582799889147281646728515625</LatitudeDegrees>
              <LongitudeDegrees>-0.79949341714382171630859375</LongitudeDegrees>
            </Position>
            <AltitudeMeters>441</AltitudeMeters>
            <DistanceMeters>1836.3559299642</DistanceMeters>
          </Trackpoint>
          <Trackpoint>
            <Time>2022-06-01T17:46:06.000Z</Time>
            <Position>
              <LatitudeDegrees>39.41582447849214076995849609375</LatitudeDegrees>
              <LongitudeDegrees>-0.79950791783630847930908203125</LongitudeDegrees>
            </Position>
            <AltitudeMeters>441.399993896484375</AltitudeMeters>
            <DistanceMeters>1837.6588706272</DistanceMeters>
          </Trackpoint>
          <Trackpoint>
            <Time>2022-06-01T17:46:13.000Z</Time>
            <Position>
              <LatitudeDegrees>39.41579363308846950531005859375</LatitudeDegrees>
              <LongitudeDegrees>-0.79964806325733661651611328125</LongitudeDegrees>
            </Position>
            <AltitudeMeters>442.399993896484375</AltitudeMeters>
            <DistanceMeters>1850.1890717083</DistanceMeters>
          </Trackpoint>
          <Trackpoint>
            <Time>2022-06-01T17:46:14.000Z</Time>
            <Position>
              <LatitudeDegrees>39.4157912023365497589111328125</LatitudeDegrees>
              <LongitudeDegrees>-0.79967002384364604949951171875</LongitudeDegrees>
            </Position>
            <AltitudeMeters>442.79998779296875</AltitudeMeters>
            <DistanceMeters>1852.096719686</DistanceMeters>
          </Trackpoint>
          <Trackpoint>
            <Time>2022-06-01T17:46:19.000Z</Time>
            <Position>
              <LatitudeDegrees>39.41578206606209278106689453125</LatitudeDegrees>
              <LongitudeDegrees>-0.79980312846601009368896484375</LongitudeDegrees>
            </Position>
            <AltitudeMeters>443.600006103515625</AltitudeMeters>
            <DistanceMeters>1863.5870959935</DistanceMeters>
          </Trackpoint>
          <Trackpoint>
            <Time>2022-06-01T17:46:20.000Z</Time>
            <Position>
              <LatitudeDegrees>39.4157777912914752960205078125</LatitudeDegrees>
              <LongitudeDegrees>-0.7998265139758586883544921875</LongitudeDegrees>
            </Position>
            <AltitudeMeters>443.79998779296875</AltitudeMeters>
            <DistanceMeters>1865.6559740069</DistanceMeters>
          </Trackpoint>
          <Trackpoint>
            <Time>2022-06-01T17:46:21.000Z</Time>
            <Position>
              <LatitudeDegrees>39.41577427089214324951171875</LatitudeDegrees>
              <LongitudeDegrees>-0.7998466305434703826904296875</LongitudeDegrees>
            </Position>
            <AltitudeMeters>444.20001220703125</AltitudeMeters>
            <DistanceMeters>1867.4286743771</DistanceMeters>
          </Trackpoint>
          <Trackpoint>
            <Time>2022-06-01T17:46:26.000Z</Time>
            <Position>
              <LatitudeDegrees>39.41571702249348163604736328125</LatitudeDegrees>
              <LongitudeDegrees>-0.799967832863330841064453125</LongitudeDegrees>
            </Position>
            <AltitudeMeters>445.600006103515625</AltitudeMeters>
            <DistanceMeters>1879.6439510076</DistanceMeters>
          </Trackpoint>
          <Trackpoint>
            <Time>2022-06-01T17:46:27.000Z</Time>
            <Position>
              <LatitudeDegrees>39.41570897586643695831298828125</LatitudeDegrees>
              <LongitudeDegrees>-0.7999871112406253814697265625</LongitudeDegrees>
            </Position>
            <AltitudeMeters>446.20001220703125</AltitudeMeters>
            <DistanceMeters>1881.5253839631</DistanceMeters>
          </Trackpoint>
          <Trackpoint>
            <Time>2022-06-01T17:46:29.000Z</Time>
            <Position>
              <LatitudeDegrees>39.41569321788847446441650390625</LatitudeDegrees>
              <LongitudeDegrees>-0.80003254115581512451171875</LongitudeDegrees>
            </Position>
            <AltitudeMeters>446.600006103515625</AltitudeMeters>
            <DistanceMeters>1885.8068621169</DistanceMeters>
          </Trackpoint>
          <Trackpoint>
            <Time>2022-06-01T17:46:30.000Z</Time>
            <Position>
              <LatitudeDegrees>39.415684081614017486572265625</LatitudeDegrees>
              <LongitudeDegrees>-0.80005676485598087310791015625</LongitudeDegrees>
            </Position>
            <AltitudeMeters>446.79998779296875</AltitudeMeters>
            <DistanceMeters>1888.1228641479</DistanceMeters>
          </Trackpoint>
          <Trackpoint>
            <Time>2022-06-01T17:46:33.000Z</Time>
            <Position>
              <LatitudeDegrees>39.41566673107445240020751953125</LatitudeDegrees>
              <LongitudeDegrees>-0.80013119615614414215087890625</LongitudeDegrees>
            </Position>
            <AltitudeMeters>447</AltitudeMeters>
            <DistanceMeters>1894.8079107686</DistanceMeters>
          </Trackpoint>
          <Trackpoint>
            <Time>2022-06-01T17:46:35.000Z</Time>
            <Position>
              <LatitudeDegrees>39.4156601093709468841552734375</LatitudeDegrees>
              <LongitudeDegrees>-0.80016371794044971466064453125</LongitudeDegrees>
            </Position>
            <AltitudeMeters>448</AltitudeMeters>
            <DistanceMeters>1897.6995972639</DistanceMeters>
          </Trackpoint>
          <Trackpoint>
            <Time>2022-06-01T17:46:37.000Z</Time>
            <Position>
              <LatitudeDegrees>39.4156577624380588531494140625</LatitudeDegrees>
              <LongitudeDegrees>-0.80019104294478893280029296875</LongitudeDegrees>
            </Position>
            <AltitudeMeters>448.399993896484375</AltitudeMeters>
            <DistanceMeters>1900.0619239226</DistanceMeters>
          </Trackpoint>
          <Trackpoint>
            <Time>2022-06-01T17:46:38.000Z</Time>
            <Position>
              <LatitudeDegrees>39.415657930076122283935546875</LatitudeDegrees>
              <LongitudeDegrees>-0.8002057112753391265869140625</LongitudeDegrees>
            </Position>
            <AltitudeMeters>448.79998779296875</AltitudeMeters>
            <DistanceMeters>1901.3225957491</DistanceMeters>
          </Trackpoint>
          <Trackpoint>
            <Time>2022-06-01T17:46:39.000Z</Time>
            <Position>
              <LatitudeDegrees>39.4156577624380588531494140625</LatitudeDegrees>
              <LongitudeDegrees>-0.800220966339111328125</LongitudeDegrees>
            </Position>
            <AltitudeMeters>449</AltitudeMeters>
            <DistanceMeters>1902.6324486127</DistanceMeters>
          </Trackpoint>
          <Trackpoint>
            <Time>2022-06-01T17:46:44.000Z</Time>
            <Position>
              <LatitudeDegrees>39.41566287539899349212646484375</LatitudeDegrees>
              <LongitudeDegrees>-0.80031995661556720733642578125</LongitudeDegrees>
            </Position>
            <AltitudeMeters>450</AltitudeMeters>
            <DistanceMeters>1911.1626511886</DistanceMeters>
          </Trackpoint>
          <Trackpoint>
            <Time>2022-06-01T17:46:45.000Z</Time>
            <Position>
              <LatitudeDegrees>39.4156661443412303924560546875</LatitudeDegrees>
              <LongitudeDegrees>-0.80033873207867145538330078125</LongitudeDegrees>
            </Position>
            <AltitudeMeters>450.20001220703125</AltitudeMeters>
            <DistanceMeters>1912.8167712455</DistanceMeters>
          </Trackpoint>
          <Trackpoint>
            <Time>2022-06-01T17:46:49.000Z</Time>
            <Position>
              <LatitudeDegrees>39.41566304303705692291259765625</LatitudeDegrees>
              <LongitudeDegrees>-0.80039740540087223052978515625</LongitudeDegrees>
            </Position>
            <AltitudeMeters>450.600006103515625</AltitudeMeters>
            <DistanceMeters>1917.8737640761</DistanceMeters>
          </Trackpoint>
          <Trackpoint>
            <Time>2022-06-01T17:46:52.000Z</Time>
            <Position>
              <LatitudeDegrees>39.41566857509315013885498046875</LatitudeDegrees>
              <LongitudeDegrees>-0.80045306123793125152587890625</LongitudeDegrees>
            </Position>
            <AltitudeMeters>451</AltitudeMeters>
            <DistanceMeters>1922.6986513362</DistanceMeters>
          </Trackpoint>
          <Trackpoint>
            <Time>2022-06-01T17:46:53.000Z</Time>
            <Position>
              <LatitudeDegrees>39.4156684912741184234619140625</LatitudeDegrees>
              <LongitudeDegrees>-0.800465047359466552734375</LongitudeDegrees>
            </Position>
            <AltitudeMeters>451.20001220703125</AltitudeMeters>
            <DistanceMeters>1923.7309056752</DistanceMeters>
          </Trackpoint>
          <Trackpoint>
            <Time>2022-06-01T17:46:57.000Z</Time>
            <Position>
              <LatitudeDegrees>39.41564644686877727508544921875</LatitudeDegrees>
              <LongitudeDegrees>-0.80051693134009838104248046875</LongitudeDegrees>
            </Position>
            <AltitudeMeters>452</AltitudeMeters>
            <DistanceMeters>1928.8217130173</DistanceMeters>
          </Trackpoint>
          <Trackpoint>
            <Time>2022-06-01T17:46:58.000Z</Time>
            <Position>
              <LatitudeDegrees>39.41563613712787628173828125</LatitudeDegrees>
              <LongitudeDegrees>-0.80054081976413726806640625</LongitudeDegrees>
            </Position>
            <AltitudeMeters>452.399993896484375</AltitudeMeters>
            <DistanceMeters>1931.1744639306</DistanceMeters>
          </Trackpoint>
          <Trackpoint>
            <Time>2022-06-01T17:46:59.000Z</Time>
            <Position>
              <LatitudeDegrees>39.4156287610530853271484375</LatitudeDegrees>
              <LongitudeDegrees>-0.80056621693074703216552734375</LongitudeDegrees>
            </Position>
            <AltitudeMeters>453</AltitudeMeters>
            <DistanceMeters>1933.5079454702</DistanceMeters>
          </Trackpoint>
          <Trackpoint>
            <Time>2022-06-01T17:47:01.000Z</Time>
            <Position>
              <LatitudeDegrees>39.4156118296086788177490234375</LatitudeDegrees>
              <LongitudeDegrees>-0.800610892474651336669921875</LongitudeDegrees>
            </Position>
            <AltitudeMeters>453.399993896484375</AltitudeMeters>
            <DistanceMeters>1937.7852033389</DistanceMeters>
          </Trackpoint>
          <Trackpoint>
            <Time>2022-06-01T17:47:02.000Z</Time>
            <Position>
              <LatitudeDegrees>39.4156086444854736328125</LatitudeDegrees>
              <LongitudeDegrees>-0.8006326854228973388671875</LongitudeDegrees>
            </Position>
            <AltitudeMeters>453.600006103515625</AltitudeMeters>
            <DistanceMeters>1939.6904830377</DistanceMeters>
          </Trackpoint>
          <Trackpoint>
            <Time>2022-06-01T17:47:03.000Z</Time>
            <Position>
              <LatitudeDegrees>39.41560822539031505584716796875</LatitudeDegrees>
              <LongitudeDegrees>-0.80065020360052585601806640625</LongitudeDegrees>
            </Position>
            <AltitudeMeters>453.600006103515625</AltitudeMeters>
            <DistanceMeters>1941.1929873175</DistanceMeters>
          </Trackpoint>
          <Trackpoint>
            <Time>2022-06-01T17:47:04.000Z</Time>
            <Position>
              <LatitudeDegrees>39.41561199724674224853515625</LatitudeDegrees>
              <LongitudeDegrees>-0.800679288804531097412109375</LongitudeDegrees>
            </Position>
            <AltitudeMeters>453.79998779296875</AltitudeMeters>
            <DistanceMeters>1943.7321750973</DistanceMeters>
          </Trackpoint>
          <Trackpoint>
            <Time>2022-06-01T17:47:05.000Z</Time>
            <Position>
              <LatitudeDegrees>39.41560604609549045562744140625</LatitudeDegrees>
              <LongitudeDegrees>-0.8007025904953479766845703125</LongitudeDegrees>
            </Position>
            <AltitudeMeters>454</AltitudeMeters>
            <DistanceMeters>1945.8442493771</DistanceMeters>
          </Trackpoint>
          <Trackpoint>
            <Time>2022-06-01T17:47:07.000Z</Time>
            <Position>
              <LatitudeDegrees>39.41559255123138427734375</LatitudeDegrees>
              <LongitudeDegrees>-0.80075464211404323577880859375</LongitudeDegrees>
            </Position>
            <AltitudeMeters>454.20001220703125</AltitudeMeters>
            <DistanceMeters>1950.5650786118</DistanceMeters>
          </Trackpoint>
          <Trackpoint>
            <Time>2022-06-01T17:47:08.000Z</Time>
            <Position>
              <LatitudeDegrees>39.41559045575559139251708984375</LatitudeDegrees>
              <LongitudeDegrees>-0.80077542923390865325927734375</LongitudeDegrees>
            </Position>
            <AltitudeMeters>454.600006103515625</AltitudeMeters>
            <DistanceMeters>1952.3680837477</DistanceMeters>
          </Trackpoint>
          <Trackpoint>
            <Time>2022-06-01T17:47:09.000Z</Time>
            <Position>
              <LatitudeDegrees>39.41558676771819591522216796875</LatitudeDegrees>
              <LongitudeDegrees>-0.80078515224158763885498046875</LongitudeDegrees>
            </Position>
            <AltitudeMeters>454.79998779296875</AltitudeMeters>
            <DistanceMeters>1953.2991515962</DistanceMeters>
          </Trackpoint>
          <Trackpoint>
            <Time>2022-06-01T17:47:10.000Z</Time>
            <Position>
              <LatitudeDegrees>39.415586180984973907470703125</LatitudeDegrees>
              <LongitudeDegrees>-0.8007951267063617706298828125</LongitudeDegrees>
            </Position>
            <AltitudeMeters>454.79998779296875</AltitudeMeters>
            <DistanceMeters>1954.1596550933</DistanceMeters>
          </Trackpoint>
          <Trackpoint>
            <Time>2022-06-01T17:47:11.000Z</Time>
            <Position>
              <LatitudeDegrees>39.41558542661368846893310546875</LatitudeDegrees>
              <LongitudeDegrees>-0.800809375941753387451171875</LongitudeDegrees>
            </Position>
            <AltitudeMeters>455.20001220703125</AltitudeMeters>
            <DistanceMeters>1955.3913420838</DistanceMeters>
          </Trackpoint>
          <Trackpoint>
            <Time>2022-06-01T17:47:13.000Z</Time>
            <Position>
              <LatitudeDegrees>39.4155850075185298919677734375</LatitudeDegrees>
              <LongitudeDegrees>-0.8008424006402492523193359375</LongitudeDegrees>
            </Position>
            <AltitudeMeters>455.79998779296875</AltitudeMeters>
            <DistanceMeters>1958.2310354236</DistanceMeters>
          </Trackpoint>
          <Trackpoint>
            <Time>2022-06-01T17:47:15.000Z</Time>
            <Position>
              <LatitudeDegrees>39.41558324731886386871337890625</LatitudeDegrees>
              <LongitudeDegrees>-0.8008742518723011016845703125</LongitudeDegrees>
            </Position>
            <AltitudeMeters>456</AltitudeMeters>
            <DistanceMeters>1960.9769621944</DistanceMeters>
          </Trackpoint>
          <Trackpoint>
            <Time>2022-06-01T17:47:16.000Z</Time>
            <Position>
              <LatitudeDegrees>39.41558257676661014556884765625</LatitudeDegrees>
              <LongitudeDegrees>-0.80089059658348560333251953125</LongitudeDegrees>
            </Position>
            <AltitudeMeters>456</AltitudeMeters>
            <DistanceMeters>1962.3800148181</DistanceMeters>
          </Trackpoint>
          <Trackpoint>
            <Time>2022-06-01T17:47:20.000Z</Time>
            <Position>
              <LatitudeDegrees>39.415555335581302642822265625</LatitudeDegrees>
              <LongitudeDegrees>-0.8009550534188747406005859375</LongitudeDegrees>
            </Position>
            <AltitudeMeters>456.79998779296875</AltitudeMeters>
            <DistanceMeters>1968.6976835244</DistanceMeters>
          </Trackpoint>
          <Trackpoint>
            <Time>2022-06-01T17:47:24.000Z</Time>
            <Position>
              <LatitudeDegrees>39.41552080214023590087890625</LatitudeDegrees>
              <LongitudeDegrees>-0.8010291494429111480712890625</LongitudeDegrees>
            </Position>
            <AltitudeMeters>457.600006103515625</AltitudeMeters>
            <DistanceMeters>1976.1389487901</DistanceMeters>
          </Trackpoint>
          <Trackpoint>
            <Time>2022-06-01T17:47:27.000Z</Time>
            <Position>
              <LatitudeDegrees>39.41550311632454395294189453125</LatitudeDegrees>
              <LongitudeDegrees>-0.80106711946427822113037109375</LongitudeDegrees>
            </Position>
            <AltitudeMeters>457.79998779296875</AltitudeMeters>
            <DistanceMeters>1979.951877202</DistanceMeters>
          </Trackpoint>
          <Trackpoint>
            <Time>2022-06-01T17:47:28.000Z</Time>
            <Position>
              <LatitudeDegrees>39.41550110466778278350830078125</LatitudeDegrees>
              <LongitudeDegrees>-0.80108187161386013031005859375</LongitudeDegrees>
            </Position>
            <AltitudeMeters>458</AltitudeMeters>
            <DistanceMeters>1981.2408822702</DistanceMeters>
          </Trackpoint>
          <Trackpoint>
            <Time>2022-06-01T17:47:29.000Z</Time>
            <Position>
              <LatitudeDegrees>39.41550076939165592193603515625</LatitudeDegrees>
              <LongitudeDegrees>-0.80110500566661357879638671875</LongitudeDegrees>
            </Position>
            <AltitudeMeters>458.399993896484375</AltitudeMeters>
            <DistanceMeters>1983.2296440665</DistanceMeters>
          </Trackpoint>
          <Trackpoint>
            <Time>2022-06-01T17:47:31.000Z</Time>
            <Position>
              <LatitudeDegrees>39.41549708135426044464111328125</LatitudeDegrees>
              <LongitudeDegrees>-0.80115127377212047576904296875</LongitudeDegrees>
            </Position>
            <AltitudeMeters>459</AltitudeMeters>
            <DistanceMeters>1987.2286771224</DistanceMeters>
          </Trackpoint>
          <Trackpoint>
            <Time>2022-06-01T17:47:34.000Z</Time>
            <Position>
              <LatitudeDegrees>39.41547252237796783447265625</LatitudeDegrees>
              <LongitudeDegrees>-0.8012158982455730438232421875</LongitudeDegrees>
            </Position>
            <AltitudeMeters>459.399993896484375</AltitudeMeters>
            <DistanceMeters>1993.4207449984</DistanceMeters>
          </Trackpoint>
          <Trackpoint>
            <Time>2022-06-01T17:47:38.000Z</Time>
            <Position>
              <LatitudeDegrees>39.4154431857168674468994140625</LatitudeDegrees>
              <LongitudeDegrees>-0.80128991045057773590087890625</LongitudeDegrees>
            </Position>
            <AltitudeMeters>459.79998779296875</AltitudeMeters>
            <DistanceMeters>2000.5736753861</DistanceMeters>
          </Trackpoint>
          <Trackpoint>
            <Time>2022-06-01T17:47:40.000Z</Time>
            <Position>
              <LatitudeDegrees>39.41543354652822017669677734375</LatitudeDegrees>
              <LongitudeDegrees>-0.80132628791034221649169921875</LongitudeDegrees>
            </Position>
            <AltitudeMeters>460.20001220703125</AltitudeMeters>
            <DistanceMeters>2003.8805504327</DistanceMeters>
          </Trackpoint>
          <Trackpoint>
            <Time>2022-06-01T17:47:41.000Z</Time>
            <Position>
              <LatitudeDegrees>39.41543002612888813018798828125</LatitudeDegrees>
              <LongitudeDegrees>-0.801340453326702117919921875</LongitudeDegrees>
            </Position>
            <AltitudeMeters>460.79998779296875</AltitudeMeters>
            <DistanceMeters>2005.1590041222</DistanceMeters>
          </Trackpoint>
          <Trackpoint>
            <Time>2022-06-01T17:47:42.000Z</Time>
            <Position>
              <LatitudeDegrees>39.41542667336761951446533203125</LatitudeDegrees>
              <LongitudeDegrees>-0.80135210417211055755615234375</LongitudeDegrees>
            </Position>
            <AltitudeMeters>461.20001220703125</AltitudeMeters>
            <DistanceMeters>2006.2256763455</DistanceMeters>
          </Trackpoint>
          <Trackpoint>
            <Time>2022-06-01T17:47:43.000Z</Time>
            <Position>
              <LatitudeDegrees>39.415426589548587799072265625</LatitudeDegrees>
              <LongitudeDegrees>-0.8013676106929779052734375</LongitudeDegrees>
            </Position>
            <AltitudeMeters>461.399993896484375</AltitudeMeters>
            <DistanceMeters>2007.5628207416</DistanceMeters>
          </Trackpoint>
          <Trackpoint>
            <Time>2022-06-01T17:47:47.000Z</Time>
            <Position>
              <LatitudeDegrees>39.41542315296828746795654296875</LatitudeDegrees>
              <LongitudeDegrees>-0.80142192542552947998046875</LongitudeDegrees>
            </Position>
            <AltitudeMeters>462</AltitudeMeters>
            <DistanceMeters>2012.2481292517</DistanceMeters>
          </Trackpoint>
          <Trackpoint>
            <Time>2022-06-01T17:47:48.000Z</Time>
            <Position>
              <LatitudeDegrees>39.41541929729282855987548828125</LatitudeDegrees>
              <LongitudeDegrees>-0.80143458209931850433349609375</LongitudeDegrees>
            </Position>
            <AltitudeMeters>462.20001220703125</AltitudeMeters>
            <DistanceMeters>2013.4158370675</DistanceMeters>
          </Trackpoint>
          <Trackpoint>
            <Time>2022-06-01T17:47:49.000Z</Time>
            <Position>
              <LatitudeDegrees>39.415412843227386474609375</LatitudeDegrees>
              <LongitudeDegrees>-0.80144849605858325958251953125</LongitudeDegrees>
            </Position>
            <AltitudeMeters>462.399993896484375</AltitudeMeters>
            <DistanceMeters>2014.8124388404</DistanceMeters>
          </Trackpoint>
          <Trackpoint>
            <Time>2022-06-01T17:47:51.000Z</Time>
            <Position>
              <LatitudeDegrees>39.41540119238197803497314453125</LatitudeDegrees>
              <LongitudeDegrees>-0.80148722045123577117919921875</LongitudeDegrees>
            </Position>
            <AltitudeMeters>462.600006103515625</AltitudeMeters>
            <DistanceMeters>2018.3857465645</DistanceMeters>
          </Trackpoint>
          <Trackpoint>
            <Time>2022-06-01T17:47:53.000Z</Time>
            <Position>
              <LatitudeDegrees>39.4153928942978382110595703125</LatitudeDegrees>
              <LongitudeDegrees>-0.80152611248195171356201171875</LongitudeDegrees>
            </Position>
            <AltitudeMeters>463.600006103515625</AltitudeMeters>
            <DistanceMeters>2021.8538961898</DistanceMeters>
          </Trackpoint>
          <Trackpoint>
            <Time>2022-06-01T17:47:54.000Z</Time>
            <Position>
              <LatitudeDegrees>39.4153898768126964569091796875</LatitudeDegrees>
              <LongitudeDegrees>-0.8015538565814495086669921875</LongitudeDegrees>
            </Position>
            <AltitudeMeters>463.79998779296875</AltitudeMeters>
            <DistanceMeters>2024.2616563683</DistanceMeters>
          </Trackpoint>
          <Trackpoint>
            <Time>2022-06-01T17:47:58.000Z</Time>
            <Position>
              <LatitudeDegrees>39.41539348103106021881103515625</LatitudeDegrees>
              <LongitudeDegrees>-0.80164161510765552520751953125</LongitudeDegrees>
            </Position>
            <AltitudeMeters>464.600006103515625</AltitudeMeters>
            <DistanceMeters>2031.8185210245</DistanceMeters>
          </Trackpoint>
          <Trackpoint>
            <Time>2022-06-01T17:48:01.000Z</Time>
            <Position>
              <LatitudeDegrees>39.4153855182230472564697265625</LatitudeDegrees>
              <LongitudeDegrees>-0.80169727094471454620361328125</LongitudeDegrees>
            </Position>
            <AltitudeMeters>465.20001220703125</AltitudeMeters>
            <DistanceMeters>2036.6862638883</DistanceMeters>
          </Trackpoint>
          <Trackpoint>
            <Time>2022-06-01T17:48:02.000Z</Time>
            <Position>
              <LatitudeDegrees>39.4153821654617786407470703125</LatitudeDegrees>
              <LongitudeDegrees>-0.8017134480178356170654296875</LongitudeDegrees>
            </Position>
            <AltitudeMeters>465.600006103515625</AltitudeMeters>
            <DistanceMeters>2038.1274153662</DistanceMeters>
          </Trackpoint>
          <Trackpoint>
            <Time>2022-06-01T17:48:07.000Z</Time>
            <Position>
              <LatitudeDegrees>39.41537654958665370941162109375</LatitudeDegrees>
              <LongitudeDegrees>-0.80179198645055294036865234375</LongitudeDegrees>
            </Position>
            <AltitudeMeters>466.79998779296875</AltitudeMeters>
            <DistanceMeters>2044.9110183586</DistanceMeters>
          </Trackpoint>
          <Trackpoint>
            <Time>2022-06-01T17:48:08.000Z</Time>
            <Position>
              <LatitudeDegrees>39.41537453792989253997802734375</LatitudeDegrees>
              <LongitudeDegrees>-0.80180975608527660369873046875</LongitudeDegrees>
            </Position>
            <AltitudeMeters>467</AltitudeMeters>
            <DistanceMeters>2046.4550197126</DistanceMeters>
          </Trackpoint>
          <Trackpoint>
            <Time>2022-06-01T17:48:11.000Z</Time>
            <Position>
              <LatitudeDegrees>39.41536732949316501617431640625</LatitudeDegrees>
              <LongitudeDegrees>-0.80185635946691036224365234375</LongitudeDegrees>
            </Position>
            <AltitudeMeters>467.600006103515625</AltitudeMeters>
            <DistanceMeters>2050.5422732429</DistanceMeters>
          </Trackpoint>
          <Trackpoint>
            <Time>2022-06-01T17:48:13.000Z</Time>
            <Position>
              <LatitudeDegrees>39.41535308025777339935302734375</LatitudeDegrees>
              <LongitudeDegrees>-0.8018841035664081573486328125</LongitudeDegrees>
            </Position>
            <AltitudeMeters>468</AltitudeMeters>
            <DistanceMeters>2053.405716871</DistanceMeters>
          </Trackpoint>
          <Trackpoint>
            <Time>2022-06-01T17:48:14.000Z</Time>
            <Position>
              <LatitudeDegrees>39.41534687764942646026611328125</LatitudeDegrees>
              <LongitudeDegrees>-0.80190229229629039764404296875</LongitudeDegrees>
            </Position>
            <AltitudeMeters>468.399993896484375</AltitudeMeters>
            <DistanceMeters>2055.1161977297</DistanceMeters>
          </Trackpoint>
          <Trackpoint>
            <Time>2022-06-01T17:48:17.000Z</Time>
            <Position>
              <LatitudeDegrees>39.415350146591663360595703125</LatitudeDegrees>
              <LongitudeDegrees>-0.80194386653602123260498046875</LongitudeDegrees>
            </Position>
            <AltitudeMeters>469</AltitudeMeters>
            <DistanceMeters>2058.7096653189</DistanceMeters>
          </Trackpoint>
          <Trackpoint>
            <Time>2022-06-01T17:48:18.000Z</Time>
            <Position>
              <LatitudeDegrees>39.41535341553390026092529296875</LatitudeDegrees>
              <LongitudeDegrees>-0.80195845104753971099853515625</LongitudeDegrees>
            </Position>
            <AltitudeMeters>469.600006103515625</AltitudeMeters>
            <DistanceMeters>2060.012605982</DistanceMeters>
          </Trackpoint>
          <Trackpoint>
            <Time>2022-06-01T17:48:19.000Z</Time>
            <Position>
              <LatitudeDegrees>39.4153600372374057769775390625</LatitudeDegrees>
              <LongitudeDegrees>-0.8019763045012950897216796875</LongitudeDegrees>
            </Position>
            <AltitudeMeters>469.79998779296875</AltitudeMeters>
            <DistanceMeters>2061.7177994065</DistanceMeters>
          </Trackpoint>
          <Trackpoint>
            <Time>2022-06-01T17:48:20.000Z</Time>
            <Position>
              <LatitudeDegrees>39.41536313854157924652099609375</LatitudeDegrees>
              <LongitudeDegrees>-0.801997594535350799560546875</LongitudeDegrees>
            </Position>
            <AltitudeMeters>470</AltitudeMeters>
            <DistanceMeters>2063.5799351036</DistanceMeters>
          </Trackpoint>
          <Trackpoint>
            <Time>2022-06-01T17:48:21.000Z</Time>
            <Position>
              <LatitudeDegrees>39.4153613783419132232666015625</LatitudeDegrees>
              <LongitudeDegrees>-0.8020155318081378936767578125</LongitudeDegrees>
            </Position>
            <AltitudeMeters>470.20001220703125</AltitudeMeters>
            <DistanceMeters>2065.1297739127</DistanceMeters>
          </Trackpoint>
          <Trackpoint>
            <Time>2022-06-01T17:48:23.000Z</Time>
            <Position>
              <LatitudeDegrees>39.41535039804875850677490234375</LatitudeDegrees>
              <LongitudeDegrees>-0.8020329661667346954345703125</LongitudeDegrees>
            </Position>
            <AltitudeMeters>470.399993896484375</AltitudeMeters>
            <DistanceMeters>2067.0632815149</DistanceMeters>
          </Trackpoint>
          <Trackpoint>
            <Time>2022-06-01T17:48:24.000Z</Time>
            <Position>
              <LatitudeDegrees>39.41533531062304973602294921875</LatitudeDegrees>
              <LongitudeDegrees>-0.80204025842249393463134765625</LongitudeDegrees>
            </Position>
            <AltitudeMeters>470.600006103515625</AltitudeMeters>
            <DistanceMeters>2068.8562419757</DistanceMeters>
          </Trackpoint>
          <Trackpoint>
            <Time>2022-06-01T17:48:26.000Z</Time>
            <Position>
              <LatitudeDegrees>39.41530848853290081024169921875</LatitudeDegrees>
              <LongitudeDegrees>-0.8020569384098052978515625</LongitudeDegrees>
            </Position>
            <AltitudeMeters>471</AltitudeMeters>
            <DistanceMeters>2072.1699367347</DistanceMeters>
          </Trackpoint>
          <Trackpoint>
            <Time>2022-06-01T17:48:28.000Z</Time>
            <Position>
              <LatitudeDegrees>39.4152720272541046142578125</LatitudeDegrees>
              <LongitudeDegrees>-0.8020691759884357452392578125</LongitudeDegrees>
            </Position>
            <AltitudeMeters>471.79998779296875</AltitudeMeters>
            <DistanceMeters>2076.3618967488</DistanceMeters>
          </Trackpoint>
          <Trackpoint>
            <Time>2022-06-01T17:48:29.000Z</Time>
            <Position>
              <LatitudeDegrees>39.415260963141918182373046875</LatitudeDegrees>
              <LongitudeDegrees>-0.80206942744553089141845703125</LongitudeDegrees>
            </Position>
            <AltitudeMeters>472</AltitudeMeters>
            <DistanceMeters>2077.5935837393</DistanceMeters>
          </Trackpoint>
          <Trackpoint>
            <Time>2022-06-01T17:48:31.000Z</Time>
            <Position>
              <LatitudeDegrees>39.41523875109851360321044921875</LatitudeDegrees>
              <LongitudeDegrees>-0.802059955894947052001953125</LongitudeDegrees>
            </Position>
            <AltitudeMeters>472.600006103515625</AltitudeMeters>
            <DistanceMeters>2080.1959974906</DistanceMeters>
          </Trackpoint>
          <Trackpoint>
            <Time>2022-06-01T17:48:33.000Z</Time>
            <Position>
              <LatitudeDegrees>39.41521913744509220123291015625</LatitudeDegrees>
              <LongitudeDegrees>-0.802042521536350250244140625</LongitudeDegrees>
            </Position>
            <AltitudeMeters>473.20001220703125</AltitudeMeters>
            <DistanceMeters>2082.8431354395</DistanceMeters>
          </Trackpoint>
          <Trackpoint>
            <Time>2022-06-01T17:48:34.000Z</Time>
            <Position>
              <LatitudeDegrees>39.415205307304859161376953125</LatitudeDegrees>
              <LongitudeDegrees>-0.80203137360513210296630859375</LongitudeDegrees>
            </Position>
            <AltitudeMeters>473.600006103515625</AltitudeMeters>
            <DistanceMeters>2084.6561295999</DistanceMeters>
          </Trackpoint>
          <Trackpoint>
            <Time>2022-06-01T17:48:35.000Z</Time>
            <Position>
              <LatitudeDegrees>39.41519533284008502960205078125</LatitudeDegrees>
              <LongitudeDegrees>-0.8020175434648990631103515625</LongitudeDegrees>
            </Position>
            <AltitudeMeters>473.79998779296875</AltitudeMeters>
            <DistanceMeters>2086.2827249393</DistanceMeters>
          </Trackpoint>
          <Trackpoint>
            <Time>2022-06-01T17:48:37.000Z</Time>
            <Position>
              <LatitudeDegrees>39.41516943275928497314453125</LatitudeDegrees>
              <LongitudeDegrees>-0.8019830100238323211669921875</LongitudeDegrees>
            </Position>
            <AltitudeMeters>474.600006103515625</AltitudeMeters>
            <DistanceMeters>2090.4215720027</DistanceMeters>
          </Trackpoint>
          <Trackpoint>
            <Time>2022-06-01T17:48:40.000Z</Time>
            <Position>
              <LatitudeDegrees>39.41515040583908557891845703125</LatitudeDegrees>
              <LongitudeDegrees>-0.80194294452667236328125</LongitudeDegrees>
            </Position>
            <AltitudeMeters>475.399993896484375</AltitudeMeters>
            <DistanceMeters>2094.4655141931</DistanceMeters>
          </Trackpoint>
          <Trackpoint>
            <Time>2022-06-01T17:48:42.000Z</Time>
            <Position>
              <LatitudeDegrees>39.41514571197330951690673828125</LatitudeDegrees>
              <LongitudeDegrees>-0.80193213187158107757568359375</LongitudeDegrees>
            </Position>
            <AltitudeMeters>475.600006103515625</AltitudeMeters>
            <DistanceMeters>2095.5321864164</DistanceMeters>
          </Trackpoint>
          <Trackpoint>
            <Time>2022-06-01T17:48:44.000Z</Time>
            <Position>
              <LatitudeDegrees>39.41513196565210819244384765625</LatitudeDegrees>
              <LongitudeDegrees>-0.8019320480525493621826171875</LongitudeDegrees>
            </Position>
            <AltitudeMeters>475.79998779296875</AltitudeMeters>
            <DistanceMeters>2097.0614966528</DistanceMeters>
          </Trackpoint>
          <Trackpoint>
            <Time>2022-06-01T17:48:46.000Z</Time>
            <Position>
              <LatitudeDegrees>39.415104389190673828125</LatitudeDegrees>
              <LongitudeDegrees>-0.8019387535750865936279296875</LongitudeDegrees>
            </Position>
            <AltitudeMeters>476.399993896484375</AltitudeMeters>
            <DistanceMeters>2100.1843931543</DistanceMeters>
          </Trackpoint>
          <Trackpoint>
            <Time>2022-06-01T17:48:48.000Z</Time>
            <Position>
              <LatitudeDegrees>39.4150683470070362091064453125</LatitudeDegrees>
              <LongitudeDegrees>-0.801953338086605072021484375</LongitudeDegrees>
            </Position>
            <AltitudeMeters>477</AltitudeMeters>
            <DistanceMeters>2104.388184253</DistanceMeters>
          </Trackpoint>
          <Trackpoint>
            <Time>2022-06-01T17:48:52.000Z</Time>
            <Position>
              <LatitudeDegrees>39.4150049798190593719482421875</LatitudeDegrees>
              <LongitudeDegrees>-0.802033804357051849365234375</LongitudeDegrees>
            </Position>
            <AltitudeMeters>477.399993896484375</AltitudeMeters>
            <DistanceMeters>2114.268221012</DistanceMeters>
          </Trackpoint>
          <Trackpoint>
            <Time>2022-06-01T17:48:55.000Z</Time>
            <Position>
              <LatitudeDegrees>39.41493834368884563446044921875</LatitudeDegrees>
              <LongitudeDegrees>-0.8021020330488681793212890625</LongitudeDegrees>
            </Position>
            <AltitudeMeters>478</AltitudeMeters>
            <DistanceMeters>2123.7251696267</DistanceMeters>
          </Trackpoint>
          <Trackpoint>
            <Time>2022-06-01T17:48:57.000Z</Time>
            <Position>
              <LatitudeDegrees>39.41489643417298793792724609375</LatitudeDegrees>
              <LongitudeDegrees>-0.802150480449199676513671875</LongitudeDegrees>
            </Position>
            <AltitudeMeters>478</AltitudeMeters>
            <DistanceMeters>2129.9796313265</DistanceMeters>
          </Trackpoint>
          <Trackpoint>
            <Time>2022-06-01T17:49:00.000Z</Time>
            <Position>
              <LatitudeDegrees>39.414826445281505584716796875</LatitudeDegrees>
              <LongitudeDegrees>-0.80223371274769306182861328125</LongitudeDegrees>
            </Position>
            <AltitudeMeters>478.20001220703125</AltitudeMeters>
            <DistanceMeters>2140.5579443912</DistanceMeters>
          </Trackpoint>
          <Trackpoint>
            <Time>2022-06-01T17:49:01.000Z</Time>
            <Position>
              <LatitudeDegrees>39.41480062901973724365234375</LatitudeDegrees>
              <LongitudeDegrees>-0.80225869081914424896240234375</LongitudeDegrees>
            </Position>
            <AltitudeMeters>478.399993896484375</AltitudeMeters>
            <DistanceMeters>2144.1463826321</DistanceMeters>
          </Trackpoint>
          <Trackpoint>
            <Time>2022-06-01T17:49:02.000Z</Time>
            <Position>
              <LatitudeDegrees>39.4147729687392711639404296875</LatitudeDegrees>
              <LongitudeDegrees>-0.80228584818542003631591796875</LongitudeDegrees>
            </Position>
            <AltitudeMeters>478.600006103515625</AltitudeMeters>
            <DistanceMeters>2148.0110619769</DistanceMeters>
          </Trackpoint>
          <Trackpoint>
            <Time>2022-06-01T17:49:03.000Z</Time>
            <Position>
              <LatitudeDegrees>39.41474690102040767669677734375</LatitudeDegrees>
              <LongitudeDegrees>-0.80231250263750553131103515625</LongitudeDegrees>
            </Position>
            <AltitudeMeters>478.79998779296875</AltitudeMeters>
            <DistanceMeters>2151.7110073669</DistanceMeters>
          </Trackpoint>
          <Trackpoint>
            <Time>2022-06-01T17:49:05.000Z</Time>
            <Position>
              <LatitudeDegrees>39.41469945944845676422119140625</LatitudeDegrees>
              <LongitudeDegrees>-0.80236514098942279815673828125</LongitudeDegrees>
            </Position>
            <AltitudeMeters>479.20001220703125</AltitudeMeters>
            <DistanceMeters>2158.6661579412</DistanceMeters>
          </Trackpoint>
          <Trackpoint>
            <Time>2022-06-01T17:49:07.000Z</Time>
            <Position>
              <LatitudeDegrees>39.41465704701840877532958984375</LatitudeDegrees>
              <LongitudeDegrees>-0.80241434276103973388671875</LongitudeDegrees>
            </Position>
            <AltitudeMeters>479.399993896484375</AltitudeMeters>
            <DistanceMeters>2165.0052304424</DistanceMeters>
          </Trackpoint>
          <Trackpoint>
            <Time>2022-06-01T17:49:09.000Z</Time>
            <Position>
              <LatitudeDegrees>39.41461815498769283294677734375</LatitudeDegrees>
              <LongitudeDegrees>-0.8024592697620391845703125</LongitudeDegrees>
            </Position>
            <AltitudeMeters>479.79998779296875</AltitudeMeters>
            <DistanceMeters>2170.8073098096</DistanceMeters>
          </Trackpoint>
          <Trackpoint>
            <Time>2022-06-01T17:49:11.000Z</Time>
            <Position>
              <LatitudeDegrees>39.41458337008953094482421875</LatitudeDegrees>
              <LongitudeDegrees>-0.80250930972397327423095703125</LongitudeDegrees>
            </Position>
            <AltitudeMeters>480.600006103515625</AltitudeMeters>
            <DistanceMeters>2176.5953650622</DistanceMeters>
          </Trackpoint>
          <Trackpoint>
            <Time>2022-06-01T17:49:14.000Z</Time>
            <Position>
              <LatitudeDegrees>39.4145241938531398773193359375</LatitudeDegrees>
              <LongitudeDegrees>-0.80259363166987895965576171875</LongitudeDegrees>
            </Position>
            <AltitudeMeters>480.600006103515625</AltitudeMeters>
            <DistanceMeters>2186.3909555137</DistanceMeters>
          </Trackpoint>
          <Trackpoint>
            <Time>2022-06-01T17:49:16.000Z</Time>
            <Position>
              <LatitudeDegrees>39.414497874677181243896484375</LatitudeDegrees>
              <LongitudeDegrees>-0.80265297554433345794677734375</LongitudeDegrees>
            </Position>
            <AltitudeMeters>481.600006103515625</AltitudeMeters>
            <DistanceMeters>2192.2749433694</DistanceMeters>
          </Trackpoint>
          <Trackpoint>
            <Time>2022-06-01T17:49:20.000Z</Time>
            <Position>
              <LatitudeDegrees>39.4144584797322750091552734375</LatitudeDegrees>
              <LongitudeDegrees>-0.8027927018702030181884765625</LongitudeDegrees>
            </Position>
            <AltitudeMeters>481.600006103515625</AltitudeMeters>
            <DistanceMeters>2205.0651296408</DistanceMeters>
          </Trackpoint>
          <Trackpoint>
            <Time>2022-06-01T17:49:23.000Z</Time>
            <Position>
              <LatitudeDegrees>39.41442000679671764373779296875</LatitudeDegrees>
              <LongitudeDegrees>-0.80289538018405437469482421875</LongitudeDegrees>
            </Position>
            <AltitudeMeters>482.20001220703125</AltitudeMeters>
            <DistanceMeters>2214.8777595188</DistanceMeters>
          </Trackpoint>
          <Trackpoint>
            <Time>2022-06-01T17:49:25.000Z</Time>
            <Position>
              <LatitudeDegrees>39.41439435817301273345947265625</LatitudeDegrees>
              <LongitudeDegrees>-0.80296830274164676666259765625</LongitudeDegrees>
            </Position>
            <AltitudeMeters>482.20001220703125</AltitudeMeters>
            <DistanceMeters>2221.7670324695</DistanceMeters>
          </Trackpoint>
          <Trackpoint>
            <Time>2022-06-01T17:49:29.000Z</Time>
            <Position>
              <LatitudeDegrees>39.4143300689756870269775390625</LatitudeDegrees>
              <LongitudeDegrees>-0.8030971325933933258056640625</LongitudeDegrees>
            </Position>
            <AltitudeMeters>482.600006103515625</AltitudeMeters>
            <DistanceMeters>2234.9548780976</DistanceMeters>
          </Trackpoint>
          <Trackpoint>
            <Time>2022-06-01T17:49:32.000Z</Time>
            <Position>
              <LatitudeDegrees>39.41428019665181636810302734375</LatitudeDegrees>
              <LongitudeDegrees>-0.80319461412727832794189453125</LongitudeDegrees>
            </Position>
            <AltitudeMeters>483</AltitudeMeters>
            <DistanceMeters>2245.007967949</DistanceMeters>
          </Trackpoint>
          <Trackpoint>
            <Time>2022-06-01T17:49:33.000Z</Time>
            <Position>
              <LatitudeDegrees>39.41426393575966358184814453125</LatitudeDegrees>
              <LongitudeDegrees>-0.80322395078837871551513671875</LongitudeDegrees>
            </Position>
            <AltitudeMeters>483.20001220703125</AltitudeMeters>
            <DistanceMeters>2248.1134665631</DistanceMeters>
          </Trackpoint>
          <Trackpoint>
            <Time>2022-06-01T17:49:34.000Z</Time>
            <Position>
              <LatitudeDegrees>39.41424717195332050323486328125</LatitudeDegrees>
              <LongitudeDegrees>-0.80325395800173282623291015625</LongitudeDegrees>
            </Position>
            <AltitudeMeters>483.399993896484375</AltitudeMeters>
            <DistanceMeters>2251.2979250487</DistanceMeters>
          </Trackpoint>
          <Trackpoint>
            <Time>2022-06-01T17:49:38.000Z</Time>
            <Position>
              <LatitudeDegrees>39.4141776859760284423828125</LatitudeDegrees>
              <LongitudeDegrees>-0.80336510203778743743896484375</LongitudeDegrees>
            </Position>
            <AltitudeMeters>483.600006103515625</AltitudeMeters>
            <DistanceMeters>2263.5924136349</DistanceMeters>
          </Trackpoint>
          <Trackpoint>
            <Time>2022-06-01T17:49:39.000Z</Time>
            <Position>
              <LatitudeDegrees>39.4141589105129241943359375</LatitudeDegrees>
              <LongitudeDegrees>-0.80339628271758556365966796875</LongitudeDegrees>
            </Position>
            <AltitudeMeters>483.600006103515625</AltitudeMeters>
            <DistanceMeters>2266.9921927231</DistanceMeters>
          </Trackpoint>
          <Trackpoint>
            <Time>2022-06-01T17:49:40.000Z</Time>
            <Position>
              <LatitudeDegrees>39.414137788116931915283203125</LatitudeDegrees>
              <LongitudeDegrees>-0.80342729575932025909423828125</LongitudeDegrees>
            </Position>
            <AltitudeMeters>484.20001220703125</AltitudeMeters>
            <DistanceMeters>2270.546496726</DistanceMeters>
          </Trackpoint>
          <Trackpoint>
            <Time>2022-06-01T17:49:41.000Z</Time>
            <Position>
              <LatitudeDegrees>39.4141181744635105133056640625</LatitudeDegrees>
              <LongitudeDegrees>-0.80345914699137210845947265625</LongitudeDegrees>
            </Position>
            <AltitudeMeters>484</AltitudeMeters>
            <DistanceMeters>2274.0496201733</DistanceMeters>
          </Trackpoint>
          <Trackpoint>
            <Time>2022-06-01T17:49:43.000Z</Time>
            <Position>
              <LatitudeDegrees>39.41408506594598293304443359375</LatitudeDegrees>
              <LongitudeDegrees>-0.80352117307484149932861328125</LongitudeDegrees>
            </Position>
            <AltitudeMeters>483.79998779296875</AltitudeMeters>
            <DistanceMeters>2280.5316681285</DistanceMeters>
          </Trackpoint>
          <Trackpoint>
            <Time>2022-06-01T17:49:45.000Z</Time>
            <Position>
              <LatitudeDegrees>39.41406411118805408477783203125</LatitudeDegrees>
              <LongitudeDegrees>-0.8035930059850215911865234375</LongitudeDegrees>
            </Position>
            <AltitudeMeters>484</AltitudeMeters>
            <DistanceMeters>2287.1344863959</DistanceMeters>
          </Trackpoint>
          <Trackpoint>
            <Time>2022-06-01T17:49:47.000Z</Time>
            <Position>
              <LatitudeDegrees>39.414059333503246307373046875</LatitudeDegrees>
              <LongitudeDegrees>-0.8036684431135654449462890625</LongitudeDegrees>
            </Position>
            <AltitudeMeters>484</AltitudeMeters>
            <DistanceMeters>2293.6436429215</DistanceMeters>
          </Trackpoint>
          <Trackpoint>
            <Time>2022-06-01T17:49:51.000Z</Time>
            <Position>
              <LatitudeDegrees>39.414056651294231414794921875</LatitudeDegrees>
              <LongitudeDegrees>-0.80383121967315673828125</LongitudeDegrees>
            </Position>
            <AltitudeMeters>484.399993896484375</AltitudeMeters>
            <DistanceMeters>2307.6438871798</DistanceMeters>
          </Trackpoint>
          <Trackpoint>
            <Time>2022-06-01T17:49:52.000Z</Time>
            <Position>
              <LatitudeDegrees>39.41405363380908966064453125</LatitudeDegrees>
              <LongitudeDegrees>-0.803868770599365234375</LongitudeDegrees>
            </Position>
            <AltitudeMeters>484.79998779296875</AltitudeMeters>
            <DistanceMeters>2310.8887398935</DistanceMeters>
          </Trackpoint>
          <Trackpoint>
            <Time>2022-06-01T17:49:57.000Z</Time>
            <Position>
              <LatitudeDegrees>39.41403360106050968170166015625</LatitudeDegrees>
              <LongitudeDegrees>-0.804056860506534576416015625</LongitudeDegrees>
            </Position>
            <AltitudeMeters>484.79998779296875</AltitudeMeters>
            <DistanceMeters>2327.2156458045</DistanceMeters>
          </Trackpoint>
          <Trackpoint>
            <Time>2022-06-01T17:49:58.000Z</Time>
            <Position>
              <LatitudeDegrees>39.4140333496034145355224609375</LatitudeDegrees>
              <LongitudeDegrees>-0.80409474670886993408203125</LongitudeDegrees>
            </Position>
            <AltitudeMeters>484.79998779296875</AltitudeMeters>
            <DistanceMeters>2330.47161106</DistanceMeters>
          </Trackpoint>
          <Trackpoint>
            <Time>2022-06-01T17:50:04.000Z</Time>
            <Position>
              <LatitudeDegrees>39.41404558718204498291015625</LatitudeDegrees>
              <LongitudeDegrees>-0.80434092320501804351806640625</LongitudeDegrees>
            </Position>
            <AltitudeMeters>485</AltitudeMeters>
            <DistanceMeters>2351.6840769516</DistanceMeters>
          </Trackpoint>
          <Trackpoint>
            <Time>2022-06-01T17:50:10.000Z</Time>
            <Position>
              <LatitudeDegrees>39.41400325857102870941162109375</LatitudeDegrees>
              <LongitudeDegrees>-0.80455147661268711090087890625</LongitudeDegrees>
            </Position>
            <AltitudeMeters>485</AltitudeMeters>
            <DistanceMeters>2370.3920352265</DistanceMeters>
          </Trackpoint>
          <Trackpoint>
            <Time>2022-06-01T17:50:13.000Z</Time>
            <Position>
              <LatitudeDegrees>39.4139662943780422210693359375</LatitudeDegrees>
              <LongitudeDegrees>-0.804630182683467864990234375</LongitudeDegrees>
            </Position>
            <AltitudeMeters>485.399993896484375</AltitudeMeters>
            <DistanceMeters>2378.311814957</DistanceMeters>
          </Trackpoint>
          <Trackpoint>
            <Time>2022-06-01T17:50:16.000Z</Time>
            <Position>
              <LatitudeDegrees>39.41392446868121623992919921875</LatitudeDegrees>
              <LongitudeDegrees>-0.80472531728446483612060546875</LongitudeDegrees>
            </Position>
            <AltitudeMeters>485.79998779296875</AltitudeMeters>
            <DistanceMeters>2387.7247374611</DistanceMeters>
          </Trackpoint>
          <Trackpoint>
            <Time>2022-06-01T17:50:21.000Z</Time>
            <Position>
              <LatitudeDegrees>39.4138368777930736541748046875</LatitudeDegrees>
              <LongitudeDegrees>-0.8049002476036548614501953125</LongitudeDegrees>
            </Position>
            <AltitudeMeters>485.399993896484375</AltitudeMeters>
            <DistanceMeters>2405.6498087309</DistanceMeters>
          </Trackpoint>
          <Trackpoint>
            <Time>2022-06-01T17:50:22.000Z</Time>
            <Position>
              <LatitudeDegrees>39.41381894052028656005859375</LatitudeDegrees>
              <LongitudeDegrees>-0.80493402667343616485595703125</LongitudeDegrees>
            </Position>
            <AltitudeMeters>485.399993896484375</AltitudeMeters>
            <DistanceMeters>2409.1722120347</DistanceMeters>
          </Trackpoint>
          <Trackpoint>
            <Time>2022-06-01T17:50:27.000Z</Time>
            <Position>
              <LatitudeDegrees>39.41373134963214397430419921875</LatitudeDegrees>
              <LongitudeDegrees>-0.8050878345966339111328125</LongitudeDegrees>
            </Position>
            <AltitudeMeters>485.79998779296875</AltitudeMeters>
            <DistanceMeters>2425.6027678794</DistanceMeters>
          </Trackpoint>
          <Trackpoint>
            <Time>2022-06-01T17:50:29.000Z</Time>
            <Position>
              <LatitudeDegrees>39.41369782201945781707763671875</LatitudeDegrees>
              <LongitudeDegrees>-0.80515329726040363311767578125</LongitudeDegrees>
            </Position>
            <AltitudeMeters>486.399993896484375</AltitudeMeters>
            <DistanceMeters>2432.3570218127</DistanceMeters>
          </Trackpoint>
          <Trackpoint>
            <Time>2022-06-01T17:50:36.000Z</Time>
            <Position>
              <LatitudeDegrees>39.41358558833599090576171875</LatitudeDegrees>
              <LongitudeDegrees>-0.80537818372249603271484375</LongitudeDegrees>
            </Position>
            <AltitudeMeters>486</AltitudeMeters>
            <DistanceMeters>2455.3786040053</DistanceMeters>
          </Trackpoint>
          <Trackpoint>
            <Time>2022-06-01T17:50:37.000Z</Time>
            <Position>
              <LatitudeDegrees>39.413564465939998626708984375</LatitudeDegrees>
              <LongitudeDegrees>-0.80541078932583332061767578125</LongitudeDegrees>
            </Position>
            <AltitudeMeters>486.20001220703125</AltitudeMeters>
            <DistanceMeters>2459.0368239672</DistanceMeters>
          </Trackpoint>
          <Trackpoint>
            <Time>2022-06-01T17:50:42.000Z</Time>
            <Position>
              <LatitudeDegrees>39.41347670741379261016845703125</LatitudeDegrees>
              <LongitudeDegrees>-0.8055768348276615142822265625</LongitudeDegrees>
            </Position>
            <AltitudeMeters>486.399993896484375</AltitudeMeters>
            <DistanceMeters>2476.3363844676</DistanceMeters>
          </Trackpoint>
          <Trackpoint>
            <Time>2022-06-01T17:50:46.000Z</Time>
            <Position>
              <LatitudeDegrees>39.41341501660645008087158203125</LatitudeDegrees>
              <LongitudeDegrees>-0.80568571574985980987548828125</LongitudeDegrees>
            </Position>
            <AltitudeMeters>487</AltitudeMeters>
            <DistanceMeters>2487.9471558128</DistanceMeters>
          </Trackpoint>
          <Trackpoint>
            <Time>2022-06-01T17:50:49.000Z</Time>
            <Position>
              <LatitudeDegrees>39.41335550509393215179443359375</LatitudeDegrees>
              <LongitudeDegrees>-0.80576987005770206451416015625</LongitudeDegrees>
            </Position>
            <AltitudeMeters>487.399993896484375</AltitudeMeters>
            <DistanceMeters>2497.7574847951</DistanceMeters>
          </Trackpoint>
          <Trackpoint>
            <Time>2022-06-01T17:50:51.000Z</Time>
            <Position>
              <LatitudeDegrees>39.413333795964717864990234375</LatitudeDegrees>
              <LongitudeDegrees>-0.80579618923366069793701171875</LongitudeDegrees>
            </Position>
            <AltitudeMeters>487.399993896484375</AltitudeMeters>
            <DistanceMeters>2501.0684533547</DistanceMeters>
          </Trackpoint>
          <Trackpoint>
            <Time>2022-06-01T17:50:54.000Z</Time>
            <Position>
              <LatitudeDegrees>39.41330269910395145416259765625</LatitudeDegrees>
              <LongitudeDegrees>-0.80577556975185871124267578125</LongitudeDegrees>
            </Position>
            <AltitudeMeters>488</AltitudeMeters>
            <DistanceMeters>2504.9575892541</DistanceMeters>
          </Trackpoint>
          <Trackpoint>
            <Time>2022-06-01T17:50:55.000Z</Time>
            <Position>
              <LatitudeDegrees>39.41329632885754108428955078125</LatitudeDegrees>
              <LongitudeDegrees>-0.8057578839361667633056640625</LongitudeDegrees>
            </Position>
            <AltitudeMeters>488.20001220703125</AltitudeMeters>
            <DistanceMeters>2506.6360956885</DistanceMeters>
          </Trackpoint>
          <Trackpoint>
            <Time>2022-06-01T17:50:56.000Z</Time>
            <Position>
              <LatitudeDegrees>39.4132873602211475372314453125</LatitudeDegrees>
              <LongitudeDegrees>-0.80574254505336284637451171875</LongitudeDegrees>
            </Position>
            <AltitudeMeters>488.600006103515625</AltitudeMeters>
            <DistanceMeters>2508.2902157454</DistanceMeters>
          </Trackpoint>
          <Trackpoint>
            <Time>2022-06-01T17:50:59.000Z</Time>
            <Position>
              <LatitudeDegrees>39.41326866857707500457763671875</LatitudeDegrees>
              <LongitudeDegrees>-0.8056640066206455230712890625</LongitudeDegrees>
            </Position>
            <AltitudeMeters>488.79998779296875</AltitudeMeters>
            <DistanceMeters>2515.3567794602</DistanceMeters>
          </Trackpoint>
          <Trackpoint>
            <Time>2022-06-01T17:51:05.000Z</Time>
            <Position>
              <LatitudeDegrees>39.4133269228041172027587890625</LatitudeDegrees>
              <LongitudeDegrees>-0.80538078211247920989990234375</LongitudeDegrees>
            </Position>
            <AltitudeMeters>488.399993896484375</AltitudeMeters>
            <DistanceMeters>2540.5594693378</DistanceMeters>
          </Trackpoint>
          <Trackpoint>
            <Time>2022-06-01T17:51:10.000Z</Time>
            <Position>
              <LatitudeDegrees>39.41335466690361499786376953125</LatitudeDegrees>
              <LongitudeDegrees>-0.8051228709518909454345703125</LongitudeDegrees>
            </Position>
            <AltitudeMeters>487.79998779296875</AltitudeMeters>
            <DistanceMeters>2562.951118774</DistanceMeters>
          </Trackpoint>
          <Trackpoint>
            <Time>2022-06-01T17:51:12.000Z</Time>
            <Position>
              <LatitudeDegrees>39.41335022449493408203125</LatitudeDegrees>
              <LongitudeDegrees>-0.80502605997025966644287109375</LongitudeDegrees>
            </Position>
            <AltitudeMeters>487.399993896484375</AltitudeMeters>
            <DistanceMeters>2571.2907619781</DistanceMeters>
          </Trackpoint>
          <Trackpoint>
            <Time>2022-06-01T17:51:17.000Z</Time>
            <Position>
              <LatitudeDegrees>39.413268081843852996826171875</LatitudeDegrees>
              <LongitudeDegrees>-0.80482053570449352264404296875</LongitudeDegrees>
            </Position>
            <AltitudeMeters>486.399993896484375</AltitudeMeters>
            <DistanceMeters>2591.1888204704</DistanceMeters>
          </Trackpoint>
          <Trackpoint>
            <Time>2022-06-01T17:51:18.000Z</Time>
            <Position>
              <LatitudeDegrees>39.41325156949460506439208984375</LatitudeDegrees>
              <LongitudeDegrees>-0.80477896146476268768310546875</LongitudeDegrees>
            </Position>
            <AltitudeMeters>486.399993896484375</AltitudeMeters>
            <DistanceMeters>2595.2070012381</DistanceMeters>
          </Trackpoint>
          <Trackpoint>
            <Time>2022-06-01T17:51:23.000Z</Time>
            <Position>
              <LatitudeDegrees>39.41317110322415828704833984375</LatitudeDegrees>
              <LongitudeDegrees>-0.8045904524624347686767578125</LongitudeDegrees>
            </Position>
            <AltitudeMeters>486</AltitudeMeters>
            <DistanceMeters>2613.7262426734</DistanceMeters>
          </Trackpoint>
          <Trackpoint>
            <Time>2022-06-01T17:51:25.000Z</Time>
            <Position>
              <LatitudeDegrees>39.41314570605754852294921875</LatitudeDegrees>
              <LongitudeDegrees>-0.80451644025743007659912109375</LongitudeDegrees>
            </Position>
            <AltitudeMeters>486</AltitudeMeters>
            <DistanceMeters>2620.6898272751</DistanceMeters>
          </Trackpoint>
          <Trackpoint>
            <Time>2022-06-01T17:51:30.000Z</Time>
            <Position>
              <LatitudeDegrees>39.4130811654031276702880859375</LatitudeDegrees>
              <LongitudeDegrees>-0.8043151907622814178466796875</LongitudeDegrees>
            </Position>
            <AltitudeMeters>485.20001220703125</AltitudeMeters>
            <DistanceMeters>2639.4272062844</DistanceMeters>
          </Trackpoint>
          <Trackpoint>
            <Time>2022-06-01T17:51:31.000Z</Time>
            <Position>
              <LatitudeDegrees>39.413074292242527008056640625</LatitudeDegrees>
              <LongitudeDegrees>-0.804268755018711090087890625</LongitudeDegrees>
            </Position>
            <AltitudeMeters>484.79998779296875</AltitudeMeters>
            <DistanceMeters>2643.492306516</DistanceMeters>
          </Trackpoint>
          <Trackpoint>
            <Time>2022-06-01T17:51:33.000Z</Time>
            <Position>
              <LatitudeDegrees>39.41306197084486484527587890625</LatitudeDegrees>
              <LongitudeDegrees>-0.80417781136929988861083984375</LongitudeDegrees>
            </Position>
            <AltitudeMeters>484.20001220703125</AltitudeMeters>
            <DistanceMeters>2651.4320145494</DistanceMeters>
          </Trackpoint>
          <Trackpoint>
            <Time>2022-06-01T17:51:35.000Z</Time>
            <Position>
              <LatitudeDegrees>39.41304939799010753631591796875</LatitudeDegrees>
              <LongitudeDegrees>-0.80408141948282718658447265625</LongitudeDegrees>
            </Position>
            <AltitudeMeters>483.399993896484375</AltitudeMeters>
            <DistanceMeters>2659.8385226384</DistanceMeters>
          </Trackpoint>
          <Trackpoint>
            <Time>2022-06-01T17:51:36.000Z</Time>
            <Position>
              <LatitudeDegrees>39.413044452667236328125</LatitudeDegrees>
              <LongitudeDegrees>-0.80403682775795459747314453125</LongitudeDegrees>
            </Position>
            <AltitudeMeters>483</AltitudeMeters>
            <DistanceMeters>2663.712536971</DistanceMeters>
          </Trackpoint>
          <Trackpoint>
            <Time>2022-06-01T17:51:38.000Z</Time>
            <Position>
              <LatitudeDegrees>39.41303146071732044219970703125</LatitudeDegrees>
              <LongitudeDegrees>-0.8039594627916812896728515625</LongitudeDegrees>
            </Position>
            <AltitudeMeters>482.600006103515625</AltitudeMeters>
            <DistanceMeters>2670.5200587162</DistanceMeters>
          </Trackpoint>
          <Trackpoint>
            <Time>2022-06-01T17:51:41.000Z</Time>
            <Position>
              <LatitudeDegrees>39.41298737190663814544677734375</LatitudeDegrees>
              <LongitudeDegrees>-0.8038367517292499542236328125</LongitudeDegrees>
            </Position>
            <AltitudeMeters>482</AltitudeMeters>
            <DistanceMeters>2682.1576309074</DistanceMeters>
          </Trackpoint>
          <Trackpoint>
            <Time>2022-06-01T17:51:42.000Z</Time>
            <Position>
              <LatitudeDegrees>39.412967674434185028076171875</LatitudeDegrees>
              <LongitudeDegrees>-0.8038002066314220428466796875</LongitudeDegrees>
            </Position>
            <AltitudeMeters>481.79998779296875</AltitudeMeters>
            <DistanceMeters>2685.9894587086</DistanceMeters>
          </Trackpoint>
          <Trackpoint>
            <Time>2022-06-01T17:51:47.000Z</Time>
            <Position>
              <LatitudeDegrees>39.412849657237529754638671875</LatitudeDegrees>
              <LongitudeDegrees>-0.80365997739136219024658203125</LongitudeDegrees>
            </Position>
            <AltitudeMeters>481</AltitudeMeters>
            <DistanceMeters>2703.8203297337</DistanceMeters>
          </Trackpoint>
          <Trackpoint>
            <Time>2022-06-01T17:51:48.000Z</Time>
            <Position>
              <LatitudeDegrees>39.4128236733376979827880859375</LatitudeDegrees>
              <LongitudeDegrees>-0.8036426268517971038818359375</LongitudeDegrees>
            </Position>
            <AltitudeMeters>481</AltitudeMeters>
            <DistanceMeters>2707.0762949893</DistanceMeters>
          </Trackpoint>
          <Trackpoint>
            <Time>2022-06-01T17:51:52.000Z</Time>
            <Position>
              <LatitudeDegrees>39.41269182600080966949462890625</LatitudeDegrees>
              <LongitudeDegrees>-0.8036828599870204925537109375</LongitudeDegrees>
            </Position>
            <AltitudeMeters>480.600006103515625</AltitudeMeters>
            <DistanceMeters>2722.1538337299</DistanceMeters>
          </Trackpoint>
          <Trackpoint>
            <Time>2022-06-01T17:51:53.000Z</Time>
            <Position>
              <LatitudeDegrees>39.4126610644161701202392578125</LatitudeDegrees>
              <LongitudeDegrees>-0.803705155849456787109375</LongitudeDegrees>
            </Position>
            <AltitudeMeters>480.399993896484375</AltitudeMeters>
            <DistanceMeters>2726.0776431464</DistanceMeters>
          </Trackpoint>
          <Trackpoint>
            <Time>2022-06-01T17:51:57.000Z</Time>
            <Position>
              <LatitudeDegrees>39.4125494174659252166748046875</LatitudeDegrees>
              <LongitudeDegrees>-0.8038240112364292144775390625</LongitudeDegrees>
            </Position>
            <AltitudeMeters>480</AltitudeMeters>
            <DistanceMeters>2742.1672121741</DistanceMeters>
          </Trackpoint>
          <Trackpoint>
            <Time>2022-06-01T17:51:58.000Z</Time>
            <Position>
              <LatitudeDegrees>39.4125236012041568756103515625</LatitudeDegrees>
              <LongitudeDegrees>-0.80384957604110240936279296875</LongitudeDegrees>
            </Position>
            <AltitudeMeters>479.600006103515625</AltitudeMeters>
            <DistanceMeters>2745.7844736752</DistanceMeters>
          </Trackpoint>
          <Trackpoint>
            <Time>2022-06-01T17:52:02.000Z</Time>
            <Position>
              <LatitudeDegrees>39.4124139659106731414794921875</LatitudeDegrees>
              <LongitudeDegrees>-0.8039235882461071014404296875</LongitudeDegrees>
            </Position>
            <AltitudeMeters>479.20001220703125</AltitudeMeters>
            <DistanceMeters>2759.547281655</DistanceMeters>
          </Trackpoint>
          <Trackpoint>
            <Time>2022-06-01T17:52:03.000Z</Time>
            <Position>
              <LatitudeDegrees>39.4123874790966510772705078125</LatitudeDegrees>
              <LongitudeDegrees>-0.80394378863275051116943359375</LongitudeDegrees>
            </Position>
            <AltitudeMeters>479.20001220703125</AltitudeMeters>
            <DistanceMeters>2762.9682433723</DistanceMeters>
          </Trackpoint>
          <Trackpoint>
            <Time>2022-06-01T17:52:09.000Z</Time>
            <Position>
              <LatitudeDegrees>39.4122161529958248138427734375</LatitudeDegrees>
              <LongitudeDegrees>-0.8040657453238964080810546875</LongitudeDegrees>
            </Position>
            <AltitudeMeters>478.79998779296875</AltitudeMeters>
            <DistanceMeters>2784.7308132879</DistanceMeters>
          </Trackpoint>
          <Trackpoint>
            <Time>2022-06-01T17:52:15.000Z</Time>
            <Position>
              <LatitudeDegrees>39.41206284798681735992431640625</LatitudeDegrees>
              <LongitudeDegrees>-0.8041680045425891876220703125</LongitudeDegrees>
            </Position>
            <AltitudeMeters>479</AltitudeMeters>
            <DistanceMeters>2803.9266800142</DistanceMeters>
          </Trackpoint>
          <Trackpoint>
            <Time>2022-06-01T17:52:16.000Z</Time>
            <Position>
              <LatitudeDegrees>39.41203569062054157257080078125</LatitudeDegrees>
              <LongitudeDegrees>-0.8041874505579471588134765625</LongitudeDegrees>
            </Position>
            <AltitudeMeters>479</AltitudeMeters>
            <DistanceMeters>2807.3804795136</DistanceMeters>
          </Trackpoint>
          <Trackpoint>
            <Time>2022-06-01T17:52:19.000Z</Time>
            <Position>
              <LatitudeDegrees>39.411951787769794464111328125</LatitudeDegrees>
              <LongitudeDegrees>-0.8042498119175434112548828125</LongitudeDegrees>
            </Position>
            <AltitudeMeters>479.20001220703125</AltitudeMeters>
            <DistanceMeters>2818.1491489622</DistanceMeters>
          </Trackpoint>
          <Trackpoint>
            <Time>2022-06-01T17:52:22.000Z</Time>
            <Position>
              <LatitudeDegrees>39.41186964511871337890625</LatitudeDegrees>
              <LongitudeDegrees>-0.8043098263442516326904296875</LongitudeDegrees>
            </Position>
            <AltitudeMeters>478.399993896484375</AltitudeMeters>
            <DistanceMeters>2828.6469131491</DistanceMeters>
          </Trackpoint>
          <Trackpoint>
            <Time>2022-06-01T17:52:23.000Z</Time>
            <Position>
              <LatitudeDegrees>39.41184324212372303009033203125</LatitudeDegrees>
              <LongitudeDegrees>-0.804332457482814788818359375</LongitudeDegrees>
            </Position>
            <AltitudeMeters>478.399993896484375</AltitudeMeters>
            <DistanceMeters>2832.1718791328</DistanceMeters>
          </Trackpoint>
          <Trackpoint>
            <Time>2022-06-01T17:52:24.000Z</Time>
            <Position>
              <LatitudeDegrees>39.41181876696646213531494140625</LatitudeDegrees>
              <LongitudeDegrees>-0.804354585707187652587890625</LongitudeDegrees>
            </Position>
            <AltitudeMeters>478.399993896484375</AltitudeMeters>
            <DistanceMeters>2835.4950979777</DistanceMeters>
          </Trackpoint>
          <Trackpoint>
            <Time>2022-06-01T17:52:29.000Z</Time>
            <Position>
              <LatitudeDegrees>39.4117073714733123779296875</LatitudeDegrees>
              <LongitudeDegrees>-0.8044506423175334930419921875</LongitudeDegrees>
            </Position>
            <AltitudeMeters>478</AltitudeMeters>
            <DistanceMeters>2850.3930927729</DistanceMeters>
          </Trackpoint>
          <Trackpoint>
            <Time>2022-06-01T17:52:34.000Z</Time>
            <Position>
              <LatitudeDegrees>39.4115747697651386260986328125</LatitudeDegrees>
              <LongitudeDegrees>-0.8045478723943233489990234375</LongitudeDegrees>
            </Position>
            <AltitudeMeters>478</AltitudeMeters>
            <DistanceMeters>2867.3552947425</DistanceMeters>
          </Trackpoint>
          <Trackpoint>
            <Time>2022-06-01T17:52:35.000Z</Time>
            <Position>
              <LatitudeDegrees>39.411546103656291961669921875</LatitudeDegrees>
              <LongitudeDegrees>-0.80456119962036609649658203125</LongitudeDegrees>
            </Position>
            <AltitudeMeters>478</AltitudeMeters>
            <DistanceMeters>2870.7457648151</DistanceMeters>
          </Trackpoint>
          <Trackpoint>
            <Time>2022-06-01T17:52:40.000Z</Time>
            <Position>
              <LatitudeDegrees>39.41140704788267612457275390625</LatitudeDegrees>
              <LongitudeDegrees>-0.8045012690126895904541015625</LongitudeDegrees>
            </Position>
            <AltitudeMeters>478</AltitudeMeters>
            <DistanceMeters>2887.0582843216</DistanceMeters>
          </Trackpoint>
          <Trackpoint>
            <Time>2022-06-01T17:52:43.000Z</Time>
            <Position>
              <LatitudeDegrees>39.41134192049503326416015625</LatitudeDegrees>
              <LongitudeDegrees>-0.80442273057997226715087890625</LongitudeDegrees>
            </Position>
            <AltitudeMeters>477.399993896484375</AltitudeMeters>
            <DistanceMeters>2896.9657022973</DistanceMeters>
          </Trackpoint>
          <Trackpoint>
            <Time>2022-06-01T17:52:45.000Z</Time>
            <Position>
              <LatitudeDegrees>39.4112934730947017669677734375</LatitudeDegrees>
              <LongitudeDegrees>-0.80437696538865566253662109375</LongitudeDegrees>
            </Position>
            <AltitudeMeters>476.600006103515625</AltitudeMeters>
            <DistanceMeters>2903.64128671</DistanceMeters>
          </Trackpoint>
          <Trackpoint>
            <Time>2022-06-01T17:52:47.000Z</Time>
            <Position>
              <LatitudeDegrees>39.41123940981924533843994140625</LatitudeDegrees>
              <LongitudeDegrees>-0.804323069751262664794921875</LongitudeDegrees>
            </Position>
            <AltitudeMeters>476</AltitudeMeters>
            <DistanceMeters>2911.2374823681</DistanceMeters>
          </Trackpoint>
          <Trackpoint>
            <Time>2022-06-01T17:52:50.000Z</Time>
            <Position>
              <LatitudeDegrees>39.41116330213844776153564453125</LatitudeDegrees>
              <LongitudeDegrees>-0.80424721352756023406982421875</LongitudeDegrees>
            </Position>
            <AltitudeMeters>474.79998779296875</AltitudeMeters>
            <DistanceMeters>2921.9287268059</DistanceMeters>
          </Trackpoint>
          <Trackpoint>
            <Time>2022-06-01T17:52:55.000Z</Time>
            <Position>
              <LatitudeDegrees>39.41103941760957241058349609375</LatitudeDegrees>
              <LongitudeDegrees>-0.8041515760123729705810546875</LongitudeDegrees>
            </Position>
            <AltitudeMeters>473.79998779296875</AltitudeMeters>
            <DistanceMeters>2937.9837425982</DistanceMeters>
          </Trackpoint>
          <Trackpoint>
            <Time>2022-06-01T17:52:56.000Z</Time>
            <Position>
              <LatitudeDegrees>39.411018379032611846923828125</LatitudeDegrees>
              <LongitudeDegrees>-0.8041364885866641998291015625</LongitudeDegrees>
            </Position>
            <AltitudeMeters>473.600006103515625</AltitudeMeters>
            <DistanceMeters>2940.6614058886</DistanceMeters>
          </Trackpoint>
          <Trackpoint>
            <Time>2022-06-01T17:53:02.000Z</Time>
            <Position>
              <LatitudeDegrees>39.41096498630940914154052734375</LatitudeDegrees>
              <LongitudeDegrees>-0.80395770259201526641845703125</LongitudeDegrees>
            </Position>
            <AltitudeMeters>473.600006103515625</AltitudeMeters>
            <DistanceMeters>2957.1443640566</DistanceMeters>
          </Trackpoint>
          <Trackpoint>
            <Time>2022-06-01T17:53:05.000Z</Time>
            <Position>
              <LatitudeDegrees>39.41087278537452220916748046875</LatitudeDegrees>
              <LongitudeDegrees>-0.8039505779743194580078125</LongitudeDegrees>
            </Position>
            <AltitudeMeters>473.600006103515625</AltitudeMeters>
            <DistanceMeters>2967.4248316871</DistanceMeters>
          </Trackpoint>
          <Trackpoint>
            <Time>2022-06-01T17:53:19.000Z</Time>
            <Position>
              <LatitudeDegrees>39.41105735488235950469970703125</LatitudeDegrees>
              <LongitudeDegrees>-0.80370389856398105621337890625</LongitudeDegrees>
            </Position>
            <AltitudeMeters>474.20001220703125</AltitudeMeters>
            <DistanceMeters>2996.9544500708</DistanceMeters>
          </Trackpoint>
          <Trackpoint>
            <Time>2022-06-01T17:53:20.000Z</Time>
            <Position>
              <LatitudeDegrees>39.41106758080422878265380859375</LatitudeDegrees>
              <LongitudeDegrees>-0.80368462018668651580810546875</LongitudeDegrees>
            </Position>
            <AltitudeMeters>474.20001220703125</AltitudeMeters>
            <DistanceMeters>2998.9635404546</DistanceMeters>
          </Trackpoint>
          <Trackpoint>
            <Time>2022-06-01T17:53:24.000Z</Time>
            <Position>
              <LatitudeDegrees>39.4111199676990509033203125</LatitudeDegrees>
              <LongitudeDegrees>-0.80361857078969478607177734375</LongitudeDegrees>
            </Position>
            <AltitudeMeters>474.600006103515625</AltitudeMeters>
            <DistanceMeters>3007.1037309282</DistanceMeters>
          </Trackpoint>
          <Trackpoint>
            <Time>2022-06-01T17:53:26.000Z</Time>
            <Position>
              <LatitudeDegrees>39.41114477813243865966796875</LatitudeDegrees>
              <LongitudeDegrees>-0.80359451472759246826171875</LongitudeDegrees>
            </Position>
            <AltitudeMeters>475</AltitudeMeters>
            <DistanceMeters>3010.5536063974</DistanceMeters>
          </Trackpoint>
          <Trackpoint>
            <Time>2022-06-01T17:53:29.000Z</Time>
            <Position>
              <LatitudeDegrees>39.4111962430179119110107421875</LatitudeDegrees>
              <LongitudeDegrees>-0.8035467378795146942138671875</LongitudeDegrees>
            </Position>
            <AltitudeMeters>476</AltitudeMeters>
            <DistanceMeters>3017.6022573743</DistanceMeters>
          </Trackpoint>
          <Trackpoint>
            <Time>2022-06-01T17:53:31.000Z</Time>
            <Position>
              <LatitudeDegrees>39.41121987998485565185546875</LatitudeDegrees>
              <LongitudeDegrees>-0.80349929630756378173828125</LongitudeDegrees>
            </Position>
            <AltitudeMeters>476.600006103515625</AltitudeMeters>
            <DistanceMeters>3022.4551368665</DistanceMeters>
          </Trackpoint>
          <Trackpoint>
            <Time>2022-06-01T17:53:36.000Z</Time>
            <Position>
              <LatitudeDegrees>39.4113184511661529541015625</LatitudeDegrees>
              <LongitudeDegrees>-0.80334641039371490478515625</LongitudeDegrees>
            </Position>
            <AltitudeMeters>477</AltitudeMeters>
            <DistanceMeters>3039.5784129005</DistanceMeters>
          </Trackpoint>
          <Trackpoint>
            <Time>2022-06-01T17:53:37.000Z</Time>
            <Position>
              <LatitudeDegrees>39.4113323651254177093505859375</LatitudeDegrees>
              <LongitudeDegrees>-0.80331078730523586273193359375</LongitudeDegrees>
            </Position>
            <AltitudeMeters>477</AltitudeMeters>
            <DistanceMeters>3043.0112324063</DistanceMeters>
          </Trackpoint>
          <Trackpoint>
            <Time>2022-06-01T17:53:42.000Z</Time>
            <Position>
              <LatitudeDegrees>39.41136212088167667388916015625</LatitudeDegrees>
              <LongitudeDegrees>-0.8031263016164302825927734375</LongitudeDegrees>
            </Position>
            <AltitudeMeters>476.600006103515625</AltitudeMeters>
            <DistanceMeters>3059.2182328568</DistanceMeters>
          </Trackpoint>
          <Trackpoint>
            <Time>2022-06-01T17:53:43.000Z</Time>
            <Position>
              <LatitudeDegrees>39.41135533154010772705078125</LatitudeDegrees>
              <LongitudeDegrees>-0.80309201963245868682861328125</LongitudeDegrees>
            </Position>
            <AltitudeMeters>476.600006103515625</AltitudeMeters>
            <DistanceMeters>3062.2620558529</DistanceMeters>
          </Trackpoint>
          <Trackpoint>
            <Time>2022-06-01T17:53:45.000Z</Time>
            <Position>
              <LatitudeDegrees>39.4113169424235820770263671875</LatitudeDegrees>
              <LongitudeDegrees>-0.80305212177336215972900390625</LongitudeDegrees>
            </Position>
            <AltitudeMeters>476.600006103515625</AltitudeMeters>
            <DistanceMeters>3067.741563511</DistanceMeters>
          </Trackpoint>
          <Trackpoint>
            <Time>2022-06-01T17:53:47.000Z</Time>
            <Position>
              <LatitudeDegrees>39.411269165575504302978515625</LatitudeDegrees>
              <LongitudeDegrees>-0.8030585758388042449951171875</LongitudeDegrees>
            </Position>
            <AltitudeMeters>476.600006103515625</AltitudeMeters>
            <DistanceMeters>3073.087608025</DistanceMeters>
          </Trackpoint>
          <Trackpoint>
            <Time>2022-06-01T17:53:49.000Z</Time>
            <Position>
              <LatitudeDegrees>39.411237649619579315185546875</LatitudeDegrees>
              <LongitudeDegrees>-0.8030815422534942626953125</LongitudeDegrees>
            </Position>
            <AltitudeMeters>477</AltitudeMeters>
            <DistanceMeters>3077.1125250602</DistanceMeters>
          </Trackpoint>
          <Trackpoint>
            <Time>2022-06-01T17:53:51.000Z</Time>
            <Position>
              <LatitudeDegrees>39.41119305789470672607421875</LatitudeDegrees>
              <LongitudeDegrees>-0.80311976373195648193359375</LongitudeDegrees>
            </Position>
            <AltitudeMeters>477.399993896484375</AltitudeMeters>
            <DistanceMeters>3083.0644146669</DistanceMeters>
          </Trackpoint>
          <Trackpoint>
            <Time>2022-06-01T17:53:53.000Z</Time>
            <Position>
              <LatitudeDegrees>39.41116087138652801513671875</LatitudeDegrees>
              <LongitudeDegrees>-0.803163014352321624755859375</LongitudeDegrees>
            </Position>
            <AltitudeMeters>477.600006103515625</AltitudeMeters>
            <DistanceMeters>3088.2274356491</DistanceMeters>
          </Trackpoint>
          <Trackpoint>
            <Time>2022-06-01T17:53:56.000Z</Time>
            <Position>
              <LatitudeDegrees>39.41110613755881786346435546875</LatitudeDegrees>
              <LongitudeDegrees>-0.80322897993028163909912109375</LongitudeDegrees>
            </Position>
            <AltitudeMeters>478</AltitudeMeters>
            <DistanceMeters>3096.5508211669</DistanceMeters>
          </Trackpoint>
          <Trackpoint>
            <Time>2022-06-01T17:53:57.000Z</Time>
            <Position>
              <LatitudeDegrees>39.4110889546573162078857421875</LatitudeDegrees>
              <LongitudeDegrees>-0.80324792303144931793212890625</LongitudeDegrees>
            </Position>
            <AltitudeMeters>478.20001220703125</AltitudeMeters>
            <DistanceMeters>3099.0631952302</DistanceMeters>
          </Trackpoint>
          <Trackpoint>
            <Time>2022-06-01T17:54:00.000Z</Time>
            <Position>
              <LatitudeDegrees>39.4110252521932125091552734375</LatitudeDegrees>
              <LongitudeDegrees>-0.8033215999603271484375</LongitudeDegrees>
            </Position>
            <AltitudeMeters>479.79998779296875</AltitudeMeters>
            <DistanceMeters>3108.5715665606</DistanceMeters>
          </Trackpoint>
          <Trackpoint>
            <Time>2022-06-01T17:54:03.000Z</Time>
            <Position>
              <LatitudeDegrees>39.41096238791942596435546875</LatitudeDegrees>
              <LongitudeDegrees>-0.803377926349639892578125</LongitudeDegrees>
            </Position>
            <AltitudeMeters>480.600006103515625</AltitudeMeters>
            <DistanceMeters>3117.0811013895</DistanceMeters>
          </Trackpoint>
          <Trackpoint>
            <Time>2022-06-01T17:54:04.000Z</Time>
            <Position>
              <LatitudeDegrees>39.41094419918954372406005859375</LatitudeDegrees>
              <LongitudeDegrees>-0.80338790081441402435302734375</LongitudeDegrees>
            </Position>
            <AltitudeMeters>481</AltitudeMeters>
            <DistanceMeters>3119.2770205185</DistanceMeters>
          </Trackpoint>
          <Trackpoint>
            <Time>2022-06-01T17:54:06.000Z</Time>
            <Position>
              <LatitudeDegrees>39.41090916283428668975830078125</LatitudeDegrees>
              <LongitudeDegrees>-0.80338991247117519378662109375</LongitudeDegrees>
            </Position>
            <AltitudeMeters>481.20001220703125</AltitudeMeters>
            <DistanceMeters>3123.1812194168</DistanceMeters>
          </Trackpoint>
          <Trackpoint>
            <Time>2022-06-01T17:54:08.000Z</Time>
            <Position>
              <LatitudeDegrees>39.41088368184864521026611328125</LatitudeDegrees>
              <LongitudeDegrees>-0.8033720590174198150634765625</LongitudeDegrees>
            </Position>
            <AltitudeMeters>481.79998779296875</AltitudeMeters>
            <DistanceMeters>3126.4065330548</DistanceMeters>
          </Trackpoint>
          <Trackpoint>
            <Time>2022-06-01T17:54:10.000Z</Time>
            <Position>
              <LatitudeDegrees>39.41086490638554096221923828125</LatitudeDegrees>
              <LongitudeDegrees>-0.8033224381506443023681640625</LongitudeDegrees>
            </Position>
            <AltitudeMeters>482.20001220703125</AltitudeMeters>
            <DistanceMeters>3131.1578687733</DistanceMeters>
          </Trackpoint>
          <Trackpoint>
            <Time>2022-06-01T17:54:11.000Z</Time>
            <Position>
              <LatitudeDegrees>39.41085736267268657684326171875</LatitudeDegrees>
              <LongitudeDegrees>-0.80329008400440216064453125</LongitudeDegrees>
            </Position>
            <AltitudeMeters>482.600006103515625</AltitudeMeters>
            <DistanceMeters>3134.0635737609</DistanceMeters>
          </Trackpoint>
          <Trackpoint>
            <Time>2022-06-01T17:54:13.000Z</Time>
            <Position>
              <LatitudeDegrees>39.41084026359021663665771484375</LatitudeDegrees>
              <LongitudeDegrees>-0.8032263815402984619140625</LongitudeDegrees>
            </Position>
            <AltitudeMeters>483.79998779296875</AltitudeMeters>
            <DistanceMeters>3139.8625395892</DistanceMeters>
          </Trackpoint>
          <Trackpoint>
            <Time>2022-06-01T17:54:20.000Z</Time>
            <Position>
              <LatitudeDegrees>39.410773627460002899169921875</LatitudeDegrees>
              <LongitudeDegrees>-0.8030654489994049072265625</LongitudeDegrees>
            </Position>
            <AltitudeMeters>484.79998779296875</AltitudeMeters>
            <DistanceMeters>3155.5641047046</DistanceMeters>
          </Trackpoint>
          <Trackpoint>
            <Time>2022-06-01T17:54:22.000Z</Time>
            <Position>
              <LatitudeDegrees>39.41075460053980350494384765625</LatitudeDegrees>
              <LongitudeDegrees>-0.80307106487452983856201171875</LongitudeDegrees>
            </Position>
            <AltitudeMeters>485.600006103515625</AltitudeMeters>
            <DistanceMeters>3157.7352103915</DistanceMeters>
          </Trackpoint>
          <Trackpoint>
            <Time>2022-06-01T17:54:24.000Z</Time>
            <Position>
              <LatitudeDegrees>39.41072358749806880950927734375</LatitudeDegrees>
              <LongitudeDegrees>-0.80311314202845096588134765625</LongitudeDegrees>
            </Position>
            <AltitudeMeters>486.20001220703125</AltitudeMeters>
            <DistanceMeters>3162.7365413893</DistanceMeters>
          </Trackpoint>
          <Trackpoint>
            <Time>2022-06-01T17:54:27.000Z</Time>
            <Position>
              <LatitudeDegrees>39.41068570129573345184326171875</LatitudeDegrees>
              <LongitudeDegrees>-0.803203582763671875</LongitudeDegrees>
            </Position>
            <AltitudeMeters>487.20001220703125</AltitudeMeters>
            <DistanceMeters>3171.5837275305</DistanceMeters>
          </Trackpoint>
          <Trackpoint>
            <Time>2022-06-01T17:54:30.000Z</Time>
            <Position>
              <LatitudeDegrees>39.41065100021660327911376953125</LatitudeDegrees>
              <LongitudeDegrees>-0.80327876843512058258056640625</LongitudeDegrees>
            </Position>
            <AltitudeMeters>488</AltitudeMeters>
            <DistanceMeters>3179.1148569374</DistanceMeters>
          </Trackpoint>
          <Trackpoint>
            <Time>2022-06-01T17:54:31.000Z</Time>
            <Position>
              <LatitudeDegrees>39.4106336496770381927490234375</LatitudeDegrees>
              <LongitudeDegrees>-0.8032986335456371307373046875</LongitudeDegrees>
            </Position>
            <AltitudeMeters>488.399993896484375</AltitudeMeters>
            <DistanceMeters>3181.6928670737</DistanceMeters>
          </Trackpoint>
          <Trackpoint>
            <Time>2022-06-01T17:54:35.000Z</Time>
            <Position>
              <LatitudeDegrees>39.4105662591755390167236328125</LatitudeDegrees>
              <LongitudeDegrees>-0.8033630065619945526123046875</LongitudeDegrees>
            </Position>
            <AltitudeMeters>489.399993896484375</AltitudeMeters>
            <DistanceMeters>3191.0151766425</DistanceMeters>
          </Trackpoint>
          <Trackpoint>
            <Time>2022-06-01T17:54:36.000Z</Time>
            <Position>
              <LatitudeDegrees>39.4105431251227855682373046875</LatitudeDegrees>
              <LongitudeDegrees>-0.80338169820606708526611328125</LongitudeDegrees>
            </Position>
            <AltitudeMeters>489.79998779296875</AltitudeMeters>
            <DistanceMeters>3194.0500865214</DistanceMeters>
          </Trackpoint>
          <Trackpoint>
            <Time>2022-06-01T17:54:38.000Z</Time>
            <Position>
              <LatitudeDegrees>39.410499371588230133056640625</LatitudeDegrees>
              <LongitudeDegrees>-0.80341212451457977294921875</LongitudeDegrees>
            </Position>
            <AltitudeMeters>490</AltitudeMeters>
            <DistanceMeters>3199.5779955914</DistanceMeters>
          </Trackpoint>
          <Trackpoint>
            <Time>2022-06-01T17:54:41.000Z</Time>
            <Position>
              <LatitudeDegrees>39.4104428775608539581298828125</LatitudeDegrees>
              <LongitudeDegrees>-0.8034503459930419921875</LongitudeDegrees>
            </Position>
            <AltitudeMeters>490.399993896484375</AltitudeMeters>
            <DistanceMeters>3206.6726165184</DistanceMeters>
          </Trackpoint>
          <Trackpoint>
            <Time>2022-06-01T17:54:42.000Z</Time>
            <Position>
              <LatitudeDegrees>39.41042720340192317962646484375</LatitudeDegrees>
              <LongitudeDegrees>-0.803460739552974700927734375</LongitudeDegrees>
            </Position>
            <AltitudeMeters>490.600006103515625</AltitudeMeters>
            <DistanceMeters>3208.6339458037</DistanceMeters>
          </Trackpoint>
          <Trackpoint>
            <Time>2022-06-01T17:54:47.000Z</Time>
            <Position>
              <LatitudeDegrees>39.41032544709742069244384765625</LatitudeDegrees>
              <LongitudeDegrees>-0.803511701524257659912109375</LongitudeDegrees>
            </Position>
            <AltitudeMeters>491.79998779296875</AltitudeMeters>
            <DistanceMeters>3220.7780476018</DistanceMeters>
          </Trackpoint>
          <Trackpoint>
            <Time>2022-06-01T17:54:51.000Z</Time>
            <Position>
              <LatitudeDegrees>39.41023207269608974456787109375</LatitudeDegrees>
              <LongitudeDegrees>-0.8035578019917011260986328125</LongitudeDegrees>
            </Position>
            <AltitudeMeters>492.79998779296875</AltitudeMeters>
            <DistanceMeters>3231.9018570892</DistanceMeters>
          </Trackpoint>
          <Trackpoint>
            <Time>2022-06-01T17:54:52.000Z</Time>
            <Position>
              <LatitudeDegrees>39.41021497361361980438232421875</LatitudeDegrees>
              <LongitudeDegrees>-0.8035624958574771881103515625</LongitudeDegrees>
            </Position>
            <AltitudeMeters>493</AltitudeMeters>
            <DistanceMeters>3233.8493252164</DistanceMeters>
          </Trackpoint>
          <Trackpoint>
            <Time>2022-06-01T17:54:53.000Z</Time>
            <Position>
              <LatitudeDegrees>39.41020038910210132598876953125</LatitudeDegrees>
              <LongitudeDegrees>-0.803563334047794342041015625</LongitudeDegrees>
            </Position>
            <AltitudeMeters>493.20001220703125</AltitudeMeters>
            <DistanceMeters>3235.4759205557</DistanceMeters>
          </Trackpoint>
          <Trackpoint>
            <Time>2022-06-01T17:54:55.000Z</Time>
            <Position>
              <LatitudeDegrees>39.41016979515552520751953125</LatitudeDegrees>
              <LongitudeDegrees>-0.80356425605714321136474609375</LongitudeDegrees>
            </Position>
            <AltitudeMeters>493.79998779296875</AltitudeMeters>
            <DistanceMeters>3238.8810076551</DistanceMeters>
          </Trackpoint>
          <Trackpoint>
            <Time>2022-06-01T17:54:57.000Z</Time>
            <Position>
              <LatitudeDegrees>39.41013769246637821197509765625</LatitudeDegrees>
              <LongitudeDegrees>-0.8035551197826862335205078125</LongitudeDegrees>
            </Position>
            <AltitudeMeters>494.79998779296875</AltitudeMeters>
            <DistanceMeters>3242.5404616261</DistanceMeters>
          </Trackpoint>
          <Trackpoint>
            <Time>2022-06-01T17:54:58.000Z</Time>
            <Position>
              <LatitudeDegrees>39.4101230241358280181884765625</LatitudeDegrees>
              <LongitudeDegrees>-0.8035509288311004638671875</LongitudeDegrees>
            </Position>
            <AltitudeMeters>495.20001220703125</AltitudeMeters>
            <DistanceMeters>3244.213579583</DistanceMeters>
          </Trackpoint>
          <Trackpoint>
            <Time>2022-06-01T17:54:59.000Z</Time>
            <Position>
              <LatitudeDegrees>39.41010936163365840911865234375</LatitudeDegrees>
              <LongitudeDegrees>-0.80353818833827972412109375</LongitudeDegrees>
            </Position>
            <AltitudeMeters>495.600006103515625</AltitudeMeters>
            <DistanceMeters>3246.0877993505</DistanceMeters>
          </Trackpoint>
          <Trackpoint>
            <Time>2022-06-01T17:55:00.000Z</Time>
            <Position>
              <LatitudeDegrees>39.41009963862597942352294921875</LatitudeDegrees>
              <LongitudeDegrees>-0.80352008342742919921875</LongitudeDegrees>
            </Position>
            <AltitudeMeters>496.20001220703125</AltitudeMeters>
            <DistanceMeters>3247.9835763481</DistanceMeters>
          </Trackpoint>
          <Trackpoint>
            <Time>2022-06-01T17:55:02.000Z</Time>
            <Position>
              <LatitudeDegrees>39.4100770913064479827880859375</LatitudeDegrees>
              <LongitudeDegrees>-0.80348328687250614166259765625</LongitudeDegrees>
            </Position>
            <AltitudeMeters>496.79998779296875</AltitudeMeters>
            <DistanceMeters>3252.0241676675</DistanceMeters>
          </Trackpoint>
          <Trackpoint>
            <Time>2022-06-01T17:55:06.000Z</Time>
            <Position>
              <LatitudeDegrees>39.41004683263599872589111328125</LatitudeDegrees>
              <LongitudeDegrees>-0.80339091829955577850341796875</LongitudeDegrees>
            </Position>
            <AltitudeMeters>497.399993896484375</AltitudeMeters>
            <DistanceMeters>3260.6522584299</DistanceMeters>
          </Trackpoint>
          <Trackpoint>
            <Time>2022-06-01T17:55:07.000Z</Time>
            <Position>
              <LatitudeDegrees>39.4100479222834110260009765625</LatitudeDegrees>
              <LongitudeDegrees>-0.80336518585681915283203125</LongitudeDegrees>
            </Position>
            <AltitudeMeters>497.600006103515625</AltitudeMeters>
            <DistanceMeters>3262.8666051754</DistanceMeters>
          </Trackpoint>
          <Trackpoint>
            <Time>2022-06-01T17:55:09.000Z</Time>
            <Position>
              <LatitudeDegrees>39.4100485928356647491455078125</LatitudeDegrees>
              <LongitudeDegrees>-0.80330944620072841644287109375</LongitudeDegrees>
            </Position>
            <AltitudeMeters>498.20001220703125</AltitudeMeters>
            <DistanceMeters>3267.6595702778</DistanceMeters>
          </Trackpoint>
          <Trackpoint>
            <Time>2022-06-01T17:55:10.000Z</Time>
            <Position>
              <LatitudeDegrees>39.4100470840930938720703125</LatitudeDegrees>
              <LongitudeDegrees>-0.8032768405973911285400390625</LongitudeDegrees>
            </Position>
            <AltitudeMeters>498.600006103515625</AltitudeMeters>
            <DistanceMeters>3270.4656755252</DistanceMeters>
          </Trackpoint>
          <Trackpoint>
            <Time>2022-06-01T17:55:13.000Z</Time>
            <Position>
              <LatitudeDegrees>39.4100264646112918853759765625</LatitudeDegrees>
              <LongitudeDegrees>-0.80317609012126922607421875</LongitudeDegrees>
            </Position>
            <AltitudeMeters>499.600006103515625</AltitudeMeters>
            <DistanceMeters>3279.4284630405</DistanceMeters>
          </Trackpoint>
          <Trackpoint>
            <Time>2022-06-01T17:55:14.000Z</Time>
            <Position>
              <LatitudeDegrees>39.410020597279071807861328125</LatitudeDegrees>
              <LongitudeDegrees>-0.80315806902945041656494140625</LongitudeDegrees>
            </Position>
            <AltitudeMeters>499.79998779296875</AltitudeMeters>
            <DistanceMeters>3281.1123407093</DistanceMeters>
          </Trackpoint>
          <Trackpoint>
            <Time>2022-06-01T17:55:15.000Z</Time>
            <Position>
              <LatitudeDegrees>39.4100081920623779296875</LatitudeDegrees>
              <LongitudeDegrees>-0.8031480945646762847900390625</LongitudeDegrees>
            </Position>
            <AltitudeMeters>500</AltitudeMeters>
            <DistanceMeters>3282.7389360487</DistanceMeters>
          </Trackpoint>
          <Trackpoint>
            <Time>2022-06-01T17:55:18.000Z</Time>
            <Position>
              <LatitudeDegrees>39.40996502526104450225830078125</LatitudeDegrees>
              <LongitudeDegrees>-0.80313594080507755279541015625</LongitudeDegrees>
            </Position>
            <AltitudeMeters>500.600006103515625</AltitudeMeters>
            <DistanceMeters>3287.6565111337</DistanceMeters>
          </Trackpoint>
          <Trackpoint>
            <Time>2022-06-01T17:55:20.000Z</Time>
            <Position>
              <LatitudeDegrees>39.40993133001029491424560546875</LatitudeDegrees>
              <LongitudeDegrees>-0.80315169878304004669189453125</LongitudeDegrees>
            </Position>
            <AltitudeMeters>501</AltitudeMeters>
            <DistanceMeters>3291.6453699547</DistanceMeters>
          </Trackpoint>
          <Trackpoint>
            <Time>2022-06-01T17:55:21.000Z</Time>
            <Position>
              <LatitudeDegrees>39.40991490148007869720458984375</LatitudeDegrees>
              <LongitudeDegrees>-0.80316938459873199462890625</LongitudeDegrees>
            </Position>
            <AltitudeMeters>501</AltitudeMeters>
            <DistanceMeters>3294.0248358466</DistanceMeters>
          </Trackpoint>
          <Trackpoint>
            <Time>2022-06-01T17:55:22.000Z</Time>
            <Position>
              <LatitudeDegrees>39.40989528782665729522705078125</LatitudeDegrees>
              <LongitudeDegrees>-0.80318975262343883514404296875</LongitudeDegrees>
            </Position>
            <AltitudeMeters>501.20001220703125</AltitudeMeters>
            <DistanceMeters>3296.824497675</DistanceMeters>
          </Trackpoint>
          <Trackpoint>
            <Time>2022-06-01T17:55:26.000Z</Time>
            <Position>
              <LatitudeDegrees>39.4098206050693988800048828125</LatitudeDegrees>
              <LongitudeDegrees>-0.80325362272560596466064453125</LongitudeDegrees>
            </Position>
            <AltitudeMeters>502</AltitudeMeters>
            <DistanceMeters>3306.7878119001</DistanceMeters>
          </Trackpoint>
          <Trackpoint>
            <Time>2022-06-01T17:55:28.000Z</Time>
            <Position>
              <LatitudeDegrees>39.40977416932582855224609375</LatitudeDegrees>
              <LongitudeDegrees>-0.80327399075031280517578125</LongitudeDegrees>
            </Position>
            <AltitudeMeters>502</AltitudeMeters>
            <DistanceMeters>3312.2450265845</DistanceMeters>
          </Trackpoint>
          <Trackpoint>
            <Time>2022-06-01T17:55:33.000Z</Time>
            <Position>
              <LatitudeDegrees>39.409640729427337646484375</LatitudeDegrees>
              <LongitudeDegrees>-0.8032848872244358062744140625</LongitudeDegrees>
            </Position>
            <AltitudeMeters>502</AltitudeMeters>
            <DistanceMeters>3327.1269503467</DistanceMeters>
          </Trackpoint>
          <Trackpoint>
            <Time>2022-06-01T17:55:41.000Z</Time>
            <Position>
              <LatitudeDegrees>39.40945423208177089691162109375</LatitudeDegrees>
              <LongitudeDegrees>-0.80327021889388561248779296875</LongitudeDegrees>
            </Position>
            <AltitudeMeters>503</AltitudeMeters>
            <DistanceMeters>3347.9228254438</DistanceMeters>
          </Trackpoint>
          <Trackpoint>
            <Time>2022-06-01T17:55:42.000Z</Time>
            <Position>
              <LatitudeDegrees>39.4094206206500530242919921875</LatitudeDegrees>
              <LongitudeDegrees>-0.8032795228064060211181640625</LongitudeDegrees>
            </Position>
            <AltitudeMeters>503</AltitudeMeters>
            <DistanceMeters>3351.7487572147</DistanceMeters>
          </Trackpoint>
          <Trackpoint>
            <Time>2022-06-01T17:55:47.000Z</Time>
            <Position>
              <LatitudeDegrees>39.40925692208111286163330078125</LatitudeDegrees>
              <LongitudeDegrees>-0.80334733240306377410888671875</LongitudeDegrees>
            </Position>
            <AltitudeMeters>502.399993896484375</AltitudeMeters>
            <DistanceMeters>3370.879124125</DistanceMeters>
          </Trackpoint>
          <Trackpoint>
            <Time>2022-06-01T17:55:53.000Z</Time>
            <Position>
              <LatitudeDegrees>39.409073777496814727783203125</LatitudeDegrees>
              <LongitudeDegrees>-0.80342645756900310516357421875</LongitudeDegrees>
            </Position>
            <AltitudeMeters>502.600006103515625</AltitudeMeters>
            <DistanceMeters>3392.3692427746</DistanceMeters>
          </Trackpoint>
          <Trackpoint>
            <Time>2022-06-01T17:55:54.000Z</Time>
            <Position>
              <LatitudeDegrees>39.40904838033020496368408203125</LatitudeDegrees>
              <LongitudeDegrees>-0.80343089997768402099609375</LongitudeDegrees>
            </Position>
            <AltitudeMeters>502.600006103515625</AltitudeMeters>
            <DistanceMeters>3395.2216275446</DistanceMeters>
          </Trackpoint>
          <Trackpoint>
            <Time>2022-06-01T17:55:59.000Z</Time>
            <Position>
              <LatitudeDegrees>39.4088932313024997711181640625</LatitudeDegrees>
              <LongitudeDegrees>-0.8034337498247623443603515625</LongitudeDegrees>
            </Position>
            <AltitudeMeters>502</AltitudeMeters>
            <DistanceMeters>3412.4919322594</DistanceMeters>
          </Trackpoint>
          <Trackpoint>
            <Time>2022-06-01T17:56:00.000Z</Time>
            <Position>
              <LatitudeDegrees>39.4088647328317165374755859375</LatitudeDegrees>
              <LongitudeDegrees>-0.8034273795783519744873046875</LongitudeDegrees>
            </Position>
            <AltitudeMeters>501.79998779296875</AltitudeMeters>
            <DistanceMeters>3415.7102389075</DistanceMeters>
          </Trackpoint>
          <Trackpoint>
            <Time>2022-06-01T17:56:03.000Z</Time>
            <Position>
              <LatitudeDegrees>39.4088667444884777069091796875</LatitudeDegrees>
              <LongitudeDegrees>-0.8034149743616580963134765625</LongitudeDegrees>
            </Position>
            <AltitudeMeters>501.79998779296875</AltitudeMeters>
            <DistanceMeters>3416.8020127351</DistanceMeters>
          </Trackpoint>
          <Trackpoint>
            <Time>2022-06-01T17:56:19.000Z</Time>
            <Position>
              <LatitudeDegrees>39.40864630043506622314453125</LatitudeDegrees>
              <LongitudeDegrees>-0.80320416949689388275146484375</LongitudeDegrees>
            </Position>
            <AltitudeMeters>502.79998779296875</AltitudeMeters>
            <DistanceMeters>3447.30869624</DistanceMeters>
          </Trackpoint>
          <Trackpoint>
            <Time>2022-06-01T17:56:20.000Z</Time>
            <Position>
              <LatitudeDegrees>39.408619813621044158935546875</LatitudeDegrees>
              <LongitudeDegrees>-0.80318472348153591156005859375</LongitudeDegrees>
            </Position>
            <AltitudeMeters>502.600006103515625</AltitudeMeters>
            <DistanceMeters>3450.697834366</DistanceMeters>
          </Trackpoint>
          <Trackpoint>
            <Time>2022-06-01T17:56:25.000Z</Time>
            <Position>
              <LatitudeDegrees>39.408477656543254852294921875</LatitudeDegrees>
              <LongitudeDegrees>-0.8030880801379680633544921875</LongitudeDegrees>
            </Position>
            <AltitudeMeters>501.79998779296875</AltitudeMeters>
            <DistanceMeters>3468.5701843528</DistanceMeters>
          </Trackpoint>
          <Trackpoint>
            <Time>2022-06-01T17:56:28.000Z</Time>
            <Position>
              <LatitudeDegrees>39.40840884111821651458740234375</LatitudeDegrees>
              <LongitudeDegrees>-0.80300174653530120849609375</LongitudeDegrees>
            </Position>
            <AltitudeMeters>501.600006103515625</AltitudeMeters>
            <DistanceMeters>3479.2369065857</DistanceMeters>
          </Trackpoint>
          <Trackpoint>
            <Time>2022-06-01T17:56:30.000Z</Time>
            <Position>
              <LatitudeDegrees>39.4083480723202228546142578125</LatitudeDegrees>
              <LongitudeDegrees>-0.80293066799640655517578125</LongitudeDegrees>
            </Position>
            <AltitudeMeters>501.20001220703125</AltitudeMeters>
            <DistanceMeters>3488.353530061</DistanceMeters>
          </Trackpoint>
          <Trackpoint>
            <Time>2022-06-01T17:56:31.000Z</Time>
            <Position>
              <LatitudeDegrees>39.40831949003040790557861328125</LatitudeDegrees>
              <LongitudeDegrees>-0.80291097052395343780517578125</LongitudeDegrees>
            </Position>
            <AltitudeMeters>500.79998779296875</AltitudeMeters>
            <DistanceMeters>3491.9570352887</DistanceMeters>
          </Trackpoint>
          <Trackpoint>
            <Time>2022-06-01T17:56:33.000Z</Time>
            <Position>
              <LatitudeDegrees>39.408256374299526214599609375</LatitudeDegrees>
              <LongitudeDegrees>-0.802860260009765625</LongitudeDegrees>
            </Position>
            <AltitudeMeters>499.399993896484375</AltitudeMeters>
            <DistanceMeters>3500.2259976682</DistanceMeters>
          </Trackpoint>
          <Trackpoint>
            <Time>2022-06-01T17:56:34.000Z</Time>
            <Position>
              <LatitudeDegrees>39.40821739844977855682373046875</LatitudeDegrees>
              <LongitudeDegrees>-0.802830755710601806640625</LongitudeDegrees>
            </Position>
            <AltitudeMeters>498.79998779296875</AltitudeMeters>
            <DistanceMeters>3505.250745795</DistanceMeters>
          </Trackpoint>
          <Trackpoint>
            <Time>2022-06-01T17:56:35.000Z</Time>
            <Position>
              <LatitudeDegrees>39.40817934460937976837158203125</LatitudeDegrees>
              <LongitudeDegrees>-0.80282296054065227508544921875</LongitudeDegrees>
            </Position>
            <AltitudeMeters>498.399993896484375</AltitudeMeters>
            <DistanceMeters>3509.5385465879</DistanceMeters>
          </Trackpoint>
          <Trackpoint>
            <Time>2022-06-01T17:56:38.000Z</Time>
            <Position>
              <LatitudeDegrees>39.40807088278234004974365234375</LatitudeDegrees>
              <LongitudeDegrees>-0.80281860195100307464599609375</LongitudeDegrees>
            </Position>
            <AltitudeMeters>497.399993896484375</AltitudeMeters>
            <DistanceMeters>3521.6162887145</DistanceMeters>
          </Trackpoint>
          <Trackpoint>
            <Time>2022-06-01T17:56:39.000Z</Time>
            <Position>
              <LatitudeDegrees>39.40804372541606426239013671875</LatitudeDegrees>
              <LongitudeDegrees>-0.8028158359229564666748046875</LongitudeDegrees>
            </Position>
            <AltitudeMeters>497</AltitudeMeters>
            <DistanceMeters>3524.6482217316</DistanceMeters>
          </Trackpoint>
          <Trackpoint>
            <Time>2022-06-01T17:56:43.000Z</Time>
            <Position>
              <LatitudeDegrees>39.4079420529305934906005859375</LatitudeDegrees>
              <LongitudeDegrees>-0.8028054423630237579345703125</LongitudeDegrees>
            </Position>
            <AltitudeMeters>497.20001220703125</AltitudeMeters>
            <DistanceMeters>3535.9998379537</DistanceMeters>
          </Trackpoint>
          <Trackpoint>
            <Time>2022-06-01T17:56:47.000Z</Time>
            <Position>
              <LatitudeDegrees>39.4079222716391086578369140625</LatitudeDegrees>
              <LongitudeDegrees>-0.80273084342479705810546875</LongitudeDegrees>
            </Position>
            <AltitudeMeters>498</AltitudeMeters>
            <DistanceMeters>3542.7814439087</DistanceMeters>
          </Trackpoint>
          <Trackpoint>
            <Time>2022-06-01T17:56:48.000Z</Time>
            <Position>
              <LatitudeDegrees>39.4079283066093921661376953125</LatitudeDegrees>
              <LongitudeDegrees>-0.80268901772797107696533203125</LongitudeDegrees>
            </Position>
            <AltitudeMeters>498</AltitudeMeters>
            <DistanceMeters>3546.4421314729</DistanceMeters>
          </Trackpoint>
          <Trackpoint>
            <Time>2022-06-01T17:56:50.000Z</Time>
            <Position>
              <LatitudeDegrees>39.407947920262813568115234375</LatitudeDegrees>
              <LongitudeDegrees>-0.8026175200939178466796875</LongitudeDegrees>
            </Position>
            <AltitudeMeters>498</AltitudeMeters>
            <DistanceMeters>3552.9679142237</DistanceMeters>
          </Trackpoint>
          <Trackpoint>
            <Time>2022-06-01T17:56:51.000Z</Time>
            <Position>
              <LatitudeDegrees>39.40796895883977413177490234375</LatitudeDegrees>
              <LongitudeDegrees>-0.802587680518627166748046875</LongitudeDegrees>
            </Position>
            <AltitudeMeters>498</AltitudeMeters>
            <DistanceMeters>3556.4425670417</DistanceMeters>
          </Trackpoint>
          <Trackpoint>
            <Time>2022-06-01T17:56:54.000Z</Time>
            <Position>
              <LatitudeDegrees>39.40803073346614837646484375</LatitudeDegrees>
              <LongitudeDegrees>-0.8024886064231395721435546875</LongitudeDegrees>
            </Position>
            <AltitudeMeters>497</AltitudeMeters>
            <DistanceMeters>3567.3908652983</DistanceMeters>
          </Trackpoint>
          <Trackpoint>
            <Time>2022-06-01T17:56:55.000Z</Time>
            <Position>
              <LatitudeDegrees>39.40805017948150634765625</LatitudeDegrees>
              <LongitudeDegrees>-0.80244158394634723663330078125</LongitudeDegrees>
            </Position>
            <AltitudeMeters>496.79998779296875</AltitudeMeters>
            <DistanceMeters>3571.9758427205</DistanceMeters>
          </Trackpoint>
          <Trackpoint>
            <Time>2022-06-01T17:56:58.000Z</Time>
            <Position>
              <LatitudeDegrees>39.408098794519901275634765625</LatitudeDegrees>
              <LongitudeDegrees>-0.8023253269493579864501953125</LongitudeDegrees>
            </Position>
            <AltitudeMeters>496</AltitudeMeters>
            <DistanceMeters>3583.3437547535</DistanceMeters>
          </Trackpoint>
          <Trackpoint>
            <Time>2022-06-01T17:57:00.000Z</Time>
            <Position>
              <LatitudeDegrees>39.40812134183943271636962890625</LatitudeDegrees>
              <LongitudeDegrees>-0.802238322794437408447265625</LongitudeDegrees>
            </Position>
            <AltitudeMeters>495.600006103515625</AltitudeMeters>
            <DistanceMeters>3591.2361224153</DistanceMeters>
          </Trackpoint>
          <Trackpoint>
            <Time>2022-06-01T17:57:06.000Z</Time>
            <Position>
              <LatitudeDegrees>39.40807607956230640411376953125</LatitudeDegrees>
              <LongitudeDegrees>-0.801993571221828460693359375</LongitudeDegrees>
            </Position>
            <AltitudeMeters>495.600006103515625</AltitudeMeters>
            <DistanceMeters>3612.8784435743</DistanceMeters>
          </Trackpoint>
          <Trackpoint>
            <Time>2022-06-01T17:57:10.000Z</Time>
            <Position>
              <LatitudeDegrees>39.407950937747955322265625</LatitudeDegrees>
              <LongitudeDegrees>-0.801892317831516265869140625</LongitudeDegrees>
            </Position>
            <AltitudeMeters>495.79998779296875</AltitudeMeters>
            <DistanceMeters>3629.3051518355</DistanceMeters>
          </Trackpoint>
          <Trackpoint>
            <Time>2022-06-01T17:57:14.000Z</Time>
            <Position>
              <LatitudeDegrees>39.407825209200382232666015625</LatitudeDegrees>
              <LongitudeDegrees>-0.801837332546710968017578125</LongitudeDegrees>
            </Position>
            <AltitudeMeters>494.79998779296875</AltitudeMeters>
            <DistanceMeters>3644.076228541</DistanceMeters>
          </Trackpoint>
          <Trackpoint>
            <Time>2022-06-01T17:57:19.000Z</Time>
            <Position>
              <LatitudeDegrees>39.40765120089054107666015625</LatitudeDegrees>
              <LongitudeDegrees>-0.80179634504020214080810546875</LongitudeDegrees>
            </Position>
            <AltitudeMeters>494</AltitudeMeters>
            <DistanceMeters>3663.761672415</DistanceMeters>
          </Trackpoint>
          <Trackpoint>
            <Time>2022-06-01T17:57:21.000Z</Time>
            <Position>
              <LatitudeDegrees>39.40758121199905872344970703125</LatitudeDegrees>
              <LongitudeDegrees>-0.801795423030853271484375</LongitudeDegrees>
            </Position>
            <AltitudeMeters>493.79998779296875</AltitudeMeters>
            <DistanceMeters>3671.5527040448</DistanceMeters>
          </Trackpoint>
          <Trackpoint>
            <Time>2022-06-01T17:57:23.000Z</Time>
            <Position>
              <LatitudeDegrees>39.40752371214330196380615234375</LatitudeDegrees>
              <LongitudeDegrees>-0.80177790485322475433349609375</LongitudeDegrees>
            </Position>
            <AltitudeMeters>493.399993896484375</AltitudeMeters>
            <DistanceMeters>3678.1274265436</DistanceMeters>
          </Trackpoint>
          <Trackpoint>
            <Time>2022-06-01T17:57:27.000Z</Time>
            <Position>
              <LatitudeDegrees>39.40744240768253803253173828125</LatitudeDegrees>
              <LongitudeDegrees>-0.8016859553754329681396484375</LongitudeDegrees>
            </Position>
            <AltitudeMeters>493.20001220703125</AltitudeMeters>
            <DistanceMeters>3690.1448311124</DistanceMeters>
          </Trackpoint>
          <Trackpoint>
            <Time>2022-06-01T17:57:28.000Z</Time>
            <Position>
              <LatitudeDegrees>39.4074149988591670989990234375</LatitudeDegrees>
              <LongitudeDegrees>-0.8016745559871196746826171875</LongitudeDegrees>
            </Position>
            <AltitudeMeters>493.20001220703125</AltitudeMeters>
            <DistanceMeters>3693.3476684233</DistanceMeters>
          </Trackpoint>
          <Trackpoint>
            <Time>2022-06-01T17:57:30.000Z</Time>
            <Position>
              <LatitudeDegrees>39.40735347568988800048828125</LatitudeDegrees>
              <LongitudeDegrees>-0.80167782492935657501220703125</LongitudeDegrees>
            </Position>
            <AltitudeMeters>493</AltitudeMeters>
            <DistanceMeters>3700.2001422473</DistanceMeters>
          </Trackpoint>
          <Trackpoint>
            <Time>2022-06-01T17:57:34.000Z</Time>
            <Position>
              <LatitudeDegrees>39.407237805426120758056640625</LatitudeDegrees>
              <LongitudeDegrees>-0.8016438782215118408203125</LongitudeDegrees>
            </Position>
            <AltitudeMeters>492.79998779296875</AltitudeMeters>
            <DistanceMeters>3713.4016753162</DistanceMeters>
          </Trackpoint>
          <Trackpoint>
            <Time>2022-06-01T17:57:36.000Z</Time>
            <Position>
              <LatitudeDegrees>39.4071756117045879364013671875</LatitudeDegrees>
              <LongitudeDegrees>-0.80161915160715579986572265625</LongitudeDegrees>
            </Position>
            <AltitudeMeters>492.399993896484375</AltitudeMeters>
            <DistanceMeters>3720.6436836002</DistanceMeters>
          </Trackpoint>
          <Trackpoint>
            <Time>2022-06-01T17:57:39.000Z</Time>
            <Position>
              <LatitudeDegrees>39.40709690563380718231201171875</LatitudeDegrees>
              <LongitudeDegrees>-0.80158461816608905792236328125</LongitudeDegrees>
            </Position>
            <AltitudeMeters>492.20001220703125</AltitudeMeters>
            <DistanceMeters>3729.8940351818</DistanceMeters>
          </Trackpoint>
          <Trackpoint>
            <Time>2022-06-01T17:57:40.000Z</Time>
            <Position>
              <LatitudeDegrees>39.4070767052471637725830078125</LatitudeDegrees>
              <LongitudeDegrees>-0.801561735570430755615234375</LongitudeDegrees>
            </Position>
            <AltitudeMeters>491.79998779296875</AltitudeMeters>
            <DistanceMeters>3732.880959273</DistanceMeters>
          </Trackpoint>
          <Trackpoint>
            <Time>2022-06-01T17:57:41.000Z</Time>
            <Position>
              <LatitudeDegrees>39.40706321038305759429931640625</LatitudeDegrees>
              <LongitudeDegrees>-0.8015367574989795684814453125</LongitudeDegrees>
            </Position>
            <AltitudeMeters>491.399993896484375</AltitudeMeters>
            <DistanceMeters>3735.5006650003</DistanceMeters>
          </Trackpoint>
          <Trackpoint>
            <Time>2022-06-01T17:57:43.000Z</Time>
            <Position>
              <LatitudeDegrees>39.40706907771527767181396484375</LatitudeDegrees>
              <LongitudeDegrees>-0.80146073363721370697021484375</LongitudeDegrees>
            </Position>
            <AltitudeMeters>491</AltitudeMeters>
            <DistanceMeters>3742.071952968</DistanceMeters>
          </Trackpoint>
          <Trackpoint>
            <Time>2022-06-01T17:57:44.000Z</Time>
            <Position>
              <LatitudeDegrees>39.407068155705928802490234375</LatitudeDegrees>
              <LongitudeDegrees>-0.801430307328701019287109375</LongitudeDegrees>
            </Position>
            <AltitudeMeters>490.79998779296875</AltitudeMeters>
            <DistanceMeters>3744.6916586953</DistanceMeters>
          </Trackpoint>
          <Trackpoint>
            <Time>2022-06-01T17:57:46.000Z</Time>
            <Position>
              <LatitudeDegrees>39.407097995281219482421875</LatitudeDegrees>
              <LongitudeDegrees>-0.8013989590108394622802734375</LongitudeDegrees>
            </Position>
            <AltitudeMeters>491.20001220703125</AltitudeMeters>
            <DistanceMeters>3748.9699720255</DistanceMeters>
          </Trackpoint>
          <Trackpoint>
            <Time>2022-06-01T17:57:48.000Z</Time>
            <Position>
              <LatitudeDegrees>39.4071457721292972564697265625</LatitudeDegrees>
              <LongitudeDegrees>-0.801382362842559814453125</LongitudeDegrees>
            </Position>
            <AltitudeMeters>491.399993896484375</AltitudeMeters>
            <DistanceMeters>3754.4757841021</DistanceMeters>
          </Trackpoint>
          <Trackpoint>
            <Time>2022-06-01T17:57:51.000Z</Time>
            <Position>
              <LatitudeDegrees>39.40718323923647403717041015625</LatitudeDegrees>
              <LongitudeDegrees>-0.80127985216677188873291015625</LongitudeDegrees>
            </Position>
            <AltitudeMeters>491.600006103515625</AltitudeMeters>
            <DistanceMeters>3764.2279513026</DistanceMeters>
          </Trackpoint>
          <Trackpoint>
            <Time>2022-06-01T17:57:52.000Z</Time>
            <Position>
              <LatitudeDegrees>39.40718675963580608367919921875</LatitudeDegrees>
              <LongitudeDegrees>-0.8012415468692779541015625</LongitudeDegrees>
            </Position>
            <AltitudeMeters>491.20001220703125</AltitudeMeters>
            <DistanceMeters>3767.5457311605</DistanceMeters>
          </Trackpoint>
          <Trackpoint>
            <Time>2022-06-01T17:57:55.000Z</Time>
            <Position>
              <LatitudeDegrees>39.40716010518372058868408203125</LatitudeDegrees>
              <LongitudeDegrees>-0.80115429125726222991943359375</LongitudeDegrees>
            </Position>
            <AltitudeMeters>491</AltitudeMeters>
            <DistanceMeters>3775.6157318615</DistanceMeters>
          </Trackpoint>
          <Trackpoint>
            <Time>2022-06-01T17:57:56.000Z</Time>
            <Position>
              <LatitudeDegrees>39.40713864751160144805908203125</LatitudeDegrees>
              <LongitudeDegrees>-0.801129899919033050537109375</LongitudeDegrees>
            </Position>
            <AltitudeMeters>490.600006103515625</AltitudeMeters>
            <DistanceMeters>3778.7930932612</DistanceMeters>
          </Trackpoint>
          <Trackpoint>
            <Time>2022-06-01T17:57:58.000Z</Time>
            <Position>
              <LatitudeDegrees>39.40707528032362461090087890625</LatitudeDegrees>
              <LongitudeDegrees>-0.80107667483389377593994140625</LongitudeDegrees>
            </Position>
            <AltitudeMeters>490.399993896484375</AltitudeMeters>
            <DistanceMeters>3787.2006754584</DistanceMeters>
          </Trackpoint>
          <Trackpoint>
            <Time>2022-06-01T17:58:00.000Z</Time>
            <Position>
              <LatitudeDegrees>39.4070133380591869354248046875</LatitudeDegrees>
              <LongitudeDegrees>-0.8010200969874858856201171875</LongitudeDegrees>
            </Position>
            <AltitudeMeters>490</AltitudeMeters>
            <DistanceMeters>3795.6382771724</DistanceMeters>
          </Trackpoint>
          <Trackpoint>
            <Time>2022-06-01T17:58:04.000Z</Time>
            <Position>
              <LatitudeDegrees>39.40688149072229862213134765625</LatitudeDegrees>
              <LongitudeDegrees>-0.8009369485080242156982421875</LongitudeDegrees>
            </Position>
            <AltitudeMeters>489.399993896484375</AltitudeMeters>
            <DistanceMeters>3811.9626940361</DistanceMeters>
          </Trackpoint>
          <Trackpoint>
            <Time>2022-06-01T17:58:05.000Z</Time>
            <Position>
              <LatitudeDegrees>39.40685366280376911163330078125</LatitudeDegrees>
              <LongitudeDegrees>-0.80091741867363452911376953125</LongitudeDegrees>
            </Position>
            <AltitudeMeters>489.20001220703125</AltitudeMeters>
            <DistanceMeters>3815.4850973398</DistanceMeters>
          </Trackpoint>
          <Trackpoint>
            <Time>2022-06-01T17:58:06.000Z</Time>
            <Position>
              <LatitudeDegrees>39.4068239070475101470947265625</LatitudeDegrees>
              <LongitudeDegrees>-0.8009014092385768890380859375</LongitudeDegrees>
            </Position>
            <AltitudeMeters>489.20001220703125</AltitudeMeters>
            <DistanceMeters>3819.0710182614</DistanceMeters>
          </Trackpoint>
          <Trackpoint>
            <Time>2022-06-01T17:58:10.000Z</Time>
            <Position>
              <LatitudeDegrees>39.4067585282027721405029296875</LatitudeDegrees>
              <LongitudeDegrees>-0.8008313365280628204345703125</LongitudeDegrees>
            </Position>
            <AltitudeMeters>488.20001220703125</AltitudeMeters>
            <DistanceMeters>3828.5184134353</DistanceMeters>
          </Trackpoint>
          <Trackpoint>
            <Time>2022-06-01T17:58:11.000Z</Time>
            <Position>
              <LatitudeDegrees>39.40675827674567699432373046875</LatitudeDegrees>
              <LongitudeDegrees>-0.8008068613708019256591796875</LongitudeDegrees>
            </Position>
            <AltitudeMeters>488</AltitudeMeters>
            <DistanceMeters>3830.6262079249</DistanceMeters>
          </Trackpoint>
          <Trackpoint>
            <Time>2022-06-01T17:58:12.000Z</Time>
            <Position>
              <LatitudeDegrees>39.4067575223743915557861328125</LatitudeDegrees>
              <LongitudeDegrees>-0.80078749917447566986083984375</LongitudeDegrees>
            </Position>
            <AltitudeMeters>487.600006103515625</AltitudeMeters>
            <DistanceMeters>3832.2912104679</DistanceMeters>
          </Trackpoint>
          <Trackpoint>
            <Time>2022-06-01T17:58:14.000Z</Time>
            <Position>
              <LatitudeDegrees>39.40677302889525890350341796875</LatitudeDegrees>
              <LongitudeDegrees>-0.800706781446933746337890625</LongitudeDegrees>
            </Position>
            <AltitudeMeters>487.20001220703125</AltitudeMeters>
            <DistanceMeters>3839.4435096126</DistanceMeters>
          </Trackpoint>
          <Trackpoint>
            <Time>2022-06-01T17:58:15.000Z</Time>
            <Position>
              <LatitudeDegrees>39.406783170998096466064453125</LatitudeDegrees>
              <LongitudeDegrees>-0.80065607093274593353271484375</LongitudeDegrees>
            </Position>
            <AltitudeMeters>486.79998779296875</AltitudeMeters>
            <DistanceMeters>3843.9480164413</DistanceMeters>
          </Trackpoint>
          <Trackpoint>
            <Time>2022-06-01T17:58:19.000Z</Time>
            <Position>
              <LatitudeDegrees>39.4068203866481781005859375</LatitudeDegrees>
              <LongitudeDegrees>-0.80047401599586009979248046875</LongitudeDegrees>
            </Position>
            <AltitudeMeters>486.600006103515625</AltitudeMeters>
            <DistanceMeters>3860.1433120666</DistanceMeters>
          </Trackpoint>
          <Trackpoint>
            <Time>2022-06-01T17:58:24.000Z</Time>
            <Position>
              <LatitudeDegrees>39.40680404193699359893798828125</LatitudeDegrees>
              <LongitudeDegrees>-0.80024309456348419189453125</LongitudeDegrees>
            </Position>
            <AltitudeMeters>486.20001220703125</AltitudeMeters>
            <DistanceMeters>3880.0853422188</DistanceMeters>
          </Trackpoint>
          <Trackpoint>
            <Time>2022-06-01T17:58:28.000Z</Time>
            <Position>
              <LatitudeDegrees>39.40678761340677738189697265625</LatitudeDegrees>
              <LongitudeDegrees>-0.80005844123661518096923828125</LongitudeDegrees>
            </Position>
            <AltitudeMeters>486</AltitudeMeters>
            <DistanceMeters>3896.0701801304</DistanceMeters>
          </Trackpoint>
          <Trackpoint>
            <Time>2022-06-01T17:58:31.000Z</Time>
            <Position>
              <LatitudeDegrees>39.4067749567329883575439453125</LatitudeDegrees>
              <LongitudeDegrees>-0.7999326288700103759765625</LongitudeDegrees>
            </Position>
            <AltitudeMeters>485.600006103515625</AltitudeMeters>
            <DistanceMeters>3906.9812995889</DistanceMeters>
          </Trackpoint>
          <Trackpoint>
            <Time>2022-06-01T17:58:33.000Z</Time>
            <Position>
              <LatitudeDegrees>39.4067799858748912811279296875</LatitudeDegrees>
              <LongitudeDegrees>-0.799900107085704803466796875</LongitudeDegrees>
            </Position>
            <AltitudeMeters>484.600006103515625</AltitudeMeters>
            <DistanceMeters>3909.83210102</DistanceMeters>
          </Trackpoint>
          <Trackpoint>
            <Time>2022-06-01T17:58:36.000Z</Time>
            <Position>
              <LatitudeDegrees>39.4067960791289806365966796875</LatitudeDegrees>
              <LongitudeDegrees>-0.79982626251876354217529296875</LongitudeDegrees>
            </Position>
            <AltitudeMeters>483.79998779296875</AltitudeMeters>
            <DistanceMeters>3916.4301309181</DistanceMeters>
          </Trackpoint>
          <Trackpoint>
            <Time>2022-06-01T17:58:37.000Z</Time>
            <Position>
              <LatitudeDegrees>39.40677939914166927337646484375</LatitudeDegrees>
              <LongitudeDegrees>-0.79980949871242046356201171875</LongitudeDegrees>
            </Position>
            <AltitudeMeters>483.600006103515625</AltitudeMeters>
            <DistanceMeters>3918.7809620017</DistanceMeters>
          </Trackpoint>
          <Trackpoint>
            <Time>2022-06-01T17:58:39.000Z</Time>
            <Position>
              <LatitudeDegrees>39.40672374330461025238037109375</LatitudeDegrees>
              <LongitudeDegrees>-0.79978552646934986114501953125</LongitudeDegrees>
            </Position>
            <AltitudeMeters>483.20001220703125</AltitudeMeters>
            <DistanceMeters>3925.3088200531</DistanceMeters>
          </Trackpoint>
          <Trackpoint>
            <Time>2022-06-01T17:58:40.000Z</Time>
            <Position>
              <LatitudeDegrees>39.40668971277773380279541015625</LatitudeDegrees>
              <LongitudeDegrees>-0.7997732050716876983642578125</LongitudeDegrees>
            </Position>
            <AltitudeMeters>483.20001220703125</AltitudeMeters>
            <DistanceMeters>3929.2406759599</DistanceMeters>
          </Trackpoint>
          <Trackpoint>
            <Time>2022-06-01T17:58:45.000Z</Time>
            <Position>
              <LatitudeDegrees>39.4066197238862514495849609375</LatitudeDegrees>
              <LongitudeDegrees>-0.79969181679189205169677734375</LongitudeDegrees>
            </Position>
            <AltitudeMeters>482.399993896484375</AltitudeMeters>
            <DistanceMeters>3939.7126026372</DistanceMeters>
          </Trackpoint>
          <Trackpoint>
            <Time>2022-06-01T17:58:47.000Z</Time>
            <Position>
              <LatitudeDegrees>39.406632967293262481689453125</LatitudeDegrees>
              <LongitudeDegrees>-0.7996561937034130096435546875</LongitudeDegrees>
            </Position>
            <AltitudeMeters>482.399993896484375</AltitudeMeters>
            <DistanceMeters>3943.1123817254</DistanceMeters>
          </Trackpoint>
          <Trackpoint>
            <Time>2022-06-01T17:58:48.000Z</Time>
            <Position>
              <LatitudeDegrees>39.406641684472560882568359375</LatitudeDegrees>
              <LongitudeDegrees>-0.79961252398788928985595703125</LongitudeDegrees>
            </Position>
            <AltitudeMeters>482</AltitudeMeters>
            <DistanceMeters>3946.9910551269</DistanceMeters>
          </Trackpoint>
          <Trackpoint>
            <Time>2022-06-01T17:58:49.000Z</Time>
            <Position>
              <LatitudeDegrees>39.40664730034768581390380859375</LatitudeDegrees>
              <LongitudeDegrees>-0.7995656691491603851318359375</LongitudeDegrees>
            </Position>
            <AltitudeMeters>481.399993896484375</AltitudeMeters>
            <DistanceMeters>3951.0683545681</DistanceMeters>
          </Trackpoint>
          <Trackpoint>
            <Time>2022-06-01T17:58:50.000Z</Time>
            <Position>
              <LatitudeDegrees>39.4066465459764003753662109375</LatitudeDegrees>
              <LongitudeDegrees>-0.79953230917453765869140625</LongitudeDegrees>
            </Position>
            <AltitudeMeters>480.600006103515625</AltitudeMeters>
            <DistanceMeters>3953.9396713032</DistanceMeters>
          </Trackpoint>
          <Trackpoint>
            <Time>2022-06-01T17:58:53.000Z</Time>
            <Position>
              <LatitudeDegrees>39.406616203486919403076171875</LatitudeDegrees>
              <LongitudeDegrees>-0.799444131553173065185546875</LongitudeDegrees>
            </Position>
            <AltitudeMeters>479.399993896484375</AltitudeMeters>
            <DistanceMeters>3962.2413303796</DistanceMeters>
          </Trackpoint>
          <Trackpoint>
            <Time>2022-06-01T17:58:55.000Z</Time>
            <Position>
              <LatitudeDegrees>39.406577646732330322265625</LatitudeDegrees>
              <LongitudeDegrees>-0.79943214543163776397705078125</LongitudeDegrees>
            </Position>
            <AltitudeMeters>478</AltitudeMeters>
            <DistanceMeters>3966.6557278431</DistanceMeters>
          </Trackpoint>
          <Trackpoint>
            <Time>2022-06-01T17:58:56.000Z</Time>
            <Position>
              <LatitudeDegrees>39.40655124373733997344970703125</LatitudeDegrees>
              <LongitudeDegrees>-0.79942912794649600982666015625</LongitudeDegrees>
            </Position>
            <AltitudeMeters>477.399993896484375</AltitudeMeters>
            <DistanceMeters>3969.6046197732</DistanceMeters>
          </Trackpoint>
          <Trackpoint>
            <Time>2022-06-01T17:58:57.000Z</Time>
            <Position>
              <LatitudeDegrees>39.4065151177346706390380859375</LatitudeDegrees>
              <LongitudeDegrees>-0.7994245178997516632080078125</LongitudeDegrees>
            </Position>
            <AltitudeMeters>477</AltitudeMeters>
            <DistanceMeters>3973.6452110927</DistanceMeters>
          </Trackpoint>
          <Trackpoint>
            <Time>2022-06-01T17:58:58.000Z</Time>
            <Position>
              <LatitudeDegrees>39.4064775668084621429443359375</LatitudeDegrees>
              <LongitudeDegrees>-0.79941739328205585479736328125</LongitudeDegrees>
            </Position>
            <AltitudeMeters>476.79998779296875</AltitudeMeters>
            <DistanceMeters>3977.8693596522</DistanceMeters>
          </Trackpoint>
          <Trackpoint>
            <Time>2022-06-01T17:59:00.000Z</Time>
            <Position>
              <LatitudeDegrees>39.40639517270028591156005859375</LatitudeDegrees>
              <LongitudeDegrees>-0.79942326061427593231201171875</LongitudeDegrees>
            </Position>
            <AltitudeMeters>476.600006103515625</AltitudeMeters>
            <DistanceMeters>3987.0535822139</DistanceMeters>
          </Trackpoint>
          <Trackpoint>
            <Time>2022-06-01T17:59:03.000Z</Time>
            <Position>
              <LatitudeDegrees>39.40629492513835430145263671875</LatitudeDegrees>
              <LongitudeDegrees>-0.79943750984966754913330078125</LongitudeDegrees>
            </Position>
            <AltitudeMeters>475.79998779296875</AltitudeMeters>
            <DistanceMeters>3998.2784054474</DistanceMeters>
          </Trackpoint>
          <Trackpoint>
            <Time>2022-06-01T17:59:04.000Z</Time>
            <Position>
              <LatitudeDegrees>39.40626324154436588287353515625</LatitudeDegrees>
              <LongitudeDegrees>-0.79944781959056854248046875</LongitudeDegrees>
            </Position>
            <AltitudeMeters>475.79998779296875</AltitudeMeters>
            <DistanceMeters>4001.913099635</DistanceMeters>
          </Trackpoint>
          <Trackpoint>
            <Time>2022-06-01T17:59:08.000Z</Time>
            <Position>
              <LatitudeDegrees>39.4061526842415332794189453125</LatitudeDegrees>
              <LongitudeDegrees>-0.79952292144298553466796875</LongitudeDegrees>
            </Position>
            <AltitudeMeters>476.20001220703125</AltitudeMeters>
            <DistanceMeters>4015.8104114248</DistanceMeters>
          </Trackpoint>
          <Trackpoint>
            <Time>2022-06-01T17:59:10.000Z</Time>
            <Position>
              <LatitudeDegrees>39.406119324266910552978515625</LatitudeDegrees>
              <LongitudeDegrees>-0.7995945028960704803466796875</LongitudeDegrees>
            </Position>
            <AltitudeMeters>475.20001220703125</AltitudeMeters>
            <DistanceMeters>4022.9998590785</DistanceMeters>
          </Trackpoint>
          <Trackpoint>
            <Time>2022-06-01T17:59:12.000Z</Time>
            <Position>
              <LatitudeDegrees>39.40610113553702831268310546875</LatitudeDegrees>
              <LongitudeDegrees>-0.7996783219277858734130859375</LongitudeDegrees>
            </Position>
            <AltitudeMeters>474.79998779296875</AltitudeMeters>
            <DistanceMeters>4030.4870958561</DistanceMeters>
          </Trackpoint>
          <Trackpoint>
            <Time>2022-06-01T17:59:13.000Z</Time>
            <Position>
              <LatitudeDegrees>39.40610767342150211334228515625</LatitudeDegrees>
              <LongitudeDegrees>-0.799739174544811248779296875</LongitudeDegrees>
            </Position>
            <AltitudeMeters>474.79998779296875</AltitudeMeters>
            <DistanceMeters>4035.7711280632</DistanceMeters>
          </Trackpoint>
          <Trackpoint>
            <Time>2022-06-01T17:59:16.000Z</Time>
            <Position>
              <LatitudeDegrees>39.40611253492534160614013671875</LatitudeDegrees>
              <LongitudeDegrees>-0.79985844902694225311279296875</LongitudeDegrees>
            </Position>
            <AltitudeMeters>475.399993896484375</AltitudeMeters>
            <DistanceMeters>4046.0432477688</DistanceMeters>
          </Trackpoint>
          <Trackpoint>
            <Time>2022-06-01T17:59:19.000Z</Time>
            <Position>
              <LatitudeDegrees>39.40609820187091827392578125</LatitudeDegrees>
              <LongitudeDegrees>-0.7999861054122447967529296875</LongitudeDegrees>
            </Position>
            <AltitudeMeters>475.79998779296875</AltitudeMeters>
            <DistanceMeters>4057.1373877504</DistanceMeters>
          </Trackpoint>
          <Trackpoint>
            <Time>2022-06-01T17:59:21.000Z</Time>
            <Position>
              <LatitudeDegrees>39.40609954297542572021484375</LatitudeDegrees>
              <LongitudeDegrees>-0.800078809261322021484375</LongitudeDegrees>
            </Position>
            <AltitudeMeters>476.20001220703125</AltitudeMeters>
            <DistanceMeters>4065.1117089327</DistanceMeters>
          </Trackpoint>
          <Trackpoint>
            <Time>2022-06-01T17:59:25.000Z</Time>
            <Position>
              <LatitudeDegrees>39.40612971782684326171875</LatitudeDegrees>
              <LongitudeDegrees>-0.80022591166198253631591796875</LongitudeDegrees>
            </Position>
            <AltitudeMeters>477</AltitudeMeters>
            <DistanceMeters>4078.2005824631</DistanceMeters>
          </Trackpoint>
          <Trackpoint>
            <Time>2022-06-01T17:59:27.000Z</Time>
            <Position>
              <LatitudeDegrees>39.40613231621682643890380859375</LatitudeDegrees>
              <LongitudeDegrees>-0.80029447562992572784423828125</LongitudeDegrees>
            </Position>
            <AltitudeMeters>477.20001220703125</AltitudeMeters>
            <DistanceMeters>4084.1044875329</DistanceMeters>
          </Trackpoint>
          <Trackpoint>
            <Time>2022-06-01T17:59:32.000Z</Time>
            <Position>
              <LatitudeDegrees>39.40607062540948390960693359375</LatitudeDegrees>
              <LongitudeDegrees>-0.8004538156092166900634765625</LongitudeDegrees>
            </Position>
            <AltitudeMeters>477.399993896484375</AltitudeMeters>
            <DistanceMeters>4099.4320933095</DistanceMeters>
          </Trackpoint>
          <Trackpoint>
            <Time>2022-06-01T17:59:37.000Z</Time>
            <Position>
              <LatitudeDegrees>39.40600725822150707244873046875</LatitudeDegrees>
              <LongitudeDegrees>-0.80062589608132839202880859375</LongitudeDegrees>
            </Position>
            <AltitudeMeters>478.20001220703125</AltitudeMeters>
            <DistanceMeters>4115.8257852404</DistanceMeters>
          </Trackpoint>
          <Trackpoint>
            <Time>2022-06-01T17:59:38.000Z</Time>
            <Position>
              <LatitudeDegrees>39.40599166788160800933837890625</LatitudeDegrees>
              <LongitudeDegrees>-0.80065825022757053375244140625</LongitudeDegrees>
            </Position>
            <AltitudeMeters>478.399993896484375</AltitudeMeters>
            <DistanceMeters>4119.1038625684</DistanceMeters>
          </Trackpoint>
          <Trackpoint>
            <Time>2022-06-01T17:59:43.000Z</Time>
            <Position>
              <LatitudeDegrees>39.4058720581233501434326171875</LatitudeDegrees>
              <LongitudeDegrees>-0.80073737539350986480712890625</LongitudeDegrees>
            </Position>
            <AltitudeMeters>478.79998779296875</AltitudeMeters>
            <DistanceMeters>4134.0551013924</DistanceMeters>
          </Trackpoint>
          <Trackpoint>
            <Time>2022-06-01T17:59:44.000Z</Time>
            <Position>
              <LatitudeDegrees>39.4058274663984775543212890625</LatitudeDegrees>
              <LongitudeDegrees>-0.80074005760252475738525390625</LongitudeDegrees>
            </Position>
            <AltitudeMeters>478.79998779296875</AltitudeMeters>
            <DistanceMeters>4139.0238264801</DistanceMeters>
          </Trackpoint>
          <Trackpoint>
            <Time>2022-06-01T17:59:47.000Z</Time>
            <Position>
              <LatitudeDegrees>39.40571196377277374267578125</LatitudeDegrees>
              <LongitudeDegrees>-0.80072580836713314056396484375</LongitudeDegrees>
            </Position>
            <AltitudeMeters>478.79998779296875</AltitudeMeters>
            <DistanceMeters>4151.9376737677</DistanceMeters>
          </Trackpoint>
          <Trackpoint>
            <Time>2022-06-01T17:59:52.000Z</Time>
            <Position>
              <LatitudeDegrees>39.40554843284189701080322265625</LatitudeDegrees>
              <LongitudeDegrees>-0.80062556080520153045654296875</LongitudeDegrees>
            </Position>
            <AltitudeMeters>478.399993896484375</AltitudeMeters>
            <DistanceMeters>4172.0775092613</DistanceMeters>
          </Trackpoint>
          <Trackpoint>
            <Time>2022-06-01T17:59:54.000Z</Time>
            <Position>
              <LatitudeDegrees>39.4054817967116832733154296875</LatitudeDegrees>
              <LongitudeDegrees>-0.80058868043124675750732421875</LongitudeDegrees>
            </Position>
            <AltitudeMeters>478</AltitudeMeters>
            <DistanceMeters>4180.1441523584</DistanceMeters>
          </Trackpoint>
          <Trackpoint>
            <Time>2022-06-01T17:59:56.000Z</Time>
            <Position>
              <LatitudeDegrees>39.40541717223823070526123046875</LatitudeDegrees>
              <LongitudeDegrees>-0.80055154860019683837890625</LongitudeDegrees>
            </Position>
            <AltitudeMeters>477.79998779296875</AltitudeMeters>
            <DistanceMeters>4188.0147510907</DistanceMeters>
          </Trackpoint>
          <Trackpoint>
            <Time>2022-06-01T18:00:01.000Z</Time>
            <Position>
              <LatitudeDegrees>39.40527551807463169097900390625</LatitudeDegrees>
              <LongitudeDegrees>-0.80044618807733058929443359375</LongitudeDegrees>
            </Position>
            <AltitudeMeters>478</AltitudeMeters>
            <DistanceMeters>4206.1993984444</DistanceMeters>
          </Trackpoint>
          <Trackpoint>
            <Time>2022-06-01T18:00:02.000Z</Time>
            <Position>
              <LatitudeDegrees>39.40524919889867305755615234375</LatitudeDegrees>
              <LongitudeDegrees>-0.8004129119217395782470703125</LongitudeDegrees>
            </Position>
            <AltitudeMeters>478</AltitudeMeters>
            <DistanceMeters>4210.2954797464</DistanceMeters>
          </Trackpoint>
          <Trackpoint>
            <Time>2022-06-01T18:00:05.000Z</Time>
            <Position>
              <LatitudeDegrees>39.4051716662943363189697265625</LatitudeDegrees>
              <LongitudeDegrees>-0.8003016002476215362548828125</LongitudeDegrees>
            </Position>
            <AltitudeMeters>477</AltitudeMeters>
            <DistanceMeters>4223.1841292592</DistanceMeters>
          </Trackpoint>
          <Trackpoint>
            <Time>2022-06-01T18:00:07.000Z</Time>
            <Position>
              <LatitudeDegrees>39.40512145869433879852294921875</LatitudeDegrees>
              <LongitudeDegrees>-0.80023831687867641448974609375</LongitudeDegrees>
            </Position>
            <AltitudeMeters>476.79998779296875</AltitudeMeters>
            <DistanceMeters>4230.984427656</DistanceMeters>
          </Trackpoint>
          <Trackpoint>
            <Time>2022-06-01T18:00:12.000Z</Time>
            <Position>
              <LatitudeDegrees>39.4050154276192188262939453125</LatitudeDegrees>
              <LongitudeDegrees>-0.80004838295280933380126953125</LongitudeDegrees>
            </Position>
            <AltitudeMeters>476</AltitudeMeters>
            <DistanceMeters>4251.1359173698</DistanceMeters>
          </Trackpoint>
          <Trackpoint>
            <Time>2022-06-01T18:00:13.000Z</Time>
            <Position>
              <LatitudeDegrees>39.40499137155711650848388671875</LatitudeDegrees>
              <LongitudeDegrees>-0.80001954920589923858642578125</LongitudeDegrees>
            </Position>
            <AltitudeMeters>476</AltitudeMeters>
            <DistanceMeters>4254.7867245177</DistanceMeters>
          </Trackpoint>
          <Trackpoint>
            <Time>2022-06-01T18:00:16.000Z</Time>
            <Position>
              <LatitudeDegrees>39.40491459332406520843505859375</LatitudeDegrees>
              <LongitudeDegrees>-0.79991829581558704376220703125</LongitudeDegrees>
            </Position>
            <AltitudeMeters>476.20001220703125</AltitudeMeters>
            <DistanceMeters>4266.9875773641</DistanceMeters>
          </Trackpoint>
          <Trackpoint>
            <Time>2022-06-01T18:00:21.000Z</Time>
            <Position>
              <LatitudeDegrees>39.40480646677315235137939453125</LatitudeDegrees>
              <LongitudeDegrees>-0.79973909072577953338623046875</LongitudeDegrees>
            </Position>
            <AltitudeMeters>475.20001220703125</AltitudeMeters>
            <DistanceMeters>4286.5418494534</DistanceMeters>
          </Trackpoint>
          <Trackpoint>
            <Time>2022-06-01T18:00:22.000Z</Time>
            <Position>
              <LatitudeDegrees>39.4047924689948558807373046875</LatitudeDegrees>
              <LongitudeDegrees>-0.79970740713179111480712890625</LongitudeDegrees>
            </Position>
            <AltitudeMeters>474.79998779296875</AltitudeMeters>
            <DistanceMeters>4289.6806093041</DistanceMeters>
          </Trackpoint>
          <Trackpoint>
            <Time>2022-06-01T18:00:25.000Z</Time>
            <Position>
              <LatitudeDegrees>39.404750727117061614990234375</LatitudeDegrees>
              <LongitudeDegrees>-0.79960514791309833526611328125</LongitudeDegrees>
            </Position>
            <AltitudeMeters>473.79998779296875</AltitudeMeters>
            <DistanceMeters>4299.6271422438</DistanceMeters>
          </Trackpoint>
          <Trackpoint>
            <Time>2022-06-01T18:00:26.000Z</Time>
            <Position>
              <LatitudeDegrees>39.40473119728267192840576171875</LatitudeDegrees>
              <LongitudeDegrees>-0.79957698471844196319580078125</LongitudeDegrees>
            </Position>
            <AltitudeMeters>473.600006103515625</AltitudeMeters>
            <DistanceMeters>4302.8831074993</DistanceMeters>
          </Trackpoint>
          <Trackpoint>
            <Time>2022-06-01T18:00:29.000Z</Time>
            <Position>
              <LatitudeDegrees>39.404657185077667236328125</LatitudeDegrees>
              <LongitudeDegrees>-0.799555443227291107177734375</LongitudeDegrees>
            </Position>
            <AltitudeMeters>473.20001220703125</AltitudeMeters>
            <DistanceMeters>4311.3260586095</DistanceMeters>
          </Trackpoint>
          <Trackpoint>
            <Time>2022-06-01T18:00:32.000Z</Time>
            <Position>
              <LatitudeDegrees>39.4045876152813434600830078125</LatitudeDegrees>
              <LongitudeDegrees>-0.79958117567002773284912109375</LongitudeDegrees>
            </Position>
            <AltitudeMeters>473</AltitudeMeters>
            <DistanceMeters>4319.379257292</DistanceMeters>
          </Trackpoint>
          <Trackpoint>
            <Time>2022-06-01T18:00:34.000Z</Time>
            <Position>
              <LatitudeDegrees>39.40457110293209552764892578125</LatitudeDegrees>
              <LongitudeDegrees>-0.79963632859289646148681640625</LongitudeDegrees>
            </Position>
            <AltitudeMeters>473</AltitudeMeters>
            <DistanceMeters>4324.4665157962</DistanceMeters>
          </Trackpoint>
          <Trackpoint>
            <Time>2022-06-01T18:00:36.000Z</Time>
            <Position>
              <LatitudeDegrees>39.4045473821461200714111328125</LatitudeDegrees>
              <LongitudeDegrees>-0.79968561418354511260986328125</LongitudeDegrees>
            </Position>
            <AltitudeMeters>474</AltitudeMeters>
            <DistanceMeters>4329.4597152777</DistanceMeters>
          </Trackpoint>
          <Trackpoint>
            <Time>2022-06-01T18:00:37.000Z</Time>
            <Position>
              <LatitudeDegrees>39.40453179180622100830078125</LatitudeDegrees>
              <LongitudeDegrees>-0.7997064851224422454833984375</LongitudeDegrees>
            </Position>
            <AltitudeMeters>474.20001220703125</AltitudeMeters>
            <DistanceMeters>4331.9558628587</DistanceMeters>
          </Trackpoint>
          <Trackpoint>
            <Time>2022-06-01T18:00:41.000Z</Time>
            <Position>
              <LatitudeDegrees>39.404437579214572906494140625</LatitudeDegrees>
              <LongitudeDegrees>-0.79977580346167087554931640625</LongitudeDegrees>
            </Position>
            <AltitudeMeters>474.399993896484375</AltitudeMeters>
            <DistanceMeters>4344.0178938512</DistanceMeters>
          </Trackpoint>
          <Trackpoint>
            <Time>2022-06-01T18:00:43.000Z</Time>
            <Position>
              <LatitudeDegrees>39.40438468940556049346923828125</LatitudeDegrees>
              <LongitudeDegrees>-0.7997504062950611114501953125</LongitudeDegrees>
            </Position>
            <AltitudeMeters>474.600006103515625</AltitudeMeters>
            <DistanceMeters>4350.2968518662</DistanceMeters>
          </Trackpoint>
          <Trackpoint>
            <Time>2022-06-01T18:00:45.000Z</Time>
            <Position>
              <LatitudeDegrees>39.4043420255184173583984375</LatitudeDegrees>
              <LongitudeDegrees>-0.7996984384953975677490234375</LongitudeDegrees>
            </Position>
            <AltitudeMeters>475.399993896484375</AltitudeMeters>
            <DistanceMeters>4356.8177896803</DistanceMeters>
          </Trackpoint>
          <Trackpoint>
            <Time>2022-06-01T18:00:49.000Z</Time>
            <Position>
              <LatitudeDegrees>39.4042801670730113983154296875</LatitudeDegrees>
              <LongitudeDegrees>-0.79955703578889369964599609375</LongitudeDegrees>
            </Position>
            <AltitudeMeters>474.79998779296875</AltitudeMeters>
            <DistanceMeters>4370.7922103544</DistanceMeters>
          </Trackpoint>
          <Trackpoint>
            <Time>2022-06-01T18:00:50.000Z</Time>
            <Position>
              <LatitudeDegrees>39.40426222980022430419921875</LatitudeDegrees>
              <LongitudeDegrees>-0.7995153777301311492919921875</LongitudeDegrees>
            </Position>
            <AltitudeMeters>473.79998779296875</AltitudeMeters>
            <DistanceMeters>4374.8949000199</DistanceMeters>
          </Trackpoint>
          <Trackpoint>
            <Time>2022-06-01T18:00:51.000Z</Time>
            <Position>
              <LatitudeDegrees>39.40423448570072650909423828125</LatitudeDegrees>
              <LongitudeDegrees>-0.7994919084012508392333984375</LongitudeDegrees>
            </Position>
            <AltitudeMeters>473.20001220703125</AltitudeMeters>
            <DistanceMeters>4378.5850701078</DistanceMeters>
          </Trackpoint>
          <Trackpoint>
            <Time>2022-06-01T18:00:52.000Z</Time>
            <Position>
              <LatitudeDegrees>39.404202215373516082763671875</LatitudeDegrees>
              <LongitudeDegrees>-0.79946257174015045166015625</LongitudeDegrees>
            </Position>
            <AltitudeMeters>472.600006103515625</AltitudeMeters>
            <DistanceMeters>4382.9748517802</DistanceMeters>
          </Trackpoint>
          <Trackpoint>
            <Time>2022-06-01T18:00:53.000Z</Time>
            <Position>
              <LatitudeDegrees>39.40417237579822540283203125</LatitudeDegrees>
              <LongitudeDegrees>-0.79943298362195491790771484375</LongitudeDegrees>
            </Position>
            <AltitudeMeters>472.20001220703125</AltitudeMeters>
            <DistanceMeters>4387.158186353</DistanceMeters>
          </Trackpoint>
          <Trackpoint>
            <Time>2022-06-01T18:00:54.000Z</Time>
            <Position>
              <LatitudeDegrees>39.4041423685848712921142578125</LatitudeDegrees>
              <LongitudeDegrees>-0.79940624535083770751953125</LongitudeDegrees>
            </Position>
            <AltitudeMeters>471.79998779296875</AltitudeMeters>
            <DistanceMeters>4391.2132781158</DistanceMeters>
          </Trackpoint>
          <Trackpoint>
            <Time>2022-06-01T18:00:58.000Z</Time>
            <Position>
              <LatitudeDegrees>39.40401974134147167205810546875</LatitudeDegrees>
              <LongitudeDegrees>-0.799322761595249176025390625</LongitudeDegrees>
            </Position>
            <AltitudeMeters>470.600006103515625</AltitudeMeters>
            <DistanceMeters>4406.6351506798</DistanceMeters>
          </Trackpoint>
          <Trackpoint>
            <Time>2022-06-01T18:01:02.000Z</Time>
            <Position>
              <LatitudeDegrees>39.40394011326134204864501953125</LatitudeDegrees>
              <LongitudeDegrees>-0.79924623481929302215576171875</LongitudeDegrees>
            </Position>
            <AltitudeMeters>469.79998779296875</AltitudeMeters>
            <DistanceMeters>4417.6746213052</DistanceMeters>
          </Trackpoint>
          <Trackpoint>
            <Time>2022-06-01T18:01:03.000Z</Time>
            <Position>
              <LatitudeDegrees>39.40392586402595043182373046875</LatitudeDegrees>
              <LongitudeDegrees>-0.799215473234653472900390625</LongitudeDegrees>
            </Position>
            <AltitudeMeters>469.600006103515625</AltitudeMeters>
            <DistanceMeters>4420.7596983823</DistanceMeters>
          </Trackpoint>
          <Trackpoint>
            <Time>2022-06-01T18:01:05.000Z</Time>
            <Position>
              <LatitudeDegrees>39.40389744937419891357421875</LatitudeDegrees>
              <LongitudeDegrees>-0.79917515628039836883544921875</LongitudeDegrees>
            </Position>
            <AltitudeMeters>469.399993896484375</AltitudeMeters>
            <DistanceMeters>4425.4527098299</DistanceMeters>
          </Trackpoint>
          <Trackpoint>
            <Time>2022-06-01T18:01:07.000Z</Time>
            <Position>
              <LatitudeDegrees>39.4038780033588409423828125</LatitudeDegrees>
              <LongitudeDegrees>-0.79910944215953350067138671875</LongitudeDegrees>
            </Position>
            <AltitudeMeters>469</AltitudeMeters>
            <DistanceMeters>4431.5046508455</DistanceMeters>
          </Trackpoint>
          <Trackpoint>
            <Time>2022-06-01T18:01:09.000Z</Time>
            <Position>
              <LatitudeDegrees>39.40385629422962665557861328125</LatitudeDegrees>
              <LongitudeDegrees>-0.79905487596988677978515625</LongitudeDegrees>
            </Position>
            <AltitudeMeters>468.20001220703125</AltitudeMeters>
            <DistanceMeters>4436.7835537529</DistanceMeters>
          </Trackpoint>
          <Trackpoint>
            <Time>2022-06-01T18:01:11.000Z</Time>
            <Position>
              <LatitudeDegrees>39.40383718349039554595947265625</LatitudeDegrees>
              <LongitudeDegrees>-0.79899595119059085845947265625</LongitudeDegrees>
            </Position>
            <AltitudeMeters>466.79998779296875</AltitudeMeters>
            <DistanceMeters>4442.2795164261</DistanceMeters>
          </Trackpoint>
          <Trackpoint>
            <Time>2022-06-01T18:01:12.000Z</Time>
            <Position>
              <LatitudeDegrees>39.403823353350162506103515625</LatitudeDegrees>
              <LongitudeDegrees>-0.79896904528141021728515625</LongitudeDegrees>
            </Position>
            <AltitudeMeters>466.399993896484375</AltitudeMeters>
            <DistanceMeters>4445.0581339528</DistanceMeters>
          </Trackpoint>
          <Trackpoint>
            <Time>2022-06-01T18:01:14.000Z</Time>
            <Position>
              <LatitudeDegrees>39.4037889875471591949462890625</LatitudeDegrees>
              <LongitudeDegrees>-0.7989165745675563812255859375</LongitudeDegrees>
            </Position>
            <AltitudeMeters>465.600006103515625</AltitudeMeters>
            <DistanceMeters>4450.9742624417</DistanceMeters>
          </Trackpoint>
          <Trackpoint>
            <Time>2022-06-01T18:01:16.000Z</Time>
            <Position>
              <LatitudeDegrees>39.40375688485801219940185546875</LatitudeDegrees>
              <LongitudeDegrees>-0.7988478429615497589111328125</LongitudeDegrees>
            </Position>
            <AltitudeMeters>464.600006103515625</AltitudeMeters>
            <DistanceMeters>4457.8805540498</DistanceMeters>
          </Trackpoint>
          <Trackpoint>
            <Time>2022-06-01T18:01:17.000Z</Time>
            <Position>
              <LatitudeDegrees>39.40374330617487430572509765625</LatitudeDegrees>
              <LongitudeDegrees>-0.79882211051881313323974609375</LongitudeDegrees>
            </Position>
            <AltitudeMeters>463.79998779296875</AltitudeMeters>
            <DistanceMeters>4460.5582173402</DistanceMeters>
          </Trackpoint>
          <Trackpoint>
            <Time>2022-06-01T18:01:18.000Z</Time>
            <Position>
              <LatitudeDegrees>39.403728805482387542724609375</LatitudeDegrees>
              <LongitudeDegrees>-0.7987926900386810302734375</LongitudeDegrees>
            </Position>
            <AltitudeMeters>463.600006103515625</AltitudeMeters>
            <DistanceMeters>4463.5572098607</DistanceMeters>
          </Trackpoint>
          <Trackpoint>
            <Time>2022-06-01T18:01:20.000Z</Time>
            <Position>
              <LatitudeDegrees>39.40369737334549427032470703125</LatitudeDegrees>
              <LongitudeDegrees>-0.79874239861965179443359375</LongitudeDegrees>
            </Position>
            <AltitudeMeters>461.79998779296875</AltitudeMeters>
            <DistanceMeters>4469.1201292358</DistanceMeters>
          </Trackpoint>
          <Trackpoint>
            <Time>2022-06-01T18:01:21.000Z</Time>
            <Position>
              <LatitudeDegrees>39.40368228591978549957275390625</LatitudeDegrees>
              <LongitudeDegrees>-0.79872286878526210784912109375</LongitudeDegrees>
            </Position>
            <AltitudeMeters>461</AltitudeMeters>
            <DistanceMeters>4471.4938957999</DistanceMeters>
          </Trackpoint>
          <Trackpoint>
            <Time>2022-06-01T18:01:22.000Z</Time>
            <Position>
              <LatitudeDegrees>39.40366812050342559814453125</LatitudeDegrees>
              <LongitudeDegrees>-0.79870509915053844451904296875</LongitudeDegrees>
            </Position>
            <AltitudeMeters>459.79998779296875</AltitudeMeters>
            <DistanceMeters>4473.6898149289</DistanceMeters>
          </Trackpoint>
          <Trackpoint>
            <Time>2022-06-01T18:01:24.000Z</Time>
            <Position>
              <LatitudeDegrees>39.4036511890590190887451171875</LatitudeDegrees>
              <LongitudeDegrees>-0.79865380190312862396240234375</LongitudeDegrees>
            </Position>
            <AltitudeMeters>458.399993896484375</AltitudeMeters>
            <DistanceMeters>4478.4874877872</DistanceMeters>
          </Trackpoint>
          <Trackpoint>
            <Time>2022-06-01T18:01:26.000Z</Time>
            <Position>
              <LatitudeDegrees>39.40364222042262554168701171875</LatitudeDegrees>
              <LongitudeDegrees>-0.79858674667775630950927734375</LongitudeDegrees>
            </Position>
            <AltitudeMeters>457.20001220703125</AltitudeMeters>
            <DistanceMeters>4484.3407014369</DistanceMeters>
          </Trackpoint>
          <Trackpoint>
            <Time>2022-06-01T18:01:28.000Z</Time>
            <Position>
              <LatitudeDegrees>39.40363517962396144866943359375</LatitudeDegrees>
              <LongitudeDegrees>-0.798521451652050018310546875</LongitudeDegrees>
            </Position>
            <AltitudeMeters>456</AltitudeMeters>
            <DistanceMeters>4490.0105402477</DistanceMeters>
          </Trackpoint>
          <Trackpoint>
            <Time>2022-06-01T18:01:29.000Z</Time>
            <Position>
              <LatitudeDegrees>39.4036293961107730865478515625</LatitudeDegrees>
              <LongitudeDegrees>-0.79849152825772762298583984375</LongitudeDegrees>
            </Position>
            <AltitudeMeters>455.79998779296875</AltitudeMeters>
            <DistanceMeters>4492.6610872617</DistanceMeters>
          </Trackpoint>
          <Trackpoint>
            <Time>2022-06-01T18:01:30.000Z</Time>
            <Position>
              <LatitudeDegrees>39.40362294204533100128173828125</LatitudeDegrees>
              <LongitudeDegrees>-0.7984585873782634735107421875</LongitudeDegrees>
            </Position>
            <AltitudeMeters>455.399993896484375</AltitudeMeters>
            <DistanceMeters>4495.5822894525</DistanceMeters>
          </Trackpoint>
          <Trackpoint>
            <Time>2022-06-01T18:01:31.000Z</Time>
            <Position>
              <LatitudeDegrees>39.40361137501895427703857421875</LatitudeDegrees>
              <LongitudeDegrees>-0.7984307594597339630126953125</LongitudeDegrees>
            </Position>
            <AltitudeMeters>454.79998779296875</AltitudeMeters>
            <DistanceMeters>4498.3001199349</DistanceMeters>
          </Trackpoint>
          <Trackpoint>
            <Time>2022-06-01T18:01:33.000Z</Time>
            <Position>
              <LatitudeDegrees>39.403573237359523773193359375</LatitudeDegrees>
              <LongitudeDegrees>-0.7983972318470478057861328125</LongitudeDegrees>
            </Position>
            <AltitudeMeters>453.20001220703125</AltitudeMeters>
            <DistanceMeters>4503.4315625109</DistanceMeters>
          </Trackpoint>
          <Trackpoint>
            <Time>2022-06-01T18:01:36.000Z</Time>
            <Position>
              <LatitudeDegrees>39.4035227783024311065673828125</LatitudeDegrees>
              <LongitudeDegrees>-0.7983181066811084747314453125</LongitudeDegrees>
            </Position>
            <AltitudeMeters>452</AltitudeMeters>
            <DistanceMeters>4512.254730254</DistanceMeters>
          </Trackpoint>
          <Trackpoint>
            <Time>2022-06-01T18:01:38.000Z</Time>
            <Position>
              <LatitudeDegrees>39.4034822098910808563232421875</LatitudeDegrees>
              <LongitudeDegrees>-0.79826370812952518463134765625</LongitudeDegrees>
            </Position>
            <AltitudeMeters>450.79998779296875</AltitudeMeters>
            <DistanceMeters>4518.7569466385</DistanceMeters>
          </Trackpoint>
          <Trackpoint>
            <Time>2022-06-01T18:01:39.000Z</Time>
            <Position>
              <LatitudeDegrees>39.4034610874950885772705078125</LatitudeDegrees>
              <LongitudeDegrees>-0.79824225045740604400634765625</LongitudeDegrees>
            </Position>
            <AltitudeMeters>450.20001220703125</AltitudeMeters>
            <DistanceMeters>4521.7453819486</DistanceMeters>
          </Trackpoint>
          <Trackpoint>
            <Time>2022-06-01T18:01:41.000Z</Time>
            <Position>
              <LatitudeDegrees>39.403431080281734466552734375</LatitudeDegrees>
              <LongitudeDegrees>-0.79819832928478717803955078125</LongitudeDegrees>
            </Position>
            <AltitudeMeters>449.20001220703125</AltitudeMeters>
            <DistanceMeters>4526.7871738116</DistanceMeters>
          </Trackpoint>
          <Trackpoint>
            <Time>2022-06-01T18:01:43.000Z</Time>
            <Position>
              <LatitudeDegrees>39.40341196954250335693359375</LatitudeDegrees>
              <LongitudeDegrees>-0.798144601285457611083984375</LongitudeDegrees>
            </Position>
            <AltitudeMeters>448.20001220703125</AltitudeMeters>
            <DistanceMeters>4531.8735447195</DistanceMeters>
          </Trackpoint>
          <Trackpoint>
            <Time>2022-06-01T18:01:45.000Z</Time>
            <Position>
              <LatitudeDegrees>39.40338389016687870025634765625</LatitudeDegrees>
              <LongitudeDegrees>-0.79809196293354034423828125</LongitudeDegrees>
            </Position>
            <AltitudeMeters>446.79998779296875</AltitudeMeters>
            <DistanceMeters>4537.3736134542</DistanceMeters>
          </Trackpoint>
          <Trackpoint>
            <Time>2022-06-01T18:01:47.000Z</Time>
            <Position>
              <LatitudeDegrees>39.40334935672581195831298828125</LatitudeDegrees>
              <LongitudeDegrees>-0.79801778309047222137451171875</LongitudeDegrees>
            </Position>
            <AltitudeMeters>445.20001220703125</AltitudeMeters>
            <DistanceMeters>4544.8215500541</DistanceMeters>
          </Trackpoint>
          <Trackpoint>
            <Time>2022-06-01T18:01:50.000Z</Time>
            <Position>
              <LatitudeDegrees>39.40327249467372894287109375</LatitudeDegrees>
              <LongitudeDegrees>-0.79794502817094326019287109375</LongitudeDegrees>
            </Position>
            <AltitudeMeters>444.20001220703125</AltitudeMeters>
            <DistanceMeters>4555.4207566772</DistanceMeters>
          </Trackpoint>
          <Trackpoint>
            <Time>2022-06-01T18:01:53.000Z</Time>
            <Position>
              <LatitudeDegrees>39.40319605171680450439453125</LatitudeDegrees>
              <LongitudeDegrees>-0.7978882826864719390869140625</LongitudeDegrees>
            </Position>
            <AltitudeMeters>443.399993896484375</AltitudeMeters>
            <DistanceMeters>4565.23016515</DistanceMeters>
          </Trackpoint>
          <Trackpoint>
            <Time>2022-06-01T18:01:54.000Z</Time>
            <Position>
              <LatitudeDegrees>39.40317316912114620208740234375</LatitudeDegrees>
              <LongitudeDegrees>-0.79786397516727447509765625</LongitudeDegrees>
            </Position>
            <AltitudeMeters>443.20001220703125</AltitudeMeters>
            <DistanceMeters>4568.5274689028</DistanceMeters>
          </Trackpoint>
          <Trackpoint>
            <Time>2022-06-01T18:01:55.000Z</Time>
            <Position>
              <LatitudeDegrees>39.4031502865254878997802734375</LatitudeDegrees>
              <LongitudeDegrees>-0.79783656634390354156494140625</LongitudeDegrees>
            </Position>
            <AltitudeMeters>443</AltitudeMeters>
            <DistanceMeters>4571.9982212674</DistanceMeters>
          </Trackpoint>
          <Trackpoint>
            <Time>2022-06-01T18:01:58.000Z</Time>
            <Position>
              <LatitudeDegrees>39.4030617736279964447021484375</LatitudeDegrees>
              <LongitudeDegrees>-0.7977662421762943267822265625</LongitudeDegrees>
            </Position>
            <AltitudeMeters>441.79998779296875</AltitudeMeters>
            <DistanceMeters>4583.5583294544</DistanceMeters>
          </Trackpoint>
          <Trackpoint>
            <Time>2022-06-01T18:02:00.000Z</Time>
            <Position>
              <LatitudeDegrees>39.40300988964736461639404296875</LatitudeDegrees>
              <LongitudeDegrees>-0.79775266349315643310546875</LongitudeDegrees>
            </Position>
            <AltitudeMeters>440.399993896484375</AltitudeMeters>
            <DistanceMeters>4589.4499857453</DistanceMeters>
          </Trackpoint>
          <Trackpoint>
            <Time>2022-06-01T18:02:02.000Z</Time>
            <Position>
              <LatitudeDegrees>39.40298625268042087554931640625</LatitudeDegrees>
              <LongitudeDegrees>-0.79778619110584259033203125</LongitudeDegrees>
            </Position>
            <AltitudeMeters>439.600006103515625</AltitudeMeters>
            <DistanceMeters>4593.3541846436</DistanceMeters>
          </Trackpoint>
          <Trackpoint>
            <Time>2022-06-01T18:02:03.000Z</Time>
            <Position>
              <LatitudeDegrees>39.4029739312827587127685546875</LatitudeDegrees>
              <LongitudeDegrees>-0.797817707061767578125</LongitudeDegrees>
            </Position>
            <AltitudeMeters>439.20001220703125</AltitudeMeters>
            <DistanceMeters>4596.3920684672</DistanceMeters>
          </Trackpoint>
          <Trackpoint>
            <Time>2022-06-01T18:02:05.000Z</Time>
            <Position>
              <LatitudeDegrees>39.4029484502971172332763671875</LatitudeDegrees>
              <LongitudeDegrees>-0.7979047112166881561279296875</LongitudeDegrees>
            </Position>
            <AltitudeMeters>438.20001220703125</AltitudeMeters>
            <DistanceMeters>4604.3946494347</DistanceMeters>
          </Trackpoint>
          <Trackpoint>
            <Time>2022-06-01T18:02:07.000Z</Time>
            <Position>
              <LatitudeDegrees>39.40292707644402980804443359375</LatitudeDegrees>
              <LongitudeDegrees>-0.79798961989581584930419921875</LongitudeDegrees>
            </Position>
            <AltitudeMeters>437.79998779296875</AltitudeMeters>
            <DistanceMeters>4612.0747835046</DistanceMeters>
          </Trackpoint>
          <Trackpoint>
            <Time>2022-06-01T18:02:10.000Z</Time>
            <Position>
              <LatitudeDegrees>39.4028971530497074127197265625</LatitudeDegrees>
              <LongitudeDegrees>-0.7981011830270290374755859375</LongitudeDegrees>
            </Position>
            <AltitudeMeters>437</AltitudeMeters>
            <DistanceMeters>4622.2315346237</DistanceMeters>
          </Trackpoint>
          <Trackpoint>
            <Time>2022-06-01T18:02:12.000Z</Time>
            <Position>
              <LatitudeDegrees>39.40287209115922451019287109375</LatitudeDegrees>
              <LongitudeDegrees>-0.7981730997562408447265625</LongitudeDegrees>
            </Position>
            <AltitudeMeters>436.600006103515625</AltitudeMeters>
            <DistanceMeters>4629.0164686478</DistanceMeters>
          </Trackpoint>
          <Trackpoint>
            <Time>2022-06-01T18:02:14.000Z</Time>
            <Position>
              <LatitudeDegrees>39.40282213501632213592529296875</LatitudeDegrees>
              <LongitudeDegrees>-0.79824577085673809051513671875</LongitudeDegrees>
            </Position>
            <AltitudeMeters>436.399993896484375</AltitudeMeters>
            <DistanceMeters>4637.3820584322</DistanceMeters>
          </Trackpoint>
          <Trackpoint>
            <Time>2022-06-01T18:02:16.000Z</Time>
            <Position>
              <LatitudeDegrees>39.4027684070169925689697265625</LatitudeDegrees>
              <LongitudeDegrees>-0.79832707531750202178955078125</LongitudeDegrees>
            </Position>
            <AltitudeMeters>436.20001220703125</AltitudeMeters>
            <DistanceMeters>4646.5834711899</DistanceMeters>
          </Trackpoint>
          <Trackpoint>
            <Time>2022-06-01T18:02:17.000Z</Time>
            <Position>
              <LatitudeDegrees>39.4027419202029705047607421875</LatitudeDegrees>
              <LongitudeDegrees>-0.79836881719529628753662109375</LongitudeDegrees>
            </Position>
            <AltitudeMeters>435.600006103515625</AltitudeMeters>
            <DistanceMeters>4651.2291016855</DistanceMeters>
          </Trackpoint>
          <Trackpoint>
            <Time>2022-06-01T18:02:20.000Z</Time>
            <Position>
              <LatitudeDegrees>39.40266438759863376617431640625</LatitudeDegrees>
              <LongitudeDegrees>-0.79847677610814571380615234375</LongitudeDegrees>
            </Position>
            <AltitudeMeters>434.20001220703125</AltitudeMeters>
            <DistanceMeters>4663.9043973464</DistanceMeters>
          </Trackpoint>
          <Trackpoint>
            <Time>2022-06-01T18:02:21.000Z</Time>
            <Position>
              <LatitudeDegrees>39.40264292992651462554931640625</LatitudeDegrees>
              <LongitudeDegrees>-0.79851214773952960968017578125</LongitudeDegrees>
            </Position>
            <AltitudeMeters>434</AltitudeMeters>
            <DistanceMeters>4667.7725799516</DistanceMeters>
          </Trackpoint>
          <Trackpoint>
            <Time>2022-06-01T18:02:26.000Z</Time>
            <Position>
              <LatitudeDegrees>39.4025819934904575347900390625</LatitudeDegrees>
              <LongitudeDegrees>-0.79862706363201141357421875</LongitudeDegrees>
            </Position>
            <AltitudeMeters>433.79998779296875</AltitudeMeters>
            <DistanceMeters>4679.7595135201</DistanceMeters>
          </Trackpoint>
          <Trackpoint>
            <Time>2022-06-01T18:03:03.000Z</Time>
            <Position>
              <LatitudeDegrees>39.40253262408077716827392578125</LatitudeDegrees>
              <LongitudeDegrees>-0.7991764135658740997314453125</LongitudeDegrees>
            </Position>
            <AltitudeMeters>431.399993896484375</AltitudeMeters>
            <DistanceMeters>4727.3241574511</DistanceMeters>
          </Trackpoint>
          <Trackpoint>
            <Time>2022-06-01T18:03:05.000Z</Time>
            <Position>
              <LatitudeDegrees>39.40252407453954219818115234375</LatitudeDegrees>
              <LongitudeDegrees>-0.79926048405468463897705078125</LongitudeDegrees>
            </Position>
            <AltitudeMeters>431.600006103515625</AltitudeMeters>
            <DistanceMeters>4734.6164904234</DistanceMeters>
          </Trackpoint>
          <Trackpoint>
            <Time>2022-06-01T18:03:10.000Z</Time>
            <Position>
              <LatitudeDegrees>39.40249155275523662567138671875</LatitudeDegrees>
              <LongitudeDegrees>-0.79946466721594333648681640625</LongitudeDegrees>
            </Position>
            <AltitudeMeters>431.79998779296875</AltitudeMeters>
            <DistanceMeters>4752.5460950315</DistanceMeters>
          </Trackpoint>
          <Trackpoint>
            <Time>2022-06-01T18:03:14.000Z</Time>
            <Position>
              <LatitudeDegrees>39.40244947560131549835205078125</LatitudeDegrees>
              <LongitudeDegrees>-0.79952686093747615814208984375</LongitudeDegrees>
            </Position>
            <AltitudeMeters>431.79998779296875</AltitudeMeters>
            <DistanceMeters>4759.6553381598</DistanceMeters>
          </Trackpoint>
          <Trackpoint>
            <Time>2022-06-01T18:03:18.000Z</Time>
            <Position>
              <LatitudeDegrees>39.40239583142101764678955078125</LatitudeDegrees>
              <LongitudeDegrees>-0.79964035190641880035400390625</LongitudeDegrees>
            </Position>
            <AltitudeMeters>429.79998779296875</AltitudeMeters>
            <DistanceMeters>4771.0972806647</DistanceMeters>
          </Trackpoint>
          <Trackpoint>
            <Time>2022-06-01T18:03:20.000Z</Time>
            <Position>
              <LatitudeDegrees>39.4023892097175121307373046875</LatitudeDegrees>
              <LongitudeDegrees>-0.79971528612077236175537109375</LongitudeDegrees>
            </Position>
            <AltitudeMeters>428.399993896484375</AltitudeMeters>
            <DistanceMeters>4777.5842026026</DistanceMeters>
          </Trackpoint>
          <Trackpoint>
            <Time>2022-06-01T18:03:22.000Z</Time>
            <Position>
              <LatitudeDegrees>39.40237931907176971435546875</LatitudeDegrees>
              <LongitudeDegrees>-0.79980983398854732513427734375</LongitudeDegrees>
            </Position>
            <AltitudeMeters>427.20001220703125</AltitudeMeters>
            <DistanceMeters>4785.7895819336</DistanceMeters>
          </Trackpoint>
          <Trackpoint>
            <Time>2022-06-01T18:03:24.000Z</Time>
            <Position>
              <LatitudeDegrees>39.40237269736826419830322265625</LatitudeDegrees>
              <LongitudeDegrees>-0.79990119673311710357666015625</LongitudeDegrees>
            </Position>
            <AltitudeMeters>426</AltitudeMeters>
            <DistanceMeters>4793.6819495955</DistanceMeters>
          </Trackpoint>
          <Trackpoint>
            <Time>2022-06-01T18:03:25.000Z</Time>
            <Position>
              <LatitudeDegrees>39.4023721106350421905517578125</LatitudeDegrees>
              <LongitudeDegrees>-0.7999498955905437469482421875</LongitudeDegrees>
            </Position>
            <AltitudeMeters>425.600006103515625</AltitudeMeters>
            <DistanceMeters>4797.871754914</DistanceMeters>
          </Trackpoint>
          <Trackpoint>
            <Time>2022-06-01T18:03:27.000Z</Time>
            <Position>
              <LatitudeDegrees>39.40236951224505901336669921875</LatitudeDegrees>
              <LongitudeDegrees>-0.8000407554209232330322265625</LongitudeDegrees>
            </Position>
            <AltitudeMeters>425.20001220703125</AltitudeMeters>
            <DistanceMeters>4805.6917087296</DistanceMeters>
          </Trackpoint>
          <Trackpoint>
            <Time>2022-06-01T18:03:28.000Z</Time>
            <Position>
              <LatitudeDegrees>39.40236322581768035888671875</LatitudeDegrees>
              <LongitudeDegrees>-0.80008392222225666046142578125</LongitudeDegrees>
            </Position>
            <AltitudeMeters>425</AltitudeMeters>
            <DistanceMeters>4809.4689459186</DistanceMeters>
          </Trackpoint>
          <Trackpoint>
            <Time>2022-06-01T18:03:33.000Z</Time>
            <Position>
              <LatitudeDegrees>39.402285777032375335693359375</LatitudeDegrees>
              <LongitudeDegrees>-0.80025709234178066253662109375</LongitudeDegrees>
            </Position>
            <AltitudeMeters>424.600006103515625</AltitudeMeters>
            <DistanceMeters>4826.6771793208</DistanceMeters>
          </Trackpoint>
          <Trackpoint>
            <Time>2022-06-01T18:03:36.000Z</Time>
            <Position>
              <LatitudeDegrees>39.4022255949676036834716796875</LatitudeDegrees>
              <LongitudeDegrees>-0.8003019355237483978271484375</LongitudeDegrees>
            </Position>
            <AltitudeMeters>424.79998779296875</AltitudeMeters>
            <DistanceMeters>4834.405953847</DistanceMeters>
          </Trackpoint>
          <Trackpoint>
            <Time>2022-06-01T18:03:38.000Z</Time>
            <Position>
              <LatitudeDegrees>39.4022190570831298828125</LatitudeDegrees>
              <LongitudeDegrees>-0.8002969063818454742431640625</LongitudeDegrees>
            </Position>
            <AltitudeMeters>424.79998779296875</AltitudeMeters>
            <DistanceMeters>4835.2558986191</DistanceMeters>
          </Trackpoint>
          <Trackpoint>
            <Time>2022-06-01T18:03:39.000Z</Time>
            <Position>
              <LatitudeDegrees>39.4021927379071712493896484375</LatitudeDegrees>
              <LongitudeDegrees>-0.8002975769340991973876953125</LongitudeDegrees>
            </Position>
            <AltitudeMeters>424.600006103515625</AltitudeMeters>
            <DistanceMeters>4838.1863597941</DistanceMeters>
          </Trackpoint>
          <Trackpoint>
            <Time>2022-06-01T18:05:28.000Z</Time>
            <Position>
              <LatitudeDegrees>39.40183105878531932830810546875</LatitudeDegrees>
              <LongitudeDegrees>-0.80043629743158817291259765625</LongitudeDegrees>
            </Position>
            <AltitudeMeters>439</AltitudeMeters>
            <DistanceMeters>4880.172470155</DistanceMeters>
          </Trackpoint>
          <Trackpoint>
            <Time>2022-06-01T18:05:29.000Z</Time>
            <Position>
              <LatitudeDegrees>39.401819072663784027099609375</LatitudeDegrees>
              <LongitudeDegrees>-0.80042146146297454833984375</LongitudeDegrees>
            </Position>
            <AltitudeMeters>439</AltitudeMeters>
            <DistanceMeters>4882.0151065117</DistanceMeters>
          </Trackpoint>
          <Trackpoint>
            <Time>2022-06-01T18:05:31.000Z</Time>
            <Position>
              <LatitudeDegrees>39.40176467411220073699951171875</LatitudeDegrees>
              <LongitudeDegrees>-0.80043353140354156494140625</LongitudeDegrees>
            </Position>
            <AltitudeMeters>439</AltitudeMeters>
            <DistanceMeters>4888.1573910527</DistanceMeters>
          </Trackpoint>
          <Trackpoint>
            <Time>2022-06-01T18:05:32.000Z</Time>
            <Position>
              <LatitudeDegrees>39.401743970811367034912109375</LatitudeDegrees>
              <LongitudeDegrees>-0.8004675619304180145263671875</LongitudeDegrees>
            </Position>
            <AltitudeMeters>439</AltitudeMeters>
            <DistanceMeters>4891.881662447</DistanceMeters>
          </Trackpoint>
          <Trackpoint>
            <Time>2022-06-01T18:05:34.000Z</Time>
            <Position>
              <LatitudeDegrees>39.4017107784748077392578125</LatitudeDegrees>
              <LongitudeDegrees>-0.80051022581756114959716796875</LongitudeDegrees>
            </Position>
            <AltitudeMeters>439</AltitudeMeters>
            <DistanceMeters>4897.089091713</DistanceMeters>
          </Trackpoint>
          <Trackpoint>
            <Time>2022-06-01T18:05:37.000Z</Time>
            <Position>
              <LatitudeDegrees>39.4016660191118717193603515625</LatitudeDegrees>
              <LongitudeDegrees>-0.8005600981414318084716796875</LongitudeDegrees>
            </Position>
            <AltitudeMeters>439</AltitudeMeters>
            <DistanceMeters>4903.6624406148</DistanceMeters>
          </Trackpoint>
          <Trackpoint>
            <Time>2022-06-01T18:05:40.000Z</Time>
            <Position>
              <LatitudeDegrees>39.4016505964100360870361328125</LatitudeDegrees>
              <LongitudeDegrees>-0.8006124012172222137451171875</LongitudeDegrees>
            </Position>
            <AltitudeMeters>438.600006103515625</AltitudeMeters>
            <DistanceMeters>4908.4760854038</DistanceMeters>
          </Trackpoint>
          <Trackpoint>
            <Time>2022-06-01T18:05:41.000Z</Time>
            <Position>
              <LatitudeDegrees>39.4016499258577823638916015625</LatitudeDegrees>
              <LongitudeDegrees>-0.8006221242249011993408203125</LongitudeDegrees>
            </Position>
            <AltitudeMeters>438.399993896484375</AltitudeMeters>
            <DistanceMeters>4909.3153386211</DistanceMeters>
          </Trackpoint>
          <Trackpoint>
            <Time>2022-06-01T18:05:43.000Z</Time>
            <Position>
              <LatitudeDegrees>39.4016452319920063018798828125</LatitudeDegrees>
              <LongitudeDegrees>-0.80064115114510059356689453125</LongitudeDegrees>
            </Position>
            <AltitudeMeters>438.399993896484375</AltitudeMeters>
            <DistanceMeters>4911.0337201262</DistanceMeters>
          </Trackpoint>
          <Trackpoint>
            <Time>2022-06-01T18:05:44.000Z</Time>
            <Position>
              <LatitudeDegrees>39.401641376316547393798828125</LatitudeDegrees>
              <LongitudeDegrees>-0.80065607093274593353271484375</LongitudeDegrees>
            </Position>
            <AltitudeMeters>438.399993896484375</AltitudeMeters>
            <DistanceMeters>4912.3843034971</DistanceMeters>
          </Trackpoint>
          <Trackpoint>
            <Time>2022-06-01T18:05:46.000Z</Time>
            <Position>
              <LatitudeDegrees>39.40163123421370983123779296875</LatitudeDegrees>
              <LongitudeDegrees>-0.8006890118122100830078125</LongitudeDegrees>
            </Position>
            <AltitudeMeters>439.399993896484375</AltitudeMeters>
            <DistanceMeters>4915.4340540995</DistanceMeters>
          </Trackpoint>
          <Trackpoint>
            <Time>2022-06-01T18:05:47.000Z</Time>
            <Position>
              <LatitudeDegrees>39.40162427723407745361328125</LatitudeDegrees>
              <LongitudeDegrees>-0.8006952144205570220947265625</LongitudeDegrees>
            </Position>
            <AltitudeMeters>439.79998779296875</AltitudeMeters>
            <DistanceMeters>4916.3747705773</DistanceMeters>
          </Trackpoint>
          <Trackpoint>
            <Time>2022-06-01T18:05:48.000Z</Time>
            <Position>
              <LatitudeDegrees>39.40161329694092273712158203125</LatitudeDegrees>
              <LongitudeDegrees>-0.80069865100085735321044921875</LongitudeDegrees>
            </Position>
            <AltitudeMeters>440.20001220703125</AltitudeMeters>
            <DistanceMeters>4917.6354424038</DistanceMeters>
          </Trackpoint>
          <Trackpoint>
            <Time>2022-06-01T18:05:50.000Z</Time>
            <Position>
              <LatitudeDegrees>39.4015832059085369110107421875</LatitudeDegrees>
              <LongitudeDegrees>-0.80068741925060749053955078125</LongitudeDegrees>
            </Position>
            <AltitudeMeters>440.600006103515625</AltitudeMeters>
            <DistanceMeters>4921.1191792969</DistanceMeters>
          </Trackpoint>
          <Trackpoint>
            <Time>2022-06-01T18:05:52.000Z</Time>
            <Position>
              <LatitudeDegrees>39.40154640935361385345458984375</LatitudeDegrees>
              <LongitudeDegrees>-0.80067970789968967437744140625</LongitudeDegrees>
            </Position>
            <AltitudeMeters>441</AltitudeMeters>
            <DistanceMeters>4925.2678327776</DistanceMeters>
          </Trackpoint>
          <Trackpoint>
            <Time>2022-06-01T18:05:53.000Z</Time>
            <Position>
              <LatitudeDegrees>39.401530735194683074951171875</LatitudeDegrees>
              <LongitudeDegrees>-0.80067618750035762786865234375</LongitudeDegrees>
            </Position>
            <AltitudeMeters>441.20001220703125</AltitudeMeters>
            <DistanceMeters>4927.0379843321</DistanceMeters>
          </Trackpoint>
          <Trackpoint>
            <Time>2022-06-01T18:05:54.000Z</Time>
            <Position>
              <LatitudeDegrees>39.40151439048349857330322265625</LatitudeDegrees>
              <LongitudeDegrees>-0.8006767742335796356201171875</LongitudeDegrees>
            </Position>
            <AltitudeMeters>441.600006103515625</AltitudeMeters>
            <DistanceMeters>4928.8559524227</DistanceMeters>
          </Trackpoint>
          <Trackpoint>
            <Time>2022-06-01T18:05:57.000Z</Time>
            <Position>
              <LatitudeDegrees>39.40147566609084606170654296875</LatitudeDegrees>
              <LongitudeDegrees>-0.8006539754569530487060546875</LongitudeDegrees>
            </Position>
            <AltitudeMeters>441.79998779296875</AltitudeMeters>
            <DistanceMeters>4933.5920594619</DistanceMeters>
          </Trackpoint>
          <Trackpoint>
            <Time>2022-06-01T18:05:59.000Z</Time>
            <Position>
              <LatitudeDegrees>39.4014534540474414825439453125</LatitudeDegrees>
              <LongitudeDegrees>-0.80059924162924289703369140625</LongitudeDegrees>
            </Position>
            <AltitudeMeters>441.79998779296875</AltitudeMeters>
            <DistanceMeters>4938.9093115103</DistanceMeters>
          </Trackpoint>
          <Trackpoint>
            <Time>2022-06-01T18:06:01.000Z</Time>
            <Position>
              <LatitudeDegrees>39.40143694169819355010986328125</LatitudeDegrees>
              <LongitudeDegrees>-0.80055649392306804656982421875</LongitudeDegrees>
            </Position>
            <AltitudeMeters>442.600006103515625</AltitudeMeters>
            <DistanceMeters>4943.0185989121</DistanceMeters>
          </Trackpoint>
          <Trackpoint>
            <Time>2022-06-01T18:06:05.000Z</Time>
            <Position>
              <LatitudeDegrees>39.40143526531755924224853515625</LatitudeDegrees>
              <LongitudeDegrees>-0.8005275763571262359619140625</LongitudeDegrees>
            </Position>
            <AltitudeMeters>443.79998779296875</AltitudeMeters>
            <DistanceMeters>4945.5129370347</DistanceMeters>
          </Trackpoint>
          <Trackpoint>
            <Time>2022-06-01T18:06:46.000Z</Time>
            <Position>
              <LatitudeDegrees>39.40127450041472911834716796875</LatitudeDegrees>
              <LongitudeDegrees>-0.80019221641123294830322265625</LongitudeDegrees>
            </Position>
            <AltitudeMeters>447.399993896484375</AltitudeMeters>
            <DistanceMeters>4979.4551705038</DistanceMeters>
          </Trackpoint>
          <Trackpoint>
            <Time>2022-06-01T18:06:47.000Z</Time>
            <Position>
              <LatitudeDegrees>39.40124030224978923797607421875</LatitudeDegrees>
              <LongitudeDegrees>-0.80018081702291965484619140625</LongitudeDegrees>
            </Position>
            <AltitudeMeters>447.399993896484375</AltitudeMeters>
            <DistanceMeters>4983.3847290947</DistanceMeters>
          </Trackpoint>
          <Trackpoint>
            <Time>2022-06-01T18:06:48.000Z</Time>
            <Position>
              <LatitudeDegrees>39.401207529008388519287109375</LatitudeDegrees>
              <LongitudeDegrees>-0.8001547493040561676025390625</LongitudeDegrees>
            </Position>
            <AltitudeMeters>447.399993896484375</AltitudeMeters>
            <DistanceMeters>4987.6662072485</DistanceMeters>
          </Trackpoint>
          <Trackpoint>
            <Time>2022-06-01T18:06:53.000Z</Time>
            <Position>
              <LatitudeDegrees>39.40108959563076496124267578125</LatitudeDegrees>
              <LongitudeDegrees>-0.80004218034446239471435546875</LongitudeDegrees>
            </Position>
            <AltitudeMeters>447.399993896484375</AltitudeMeters>
            <DistanceMeters>5003.9767891546</DistanceMeters>
          </Trackpoint>
          <Trackpoint>
            <Time>2022-06-01T18:06:54.000Z</Time>
            <Position>
              <LatitudeDegrees>39.40107953734695911407470703125</LatitudeDegrees>
              <LongitudeDegrees>-0.80000127665698528289794921875</LongitudeDegrees>
            </Position>
            <AltitudeMeters>447.399993896484375</AltitudeMeters>
            <DistanceMeters>5007.6669592425</DistanceMeters>
          </Trackpoint>
          <Trackpoint>
            <Time>2022-06-01T18:06:55.000Z</Time>
            <Position>
              <LatitudeDegrees>39.40106377936899662017822265625</LatitudeDegrees>
              <LongitudeDegrees>-0.7999562658369541168212890625</LongitudeDegrees>
            </Position>
            <AltitudeMeters>447.399993896484375</AltitudeMeters>
            <DistanceMeters>5011.9166831026</DistanceMeters>
          </Trackpoint>
          <Trackpoint>
            <Time>2022-06-01T18:06:56.000Z</Time>
            <Position>
              <LatitudeDegrees>39.40104165114462375640869140625</LatitudeDegrees>
              <LongitudeDegrees>-0.79990790225565433502197265625</LongitudeDegrees>
            </Position>
            <AltitudeMeters>447.399993896484375</AltitudeMeters>
            <DistanceMeters>5016.7509191164</DistanceMeters>
          </Trackpoint>
          <Trackpoint>
            <Time>2022-06-01T18:07:01.000Z</Time>
            <Position>
              <LatitudeDegrees>39.40093469806015491485595703125</LatitudeDegrees>
              <LongitudeDegrees>-0.7997249253094196319580078125</LongitudeDegrees>
            </Position>
            <AltitudeMeters>447.600006103515625</AltitudeMeters>
            <DistanceMeters>5036.4830967994</DistanceMeters>
          </Trackpoint>
          <Trackpoint>
            <Time>2022-06-01T18:07:04.000Z</Time>
            <Position>
              <LatitudeDegrees>39.40087703056633472442626953125</LatitudeDegrees>
              <LongitudeDegrees>-0.7996287010610103607177734375</LongitudeDegrees>
            </Position>
            <AltitudeMeters>448</AltitudeMeters>
            <DistanceMeters>5046.955885754</DistanceMeters>
          </Trackpoint>
          <Trackpoint>
            <Time>2022-06-01T18:07:06.000Z</Time>
            <Position>
              <LatitudeDegrees>39.400841407477855682373046875</LatitudeDegrees>
              <LongitudeDegrees>-0.7995901443064212799072265625</LongitudeDegrees>
            </Position>
            <AltitudeMeters>448</AltitudeMeters>
            <DistanceMeters>5052.1241510453</DistanceMeters>
          </Trackpoint>
          <Trackpoint>
            <Time>2022-06-01T18:07:09.000Z</Time>
            <Position>
              <LatitudeDegrees>39.4008201174437999725341796875</LatitudeDegrees>
              <LongitudeDegrees>-0.79953373409807682037353515625</LongitudeDegrees>
            </Position>
            <AltitudeMeters>447.600006103515625</AltitudeMeters>
            <DistanceMeters>5057.5223041262</DistanceMeters>
          </Trackpoint>
          <Trackpoint>
            <Time>2022-06-01T18:07:10.000Z</Time>
            <Position>
              <LatitudeDegrees>39.40081802196800708770751953125</LatitudeDegrees>
              <LongitudeDegrees>-0.799511857330799102783203125</LongitudeDegrees>
            </Position>
            <AltitudeMeters>447.399993896484375</AltitudeMeters>
            <DistanceMeters>5059.4180811238</DistanceMeters>
          </Trackpoint>
          <Trackpoint>
            <Time>2022-06-01T18:07:13.000Z</Time>
            <Position>
              <LatitudeDegrees>39.400843419134616851806640625</LatitudeDegrees>
              <LongitudeDegrees>-0.79951428808271884918212890625</LongitudeDegrees>
            </Position>
            <AltitudeMeters>446.600006103515625</AltitudeMeters>
            <DistanceMeters>5062.2530005292</DistanceMeters>
          </Trackpoint>
          <Trackpoint>
            <Time>2022-06-01T18:07:14.000Z</Time>
            <Position>
              <LatitudeDegrees>39.400855489075183868408203125</LatitudeDegrees>
              <LongitudeDegrees>-0.79952250234782695770263671875</LongitudeDegrees>
            </Position>
            <AltitudeMeters>446.20001220703125</AltitudeMeters>
            <DistanceMeters>5063.7734279591</DistanceMeters>
          </Trackpoint>
          <Trackpoint>
            <Time>2022-06-01T18:07:17.000Z</Time>
            <Position>
              <LatitudeDegrees>39.40086965449154376983642578125</LatitudeDegrees>
              <LongitudeDegrees>-0.799540691077709197998046875</LongitudeDegrees>
            </Position>
            <AltitudeMeters>445.600006103515625</AltitudeMeters>
            <DistanceMeters>5065.9959157127</DistanceMeters>
          </Trackpoint>
          <Trackpoint>
            <Time>2022-06-01T18:07:18.000Z</Time>
            <Position>
              <LatitudeDegrees>39.40087418071925640106201171875</LatitudeDegrees>
              <LongitudeDegrees>-0.799541361629962921142578125</LongitudeDegrees>
            </Position>
            <AltitudeMeters>444.79998779296875</AltitudeMeters>
            <DistanceMeters>5066.5076502307</DistanceMeters>
          </Trackpoint>
          <Trackpoint>
            <Time>2022-06-01T18:07:20.000Z</Time>
            <Position>
              <LatitudeDegrees>39.40088055096566677093505859375</LatitudeDegrees>
              <LongitudeDegrees>-0.79953708685934543609619140625</LongitudeDegrees>
            </Position>
            <AltitudeMeters>443.600006103515625</AltitudeMeters>
            <DistanceMeters>5067.3139786402</DistanceMeters>
          </Trackpoint>
          <Trackpoint>
            <Time>2022-06-01T18:07:22.000Z</Time>
            <Position>
              <LatitudeDegrees>39.400880970060825347900390625</LatitudeDegrees>
              <LongitudeDegrees>-0.79951412044465541839599609375</LongitudeDegrees>
            </Position>
            <AltitudeMeters>441.79998779296875</AltitudeMeters>
            <DistanceMeters>5069.2890718085</DistanceMeters>
          </Trackpoint>
          <Trackpoint>
            <Time>2022-06-01T18:07:23.000Z</Time>
            <Position>
              <LatitudeDegrees>39.4008787907660007476806640625</LatitudeDegrees>
              <LongitudeDegrees>-0.7994999550282955169677734375</LongitudeDegrees>
            </Position>
            <AltitudeMeters>441.399993896484375</AltitudeMeters>
            <DistanceMeters>5070.5280685783</DistanceMeters>
          </Trackpoint>
          <Trackpoint>
            <Time>2022-06-01T18:07:24.000Z</Time>
            <Position>
              <LatitudeDegrees>39.4008774496614933013916015625</LatitudeDegrees>
              <LongitudeDegrees>-0.799487046897411346435546875</LongitudeDegrees>
            </Position>
            <AltitudeMeters>441.20001220703125</AltitudeMeters>
            <DistanceMeters>5071.6524398258</DistanceMeters>
          </Trackpoint>
          <Trackpoint>
            <Time>2022-06-01T18:07:26.000Z</Time>
            <Position>
              <LatitudeDegrees>39.4008690677583217620849609375</LatitudeDegrees>
              <LongitudeDegrees>-0.79946332611143589019775390625</LongitudeDegrees>
            </Position>
            <AltitudeMeters>441</AltitudeMeters>
            <DistanceMeters>5073.8951508146</DistanceMeters>
          </Trackpoint>
          <Trackpoint>
            <Time>2022-06-01T18:07:27.000Z</Time>
            <Position>
              <LatitudeDegrees>39.400866888463497161865234375</LatitudeDegrees>
              <LongitudeDegrees>-0.799448154866695404052734375</LongitudeDegrees>
            </Position>
            <AltitudeMeters>440</AltitudeMeters>
            <DistanceMeters>5075.2221266646</DistanceMeters>
          </Trackpoint>
          <Trackpoint>
            <Time>2022-06-01T18:07:29.000Z</Time>
            <Position>
              <LatitudeDegrees>39.400866888463497161865234375</LatitudeDegrees>
              <LongitudeDegrees>-0.7994164712727069854736328125</LongitudeDegrees>
            </Position>
            <AltitudeMeters>438.399993896484375</AltitudeMeters>
            <DistanceMeters>5077.9465941056</DistanceMeters>
          </Trackpoint>
          <Trackpoint>
            <Time>2022-06-01T18:07:30.000Z</Time>
            <Position>
              <LatitudeDegrees>39.4008704088628292083740234375</LatitudeDegrees>
              <LongitudeDegrees>-0.79940297640860080718994140625</LongitudeDegrees>
            </Position>
            <AltitudeMeters>437.79998779296875</AltitudeMeters>
            <DistanceMeters>5079.1709276752</DistanceMeters>
          </Trackpoint>
          <Trackpoint>
            <Time>2022-06-01T18:07:31.000Z</Time>
            <Position>
              <LatitudeDegrees>39.4008801318705081939697265625</LatitudeDegrees>
              <LongitudeDegrees>-0.79938738606870174407958984375</LongitudeDegrees>
            </Position>
            <AltitudeMeters>436.20001220703125</AltitudeMeters>
            <DistanceMeters>5080.8919346693</DistanceMeters>
          </Trackpoint>
          <Trackpoint>
            <Time>2022-06-01T18:07:32.000Z</Time>
            <Position>
              <LatitudeDegrees>39.400895051658153533935546875</LatitudeDegrees>
              <LongitudeDegrees>-0.7993648387491703033447265625</LongitudeDegrees>
            </Position>
            <AltitudeMeters>435.399993896484375</AltitudeMeters>
            <DistanceMeters>5083.4435390892</DistanceMeters>
          </Trackpoint>
          <Trackpoint>
            <Time>2022-06-01T18:07:33.000Z</Time>
            <Position>
              <LatitudeDegrees>39.4009066186845302581787109375</LatitudeDegrees>
              <LongitudeDegrees>-0.79933474771678447723388671875</LongitudeDegrees>
            </Position>
            <AltitudeMeters>434.79998779296875</AltitudeMeters>
            <DistanceMeters>5086.333663777</DistanceMeters>
          </Trackpoint>
          <Trackpoint>
            <Time>2022-06-01T18:07:34.000Z</Time>
            <Position>
              <LatitudeDegrees>39.4009190239012241363525390625</LatitudeDegrees>
              <LongitudeDegrees>-0.7993008010089397430419921875</LongitudeDegrees>
            </Position>
            <AltitudeMeters>434.20001220703125</AltitudeMeters>
            <DistanceMeters>5089.5631743115</DistanceMeters>
          </Trackpoint>
          <Trackpoint>
            <Time>2022-06-01T18:07:36.000Z</Time>
            <Position>
              <LatitudeDegrees>39.40093805082142353057861328125</LatitudeDegrees>
              <LongitudeDegrees>-0.799228884279727935791015625</LongitudeDegrees>
            </Position>
            <AltitudeMeters>433.600006103515625</AltitudeMeters>
            <DistanceMeters>5096.1013989854</DistanceMeters>
          </Trackpoint>
          <Trackpoint>
            <Time>2022-06-01T18:07:37.000Z</Time>
            <Position>
              <LatitudeDegrees>39.400948695838451385498046875</LatitudeDegrees>
              <LongitudeDegrees>-0.7991982065141201019287109375</LongitudeDegrees>
            </Position>
            <AltitudeMeters>433.20001220703125</AltitudeMeters>
            <DistanceMeters>5098.9930854807</DistanceMeters>
          </Trackpoint>
          <Trackpoint>
            <Time>2022-06-01T18:07:38.000Z</Time>
            <Position>
              <LatitudeDegrees>39.4009565748274326324462890625</LatitudeDegrees>
              <LongitudeDegrees>-0.79917498864233493804931640625</LongitudeDegrees>
            </Position>
            <AltitudeMeters>432.79998779296875</AltitudeMeters>
            <DistanceMeters>5101.1724937053</DistanceMeters>
          </Trackpoint>
          <Trackpoint>
            <Time>2022-06-01T18:07:39.000Z</Time>
            <Position>
              <LatitudeDegrees>39.400970153510570526123046875</LatitudeDegrees>
              <LongitudeDegrees>-0.799145065248012542724609375</LongitudeDegrees>
            </Position>
            <AltitudeMeters>432.600006103515625</AltitudeMeters>
            <DistanceMeters>5104.1563930625</DistanceMeters>
          </Trackpoint>
          <Trackpoint>
            <Time>2022-06-01T18:07:40.000Z</Time>
            <Position>
              <LatitudeDegrees>39.40097778104245662689208984375</LatitudeDegrees>
              <LongitudeDegrees>-0.79909955151379108428955078125</LongitudeDegrees>
            </Position>
            <AltitudeMeters>432.600006103515625</AltitudeMeters>
            <DistanceMeters>5108.1633215516</DistanceMeters>
          </Trackpoint>
          <Trackpoint>
            <Time>2022-06-01T18:07:42.000Z</Time>
            <Position>
              <LatitudeDegrees>39.40098549239337444305419921875</LatitudeDegrees>
              <LongitudeDegrees>-0.7990144751965999603271484375</LongitudeDegrees>
            </Position>
            <AltitudeMeters>431.79998779296875</AltitudeMeters>
            <DistanceMeters>5115.5308034488</DistanceMeters>
          </Trackpoint>
          <Trackpoint>
            <Time>2022-06-01T18:07:43.000Z</Time>
            <Position>
              <LatitudeDegrees>39.40099261701107025146484375</LatitudeDegrees>
              <LongitudeDegrees>-0.79897147603332996368408203125</LongitudeDegrees>
            </Position>
            <AltitudeMeters>431.20001220703125</AltitudeMeters>
            <DistanceMeters>5119.3128189283</DistanceMeters>
          </Trackpoint>
          <Trackpoint>
            <Time>2022-06-01T18:07:46.000Z</Time>
            <Position>
              <LatitudeDegrees>39.40102203749120235443115234375</LatitudeDegrees>
              <LongitudeDegrees>-0.7988833822309970855712890625</LongitudeDegrees>
            </Position>
            <AltitudeMeters>430</AltitudeMeters>
            <DistanceMeters>5127.5664785223</DistanceMeters>
          </Trackpoint>
          <Trackpoint>
            <Time>2022-06-01T18:07:47.000Z</Time>
            <Position>
              <LatitudeDegrees>39.40104332752525806427001953125</LatitudeDegrees>
              <LongitudeDegrees>-0.79886184073984622955322265625</LongitudeDegrees>
            </Position>
            <AltitudeMeters>429.79998779296875</AltitudeMeters>
            <DistanceMeters>5130.5729892108</DistanceMeters>
          </Trackpoint>
          <Trackpoint>
            <Time>2022-06-01T18:07:51.000Z</Time>
            <Position>
              <LatitudeDegrees>39.401117675006389617919921875</LatitudeDegrees>
              <LongitudeDegrees>-0.798737704753875732421875</LongitudeDegrees>
            </Position>
            <AltitudeMeters>429.399993896484375</AltitudeMeters>
            <DistanceMeters>5144.0808285875</DistanceMeters>
          </Trackpoint>
          <Trackpoint>
            <Time>2022-06-01T18:07:53.000Z</Time>
            <Position>
              <LatitudeDegrees>39.40114357508718967437744140625</LatitudeDegrees>
              <LongitudeDegrees>-0.798651538789272308349609375</LongitudeDegrees>
            </Position>
            <AltitudeMeters>429</AltitudeMeters>
            <DistanceMeters>5152.0324696295</DistanceMeters>
          </Trackpoint>
          <Trackpoint>
            <Time>2022-06-01T18:07:55.000Z</Time>
            <Position>
              <LatitudeDegrees>39.40117274411022663116455078125</LatitudeDegrees>
              <LongitudeDegrees>-0.798633433878421783447265625</LongitudeDegrees>
            </Position>
            <AltitudeMeters>428.600006103515625</AltitudeMeters>
            <DistanceMeters>5155.6334680707</DistanceMeters>
          </Trackpoint>
          <Trackpoint>
            <Time>2022-06-01T18:07:56.000Z</Time>
            <Position>
              <LatitudeDegrees>39.4011850655078887939453125</LatitudeDegrees>
              <LongitudeDegrees>-0.798630751669406890869140625</LongitudeDegrees>
            </Position>
            <AltitudeMeters>428.600006103515625</AltitudeMeters>
            <DistanceMeters>5157.0235890579</DistanceMeters>
          </Trackpoint>
          <Trackpoint>
            <Time>2022-06-01T18:07:58.000Z</Time>
            <Position>
              <LatitudeDegrees>39.40120057202875614166259765625</LatitudeDegrees>
              <LongitudeDegrees>-0.798591189086437225341796875</LongitudeDegrees>
            </Position>
            <AltitudeMeters>428.20001220703125</AltitudeMeters>
            <DistanceMeters>5160.8388850133</DistanceMeters>
          </Trackpoint>
          <Trackpoint>
            <Time>2022-06-01T18:07:59.000Z</Time>
            <Position>
              <LatitudeDegrees>39.4012065231800079345703125</LatitudeDegrees>
              <LongitudeDegrees>-0.79854391515254974365234375</LongitudeDegrees>
            </Position>
            <AltitudeMeters>427.600006103515625</AltitudeMeters>
            <DistanceMeters>5164.9591451647</DistanceMeters>
          </Trackpoint>
          <Trackpoint>
            <Time>2022-06-01T18:08:01.000Z</Time>
            <Position>
              <LatitudeDegrees>39.4012375362217426300048828125</LatitudeDegrees>
              <LongitudeDegrees>-0.79842765815556049346923828125</LongitudeDegrees>
            </Position>
            <AltitudeMeters>427</AltitudeMeters>
            <DistanceMeters>5175.5366045543</DistanceMeters>
          </Trackpoint>
          <Trackpoint>
            <Time>2022-06-01T18:08:03.000Z</Time>
            <Position>
              <LatitudeDegrees>39.4012601673603057861328125</LatitudeDegrees>
              <LongitudeDegrees>-0.7983348704874515533447265625</LongitudeDegrees>
            </Position>
            <AltitudeMeters>426.399993896484375</AltitudeMeters>
            <DistanceMeters>5183.904892481</DistanceMeters>
          </Trackpoint>
          <Trackpoint>
            <Time>2022-06-01T18:08:04.000Z</Time>
            <Position>
              <LatitudeDegrees>39.4012717343866825103759765625</LatitudeDegrees>
              <LongitudeDegrees>-0.79829522408545017242431640625</LongitudeDegrees>
            </Position>
            <AltitudeMeters>426</AltitudeMeters>
            <DistanceMeters>5187.5482717328</DistanceMeters>
          </Trackpoint>
          <Trackpoint>
            <Time>2022-06-01T18:08:06.000Z</Time>
            <Position>
              <LatitudeDegrees>39.40129310823976993560791015625</LatitudeDegrees>
              <LongitudeDegrees>-0.7982188649475574493408203125</LongitudeDegrees>
            </Position>
            <AltitudeMeters>425.79998779296875</AltitudeMeters>
            <DistanceMeters>5194.5325736271</DistanceMeters>
          </Trackpoint>
          <Trackpoint>
            <Time>2022-06-01T18:08:11.000Z</Time>
            <Position>
              <LatitudeDegrees>39.40128573216497898101806640625</LatitudeDegrees>
              <LongitudeDegrees>-0.79798660241067409515380859375</LongitudeDegrees>
            </Position>
            <AltitudeMeters>426</AltitudeMeters>
            <DistanceMeters>5214.5252548808</DistanceMeters>
          </Trackpoint>
          <Trackpoint>
            <Time>2022-06-01T18:08:13.000Z</Time>
            <Position>
              <LatitudeDegrees>39.40127014182507991790771484375</LatitudeDegrees>
              <LongitudeDegrees>-0.79790445975959300994873046875</LongitudeDegrees>
            </Position>
            <AltitudeMeters>426.399993896484375</AltitudeMeters>
            <DistanceMeters>5221.7996103823</DistanceMeters>
          </Trackpoint>
          <Trackpoint>
            <Time>2022-06-01T18:08:17.000Z</Time>
            <Position>
              <LatitudeDegrees>39.40123192034661769866943359375</LatitudeDegrees>
              <LongitudeDegrees>-0.79772726632654666900634765625</LongitudeDegrees>
            </Position>
            <AltitudeMeters>426.600006103515625</AltitudeMeters>
            <DistanceMeters>5237.6217723476</DistanceMeters>
          </Trackpoint>
          <Trackpoint>
            <Time>2022-06-01T18:08:18.000Z</Time>
            <Position>
              <LatitudeDegrees>39.4012221135199069976806640625</LatitudeDegrees>
              <LongitudeDegrees>-0.79767932184040546417236328125</LongitudeDegrees>
            </Position>
            <AltitudeMeters>426.399993896484375</AltitudeMeters>
            <DistanceMeters>5241.8863443024</DistanceMeters>
          </Trackpoint>
          <Trackpoint>
            <Time>2022-06-01T18:08:22.000Z</Time>
            <Position>
              <LatitudeDegrees>39.40119788981974124908447265625</LatitudeDegrees>
              <LongitudeDegrees>-0.79749475233256816864013671875</LongitudeDegrees>
            </Position>
            <AltitudeMeters>424.79998779296875</AltitudeMeters>
            <DistanceMeters>5257.9876950131</DistanceMeters>
          </Trackpoint>
          <Trackpoint>
            <Time>2022-06-01T18:08:23.000Z</Time>
            <Position>
              <LatitudeDegrees>39.40119755454361438751220703125</LatitudeDegrees>
              <LongitudeDegrees>-0.797450244426727294921875</LongitudeDegrees>
            </Position>
            <AltitudeMeters>424.399993896484375</AltitudeMeters>
            <DistanceMeters>5261.8148067167</DistanceMeters>
          </Trackpoint>
          <Trackpoint>
            <Time>2022-06-01T18:08:27.000Z</Time>
            <Position>
              <LatitudeDegrees>39.40117257647216320037841796875</LatitudeDegrees>
              <LongitudeDegrees>-0.797236673533916473388671875</LongitudeDegrees>
            </Position>
            <AltitudeMeters>424</AltitudeMeters>
            <DistanceMeters>5280.3919825391</DistanceMeters>
          </Trackpoint>
          <Trackpoint>
            <Time>2022-06-01T18:08:29.000Z</Time>
            <Position>
              <LatitudeDegrees>39.40117341466248035430908203125</LatitudeDegrees>
              <LongitudeDegrees>-0.79713064245879650115966796875</LongitudeDegrees>
            </Position>
            <AltitudeMeters>423.20001220703125</AltitudeMeters>
            <DistanceMeters>5289.5115770503</DistanceMeters>
          </Trackpoint>
          <Trackpoint>
            <Time>2022-06-01T18:08:31.000Z</Time>
            <Position>
              <LatitudeDegrees>39.401183389127254486083984375</LatitudeDegrees>
              <LongitudeDegrees>-0.7970356754958629608154296875</LongitudeDegrees>
            </Position>
            <AltitudeMeters>421.79998779296875</AltitudeMeters>
            <DistanceMeters>5297.7542886893</DistanceMeters>
          </Trackpoint>
          <Trackpoint>
            <Time>2022-06-01T18:08:32.000Z</Time>
            <Position>
              <LatitudeDegrees>39.401189424097537994384765625</LatitudeDegrees>
              <LongitudeDegrees>-0.7969974540174007415771484375</LongitudeDegrees>
            </Position>
            <AltitudeMeters>421.600006103515625</AltitudeMeters>
            <DistanceMeters>5301.1086105655</DistanceMeters>
          </Trackpoint>
          <Trackpoint>
            <Time>2022-06-01T18:08:34.000Z</Time>
            <Position>
              <LatitudeDegrees>39.40120811574161052703857421875</LatitudeDegrees>
              <LongitudeDegrees>-0.79691941849887371063232421875</LongitudeDegrees>
            </Position>
            <AltitudeMeters>420.600006103515625</AltitudeMeters>
            <DistanceMeters>5308.134163771</DistanceMeters>
          </Trackpoint>
          <Trackpoint>
            <Time>2022-06-01T18:08:37.000Z</Time>
            <Position>
              <LatitudeDegrees>39.401220940053462982177734375</LatitudeDegrees>
              <LongitudeDegrees>-0.796786062419414520263671875</LongitudeDegrees>
            </Position>
            <AltitudeMeters>420.20001220703125</AltitudeMeters>
            <DistanceMeters>5319.6915376404</DistanceMeters>
          </Trackpoint>
          <Trackpoint>
            <Time>2022-06-01T18:08:42.000Z</Time>
            <Position>
              <LatitudeDegrees>39.40124331973493099212646484375</LatitudeDegrees>
              <LongitudeDegrees>-0.7965455017983913421630859375</LongitudeDegrees>
            </Position>
            <AltitudeMeters>420</AltitudeMeters>
            <DistanceMeters>5340.5303566135</DistanceMeters>
          </Trackpoint>
          <Trackpoint>
            <Time>2022-06-01T18:08:43.000Z</Time>
            <Position>
              <LatitudeDegrees>39.401246421039104461669921875</LatitudeDegrees>
              <LongitudeDegrees>-0.79650166444480419158935546875</LongitudeDegrees>
            </Position>
            <AltitudeMeters>419.600006103515625</AltitudeMeters>
            <DistanceMeters>5344.3171443541</DistanceMeters>
          </Trackpoint>
          <Trackpoint>
            <Time>2022-06-01T18:08:45.000Z</Time>
            <Position>
              <LatitudeDegrees>39.401255138218402862548828125</LatitudeDegrees>
              <LongitudeDegrees>-0.7964191026985645294189453125</LongitudeDegrees>
            </Position>
            <AltitudeMeters>418.600006103515625</AltitudeMeters>
            <DistanceMeters>5351.483948022</DistanceMeters>
          </Trackpoint>
          <Trackpoint>
            <Time>2022-06-01T18:08:47.000Z</Time>
            <Position>
              <LatitudeDegrees>39.40127047710120677947998046875</LatitudeDegrees>
              <LongitudeDegrees>-0.79632916487753391265869140625</LongitudeDegrees>
            </Position>
            <AltitudeMeters>417.79998779296875</AltitudeMeters>
            <DistanceMeters>5359.4048678633</DistanceMeters>
          </Trackpoint>
          <Trackpoint>
            <Time>2022-06-01T18:08:52.000Z</Time>
            <Position>
              <LatitudeDegrees>39.4012952037155628204345703125</LatitudeDegrees>
              <LongitudeDegrees>-0.7961183600127696990966796875</LongitudeDegrees>
            </Position>
            <AltitudeMeters>417.399993896484375</AltitudeMeters>
            <DistanceMeters>5377.7428079541</DistanceMeters>
          </Trackpoint>
          <Trackpoint>
            <Time>2022-06-01T18:08:54.000Z</Time>
            <Position>
              <LatitudeDegrees>39.40128606744110584259033203125</LatitudeDegrees>
              <LongitudeDegrees>-0.79602557234466075897216796875</LongitudeDegrees>
            </Position>
            <AltitudeMeters>416.79998779296875</AltitudeMeters>
            <DistanceMeters>5385.7870312104</DistanceMeters>
          </Trackpoint>
          <Trackpoint>
            <Time>2022-06-01T18:08:56.000Z</Time>
            <Position>
              <LatitudeDegrees>39.4012834690511226654052734375</LatitudeDegrees>
              <LongitudeDegrees>-0.79593689180910587310791015625</LongitudeDegrees>
            </Position>
            <AltitudeMeters>416.399993896484375</AltitudeMeters>
            <DistanceMeters>5393.4199895632</DistanceMeters>
          </Trackpoint>
          <Trackpoint>
            <Time>2022-06-01T18:08:58.000Z</Time>
            <Position>
              <LatitudeDegrees>39.40129034221172332763671875</LatitudeDegrees>
              <LongitudeDegrees>-0.79584837891161441802978515625</LongitudeDegrees>
            </Position>
            <AltitudeMeters>416.399993896484375</AltitudeMeters>
            <DistanceMeters>5401.0706728994</DistanceMeters>
          </Trackpoint>
          <Trackpoint>
            <Time>2022-06-01T18:09:01.000Z</Time>
            <Position>
              <LatitudeDegrees>39.40130735747516155242919921875</LatitudeDegrees>
              <LongitudeDegrees>-0.79571996815502643585205078125</LongitudeDegrees>
            </Position>
            <AltitudeMeters>416.20001220703125</AltitudeMeters>
            <DistanceMeters>5412.2757691898</DistanceMeters>
          </Trackpoint>
          <Trackpoint>
            <Time>2022-06-01T18:09:03.000Z</Time>
            <Position>
              <LatitudeDegrees>39.4013226963579654693603515625</LatitudeDegrees>
              <LongitudeDegrees>-0.7956375740468502044677734375</LongitudeDegrees>
            </Position>
            <AltitudeMeters>415</AltitudeMeters>
            <DistanceMeters>5419.5650057613</DistanceMeters>
          </Trackpoint>
          <Trackpoint>
            <Time>2022-06-01T18:09:04.000Z</Time>
            <Position>
              <LatitudeDegrees>39.40133099444210529327392578125</LatitudeDegrees>
              <LongitudeDegrees>-0.7955954968929290771484375</LongitudeDegrees>
            </Position>
            <AltitudeMeters>414.20001220703125</AltitudeMeters>
            <DistanceMeters>5423.3001721707</DistanceMeters>
          </Trackpoint>
          <Trackpoint>
            <Time>2022-06-01T18:09:05.000Z</Time>
            <Position>
              <LatitudeDegrees>39.4013371132314205169677734375</LatitudeDegrees>
              <LongitudeDegrees>-0.79555249772965908050537109375</LongitudeDegrees>
            </Position>
            <AltitudeMeters>413.79998779296875</AltitudeMeters>
            <DistanceMeters>5427.0606375291</DistanceMeters>
          </Trackpoint>
          <Trackpoint>
            <Time>2022-06-01T18:09:07.000Z</Time>
            <Position>
              <LatitudeDegrees>39.40134641714394092559814453125</LatitudeDegrees>
              <LongitudeDegrees>-0.79546096734702587127685546875</LongitudeDegrees>
            </Position>
            <AltitudeMeters>413.399993896484375</AltitudeMeters>
            <DistanceMeters>5435.0003455624</DistanceMeters>
          </Trackpoint>
          <Trackpoint>
            <Time>2022-06-01T18:09:12.000Z</Time>
            <Position>
              <LatitudeDegrees>39.40135748125612735748291015625</LatitudeDegrees>
              <LongitudeDegrees>-0.79524572007358074188232421875</LongitudeDegrees>
            </Position>
            <AltitudeMeters>413.20001220703125</AltitudeMeters>
            <DistanceMeters>5453.5536879579</DistanceMeters>
          </Trackpoint>
          <Trackpoint>
            <Time>2022-06-01T18:09:13.000Z</Time>
            <Position>
              <LatitudeDegrees>39.40136351622641086578369140625</LatitudeDegrees>
              <LongitudeDegrees>-0.79520582221448421478271484375</LongitudeDegrees>
            </Position>
            <AltitudeMeters>413.20001220703125</AltitudeMeters>
            <DistanceMeters>5457.0503611633</DistanceMeters>
          </Trackpoint>
          <Trackpoint>
            <Time>2022-06-01T18:09:15.000Z</Time>
            <Position>
              <LatitudeDegrees>39.40138556063175201416015625</LatitudeDegrees>
              <LongitudeDegrees>-0.7951725460588932037353515625</LongitudeDegrees>
            </Position>
            <AltitudeMeters>412.600006103515625</AltitudeMeters>
            <DistanceMeters>5460.8192217665</DistanceMeters>
          </Trackpoint>
          <Trackpoint>
            <Time>2022-06-01T18:09:17.000Z</Time>
            <Position>
              <LatitudeDegrees>39.40142436884343624114990234375</LatitudeDegrees>
              <LongitudeDegrees>-0.79514765180647373199462890625</LongitudeDegrees>
            </Position>
            <AltitudeMeters>412.20001220703125</AltitudeMeters>
            <DistanceMeters>5465.6403644491</DistanceMeters>
          </Trackpoint>
          <Trackpoint>
            <Time>2022-06-01T18:09:21.000Z</Time>
            <Position>
              <LatitudeDegrees>39.4015096127986907958984375</LatitudeDegrees>
              <LongitudeDegrees>-0.795037932693958282470703125</LongitudeDegrees>
            </Position>
            <AltitudeMeters>412.399993896484375</AltitudeMeters>
            <DistanceMeters>5479.0215970459</DistanceMeters>
          </Trackpoint>
          <Trackpoint>
            <Time>2022-06-01T18:09:23.000Z</Time>
            <Position>
              <LatitudeDegrees>39.40154037438333034515380859375</LatitudeDegrees>
              <LongitudeDegrees>-0.7949770800769329071044921875</LongitudeDegrees>
            </Position>
            <AltitudeMeters>411.399993896484375</AltitudeMeters>
            <DistanceMeters>5485.2760587457</DistanceMeters>
          </Trackpoint>
          <Trackpoint>
            <Time>2022-06-01T18:09:25.000Z</Time>
            <Position>
              <LatitudeDegrees>39.40157323144376277923583984375</LatitudeDegrees>
              <LongitudeDegrees>-0.79492821358144283294677734375</LongitudeDegrees>
            </Position>
            <AltitudeMeters>410.600006103515625</AltitudeMeters>
            <DistanceMeters>5490.8462780108</DistanceMeters>
          </Trackpoint>
          <Trackpoint>
            <Time>2022-06-01T18:09:26.000Z</Time>
            <Position>
              <LatitudeDegrees>39.4015972875058650970458984375</LatitudeDegrees>
              <LongitudeDegrees>-0.79491295851767063140869140625</LongitudeDegrees>
            </Position>
            <AltitudeMeters>410.600006103515625</AltitudeMeters>
            <DistanceMeters>5493.8241186829</DistanceMeters>
          </Trackpoint>
          <Trackpoint>
            <Time>2022-06-01T18:09:27.000Z</Time>
            <Position>
              <LatitudeDegrees>39.401623271405696868896484375</LatitudeDegrees>
              <LongitudeDegrees>-0.79490055330097675323486328125</LongitudeDegrees>
            </Position>
            <AltitudeMeters>410.20001220703125</AltitudeMeters>
            <DistanceMeters>5496.9062673521</DistanceMeters>
          </Trackpoint>
          <Trackpoint>
            <Time>2022-06-01T18:09:29.000Z</Time>
            <Position>
              <LatitudeDegrees>39.40167750231921672821044921875</LatitudeDegrees>
              <LongitudeDegrees>-0.79487054608762264251708984375</LongitudeDegrees>
            </Position>
            <AltitudeMeters>411.79998779296875</AltitudeMeters>
            <DistanceMeters>5503.4699930254</DistanceMeters>
          </Trackpoint>
          <Trackpoint>
            <Time>2022-06-01T18:09:34.000Z</Time>
            <Position>
              <LatitudeDegrees>39.40184178762137889862060546875</LatitudeDegrees>
              <LongitudeDegrees>-0.7947940193116664886474609375</LongitudeDegrees>
            </Position>
            <AltitudeMeters>411.79998779296875</AltitudeMeters>
            <DistanceMeters>5522.9038273663</DistanceMeters>
          </Trackpoint>
          <Trackpoint>
            <Time>2022-06-01T18:09:39.000Z</Time>
            <Position>
              <LatitudeDegrees>39.4020137004554271697998046875</LatitudeDegrees>
              <LongitudeDegrees>-0.79475051723420619964599609375</LongitudeDegrees>
            </Position>
            <AltitudeMeters>411</AltitudeMeters>
            <DistanceMeters>5542.400521135</DistanceMeters>
          </Trackpoint>
          <Trackpoint>
            <Time>2022-06-01T18:09:45.000Z</Time>
            <Position>
              <LatitudeDegrees>39.402216710150241851806640625</LatitudeDegrees>
              <LongitudeDegrees>-0.79472042620182037353515625</LongitudeDegrees>
            </Position>
            <AltitudeMeters>411.600006103515625</AltitudeMeters>
            <DistanceMeters>5565.1436917316</DistanceMeters>
          </Trackpoint>
          <Trackpoint>
            <Time>2022-06-01T18:09:50.000Z</Time>
            <Position>
              <LatitudeDegrees>39.4023228250443935394287109375</LatitudeDegrees>
              <LongitudeDegrees>-0.7948037423193454742431640625</LongitudeDegrees>
            </Position>
            <AltitudeMeters>412</AltitudeMeters>
            <DistanceMeters>5578.9582360804</DistanceMeters>
          </Trackpoint>
          <Trackpoint>
            <Time>2022-06-01T18:09:55.000Z</Time>
            <Position>
              <LatitudeDegrees>39.40243137069046497344970703125</LatitudeDegrees>
              <LongitudeDegrees>-0.7949598133563995361328125</LongitudeDegrees>
            </Position>
            <AltitudeMeters>412.20001220703125</AltitudeMeters>
            <DistanceMeters>5597.0173124923</DistanceMeters>
          </Trackpoint>
          <Trackpoint>
            <Time>2022-06-01T18:10:01.000Z</Time>
            <Position>
              <LatitudeDegrees>39.40257151611149311065673828125</LatitudeDegrees>
              <LongitudeDegrees>-0.795080848038196563720703125</LongitudeDegrees>
            </Position>
            <AltitudeMeters>411.79998779296875</AltitudeMeters>
            <DistanceMeters>5615.7701068717</DistanceMeters>
          </Trackpoint>
          <Trackpoint>
            <Time>2022-06-01T18:10:04.000Z</Time>
            <Position>
              <LatitudeDegrees>39.40264980308711528778076171875</LatitudeDegrees>
              <LongitudeDegrees>-0.79506098292768001556396484375</LongitudeDegrees>
            </Position>
            <AltitudeMeters>410.79998779296875</AltitudeMeters>
            <DistanceMeters>5624.6498944541</DistanceMeters>
          </Trackpoint>
          <Trackpoint>
            <Time>2022-06-01T18:10:05.000Z</Time>
            <Position>
              <LatitudeDegrees>39.40267436206340789794921875</LatitudeDegrees>
              <LongitudeDegrees>-0.795039944350719451904296875</LongitudeDegrees>
            </Position>
            <AltitudeMeters>412.20001220703125</AltitudeMeters>
            <DistanceMeters>5627.9265941492</DistanceMeters>
          </Trackpoint>
          <Trackpoint>
            <Time>2022-06-01T18:10:09.000Z</Time>
            <Position>
              <LatitudeDegrees>39.40276798792183399200439453125</LatitudeDegrees>
              <LongitudeDegrees>-0.7949727214872837066650390625</LongitudeDegrees>
            </Position>
            <AltitudeMeters>412.20001220703125</AltitudeMeters>
            <DistanceMeters>5639.8432623982</DistanceMeters>
          </Trackpoint>
          <Trackpoint>
            <Time>2022-06-01T18:10:14.000Z</Time>
            <Position>
              <LatitudeDegrees>39.40289455465972423553466796875</LatitudeDegrees>
              <LongitudeDegrees>-0.79491564072668552398681640625</LongitudeDegrees>
            </Position>
            <AltitudeMeters>411.600006103515625</AltitudeMeters>
            <DistanceMeters>5654.7609433133</DistanceMeters>
          </Trackpoint>
          <Trackpoint>
            <Time>2022-06-01T18:10:19.000Z</Time>
            <Position>
              <LatitudeDegrees>39.40300083719193935394287109375</LatitudeDegrees>
              <LongitudeDegrees>-0.79486317001283168792724609375</LongitudeDegrees>
            </Position>
            <AltitudeMeters>411</AltitudeMeters>
            <DistanceMeters>5667.4219826479</DistanceMeters>
          </Trackpoint>
          <Trackpoint>
            <Time>2022-06-01T18:10:23.000Z</Time>
            <Position>
              <LatitudeDegrees>39.4030773639678955078125</LatitudeDegrees>
              <LongitudeDegrees>-0.7948000542819499969482421875</LongitudeDegrees>
            </Position>
            <AltitudeMeters>410</AltitudeMeters>
            <DistanceMeters>5677.5225669708</DistanceMeters>
          </Trackpoint>
          <Trackpoint>
            <Time>2022-06-01T18:10:24.000Z</Time>
            <Position>
              <LatitudeDegrees>39.40309672616422176361083984375</LatitudeDegrees>
              <LongitudeDegrees>-0.794758312404155731201171875</LongitudeDegrees>
            </Position>
            <AltitudeMeters>409.600006103515625</AltitudeMeters>
            <DistanceMeters>5681.7102164851</DistanceMeters>
          </Trackpoint>
          <Trackpoint>
            <Time>2022-06-01T18:10:29.000Z</Time>
            <Position>
              <LatitudeDegrees>39.40315154381096363067626953125</LatitudeDegrees>
              <LongitudeDegrees>-0.7945958711206912994384765625</LongitudeDegrees>
            </Position>
            <AltitudeMeters>409.600006103515625</AltitudeMeters>
            <DistanceMeters>5696.9551198117</DistanceMeters>
          </Trackpoint>
          <Trackpoint>
            <Time>2022-06-01T18:10:31.000Z</Time>
            <Position>
              <LatitudeDegrees>39.40317819826304912567138671875</LatitudeDegrees>
              <LongitudeDegrees>-0.7945556379854679107666015625</LongitudeDegrees>
            </Position>
            <AltitudeMeters>410</AltitudeMeters>
            <DistanceMeters>5701.512440935</DistanceMeters>
          </Trackpoint>
          <Trackpoint>
            <Time>2022-06-01T18:10:33.000Z</Time>
            <Position>
              <LatitudeDegrees>39.40321038477122783660888671875</LatitudeDegrees>
              <LongitudeDegrees>-0.794490762054920196533203125</LongitudeDegrees>
            </Position>
            <AltitudeMeters>410.20001220703125</AltitudeMeters>
            <DistanceMeters>5708.1425549709</DistanceMeters>
          </Trackpoint>
          <Trackpoint>
            <Time>2022-06-01T18:10:38.000Z</Time>
            <Position>
              <LatitudeDegrees>39.4032263942062854766845703125</LatitudeDegrees>
              <LongitudeDegrees>-0.79433728940784931182861328125</LongitudeDegrees>
            </Position>
            <AltitudeMeters>409.600006103515625</AltitudeMeters>
            <DistanceMeters>5721.4612193809</DistanceMeters>
          </Trackpoint>
          <Trackpoint>
            <Time>2022-06-01T18:10:41.000Z</Time>
            <Position>
              <LatitudeDegrees>39.4031700678169727325439453125</LatitudeDegrees>
              <LongitudeDegrees>-0.79429303295910358428955078125</LongitudeDegrees>
            </Position>
            <AltitudeMeters>409.20001220703125</AltitudeMeters>
            <DistanceMeters>5728.7949179907</DistanceMeters>
          </Trackpoint>
          <Trackpoint>
            <Time>2022-06-01T18:10:42.000Z</Time>
            <Position>
              <LatitudeDegrees>39.40315137617290019989013671875</LatitudeDegrees>
              <LongitudeDegrees>-0.7942790351808071136474609375</LongitudeDegrees>
            </Position>
            <AltitudeMeters>408.600006103515625</AltitudeMeters>
            <DistanceMeters>5731.1989248385</DistanceMeters>
          </Trackpoint>
          <Trackpoint>
            <Time>2022-06-01T18:10:44.000Z</Time>
            <Position>
              <LatitudeDegrees>39.40310494042932987213134765625</LatitudeDegrees>
              <LongitudeDegrees>-0.79424575902521610260009765625</LongitudeDegrees>
            </Position>
            <AltitudeMeters>407.399993896484375</AltitudeMeters>
            <DistanceMeters>5737.1074166539</DistanceMeters>
          </Trackpoint>
          <Trackpoint>
            <Time>2022-06-01T18:10:47.000Z</Time>
            <Position>
              <LatitudeDegrees>39.4030275754630565643310546875</LatitudeDegrees>
              <LongitudeDegrees>-0.794189013540744781494140625</LongitudeDegrees>
            </Position>
            <AltitudeMeters>406.600006103515625</AltitudeMeters>
            <DistanceMeters>5747.0057159733</DistanceMeters>
          </Trackpoint>
          <Trackpoint>
            <Time>2022-06-01T18:10:48.000Z</Time>
            <Position>
              <LatitudeDegrees>39.40301458351314067840576171875</LatitudeDegrees>
              <LongitudeDegrees>-0.79416914843022823333740234375</LongitudeDegrees>
            </Position>
            <AltitudeMeters>406</AltitudeMeters>
            <DistanceMeters>5749.2443969301</DistanceMeters>
          </Trackpoint>
          <Trackpoint>
            <Time>2022-06-01T18:10:49.000Z</Time>
            <Position>
              <LatitudeDegrees>39.4030077941715717315673828125</LatitudeDegrees>
              <LongitudeDegrees>-0.79414148814976215362548828125</LongitudeDegrees>
            </Position>
            <AltitudeMeters>405.600006103515625</AltitudeMeters>
            <DistanceMeters>5751.7405445112</DistanceMeters>
          </Trackpoint>
          <Trackpoint>
            <Time>2022-06-01T18:10:50.000Z</Time>
            <Position>
              <LatitudeDegrees>39.40300561487674713134765625</LatitudeDegrees>
              <LongitudeDegrees>-0.7941067032516002655029296875</LongitudeDegrees>
            </Position>
            <AltitudeMeters>404.79998779296875</AltitudeMeters>
            <DistanceMeters>5754.7425465583</DistanceMeters>
          </Trackpoint>
          <Trackpoint>
            <Time>2022-06-01T18:10:51.000Z</Time>
            <Position>
              <LatitudeDegrees>39.403004609048366546630859375</LatitudeDegrees>
              <LongitudeDegrees>-0.7940718345344066619873046875</LongitudeDegrees>
            </Position>
            <AltitudeMeters>405</AltitudeMeters>
            <DistanceMeters>5757.7445486055</DistanceMeters>
          </Trackpoint>
          <Trackpoint>
            <Time>2022-06-01T18:10:52.000Z</Time>
            <Position>
              <LatitudeDegrees>39.40300050191581249237060546875</LatitudeDegrees>
              <LongitudeDegrees>-0.79403570853173732757568359375</LongitudeDegrees>
            </Position>
            <AltitudeMeters>404.600006103515625</AltitudeMeters>
            <DistanceMeters>5760.8847466051</DistanceMeters>
          </Trackpoint>
          <Trackpoint>
            <Time>2022-06-01T18:10:56.000Z</Time>
            <Position>
              <LatitudeDegrees>39.4030114822089672088623046875</LatitudeDegrees>
              <LongitudeDegrees>-0.7939011789858341217041015625</LongitudeDegrees>
            </Position>
            <AltitudeMeters>403</AltitudeMeters>
            <DistanceMeters>5772.5192146159</DistanceMeters>
          </Trackpoint>
          <Trackpoint>
            <Time>2022-06-01T18:10:57.000Z</Time>
            <Position>
              <LatitudeDegrees>39.40301994793117046356201171875</LatitudeDegrees>
              <LongitudeDegrees>-0.7938713394105434417724609375</LongitudeDegrees>
            </Position>
            <AltitudeMeters>402</AltitudeMeters>
            <DistanceMeters>5775.2536072899</DistanceMeters>
          </Trackpoint>
          <Trackpoint>
            <Time>2022-06-01T18:10:59.000Z</Time>
            <Position>
              <LatitudeDegrees>39.4030265696346759796142578125</LatitudeDegrees>
              <LongitudeDegrees>-0.79379514791071414947509765625</LongitudeDegrees>
            </Position>
            <AltitudeMeters>400.79998779296875</AltitudeMeters>
            <DistanceMeters>5781.8475301039</DistanceMeters>
          </Trackpoint>
          <Trackpoint>
            <Time>2022-06-01T18:11:02.000Z</Time>
            <Position>
              <LatitudeDegrees>39.4030061177909374237060546875</LatitudeDegrees>
              <LongitudeDegrees>-0.79379833303391933441162109375</LongitudeDegrees>
            </Position>
            <AltitudeMeters>399.600006103515625</AltitudeMeters>
            <DistanceMeters>5784.140018815</DistanceMeters>
          </Trackpoint>
          <Trackpoint>
            <Time>2022-06-01T18:11:06.000Z</Time>
            <Position>
              <LatitudeDegrees>39.40303302370011806488037109375</LatitudeDegrees>
              <LongitudeDegrees>-0.7935870252549648284912109375</LongitudeDegrees>
            </Position>
            <AltitudeMeters>404</AltitudeMeters>
            <DistanceMeters>5802.558539707</DistanceMeters>
          </Trackpoint>
          <Trackpoint>
            <Time>2022-06-01T18:11:08.000Z</Time>
            <Position>
              <LatitudeDegrees>39.403045177459716796875</LatitudeDegrees>
              <LongitudeDegrees>-0.79350404441356658935546875</LongitudeDegrees>
            </Position>
            <AltitudeMeters>404</AltitudeMeters>
            <DistanceMeters>5809.8223360052</DistanceMeters>
          </Trackpoint>
          <Trackpoint>
            <Time>2022-06-01T18:11:13.000Z</Time>
            <Position>
              <LatitudeDegrees>39.4030572474002838134765625</LatitudeDegrees>
              <LongitudeDegrees>-0.7932748831808567047119140625</LongitudeDegrees>
            </Position>
            <AltitudeMeters>403</AltitudeMeters>
            <DistanceMeters>5829.5769249303</DistanceMeters>
          </Trackpoint>
          <Trackpoint>
            <Time>2022-06-01T18:11:14.000Z</Time>
            <Position>
              <LatitudeDegrees>39.4030554033815860748291015625</LatitudeDegrees>
              <LongitudeDegrees>-0.793232806026935577392578125</LongitudeDegrees>
            </Position>
            <AltitudeMeters>402.600006103515625</AltitudeMeters>
            <DistanceMeters>5833.2004220187</DistanceMeters>
          </Trackpoint>
          <Trackpoint>
            <Time>2022-06-01T18:11:18.000Z</Time>
            <Position>
              <LatitudeDegrees>39.40307761542499065399169921875</LatitudeDegrees>
              <LongitudeDegrees>-0.7930688560009002685546875</LongitudeDegrees>
            </Position>
            <AltitudeMeters>401.20001220703125</AltitudeMeters>
            <DistanceMeters>5847.5157478906</DistanceMeters>
          </Trackpoint>
          <Trackpoint>
            <Time>2022-06-01T18:11:20.000Z</Time>
            <Position>
              <LatitudeDegrees>39.4030973128974437713623046875</LatitudeDegrees>
              <LongitudeDegrees>-0.79303960315883159637451171875</LongitudeDegrees>
            </Position>
            <AltitudeMeters>400.399993896484375</AltitudeMeters>
            <DistanceMeters>5850.8538782553</DistanceMeters>
          </Trackpoint>
          <Trackpoint>
            <Time>2022-06-01T18:11:22.000Z</Time>
            <Position>
              <LatitudeDegrees>39.40315355546772480010986328125</LatitudeDegrees>
              <LongitudeDegrees>-0.79305049963295459747314453125</LongitudeDegrees>
            </Position>
            <AltitudeMeters>399.79998779296875</AltitudeMeters>
            <DistanceMeters>5857.1829713267</DistanceMeters>
          </Trackpoint>
          <Trackpoint>
            <Time>2022-06-01T18:11:23.000Z</Time>
            <Position>
              <LatitudeDegrees>39.40318825654685497283935546875</LatitudeDegrees>
              <LongitudeDegrees>-0.79306977801024913787841796875</LongitudeDegrees>
            </Position>
            <AltitudeMeters>399.600006103515625</AltitudeMeters>
            <DistanceMeters>5861.3856882484</DistanceMeters>
          </Trackpoint>
          <Trackpoint>
            <Time>2022-06-01T18:11:25.000Z</Time>
            <Position>
              <LatitudeDegrees>39.40323754213750362396240234375</LatitudeDegrees>
              <LongitudeDegrees>-0.79314789734780788421630859375</LongitudeDegrees>
            </Position>
            <AltitudeMeters>398.399993896484375</AltitudeMeters>
            <DistanceMeters>5870.059706748</DistanceMeters>
          </Trackpoint>
          <Trackpoint>
            <Time>2022-06-01T18:11:26.000Z</Time>
            <Position>
              <LatitudeDegrees>39.4032532162964344024658203125</LatitudeDegrees>
              <LongitudeDegrees>-0.79319022595882415771484375</LongitudeDegrees>
            </Position>
            <AltitudeMeters>398.20001220703125</AltitudeMeters>
            <DistanceMeters>5874.0980626087</DistanceMeters>
          </Trackpoint>
          <Trackpoint>
            <Time>2022-06-01T18:11:27.000Z</Time>
            <Position>
              <LatitudeDegrees>39.4032683037221431732177734375</LatitudeDegrees>
              <LongitudeDegrees>-0.79323641024529933929443359375</LongitudeDegrees>
            </Position>
            <AltitudeMeters>397.399993896484375</AltitudeMeters>
            <DistanceMeters>5878.4089670755</DistanceMeters>
          </Trackpoint>
          <Trackpoint>
            <Time>2022-06-01T18:11:29.000Z</Time>
            <Position>
              <LatitudeDegrees>39.40329470671713352203369140625</LatitudeDegrees>
              <LongitudeDegrees>-0.7933223247528076171875</LongitudeDegrees>
            </Position>
            <AltitudeMeters>396.20001220703125</AltitudeMeters>
            <DistanceMeters>5886.3606081175</DistanceMeters>
          </Trackpoint>
          <Trackpoint>
            <Time>2022-06-01T18:11:30.000Z</Time>
            <Position>
              <LatitudeDegrees>39.40330208279192447662353515625</LatitudeDegrees>
              <LongitudeDegrees>-0.793364234268665313720703125</LongitudeDegrees>
            </Position>
            <AltitudeMeters>395.79998779296875</AltitudeMeters>
            <DistanceMeters>5890.0581121048</DistanceMeters>
          </Trackpoint>
          <Trackpoint>
            <Time>2022-06-01T18:11:32.000Z</Time>
            <Position>
              <LatitudeDegrees>39.40332789905369281768798828125</LatitudeDegrees>
              <LongitudeDegrees>-0.793440341949462890625</LongitudeDegrees>
            </Position>
            <AltitudeMeters>395</AltitudeMeters>
            <DistanceMeters>5897.2059909874</DistanceMeters>
          </Trackpoint>
          <Trackpoint>
            <Time>2022-06-01T18:11:34.000Z</Time>
            <Position>
              <LatitudeDegrees>39.40336578525602817535400390625</LatitudeDegrees>
              <LongitudeDegrees>-0.7935141026973724365234375</LongitudeDegrees>
            </Position>
            <AltitudeMeters>393.79998779296875</AltitudeMeters>
            <DistanceMeters>5904.8235543267</DistanceMeters>
          </Trackpoint>
          <Trackpoint>
            <Time>2022-06-01T18:11:35.000Z</Time>
            <Position>
              <LatitudeDegrees>39.40338439308106899261474609375</LatitudeDegrees>
              <LongitudeDegrees>-0.79354620538651943206787109375</LongitudeDegrees>
            </Position>
            <AltitudeMeters>393.399993896484375</AltitudeMeters>
            <DistanceMeters>5908.2760463116</DistanceMeters>
          </Trackpoint>
          <Trackpoint>
            <Time>2022-06-01T18:11:37.000Z</Time>
            <Position>
              <LatitudeDegrees>39.40341875888407230377197265625</LatitudeDegrees>
              <LongitudeDegrees>-0.7936004363000392913818359375</LongitudeDegrees>
            </Position>
            <AltitudeMeters>393</AltitudeMeters>
            <DistanceMeters>5914.308558895</DistanceMeters>
          </Trackpoint>
          <Trackpoint>
            <Time>2022-06-01T18:11:39.000Z</Time>
            <Position>
              <LatitudeDegrees>39.4034563936293125152587890625</LatitudeDegrees>
              <LongitudeDegrees>-0.79365768469870090484619140625</LongitudeDegrees>
            </Position>
            <AltitudeMeters>392.399993896484375</AltitudeMeters>
            <DistanceMeters>5920.7724713098</DistanceMeters>
          </Trackpoint>
          <Trackpoint>
            <Time>2022-06-01T18:11:41.000Z</Time>
            <Position>
              <LatitudeDegrees>39.40350106917321681976318359375</LatitudeDegrees>
              <LongitudeDegrees>-0.7936855964362621307373046875</LongitudeDegrees>
            </Position>
            <AltitudeMeters>392</AltitudeMeters>
            <DistanceMeters>5926.293842342</DistanceMeters>
          </Trackpoint>
          <Trackpoint>
            <Time>2022-06-01T18:11:44.000Z</Time>
            <Position>
              <LatitudeDegrees>39.40355680882930755615234375</LatitudeDegrees>
              <LongitudeDegrees>-0.7937085628509521484375</LongitudeDegrees>
            </Position>
            <AltitudeMeters>391.20001220703125</AltitudeMeters>
            <DistanceMeters>5932.8043860081</DistanceMeters>
          </Trackpoint>
          <Trackpoint>
            <Time>2022-06-01T18:11:46.000Z</Time>
            <Position>
              <LatitudeDegrees>39.40361053682863712310791015625</LatitudeDegrees>
              <LongitudeDegrees>-0.79372876323759555816650390625</LongitudeDegrees>
            </Position>
            <AltitudeMeters>390.79998779296875</AltitudeMeters>
            <DistanceMeters>5939.0313554355</DistanceMeters>
          </Trackpoint>
          <Trackpoint>
            <Time>2022-06-01T18:11:49.000Z</Time>
            <Position>
              <LatitudeDegrees>39.4036205112934112548828125</LatitudeDegrees>
              <LongitudeDegrees>-0.79372658394277095794677734375</LongitudeDegrees>
            </Position>
            <AltitudeMeters>390.600006103515625</AltitudeMeters>
            <DistanceMeters>5940.155726683</DistanceMeters>
          </Trackpoint>
          <Trackpoint>
            <Time>2022-06-01T18:13:23.000Z</Time>
            <Position>
              <LatitudeDegrees>39.40387020818889141082763671875</LatitudeDegrees>
              <LongitudeDegrees>-0.79393512569367885589599609375</LongitudeDegrees>
            </Position>
            <AltitudeMeters>389.79998779296875</AltitudeMeters>
            <DistanceMeters>5973.2319857153</DistanceMeters>
          </Trackpoint>
          <Trackpoint>
            <Time>2022-06-01T18:13:24.000Z</Time>
            <Position>
              <LatitudeDegrees>39.40388026647269725799560546875</LatitudeDegrees>
              <LongitudeDegrees>-0.793939568102359771728515625</LongitudeDegrees>
            </Position>
            <AltitudeMeters>390</AltitudeMeters>
            <DistanceMeters>5974.4150587683</DistanceMeters>
          </Trackpoint>
          <Trackpoint>
            <Time>2022-06-01T18:13:25.000Z</Time>
            <Position>
              <LatitudeDegrees>39.4038872234523296356201171875</LatitudeDegrees>
              <LongitudeDegrees>-0.7939353771507740020751953125</LongitudeDegrees>
            </Position>
            <AltitudeMeters>390</AltitudeMeters>
            <DistanceMeters>5975.2650035403</DistanceMeters>
          </Trackpoint>
          <Trackpoint>
            <Time>2022-06-01T18:13:27.000Z</Time>
            <Position>
              <LatitudeDegrees>39.40388713963329792022705078125</LatitudeDegrees>
              <LongitudeDegrees>-0.79390042461454868316650390625</LongitudeDegrees>
            </Position>
            <AltitudeMeters>390</AltitudeMeters>
            <DistanceMeters>5978.2700121001</DistanceMeters>
          </Trackpoint>
          <Trackpoint>
            <Time>2022-06-01T18:13:28.000Z</Time>
            <Position>
              <LatitudeDegrees>39.4038832001388072967529296875</LatitudeDegrees>
              <LongitudeDegrees>-0.79387762583792209625244140625</LongitudeDegrees>
            </Position>
            <AltitudeMeters>390.20001220703125</AltitudeMeters>
            <DistanceMeters>5980.2791024839</DistanceMeters>
          </Trackpoint>
          <Trackpoint>
            <Time>2022-06-01T18:13:29.000Z</Time>
            <Position>
              <LatitudeDegrees>39.403878338634967803955078125</LatitudeDegrees>
              <LongitudeDegrees>-0.7938559167087078094482421875</LongitudeDegrees>
            </Position>
            <AltitudeMeters>390.399993896484375</AltitudeMeters>
            <DistanceMeters>5982.221928249</DistanceMeters>
          </Trackpoint>
          <Trackpoint>
            <Time>2022-06-01T18:13:31.000Z</Time>
            <Position>
              <LatitudeDegrees>39.403870962560176849365234375</LatitudeDegrees>
              <LongitudeDegrees>-0.79382180236279964447021484375</LongitudeDegrees>
            </Position>
            <AltitudeMeters>390.399993896484375</AltitudeMeters>
            <DistanceMeters>5985.2687164898</DistanceMeters>
          </Trackpoint>
          <Trackpoint>
            <Time>2022-06-01T18:13:34.000Z</Time>
            <Position>
              <LatitudeDegrees>39.40386668778955936431884765625</LatitudeDegrees>
              <LongitudeDegrees>-0.7937663979828357696533203125</LongitudeDegrees>
            </Position>
            <AltitudeMeters>390.399993896484375</AltitudeMeters>
            <DistanceMeters>5990.0569692078</DistanceMeters>
          </Trackpoint>
          <Trackpoint>
            <Time>2022-06-01T18:13:36.000Z</Time>
            <Position>
              <LatitudeDegrees>39.40386886708438396453857421875</LatitudeDegrees>
              <LongitudeDegrees>-0.79370521008968353271484375</LongitudeDegrees>
            </Position>
            <AltitudeMeters>390.399993896484375</AltitudeMeters>
            <DistanceMeters>5995.3255985351</DistanceMeters>
          </Trackpoint>
          <Trackpoint>
            <Time>2022-06-01T18:13:38.000Z</Time>
            <Position>
              <LatitudeDegrees>39.40387305803596973419189453125</LatitudeDegrees>
              <LongitudeDegrees>-0.79364695586264133453369140625</LongitudeDegrees>
            </Position>
            <AltitudeMeters>391</AltitudeMeters>
            <DistanceMeters>6000.3575300081</DistanceMeters>
          </Trackpoint>
          <Trackpoint>
            <Time>2022-06-01T18:13:41.000Z</Time>
            <Position>
              <LatitudeDegrees>39.40386593341827392578125</LatitudeDegrees>
              <LongitudeDegrees>-0.7935541681945323944091796875</LongitudeDegrees>
            </Position>
            <AltitudeMeters>391</AltitudeMeters>
            <DistanceMeters>6008.3764560183</DistanceMeters>
          </Trackpoint>
          <Trackpoint>
            <Time>2022-06-01T18:13:44.000Z</Time>
            <Position>
              <LatitudeDegrees>39.40386886708438396453857421875</LatitudeDegrees>
              <LongitudeDegrees>-0.79348434694111347198486328125</LongitudeDegrees>
            </Position>
            <AltitudeMeters>390.600006103515625</AltitudeMeters>
            <DistanceMeters>6014.3909789616</DistanceMeters>
          </Trackpoint>
          <Trackpoint>
            <Time>2022-06-01T18:13:47.000Z</Time>
            <Position>
              <LatitudeDegrees>39.40388797782361507415771484375</LatitudeDegrees>
              <LongitudeDegrees>-0.79341393895447254180908203125</LongitudeDegrees>
            </Position>
            <AltitudeMeters>390.399993896484375</AltitudeMeters>
            <DistanceMeters>6020.8093283395</DistanceMeters>
          </Trackpoint>
          <Trackpoint>
            <Time>2022-06-01T18:13:49.000Z</Time>
            <Position>
              <LatitudeDegrees>39.40388965420424938201904296875</LatitudeDegrees>
              <LongitudeDegrees>-0.793362557888031005859375</LongitudeDegrees>
            </Position>
            <AltitudeMeters>391.20001220703125</AltitudeMeters>
            <DistanceMeters>6025.2319006201</DistanceMeters>
          </Trackpoint>
          <Trackpoint>
            <Time>2022-06-01T18:13:51.000Z</Time>
            <Position>
              <LatitudeDegrees>39.4038935936987400054931640625</LatitudeDegrees>
              <LongitudeDegrees>-0.7933147810399532318115234375</LongitudeDegrees>
            </Position>
            <AltitudeMeters>392</AltitudeMeters>
            <DistanceMeters>6029.3631043768</DistanceMeters>
          </Trackpoint>
          <Trackpoint>
            <Time>2022-06-01T18:13:54.000Z</Time>
            <Position>
              <LatitudeDegrees>39.4038939289748668670654296875</LatitudeDegrees>
              <LongitudeDegrees>-0.79323976300656795501708984375</LongitudeDegrees>
            </Position>
            <AltitudeMeters>392.600006103515625</AltitudeMeters>
            <DistanceMeters>6035.8151313767</DistanceMeters>
          </Trackpoint>
          <Trackpoint>
            <Time>2022-06-01T18:13:58.000Z</Time>
            <Position>
              <LatitudeDegrees>39.4039033167064189910888671875</LatitudeDegrees>
              <LongitudeDegrees>-0.79318125732243061065673828125</LongitudeDegrees>
            </Position>
            <AltitudeMeters>393.399993896484375</AltitudeMeters>
            <DistanceMeters>6040.9553651919</DistanceMeters>
          </Trackpoint>
          <Trackpoint>
            <Time>2022-06-01T18:14:00.000Z</Time>
            <Position>
              <LatitudeDegrees>39.40391957759857177734375</LatitudeDegrees>
              <LongitudeDegrees>-0.79317807219922542572021484375</LongitudeDegrees>
            </Position>
            <AltitudeMeters>394.20001220703125</AltitudeMeters>
            <DistanceMeters>6042.785708974</DistanceMeters>
          </Trackpoint>
          <Trackpoint>
            <Time>2022-06-01T18:14:01.000Z</Time>
            <Position>
              <LatitudeDegrees>39.40393256954848766326904296875</LatitudeDegrees>
              <LongitudeDegrees>-0.793176479637622833251953125</LongitudeDegrees>
            </Position>
            <AltitudeMeters>394.399993896484375</AltitudeMeters>
            <DistanceMeters>6044.2393381866</DistanceMeters>
          </Trackpoint>
          <Trackpoint>
            <Time>2022-06-01T18:14:05.000Z</Time>
            <Position>
              <LatitudeDegrees>39.40400607883930206298828125</LatitudeDegrees>
              <LongitudeDegrees>-0.7931635715067386627197265625</LongitudeDegrees>
            </Position>
            <AltitudeMeters>395</AltitudeMeters>
            <DistanceMeters>6052.4962793365</DistanceMeters>
          </Trackpoint>
          <Trackpoint>
            <Time>2022-06-01T18:14:07.000Z</Time>
            <Position>
              <LatitudeDegrees>39.4040387682616710662841796875</LatitudeDegrees>
              <LongitudeDegrees>-0.793131552636623382568359375</LongitudeDegrees>
            </Position>
            <AltitudeMeters>395.399993896484375</AltitudeMeters>
            <DistanceMeters>6057.0575616262</DistanceMeters>
          </Trackpoint>
          <Trackpoint>
            <Time>2022-06-01T18:14:08.000Z</Time>
            <Position>
              <LatitudeDegrees>39.4040568731725215911865234375</LatitudeDegrees>
              <LongitudeDegrees>-0.79310850240290164947509765625</LongitudeDegrees>
            </Position>
            <AltitudeMeters>395.600006103515625</AltitudeMeters>
            <DistanceMeters>6059.884506559</DistanceMeters>
          </Trackpoint>
          <Trackpoint>
            <Time>2022-06-01T18:14:10.000Z</Time>
            <Position>
              <LatitudeDegrees>39.40408679656684398651123046875</LatitudeDegrees>
              <LongitudeDegrees>-0.7930589653551578521728515625</LongitudeDegrees>
            </Position>
            <AltitudeMeters>396</AltitudeMeters>
            <DistanceMeters>6065.2918522596</DistanceMeters>
          </Trackpoint>
          <Trackpoint>
            <Time>2022-06-01T18:14:13.000Z</Time>
            <Position>
              <LatitudeDegrees>39.404142200946807861328125</LatitudeDegrees>
              <LongitudeDegrees>-0.7929939217865467071533203125</LongitudeDegrees>
            </Position>
            <AltitudeMeters>396.20001220703125</AltitudeMeters>
            <DistanceMeters>6073.6174073031</DistanceMeters>
          </Trackpoint>
          <Trackpoint>
            <Time>2022-06-01T18:14:15.000Z</Time>
            <Position>
              <LatitudeDegrees>39.4041945040225982666015625</LatitudeDegrees>
              <LongitudeDegrees>-0.79297137446701526641845703125</LongitudeDegrees>
            </Position>
            <AltitudeMeters>396.600006103515625</AltitudeMeters>
            <DistanceMeters>6079.7538084285</DistanceMeters>
          </Trackpoint>
          <Trackpoint>
            <Time>2022-06-01T18:14:16.000Z</Time>
            <Position>
              <LatitudeDegrees>39.4042251817882061004638671875</LatitudeDegrees>
              <LongitudeDegrees>-0.7929557003080844879150390625</LongitudeDegrees>
            </Position>
            <AltitudeMeters>396.600006103515625</AltitudeMeters>
            <DistanceMeters>6083.4243498129</DistanceMeters>
          </Trackpoint>
          <Trackpoint>
            <Time>2022-06-01T18:14:19.000Z</Time>
            <Position>
              <LatitudeDegrees>39.40431277267634868621826171875</LatitudeDegrees>
              <LongitudeDegrees>-0.7929132878780364990234375</LongitudeDegrees>
            </Position>
            <AltitudeMeters>397.20001220703125</AltitudeMeters>
            <DistanceMeters>6093.8335710734</DistanceMeters>
          </Trackpoint>
          <Trackpoint>
            <Time>2022-06-01T18:14:20.000Z</Time>
            <Position>
              <LatitudeDegrees>39.40434345044195652008056640625</LatitudeDegrees>
              <LongitudeDegrees>-0.7928993739187717437744140625</LongitudeDegrees>
            </Position>
            <AltitudeMeters>397.399993896484375</AltitudeMeters>
            <DistanceMeters>6097.4520805516</DistanceMeters>
          </Trackpoint>
          <Trackpoint>
            <Time>2022-06-01T18:14:25.000Z</Time>
            <Position>
              <LatitudeDegrees>39.4044716097414493560791015625</LatitudeDegrees>
              <LongitudeDegrees>-0.79280256293714046478271484375</LongitudeDegrees>
            </Position>
            <AltitudeMeters>397.399993896484375</AltitudeMeters>
            <DistanceMeters>6113.9686967115</DistanceMeters>
          </Trackpoint>
          <Trackpoint>
            <Time>2022-06-01T18:14:28.000Z</Time>
            <Position>
              <LatitudeDegrees>39.40455987118184566497802734375</LatitudeDegrees>
              <LongitudeDegrees>-0.79277825541794300079345703125</LongitudeDegrees>
            </Position>
            <AltitudeMeters>397.600006103515625</AltitudeMeters>
            <DistanceMeters>6124.0128001574</DistanceMeters>
          </Trackpoint>
          <Trackpoint>
            <Time>2022-06-01T18:14:30.000Z</Time>
            <Position>
              <LatitudeDegrees>39.40460697747766971588134765625</LatitudeDegrees>
              <LongitudeDegrees>-0.7927575521171092987060546875</LongitudeDegrees>
            </Position>
            <AltitudeMeters>398.20001220703125</AltitudeMeters>
            <DistanceMeters>6129.5505018109</DistanceMeters>
          </Trackpoint>
          <Trackpoint>
            <Time>2022-06-01T18:14:33.000Z</Time>
            <Position>
              <LatitudeDegrees>39.40465324558317661285400390625</LatitudeDegrees>
              <LongitudeDegrees>-0.79269946552813053131103515625</LongitudeDegrees>
            </Position>
            <AltitudeMeters>398.79998779296875</AltitudeMeters>
            <DistanceMeters>6136.7254907173</DistanceMeters>
          </Trackpoint>
          <Trackpoint>
            <Time>2022-06-01T18:14:35.000Z</Time>
            <Position>
              <LatitudeDegrees>39.40468761138617992401123046875</LatitudeDegrees>
              <LongitudeDegrees>-0.7926422171294689178466796875</LongitudeDegrees>
            </Position>
            <AltitudeMeters>399</AltitudeMeters>
            <DistanceMeters>6142.9597067077</DistanceMeters>
          </Trackpoint>
          <Trackpoint>
            <Time>2022-06-01T18:14:40.000Z</Time>
            <Position>
              <LatitudeDegrees>39.40476874820888042449951171875</LatitudeDegrees>
              <LongitudeDegrees>-0.79252126626670360565185546875</LongitudeDegrees>
            </Position>
            <AltitudeMeters>399.600006103515625</AltitudeMeters>
            <DistanceMeters>6156.7343198144</DistanceMeters>
          </Trackpoint>
          <Trackpoint>
            <Time>2022-06-01T18:14:41.000Z</Time>
            <Position>
              <LatitudeDegrees>39.40478232689201831817626953125</LatitudeDegrees>
              <LongitudeDegrees>-0.79249712638556957244873046875</LongitudeDegrees>
            </Position>
            <AltitudeMeters>400</AltitudeMeters>
            <DistanceMeters>6159.3018002533</DistanceMeters>
          </Trackpoint>
          <Trackpoint>
            <Time>2022-06-01T18:14:45.000Z</Time>
            <Position>
              <LatitudeDegrees>39.4048380665481090545654296875</LatitudeDegrees>
              <LongitudeDegrees>-0.79240375198423862457275390625</LongitudeDegrees>
            </Position>
            <AltitudeMeters>400.399993896484375</AltitudeMeters>
            <DistanceMeters>6169.4496567643</DistanceMeters>
          </Trackpoint>
          <Trackpoint>
            <Time>2022-06-01T18:14:51.000Z</Time>
            <Position>
              <LatitudeDegrees>39.40482507459819316864013671875</LatitudeDegrees>
              <LongitudeDegrees>-0.79219437204301357269287109375</LongitudeDegrees>
            </Position>
            <AltitudeMeters>400.79998779296875</AltitudeMeters>
            <DistanceMeters>6187.5142326666</DistanceMeters>
          </Trackpoint>
          <Trackpoint>
            <Time>2022-06-01T18:14:52.000Z</Time>
            <Position>
              <LatitudeDegrees>39.404805712401866912841796875</LatitudeDegrees>
              <LongitudeDegrees>-0.7921621017158031463623046875</LongitudeDegrees>
            </Position>
            <AltitudeMeters>401</AltitudeMeters>
            <DistanceMeters>6191.0289367189</DistanceMeters>
          </Trackpoint>
          <Trackpoint>
            <Time>2022-06-01T18:14:55.000Z</Time>
            <Position>
              <LatitudeDegrees>39.40474276430904865264892578125</LatitudeDegrees>
              <LongitudeDegrees>-0.792068056762218475341796875</LongitudeDegrees>
            </Position>
            <AltitudeMeters>400.399993896484375</AltitudeMeters>
            <DistanceMeters>6201.7294679819</DistanceMeters>
          </Trackpoint>
          <Trackpoint>
            <Time>2022-06-01T18:14:56.000Z</Time>
            <Position>
              <LatitudeDegrees>39.4047247432172298431396484375</LatitudeDegrees>
              <LongitudeDegrees>-0.79203863628208637237548828125</LongitudeDegrees>
            </Position>
            <AltitudeMeters>400</AltitudeMeters>
            <DistanceMeters>6204.9575801572</DistanceMeters>
          </Trackpoint>
          <Trackpoint>
            <Time>2022-06-01T18:15:01.000Z</Time>
            <Position>
              <LatitudeDegrees>39.40464310348033905029296875</LatitudeDegrees>
              <LongitudeDegrees>-0.79186244867742061614990234375</LongitudeDegrees>
            </Position>
            <AltitudeMeters>399</AltitudeMeters>
            <DistanceMeters>6222.6253950338</DistanceMeters>
          </Trackpoint>
          <Trackpoint>
            <Time>2022-06-01T18:15:02.000Z</Time>
            <Position>
              <LatitudeDegrees>39.40463799051940441131591796875</LatitudeDegrees>
              <LongitudeDegrees>-0.79183143563568592071533203125</LongitudeDegrees>
            </Position>
            <AltitudeMeters>399</AltitudeMeters>
            <DistanceMeters>6225.3531748984</DistanceMeters>
          </Trackpoint>
          <Trackpoint>
            <Time>2022-06-01T18:15:06.000Z</Time>
            <Position>
              <LatitudeDegrees>39.40465525723993778228759765625</LatitudeDegrees>
              <LongitudeDegrees>-0.791670419275760650634765625</LongitudeDegrees>
            </Position>
            <AltitudeMeters>399</AltitudeMeters>
            <DistanceMeters>6239.3337329928</DistanceMeters>
          </Trackpoint>
          <Trackpoint>
            <Time>2022-06-01T18:15:11.000Z</Time>
            <Position>
              <LatitudeDegrees>39.4047099910676479339599609375</LatitudeDegrees>
              <LongitudeDegrees>-0.79147118143737316131591796875</LongitudeDegrees>
            </Position>
            <AltitudeMeters>398.600006103515625</AltitudeMeters>
            <DistanceMeters>6257.5191251966</DistanceMeters>
          </Trackpoint>
          <Trackpoint>
            <Time>2022-06-01T18:15:12.000Z</Time>
            <Position>
              <LatitudeDegrees>39.404730610549449920654296875</LatitudeDegrees>
              <LongitudeDegrees>-0.79143094830214977264404296875</LongitudeDegrees>
            </Position>
            <AltitudeMeters>398.600006103515625</AltitudeMeters>
            <DistanceMeters>6261.6710423359</DistanceMeters>
          </Trackpoint>
          <Trackpoint>
            <Time>2022-06-01T18:15:15.000Z</Time>
            <Position>
              <LatitudeDegrees>39.404792971909046173095703125</LatitudeDegrees>
              <LongitudeDegrees>-0.79133338294923305511474609375</LongitudeDegrees>
            </Position>
            <AltitudeMeters>398.600006103515625</AltitudeMeters>
            <DistanceMeters>6272.5606228541</DistanceMeters>
          </Trackpoint>
          <Trackpoint>
            <Time>2022-06-01T18:15:17.000Z</Time>
            <Position>
              <LatitudeDegrees>39.40482281148433685302734375</LatitudeDegrees>
              <LongitudeDegrees>-0.79127236269414424896240234375</LongitudeDegrees>
            </Position>
            <AltitudeMeters>398.79998779296875</AltitudeMeters>
            <DistanceMeters>6278.7716200823</DistanceMeters>
          </Trackpoint>
          <Trackpoint>
            <Time>2022-06-01T18:15:23.000Z</Time>
            <Position>
              <LatitudeDegrees>39.4049181975424289703369140625</LatitudeDegrees>
              <LongitudeDegrees>-0.79112760722637176513671875</LongitudeDegrees>
            </Position>
            <AltitudeMeters>399.20001220703125</AltitudeMeters>
            <DistanceMeters>6295.1327809856</DistanceMeters>
          </Trackpoint>
          <Trackpoint>
            <Time>2022-06-01T18:15:27.000Z</Time>
            <Position>
              <LatitudeDegrees>39.40500629134476184844970703125</LatitudeDegrees>
              <LongitudeDegrees>-0.7910520024597644805908203125</LongitudeDegrees>
            </Position>
            <AltitudeMeters>399.79998779296875</AltitudeMeters>
            <DistanceMeters>6306.8976869237</DistanceMeters>
          </Trackpoint>
          <Trackpoint>
            <Time>2022-06-01T18:15:29.000Z</Time>
            <Position>
              <LatitudeDegrees>39.40507334657013416290283203125</LatitudeDegrees>
              <LongitudeDegrees>-0.7910144515335559844970703125</LongitudeDegrees>
            </Position>
            <AltitudeMeters>399.79998779296875</AltitudeMeters>
            <DistanceMeters>6315.0301084497</DistanceMeters>
          </Trackpoint>
          <Trackpoint>
            <Time>2022-06-01T18:15:34.000Z</Time>
            <Position>
              <LatitudeDegrees>39.4052232988178730010986328125</LatitudeDegrees>
              <LongitudeDegrees>-0.790948905050754547119140625</LongitudeDegrees>
            </Position>
            <AltitudeMeters>399.399993896484375</AltitudeMeters>
            <DistanceMeters>6332.6462262704</DistanceMeters>
          </Trackpoint>
          <Trackpoint>
            <Time>2022-06-01T18:15:35.000Z</Time>
            <Position>
              <LatitudeDegrees>39.4052544794976711273193359375</LatitudeDegrees>
              <LongitudeDegrees>-0.79093222506344318389892578125</LongitudeDegrees>
            </Position>
            <AltitudeMeters>399</AltitudeMeters>
            <DistanceMeters>6336.4018859202</DistanceMeters>
          </Trackpoint>
          <Trackpoint>
            <Time>2022-06-01T18:15:37.000Z</Time>
            <Position>
              <LatitudeDegrees>39.40531390719115734100341796875</LatitudeDegrees>
              <LongitudeDegrees>-0.79090389423072338104248046875</LongitudeDegrees>
            </Position>
            <AltitudeMeters>398</AltitudeMeters>
            <DistanceMeters>6343.4505368972</DistanceMeters>
          </Trackpoint>
          <Trackpoint>
            <Time>2022-06-01T18:15:38.000Z</Time>
            <Position>
              <LatitudeDegrees>39.4053470157086849212646484375</LatitudeDegrees>
              <LongitudeDegrees>-0.79089400358498096466064453125</LongitudeDegrees>
            </Position>
            <AltitudeMeters>397.600006103515625</AltitudeMeters>
            <DistanceMeters>6347.2325523767</DistanceMeters>
          </Trackpoint>
          <Trackpoint>
            <Time>2022-06-01T18:15:40.000Z</Time>
            <Position>
              <LatitudeDegrees>39.40541046671569347381591796875</LatitudeDegrees>
              <LongitudeDegrees>-0.7908828556537628173828125</LongitudeDegrees>
            </Position>
            <AltitudeMeters>397</AltitudeMeters>
            <DistanceMeters>6354.3589224148</DistanceMeters>
          </Trackpoint>
          <Trackpoint>
            <Time>2022-06-01T18:15:42.000Z</Time>
            <Position>
              <LatitudeDegrees>39.4054846465587615966796875</LatitudeDegrees>
              <LongitudeDegrees>-0.7908676005899906158447265625</LongitudeDegrees>
            </Position>
            <AltitudeMeters>396.79998779296875</AltitudeMeters>
            <DistanceMeters>6362.7180331046</DistanceMeters>
          </Trackpoint>
          <Trackpoint>
            <Time>2022-06-01T18:15:43.000Z</Time>
            <Position>
              <LatitudeDegrees>39.40552345477044582366943359375</LatitudeDegrees>
              <LongitudeDegrees>-0.79086081124842166900634765625</LongitudeDegrees>
            </Position>
            <AltitudeMeters>396.399993896484375</AltitudeMeters>
            <DistanceMeters>6367.0768495538</DistanceMeters>
          </Trackpoint>
          <Trackpoint>
            <Time>2022-06-01T18:15:45.000Z</Time>
            <Position>
              <LatitudeDegrees>39.405598305165767669677734375</LatitudeDegrees>
              <LongitudeDegrees>-0.7908521778881549835205078125</LongitudeDegrees>
            </Position>
            <AltitudeMeters>396</AltitudeMeters>
            <DistanceMeters>6375.4408200351</DistanceMeters>
          </Trackpoint>
          <Trackpoint>
            <Time>2022-06-01T18:15:51.000Z</Time>
            <Position>
              <LatitudeDegrees>39.4057999737560749053955078125</LatitudeDegrees>
              <LongitudeDegrees>-0.79086265526711940765380859375</LongitudeDegrees>
            </Position>
            <AltitudeMeters>396.600006103515625</AltitudeMeters>
            <DistanceMeters>6397.9049423637</DistanceMeters>
          </Trackpoint>
          <Trackpoint>
            <Time>2022-06-01T18:15:56.000Z</Time>
            <Position>
              <LatitudeDegrees>39.40593659877777099609375</LatitudeDegrees>
              <LongitudeDegrees>-0.79084220342338085174560546875</LongitudeDegrees>
            </Position>
            <AltitudeMeters>396.79998779296875</AltitudeMeters>
            <DistanceMeters>6413.2130942377</DistanceMeters>
          </Trackpoint>
          <Trackpoint>
            <Time>2022-06-01T18:15:57.000Z</Time>
            <Position>
              <LatitudeDegrees>39.40596031956374645233154296875</LatitudeDegrees>
              <LongitudeDegrees>-0.79082527197897434234619140625</LongitudeDegrees>
            </Position>
            <AltitudeMeters>396.79998779296875</AltitudeMeters>
            <DistanceMeters>6416.2286019858</DistanceMeters>
          </Trackpoint>
          <Trackpoint>
            <Time>2022-06-01T18:16:00.000Z</Time>
            <Position>
              <LatitudeDegrees>39.40600994043052196502685546875</LatitudeDegrees>
              <LongitudeDegrees>-0.79075385816395282745361328125</LongitudeDegrees>
            </Position>
            <AltitudeMeters>396.399993896484375</AltitudeMeters>
            <DistanceMeters>6424.4882767696</DistanceMeters>
          </Trackpoint>
          <Trackpoint>
            <Time>2022-06-01T18:16:06.000Z</Time>
            <Position>
              <LatitudeDegrees>39.40612636506557464599609375</LatitudeDegrees>
              <LongitudeDegrees>-0.7906030677258968353271484375</LongitudeDegrees>
            </Position>
            <AltitudeMeters>395.79998779296875</AltitudeMeters>
            <DistanceMeters>6442.8207993754</DistanceMeters>
          </Trackpoint>
          <Trackpoint>
            <Time>2022-06-01T18:16:08.000Z</Time>
            <Position>
              <LatitudeDegrees>39.4061815179884433746337890625</LatitudeDegrees>
              <LongitudeDegrees>-0.7905517704784870147705078125</LongitudeDegrees>
            </Position>
            <AltitudeMeters>395.20001220703125</AltitudeMeters>
            <DistanceMeters>6450.380053554</DistanceMeters>
          </Trackpoint>
          <Trackpoint>
            <Time>2022-06-01T18:16:11.000Z</Time>
            <Position>
              <LatitudeDegrees>39.40630431286990642547607421875</LatitudeDegrees>
              <LongitudeDegrees>-0.7904947735369205474853515625</LongitudeDegrees>
            </Position>
            <AltitudeMeters>394</AltitudeMeters>
            <DistanceMeters>6464.8998743083</DistanceMeters>
          </Trackpoint>
          <Trackpoint>
            <Time>2022-06-01T18:16:12.000Z</Time>
            <Position>
              <LatitudeDegrees>39.40634337253868579864501953125</LatitudeDegrees>
              <LongitudeDegrees>-0.790475495159626007080078125</LongitudeDegrees>
            </Position>
            <AltitudeMeters>393.79998779296875</AltitudeMeters>
            <DistanceMeters>6469.5532734221</DistanceMeters>
          </Trackpoint>
          <Trackpoint>
            <Time>2022-06-01T18:16:15.000Z</Time>
            <Position>
              <LatitudeDegrees>39.4064195640385150909423828125</LatitudeDegrees>
              <LongitudeDegrees>-0.7903613336384296417236328125</LongitudeDegrees>
            </Position>
            <AltitudeMeters>392.79998779296875</AltitudeMeters>
            <DistanceMeters>6482.5260732235</DistanceMeters>
          </Trackpoint>
          <Trackpoint>
            <Time>2022-06-01T18:16:17.000Z</Time>
            <Position>
              <LatitudeDegrees>39.40644982270896434783935546875</LatitudeDegrees>
              <LongitudeDegrees>-0.79027642495930194854736328125</LongitudeDegrees>
            </Position>
            <AltitudeMeters>391.600006103515625</AltitudeMeters>
            <DistanceMeters>6490.566928112</DistanceMeters>
          </Trackpoint>
          <Trackpoint>
            <Time>2022-06-01T18:16:21.000Z</Time>
            <Position>
              <LatitudeDegrees>39.40648100338876247406005859375</LatitudeDegrees>
              <LongitudeDegrees>-0.79010727815330028533935546875</LongitudeDegrees>
            </Position>
            <AltitudeMeters>390.399993896484375</AltitudeMeters>
            <DistanceMeters>6505.5214883935</DistanceMeters>
          </Trackpoint>
          <Trackpoint>
            <Time>2022-06-01T18:16:23.000Z</Time>
            <Position>
              <LatitudeDegrees>39.40650053322315216064453125</LatitudeDegrees>
              <LongitudeDegrees>-0.7900210283696651458740234375</LongitudeDegrees>
            </Position>
            <AltitudeMeters>390</AltitudeMeters>
            <DistanceMeters>6513.2508470831</DistanceMeters>
          </Trackpoint>
          <Trackpoint>
            <Time>2022-06-01T18:16:25.000Z</Time>
            <Position>
              <LatitudeDegrees>39.40652458928525447845458984375</LatitudeDegrees>
              <LongitudeDegrees>-0.78994148410856723785400390625</LongitudeDegrees>
            </Position>
            <AltitudeMeters>389.399993896484375</AltitudeMeters>
            <DistanceMeters>6520.5968485008</DistanceMeters>
          </Trackpoint>
          <Trackpoint>
            <Time>2022-06-01T18:16:29.000Z</Time>
            <Position>
              <LatitudeDegrees>39.40659575164318084716796875</LatitudeDegrees>
              <LongitudeDegrees>-0.7899060286581516265869140625</LongitudeDegrees>
            </Position>
            <AltitudeMeters>388.399993896484375</AltitudeMeters>
            <DistanceMeters>6529.0840694708</DistanceMeters>
          </Trackpoint>
          <Trackpoint>
            <Time>2022-06-01T18:16:30.000Z</Time>
            <Position>
              <LatitudeDegrees>39.40663330256938934326171875</LatitudeDegrees>
              <LongitudeDegrees>-0.7899298332631587982177734375</LongitudeDegrees>
            </Position>
            <AltitudeMeters>388.20001220703125</AltitudeMeters>
            <DistanceMeters>6533.7374685847</DistanceMeters>
          </Trackpoint>
          <Trackpoint>
            <Time>2022-06-01T18:16:32.000Z</Time>
            <Position>
              <LatitudeDegrees>39.406693316996097564697265625</LatitudeDegrees>
              <LongitudeDegrees>-0.78999797813594341278076171875</LongitudeDegrees>
            </Position>
            <AltitudeMeters>387.79998779296875</AltitudeMeters>
            <DistanceMeters>6542.6238637201</DistanceMeters>
          </Trackpoint>
          <Trackpoint>
            <Time>2022-06-01T18:16:35.000Z</Time>
            <Position>
              <LatitudeDegrees>39.4067179597914218902587890625</LatitudeDegrees>
              <LongitudeDegrees>-0.79013242386281490325927734375</LongitudeDegrees>
            </Position>
            <AltitudeMeters>386.79998779296875</AltitudeMeters>
            <DistanceMeters>6554.5067634232</DistanceMeters>
          </Trackpoint>
          <Trackpoint>
            <Time>2022-06-01T18:16:39.000Z</Time>
            <Position>
              <LatitudeDegrees>39.4067260064184665679931640625</LatitudeDegrees>
              <LongitudeDegrees>-0.7902818731963634490966796875</LongitudeDegrees>
            </Position>
            <AltitudeMeters>385.600006103515625</AltitudeMeters>
            <DistanceMeters>6567.3901571964</DistanceMeters>
          </Trackpoint>
          <Trackpoint>
            <Time>2022-06-01T18:16:41.000Z</Time>
            <Position>
              <LatitudeDegrees>39.40671821124851703643798828125</LatitudeDegrees>
              <LongitudeDegrees>-0.7903616689145565032958984375</LongitudeDegrees>
            </Position>
            <AltitudeMeters>385.399993896484375</AltitudeMeters>
            <DistanceMeters>6574.3069010112</DistanceMeters>
          </Trackpoint>
          <Trackpoint>
            <Time>2022-06-01T18:16:45.000Z</Time>
            <Position>
              <LatitudeDegrees>39.40671351738274097442626953125</LatitudeDegrees>
              <LongitudeDegrees>-0.7905232720077037811279296875</LongitudeDegrees>
            </Position>
            <AltitudeMeters>384.79998779296875</AltitudeMeters>
            <DistanceMeters>6588.2146052585</DistanceMeters>
          </Trackpoint>
          <Trackpoint>
            <Time>2022-06-01T18:16:47.000Z</Time>
            <Position>
              <LatitudeDegrees>39.40670345909893512725830078125</LatitudeDegrees>
              <LongitudeDegrees>-0.7906003855168819427490234375</LongitudeDegrees>
            </Position>
            <AltitudeMeters>384.600006103515625</AltitudeMeters>
            <DistanceMeters>6594.9407247181</DistanceMeters>
          </Trackpoint>
          <Trackpoint>
            <Time>2022-06-01T18:16:48.000Z</Time>
            <Position>
              <LatitudeDegrees>39.40669490955770015716552734375</LatitudeDegrees>
              <LongitudeDegrees>-0.79064187593758106231689453125</LongitudeDegrees>
            </Position>
            <AltitudeMeters>384.20001220703125</AltitudeMeters>
            <DistanceMeters>6598.6333410575</DistanceMeters>
          </Trackpoint>
          <Trackpoint>
            <Time>2022-06-01T18:16:53.000Z</Time>
            <Position>
              <LatitudeDegrees>39.4066492281854152679443359375</LatitudeDegrees>
              <LongitudeDegrees>-0.7908531837165355682373046875</LongitudeDegrees>
            </Position>
            <AltitudeMeters>383.399993896484375</AltitudeMeters>
            <DistanceMeters>6617.5032635359</DistanceMeters>
          </Trackpoint>
          <Trackpoint>
            <Time>2022-06-01T18:16:55.000Z</Time>
            <Position>
              <LatitudeDegrees>39.40663288347423076629638671875</LatitudeDegrees>
              <LongitudeDegrees>-0.79091277904808521270751953125</LongitudeDegrees>
            </Position>
            <AltitudeMeters>382.79998779296875</AltitudeMeters>
            <DistanceMeters>6622.942246017</DistanceMeters>
          </Trackpoint>
          <Trackpoint>
            <Time>2022-06-01T18:16:58.000Z</Time>
            <Position>
              <LatitudeDegrees>39.4066203944385051727294921875</LatitudeDegrees>
              <LongitudeDegrees>-0.79099358059465885162353515625</LongitudeDegrees>
            </Position>
            <AltitudeMeters>381.79998779296875</AltitudeMeters>
            <DistanceMeters>6630.0292259931</DistanceMeters>
          </Trackpoint>
          <Trackpoint>
            <Time>2022-06-01T18:16:59.000Z</Time>
            <Position>
              <LatitudeDegrees>39.40663204528391361236572265625</LatitudeDegrees>
              <LongitudeDegrees>-0.7910251803696155548095703125</LongitudeDegrees>
            </Position>
            <AltitudeMeters>381.600006103515625</AltitudeMeters>
            <DistanceMeters>6633.0432360964</DistanceMeters>
          </Trackpoint>
          <Trackpoint>
            <Time>2022-06-01T18:17:01.000Z</Time>
            <Position>
              <LatitudeDegrees>39.40668250434100627899169921875</LatitudeDegrees>
              <LongitudeDegrees>-0.79107798635959625244140625</LongitudeDegrees>
            </Position>
            <AltitudeMeters>381.399993896484375</AltitudeMeters>
            <DistanceMeters>6640.2658915372</DistanceMeters>
          </Trackpoint>
          <Trackpoint>
            <Time>2022-06-01T18:17:03.000Z</Time>
            <Position>
              <LatitudeDegrees>39.40675173886120319366455078125</LatitudeDegrees>
              <LongitudeDegrees>-0.79111344181001186370849609375</LongitudeDegrees>
            </Position>
            <AltitudeMeters>381.20001220703125</AltitudeMeters>
            <DistanceMeters>6648.5528530646</DistanceMeters>
          </Trackpoint>
          <Trackpoint>
            <Time>2022-06-01T18:17:06.000Z</Time>
            <Position>
              <LatitudeDegrees>39.40684377215802669525146484375</LatitudeDegrees>
              <LongitudeDegrees>-0.7911680079996585845947265625</LongitudeDegrees>
            </Position>
            <AltitudeMeters>380.600006103515625</AltitudeMeters>
            <DistanceMeters>6659.8198320141</DistanceMeters>
          </Trackpoint>
          <Trackpoint>
            <Time>2022-06-01T18:17:08.000Z</Time>
            <Position>
              <LatitudeDegrees>39.4069088995456695556640625</LatitudeDegrees>
              <LongitudeDegrees>-0.79118535853922367095947265625</LongitudeDegrees>
            </Position>
            <AltitudeMeters>380.399993896484375</AltitudeMeters>
            <DistanceMeters>6667.2203329183</DistanceMeters>
          </Trackpoint>
          <Trackpoint>
            <Time>2022-06-01T18:17:13.000Z</Time>
            <Position>
              <LatitudeDegrees>39.4070542417466640472412109375</LatitudeDegrees>
              <LongitudeDegrees>-0.79114763997495174407958984375</LongitudeDegrees>
            </Position>
            <AltitudeMeters>379.600006103515625</AltitudeMeters>
            <DistanceMeters>6683.7191708896</DistanceMeters>
          </Trackpoint>
          <Trackpoint>
            <Time>2022-06-01T18:17:16.000Z</Time>
            <Position>
              <LatitudeDegrees>39.40713713876903057098388671875</LatitudeDegrees>
              <LongitudeDegrees>-0.7911214046180248260498046875</LongitudeDegrees>
            </Position>
            <AltitudeMeters>378.399993896484375</AltitudeMeters>
            <DistanceMeters>6693.2175651618</DistanceMeters>
          </Trackpoint>
          <Trackpoint>
            <Time>2022-06-01T18:17:17.000Z</Time>
            <Position>
              <LatitudeDegrees>39.40716412849724292755126953125</LatitudeDegrees>
              <LongitudeDegrees>-0.7911260984838008880615234375</LongitudeDegrees>
            </Position>
            <AltitudeMeters>377.399993896484375</AltitudeMeters>
            <DistanceMeters>6696.2494981789</DistanceMeters>
          </Trackpoint>
          <Trackpoint>
            <Time>2022-06-01T18:17:18.000Z</Time>
            <Position>
              <LatitudeDegrees>39.40719111822545528411865234375</LatitudeDegrees>
              <LongitudeDegrees>-0.79113841988146305084228515625</LongitudeDegrees>
            </Position>
            <AltitudeMeters>376.399993896484375</AltitudeMeters>
            <DistanceMeters>6699.4353741845</DistanceMeters>
          </Trackpoint>
          <Trackpoint>
            <Time>2022-06-01T18:17:20.000Z</Time>
            <Position>
              <LatitudeDegrees>39.40723621286451816558837890625</LatitudeDegrees>
              <LongitudeDegrees>-0.791182927787303924560546875</LongitudeDegrees>
            </Position>
            <AltitudeMeters>375.20001220703125</AltitudeMeters>
            <DistanceMeters>6705.7473229541</DistanceMeters>
          </Trackpoint>
          <Trackpoint>
            <Time>2022-06-01T18:17:22.000Z</Time>
            <Position>
              <LatitudeDegrees>39.40726387314498424530029296875</LatitudeDegrees>
              <LongitudeDegrees>-0.7912474684417247772216796875</LongitudeDegrees>
            </Position>
            <AltitudeMeters>373.79998779296875</AltitudeMeters>
            <DistanceMeters>6712.0949367651</DistanceMeters>
          </Trackpoint>
          <Trackpoint>
            <Time>2022-06-01T18:17:25.000Z</Time>
            <Position>
              <LatitudeDegrees>39.40729002468287944793701171875</LatitudeDegrees>
              <LongitudeDegrees>-0.7913966663181781768798828125</LongitudeDegrees>
            </Position>
            <AltitudeMeters>372.600006103515625</AltitudeMeters>
            <DistanceMeters>6725.2519335892</DistanceMeters>
          </Trackpoint>
          <Trackpoint>
            <Time>2022-06-01T18:17:27.000Z</Time>
            <Position>
              <LatitudeDegrees>39.4073112308979034423828125</LatitudeDegrees>
              <LongitudeDegrees>-0.7914727739989757537841796875</LongitudeDegrees>
            </Position>
            <AltitudeMeters>371.600006103515625</AltitudeMeters>
            <DistanceMeters>6732.2103292299</DistanceMeters>
          </Trackpoint>
          <Trackpoint>
            <Time>2022-06-01T18:17:28.000Z</Time>
            <Position>
              <LatitudeDegrees>39.40732858143746852874755859375</LatitudeDegrees>
              <LongitudeDegrees>-0.7915069721639156341552734375</LongitudeDegrees>
            </Position>
            <AltitudeMeters>371</AltitudeMeters>
            <DistanceMeters>6735.727601572</DistanceMeters>
          </Trackpoint>
          <Trackpoint>
            <Time>2022-06-01T18:17:32.000Z</Time>
            <Position>
              <LatitudeDegrees>39.40742195583879947662353515625</LatitudeDegrees>
              <LongitudeDegrees>-0.79164099879562854766845703125</LongitudeDegrees>
            </Position>
            <AltitudeMeters>370</AltitudeMeters>
            <DistanceMeters>6751.2469507501</DistanceMeters>
          </Trackpoint>
          <Trackpoint>
            <Time>2022-06-01T18:17:37.000Z</Time>
            <Position>
              <LatitudeDegrees>39.40750879235565662384033203125</LatitudeDegrees>
              <LongitudeDegrees>-0.79182364046573638916015625</LongitudeDegrees>
            </Position>
            <AltitudeMeters>369.20001220703125</AltitudeMeters>
            <DistanceMeters>6769.6889896609</DistanceMeters>
          </Trackpoint>
          <Trackpoint>
            <Time>2022-06-01T18:17:38.000Z</Time>
            <Position>
              <LatitudeDegrees>39.40752253867685794830322265625</LatitudeDegrees>
              <LongitudeDegrees>-0.79185859300196170806884765625</LongitudeDegrees>
            </Position>
            <AltitudeMeters>368.600006103515625</AltitudeMeters>
            <DistanceMeters>6773.063441675</DistanceMeters>
          </Trackpoint>
          <Trackpoint>
            <Time>2022-06-01T18:17:42.000Z</Time>
            <Position>
              <LatitudeDegrees>39.40761490724980831146240234375</LatitudeDegrees>
              <LongitudeDegrees>-0.791939981281757354736328125</LongitudeDegrees>
            </Position>
            <AltitudeMeters>367.600006103515625</AltitudeMeters>
            <DistanceMeters>6785.5006925564</DistanceMeters>
          </Trackpoint>
          <Trackpoint>
            <Time>2022-06-01T18:17:45.000Z</Time>
            <Position>
              <LatitudeDegrees>39.40766888670623302459716796875</LatitudeDegrees>
              <LongitudeDegrees>-0.79188742674887180328369140625</LongitudeDegrees>
            </Position>
            <AltitudeMeters>367.20001220703125</AltitudeMeters>
            <DistanceMeters>6793.0192215707</DistanceMeters>
          </Trackpoint>
          <Trackpoint>
            <Time>2022-06-01T18:17:46.000Z</Time>
            <Position>
              <LatitudeDegrees>39.4076842255890369415283203125</LatitudeDegrees>
              <LongitudeDegrees>-0.79185339622199535369873046875</LongitudeDegrees>
            </Position>
            <AltitudeMeters>367.20001220703125</AltitudeMeters>
            <DistanceMeters>6796.4083596966</DistanceMeters>
          </Trackpoint>
          <Trackpoint>
            <Time>2022-06-01T18:17:49.000Z</Time>
            <Position>
              <LatitudeDegrees>39.40772588364779949188232421875</LatitudeDegrees>
              <LongitudeDegrees>-0.79175390303134918212890625</LongitudeDegrees>
            </Position>
            <AltitudeMeters>367.600006103515625</AltitudeMeters>
            <DistanceMeters>6806.1401345473</DistanceMeters>
          </Trackpoint>
          <Trackpoint>
            <Time>2022-06-01T18:17:53.000Z</Time>
            <Position>
              <LatitudeDegrees>39.407776929438114166259765625</LatitudeDegrees>
              <LongitudeDegrees>-0.7916072197258472442626953125</LongitudeDegrees>
            </Position>
            <AltitudeMeters>368.399993896484375</AltitudeMeters>
            <DistanceMeters>6819.974927654</DistanceMeters>
          </Trackpoint>
          <Trackpoint>
            <Time>2022-06-01T18:17:54.000Z</Time>
            <Position>
              <LatitudeDegrees>39.407788328826427459716796875</LatitudeDegrees>
              <LongitudeDegrees>-0.79157679341733455657958984375</LongitudeDegrees>
            </Position>
            <AltitudeMeters>368.79998779296875</AltitudeMeters>
            <DistanceMeters>6822.8837386874</DistanceMeters>
          </Trackpoint>
          <Trackpoint>
            <Time>2022-06-01T18:17:58.000Z</Time>
            <Position>
              <LatitudeDegrees>39.40784608013927936553955078125</LatitudeDegrees>
              <LongitudeDegrees>-0.79146967269480228424072265625</LongitudeDegrees>
            </Position>
            <AltitudeMeters>370</AltitudeMeters>
            <DistanceMeters>6834.1170057201</DistanceMeters>
          </Trackpoint>
          <Trackpoint>
            <Time>2022-06-01T18:17:59.000Z</Time>
            <Position>
              <LatitudeDegrees>39.40786175429821014404296875</LatitudeDegrees>
              <LongitudeDegrees>-0.79144134186208248138427734375</LongitudeDegrees>
            </Position>
            <AltitudeMeters>370</AltitudeMeters>
            <DistanceMeters>6837.1129856909</DistanceMeters>
          </Trackpoint>
          <Trackpoint>
            <Time>2022-06-01T18:18:04.000Z</Time>
            <Position>
              <LatitudeDegrees>39.40797750838100910186767578125</LatitudeDegrees>
              <LongitudeDegrees>-0.79129616729915142059326171875</LongitudeDegrees>
            </Position>
            <AltitudeMeters>370.20001220703125</AltitudeMeters>
            <DistanceMeters>6855.0534153037</DistanceMeters>
          </Trackpoint>
          <Trackpoint>
            <Time>2022-06-01T18:18:06.000Z</Time>
            <Position>
              <LatitudeDegrees>39.40803073346614837646484375</LatitudeDegrees>
              <LongitudeDegrees>-0.79124738462269306182861328125</LongitudeDegrees>
            </Position>
            <AltitudeMeters>370</AltitudeMeters>
            <DistanceMeters>6862.3128592305</DistanceMeters>
          </Trackpoint>
          <Trackpoint>
            <Time>2022-06-01T18:18:10.000Z</Time>
            <Position>
              <LatitudeDegrees>39.40812486223876476287841796875</LatitudeDegrees>
              <LongitudeDegrees>-0.79114210791885852813720703125</LongitudeDegrees>
            </Position>
            <AltitudeMeters>369.399993896484375</AltitudeMeters>
            <DistanceMeters>6876.1593960921</DistanceMeters>
          </Trackpoint>
          <Trackpoint>
            <Time>2022-06-01T18:18:16.000Z</Time>
            <Position>
              <LatitudeDegrees>39.40822653472423553466796875</LatitudeDegrees>
              <LongitudeDegrees>-0.7909306325018405914306640625</LongitudeDegrees>
            </Position>
            <AltitudeMeters>369.20001220703125</AltitudeMeters>
            <DistanceMeters>6897.5788053717</DistanceMeters>
          </Trackpoint>
          <Trackpoint>
            <Time>2022-06-01T18:18:22.000Z</Time>
            <Position>
              <LatitudeDegrees>39.40834379754960536956787109375</LatitudeDegrees>
              <LongitudeDegrees>-0.790796689689159393310546875</LongitudeDegrees>
            </Position>
            <AltitudeMeters>369.399993896484375</AltitudeMeters>
            <DistanceMeters>6914.9860810102</DistanceMeters>
          </Trackpoint>
          <Trackpoint>
            <Time>2022-06-01T18:18:23.000Z</Time>
            <Position>
              <LatitudeDegrees>39.40838000737130641937255859375</LatitudeDegrees>
              <LongitudeDegrees>-0.79079040326178073883056640625</LongitudeDegrees>
            </Position>
            <AltitudeMeters>369.399993896484375</AltitudeMeters>
            <DistanceMeters>6919.0534020014</DistanceMeters>
          </Trackpoint>
          <Trackpoint>
            <Time>2022-06-01T18:18:27.000Z</Time>
            <Position>
              <LatitudeDegrees>39.40853943116962909698486328125</LatitudeDegrees>
              <LongitudeDegrees>-0.79076961614191532135009765625</LongitudeDegrees>
            </Position>
            <AltitudeMeters>369.600006103515625</AltitudeMeters>
            <DistanceMeters>6936.8875645135</DistanceMeters>
          </Trackpoint>
          <Trackpoint>
            <Time>2022-06-01T18:18:33.000Z</Time>
            <Position>
              <LatitudeDegrees>39.40872215665876865386962890625</LatitudeDegrees>
              <LongitudeDegrees>-0.79070708714425563812255859375</LongitudeDegrees>
            </Position>
            <AltitudeMeters>369.79998779296875</AltitudeMeters>
            <DistanceMeters>6957.9241268821</DistanceMeters>
          </Trackpoint>
          <Trackpoint>
            <Time>2022-06-01T18:18:34.000Z</Time>
            <Position>
              <LatitudeDegrees>39.4087500683963298797607421875</LatitudeDegrees>
              <LongitudeDegrees>-0.79069552011787891387939453125</LongitudeDegrees>
            </Position>
            <AltitudeMeters>369.79998779296875</AltitudeMeters>
            <DistanceMeters>6961.1856342102</DistanceMeters>
          </Trackpoint>
          <Trackpoint>
            <Time>2022-06-01T18:18:37.000Z</Time>
            <Position>
              <LatitudeDegrees>39.40882734954357147216796875</LatitudeDegrees>
              <LongitudeDegrees>-0.79068026505410671234130859375</LongitudeDegrees>
            </Position>
            <AltitudeMeters>370</AltitudeMeters>
            <DistanceMeters>6969.8866778778</DistanceMeters>
          </Trackpoint>
          <Trackpoint>
            <Time>2022-06-01T18:18:40.000Z</Time>
            <Position>
              <LatitudeDegrees>39.408919550478458404541015625</LatitudeDegrees>
              <LongitudeDegrees>-0.790650844573974609375</LongitudeDegrees>
            </Position>
            <AltitudeMeters>369.399993896484375</AltitudeMeters>
            <DistanceMeters>6980.4564510904</DistanceMeters>
          </Trackpoint>
          <Trackpoint>
            <Time>2022-06-01T18:18:46.000Z</Time>
            <Position>
              <LatitudeDegrees>39.4091078080236911773681640625</LatitudeDegrees>
              <LongitudeDegrees>-0.7905742339789867401123046875</LongitudeDegrees>
            </Position>
            <AltitudeMeters>369.20001220703125</AltitudeMeters>
            <DistanceMeters>7002.4213987172</DistanceMeters>
          </Trackpoint>
          <Trackpoint>
            <Time>2022-06-01T18:18:52.000Z</Time>
            <Position>
              <LatitudeDegrees>39.40927888266742229461669921875</LatitudeDegrees>
              <LongitudeDegrees>-0.790525786578655242919921875</LongitudeDegrees>
            </Position>
            <AltitudeMeters>369.20001220703125</AltitudeMeters>
            <DistanceMeters>7021.9127654253</DistanceMeters>
          </Trackpoint>
          <Trackpoint>
            <Time>2022-06-01T18:18:53.000Z</Time>
            <Position>
              <LatitudeDegrees>39.40930612385272979736328125</LatitudeDegrees>
              <LongitudeDegrees>-0.7905215956270694732666015625</LongitudeDegrees>
            </Position>
            <AltitudeMeters>369.20001220703125</AltitudeMeters>
            <DistanceMeters>7024.9654755147</DistanceMeters>
          </Trackpoint>
          <Trackpoint>
            <Time>2022-06-01T18:18:59.000Z</Time>
            <Position>
              <LatitudeDegrees>39.4095071218907833099365234375</LatitudeDegrees>
              <LongitudeDegrees>-0.7905046641826629638671875</LongitudeDegrees>
            </Position>
            <AltitudeMeters>369.20001220703125</AltitudeMeters>
            <DistanceMeters>7047.3843297405</DistanceMeters>
          </Trackpoint>
          <Trackpoint>
            <Time>2022-06-01T18:19:00.000Z</Time>
            <Position>
              <LatitudeDegrees>39.40954274497926235198974609375</LatitudeDegrees>
              <LongitudeDegrees>-0.7905065082013607025146484375</LongitudeDegrees>
            </Position>
            <AltitudeMeters>369.20001220703125</AltitudeMeters>
            <DistanceMeters>7051.3527618387</DistanceMeters>
          </Trackpoint>
          <Trackpoint>
            <Time>2022-06-01T18:19:06.000Z</Time>
            <Position>
              <LatitudeDegrees>39.40973125398159027099609375</LatitudeDegrees>
              <LongitudeDegrees>-0.79051882959902286529541015625</LongitudeDegrees>
            </Position>
            <AltitudeMeters>369.20001220703125</AltitudeMeters>
            <DistanceMeters>7072.3607592711</DistanceMeters>
          </Trackpoint>
          <Trackpoint>
            <Time>2022-06-01T18:19:07.000Z</Time>
            <Position>
              <LatitudeDegrees>39.40975916571915149688720703125</LatitudeDegrees>
              <LongitudeDegrees>-0.790521092712879180908203125</LongitudeDegrees>
            </Position>
            <AltitudeMeters>369.20001220703125</AltitudeMeters>
            <DistanceMeters>7075.4720679906</DistanceMeters>
          </Trackpoint>
          <Trackpoint>
            <Time>2022-06-01T18:19:09.000Z</Time>
            <Position>
              <LatitudeDegrees>39.4098202697932720184326171875</LatitudeDegrees>
              <LongitudeDegrees>-0.79052955843508243560791015625</LongitudeDegrees>
            </Position>
            <AltitudeMeters>368.79998779296875</AltitudeMeters>
            <DistanceMeters>7082.3120114155</DistanceMeters>
          </Trackpoint>
          <Trackpoint>
            <Time>2022-06-01T18:19:13.000Z</Time>
            <Position>
              <LatitudeDegrees>39.40994004718959331512451171875</LatitudeDegrees>
              <LongitudeDegrees>-0.7905497588217258453369140625</LongitudeDegrees>
            </Position>
            <AltitudeMeters>369</AltitudeMeters>
            <DistanceMeters>7095.7558568485</DistanceMeters>
          </Trackpoint>
          <Trackpoint>
            <Time>2022-06-01T18:19:20.000Z</Time>
            <Position>
              <LatitudeDegrees>39.41014993004500865936279296875</LatitudeDegrees>
              <LongitudeDegrees>-0.79056425951421260833740234375</LongitudeDegrees>
            </Position>
            <AltitudeMeters>368.20001220703125</AltitudeMeters>
            <DistanceMeters>7119.1494190572</DistanceMeters>
          </Trackpoint>
          <Trackpoint>
            <Time>2022-06-01T18:19:25.000Z</Time>
            <Position>
              <LatitudeDegrees>39.410305581986904144287109375</LatitudeDegrees>
              <LongitudeDegrees>-0.79052033834159374237060546875</LongitudeDegrees>
            </Position>
            <AltitudeMeters>368.20001220703125</AltitudeMeters>
            <DistanceMeters>7136.8810067364</DistanceMeters>
          </Trackpoint>
          <Trackpoint>
            <Time>2022-06-01T18:19:31.000Z</Time>
            <Position>
              <LatitudeDegrees>39.410475902259349822998046875</LatitudeDegrees>
              <LongitudeDegrees>-0.7904404588043689727783203125</LongitudeDegrees>
            </Position>
            <AltitudeMeters>368.399993896484375</AltitudeMeters>
            <DistanceMeters>7157.0441439343</DistanceMeters>
          </Trackpoint>
          <Trackpoint>
            <Time>2022-06-01T18:19:36.000Z</Time>
            <Position>
              <LatitudeDegrees>39.410631470382213592529296875</LatitudeDegrees>
              <LongitudeDegrees>-0.79036527313292026519775390625</LongitudeDegrees>
            </Position>
            <AltitudeMeters>368.399993896484375</AltitudeMeters>
            <DistanceMeters>7175.526778808</DistanceMeters>
          </Trackpoint>
          <Trackpoint>
            <Time>2022-06-01T18:19:42.000Z</Time>
            <Position>
              <LatitudeDegrees>39.41081729717552661895751953125</LatitudeDegrees>
              <LongitudeDegrees>-0.790303833782672882080078125</LongitudeDegrees>
            </Position>
            <AltitudeMeters>368</AltitudeMeters>
            <DistanceMeters>7196.8741870305</DistanceMeters>
          </Trackpoint>
          <Trackpoint>
            <Time>2022-06-01T18:19:43.000Z</Time>
            <Position>
              <LatitudeDegrees>39.41084302961826324462890625</LatitudeDegrees>
              <LongitudeDegrees>-0.7902967929840087890625</LongitudeDegrees>
            </Position>
            <AltitudeMeters>367.79998779296875</AltitudeMeters>
            <DistanceMeters>7199.8031070741</DistanceMeters>
          </Trackpoint>
          <Trackpoint>
            <Time>2022-06-01T18:19:48.000Z</Time>
            <Position>
              <LatitudeDegrees>39.4109880365431308746337890625</LatitudeDegrees>
              <LongitudeDegrees>-0.7902771793305873870849609375</LongitudeDegrees>
            </Position>
            <AltitudeMeters>366.600006103515625</AltitudeMeters>
            <DistanceMeters>7216.0304315357</DistanceMeters>
          </Trackpoint>
          <Trackpoint>
            <Time>2022-06-01T18:20:13.000Z</Time>
            <Position>
              <LatitudeDegrees>39.411108233034610748291015625</LatitudeDegrees>
              <LongitudeDegrees>-0.7903519459068775177001953125</LongitudeDegrees>
            </Position>
            <AltitudeMeters>363.20001220703125</AltitudeMeters>
            <DistanceMeters>7230.8731662906</DistanceMeters>
          </Trackpoint>
          <Trackpoint>
            <Time>2022-06-01T18:20:14.000Z</Time>
            <Position>
              <LatitudeDegrees>39.41112793050706386566162109375</LatitudeDegrees>
              <LongitudeDegrees>-0.79037734307348728179931640625</LongitudeDegrees>
            </Position>
            <AltitudeMeters>363.20001220703125</AltitudeMeters>
            <DistanceMeters>7233.9670119607</DistanceMeters>
          </Trackpoint>
          <Trackpoint>
            <Time>2022-06-01T18:20:18.000Z</Time>
            <Position>
              <LatitudeDegrees>39.41123739816248416900634765625</LatitudeDegrees>
              <LongitudeDegrees>-0.7904590666294097900390625</LongitudeDegrees>
            </Position>
            <AltitudeMeters>362.79998779296875</AltitudeMeters>
            <DistanceMeters>7248.0322497737</DistanceMeters>
          </Trackpoint>
          <Trackpoint>
            <Time>2022-06-01T18:20:19.000Z</Time>
            <Position>
              <LatitudeDegrees>39.41126547753810882568359375</LatitudeDegrees>
              <LongitudeDegrees>-0.790470130741596221923828125</LongitudeDegrees>
            </Position>
            <AltitudeMeters>362.79998779296875</AltitudeMeters>
            <DistanceMeters>7251.2992897729</DistanceMeters>
          </Trackpoint>
          <Trackpoint>
            <Time>2022-06-01T18:20:23.000Z</Time>
            <Position>
              <LatitudeDegrees>39.41140185110270977020263671875</LatitudeDegrees>
              <LongitudeDegrees>-0.79052947461605072021484375</LongitudeDegrees>
            </Position>
            <AltitudeMeters>362</AltitudeMeters>
            <DistanceMeters>7267.3129124379</DistanceMeters>
          </Trackpoint>
          <Trackpoint>
            <Time>2022-06-01T18:20:25.000Z</Time>
            <Position>
              <LatitudeDegrees>39.41147879697382450103759765625</LatitudeDegrees>
              <LongitudeDegrees>-0.7905628345906734466552734375</LongitudeDegrees>
            </Position>
            <AltitudeMeters>361.600006103515625</AltitudeMeters>
            <DistanceMeters>7276.3449504468</DistanceMeters>
          </Trackpoint>
          <Trackpoint>
            <Time>2022-06-01T18:20:27.000Z</Time>
            <Position>
              <LatitudeDegrees>39.41154316999018192291259765625</LatitudeDegrees>
              <LongitudeDegrees>-0.79061756841838359832763671875</LongitudeDegrees>
            </Position>
            <AltitudeMeters>360.600006103515625</AltitudeMeters>
            <DistanceMeters>7284.9173924618</DistanceMeters>
          </Trackpoint>
          <Trackpoint>
            <Time>2022-06-01T18:20:28.000Z</Time>
            <Position>
              <LatitudeDegrees>39.41157485358417034149169921875</LatitudeDegrees>
              <LongitudeDegrees>-0.7906490005552768707275390625</LongitudeDegrees>
            </Position>
            <AltitudeMeters>360.20001220703125</AltitudeMeters>
            <DistanceMeters>7289.3603359801</DistanceMeters>
          </Trackpoint>
          <Trackpoint>
            <Time>2022-06-01T18:20:29.000Z</Time>
            <Position>
              <LatitudeDegrees>39.41160301677882671356201171875</LatitudeDegrees>
              <LongitudeDegrees>-0.790682695806026458740234375</LongitudeDegrees>
            </Position>
            <AltitudeMeters>359.79998779296875</AltitudeMeters>
            <DistanceMeters>7293.6291407618</DistanceMeters>
          </Trackpoint>
          <Trackpoint>
            <Time>2022-06-01T18:20:30.000Z</Time>
            <Position>
              <LatitudeDegrees>39.41162698902189731597900390625</LatitudeDegrees>
              <LongitudeDegrees>-0.79071463085711002349853515625</LongitudeDegrees>
            </Position>
            <AltitudeMeters>359.399993896484375</AltitudeMeters>
            <DistanceMeters>7297.4586112402</DistanceMeters>
          </Trackpoint>
          <Trackpoint>
            <Time>2022-06-01T18:20:34.000Z</Time>
            <Position>
              <LatitudeDegrees>39.4117286615073680877685546875</LatitudeDegrees>
              <LongitudeDegrees>-0.79081512987613677978515625</LongitudeDegrees>
            </Position>
            <AltitudeMeters>358.20001220703125</AltitudeMeters>
            <DistanceMeters>7311.6977230944</DistanceMeters>
          </Trackpoint>
          <Trackpoint>
            <Time>2022-06-01T18:20:37.000Z</Time>
            <Position>
              <LatitudeDegrees>39.41182178445160388946533203125</LatitudeDegrees>
              <LongitudeDegrees>-0.790823511779308319091796875</LongitudeDegrees>
            </Position>
            <AltitudeMeters>357.20001220703125</AltitudeMeters>
            <DistanceMeters>7322.0874071036</DistanceMeters>
          </Trackpoint>
          <Trackpoint>
            <Time>2022-06-01T18:20:38.000Z</Time>
            <Position>
              <LatitudeDegrees>39.411851204931735992431640625</LatitudeDegrees>
              <LongitudeDegrees>-0.79081244766712188720703125</LongitudeDegrees>
            </Position>
            <AltitudeMeters>357</AltitudeMeters>
            <DistanceMeters>7325.4964697875</DistanceMeters>
          </Trackpoint>
          <Trackpoint>
            <Time>2022-06-01T18:20:43.000Z</Time>
            <Position>
              <LatitudeDegrees>39.4120304100215435028076171875</LatitudeDegrees>
              <LongitudeDegrees>-0.79078336246311664581298828125</LongitudeDegrees>
            </Position>
            <AltitudeMeters>356.79998779296875</AltitudeMeters>
            <DistanceMeters>7345.5986070089</DistanceMeters>
          </Trackpoint>
          <Trackpoint>
            <Time>2022-06-01T18:20:47.000Z</Time>
            <Position>
              <LatitudeDegrees>39.4121775962412357330322265625</LatitudeDegrees>
              <LongitudeDegrees>-0.79079769551753997802734375</LongitudeDegrees>
            </Position>
            <AltitudeMeters>356</AltitudeMeters>
            <DistanceMeters>7362.0269643449</DistanceMeters>
          </Trackpoint>
          <Trackpoint>
            <Time>2022-06-01T18:20:48.000Z</Time>
            <Position>
              <LatitudeDegrees>39.4122089445590972900390625</LatitudeDegrees>
              <LongitudeDegrees>-0.79080582596361637115478515625</LongitudeDegrees>
            </Position>
            <AltitudeMeters>355.79998779296875</AltitudeMeters>
            <DistanceMeters>7365.5850772119</DistanceMeters>
          </Trackpoint>
          <Trackpoint>
            <Time>2022-06-01T18:20:52.000Z</Time>
            <Position>
              <LatitudeDegrees>39.41231422126293182373046875</LatitudeDegrees>
              <LongitudeDegrees>-0.79086835496127605438232421875</LongitudeDegrees>
            </Position>
            <AltitudeMeters>355.20001220703125</AltitudeMeters>
            <DistanceMeters>7378.4772293607</DistanceMeters>
          </Trackpoint>
          <Trackpoint>
            <Time>2022-06-01T18:20:54.000Z</Time>
            <Position>
              <LatitudeDegrees>39.412368200719356536865234375</LatitudeDegrees>
              <LongitudeDegrees>-0.79089333303272724151611328125</LongitudeDegrees>
            </Position>
            <AltitudeMeters>355</AltitudeMeters>
            <DistanceMeters>7384.8574789333</DistanceMeters>
          </Trackpoint>
          <Trackpoint>
            <Time>2022-06-01T18:20:59.000Z</Time>
            <Position>
              <LatitudeDegrees>39.4125128723680973052978515625</LatitudeDegrees>
              <LongitudeDegrees>-0.790917389094829559326171875</LongitudeDegrees>
            </Position>
            <AltitudeMeters>356</AltitudeMeters>
            <DistanceMeters>7401.0917578238</DistanceMeters>
          </Trackpoint>
          <Trackpoint>
            <Time>2022-06-01T18:21:01.000Z</Time>
            <Position>
              <LatitudeDegrees>39.412566684186458587646484375</LatitudeDegrees>
              <LongitudeDegrees>-0.790909342467784881591796875</LongitudeDegrees>
            </Position>
            <AltitudeMeters>357</AltitudeMeters>
            <DistanceMeters>7407.1205269923</DistanceMeters>
          </Trackpoint>
          <Trackpoint>
            <Time>2022-06-01T18:21:02.000Z</Time>
            <Position>
              <LatitudeDegrees>39.4125940091907978057861328125</LatitudeDegrees>
              <LongitudeDegrees>-0.790906660258769989013671875</LongitudeDegrees>
            </Position>
            <AltitudeMeters>357.399993896484375</AltitudeMeters>
            <DistanceMeters>7410.171757697</DistanceMeters>
          </Trackpoint>
          <Trackpoint>
            <Time>2022-06-01T18:21:05.000Z</Time>
            <Position>
              <LatitudeDegrees>39.41267321817576885223388671875</LatitudeDegrees>
              <LongitudeDegrees>-0.79089852981269359588623046875</LongitudeDegrees>
            </Position>
            <AltitudeMeters>357.79998779296875</AltitudeMeters>
            <DistanceMeters>7419.0153707642</DistanceMeters>
          </Trackpoint>
          <Trackpoint>
            <Time>2022-06-01T18:21:06.000Z</Time>
            <Position>
              <LatitudeDegrees>39.41269920207560062408447265625</LatitudeDegrees>
              <LongitudeDegrees>-0.790895931422710418701171875</LongitudeDegrees>
            </Position>
            <AltitudeMeters>358</AltitudeMeters>
            <DistanceMeters>7421.9148536783</DistanceMeters>
          </Trackpoint>
          <Trackpoint>
            <Time>2022-06-01T18:21:07.000Z</Time>
            <Position>
              <LatitudeDegrees>39.41272669471800327301025390625</LatitudeDegrees>
              <LongitudeDegrees>-0.7908914051949977874755859375</LongitudeDegrees>
            </Position>
            <AltitudeMeters>358.79998779296875</AltitudeMeters>
            <DistanceMeters>7424.9999307554</DistanceMeters>
          </Trackpoint>
          <Trackpoint>
            <Time>2022-06-01T18:21:10.000Z</Time>
            <Position>
              <LatitudeDegrees>39.41281311213970184326171875</LatitudeDegrees>
              <LongitudeDegrees>-0.7909016311168670654296875</LongitudeDegrees>
            </Position>
            <AltitudeMeters>360</AltitudeMeters>
            <DistanceMeters>7434.6581236333</DistanceMeters>
          </Trackpoint>
          <Trackpoint>
            <Time>2022-06-01T18:21:12.000Z</Time>
            <Position>
              <LatitudeDegrees>39.41286365501582622528076171875</LatitudeDegrees>
              <LongitudeDegrees>-0.790900290012359619140625</LongitudeDegrees>
            </Position>
            <AltitudeMeters>360</AltitudeMeters>
            <DistanceMeters>7440.2847965412</DistanceMeters>
          </Trackpoint>
          <Trackpoint>
            <Time>2022-06-01T18:21:17.000Z</Time>
            <Position>
              <LatitudeDegrees>39.413007907569408416748046875</LatitudeDegrees>
              <LongitudeDegrees>-0.79089132137596607208251953125</LongitudeDegrees>
            </Position>
            <AltitudeMeters>359</AltitudeMeters>
            <DistanceMeters>7456.3592050021</DistanceMeters>
          </Trackpoint>
          <Trackpoint>
            <Time>2022-06-01T18:21:18.000Z</Time>
            <Position>
              <LatitudeDegrees>39.4130399264395236968994140625</LatitudeDegrees>
              <LongitudeDegrees>-0.790889896452426910400390625</LongitudeDegrees>
            </Position>
            <AltitudeMeters>358.600006103515625</AltitudeMeters>
            <DistanceMeters>7459.926189402</DistanceMeters>
          </Trackpoint>
          <Trackpoint>
            <Time>2022-06-01T18:21:21.000Z</Time>
            <Position>
              <LatitudeDegrees>39.41314176656305789947509765625</LatitudeDegrees>
              <LongitudeDegrees>-0.79091663472354412078857421875</LongitudeDegrees>
            </Position>
            <AltitudeMeters>357.20001220703125</AltitudeMeters>
            <DistanceMeters>7471.4925450302</DistanceMeters>
          </Trackpoint>
          <Trackpoint>
            <Time>2022-06-01T18:21:23.000Z</Time>
            <Position>
              <LatitudeDegrees>39.41321519203484058380126953125</LatitudeDegrees>
              <LongitudeDegrees>-0.79095016233623027801513671875</LongitudeDegrees>
            </Position>
            <AltitudeMeters>355.79998779296875</AltitudeMeters>
            <DistanceMeters>7480.1587521466</DistanceMeters>
          </Trackpoint>
          <Trackpoint>
            <Time>2022-06-01T18:21:26.000Z</Time>
            <Position>
              <LatitudeDegrees>39.413323737680912017822265625</LatitudeDegrees>
              <LongitudeDegrees>-0.791015289723873138427734375</LongitudeDegrees>
            </Position>
            <AltitudeMeters>354.600006103515625</AltitudeMeters>
            <DistanceMeters>7493.4753823963</DistanceMeters>
          </Trackpoint>
          <Trackpoint>
            <Time>2022-06-01T18:21:28.000Z</Time>
            <Position>
              <LatitudeDegrees>39.4133822433650493621826171875</LatitudeDegrees>
              <LongitudeDegrees>-0.79105091281235218048095703125</LongitudeDegrees>
            </Position>
            <AltitudeMeters>354.20001220703125</AltitudeMeters>
            <DistanceMeters>7500.6711074</DistanceMeters>
          </Trackpoint>
          <Trackpoint>
            <Time>2022-06-01T18:21:29.000Z</Time>
            <Position>
              <LatitudeDegrees>39.41341049037873744964599609375</LatitudeDegrees>
              <LongitudeDegrees>-0.791072286665439605712890625</LongitudeDegrees>
            </Position>
            <AltitudeMeters>353.600006103515625</AltitudeMeters>
            <DistanceMeters>7504.312007319</DistanceMeters>
          </Trackpoint>
          <Trackpoint>
            <Time>2022-06-01T18:21:32.000Z</Time>
            <Position>
              <LatitudeDegrees>39.4134922139346599578857421875</LatitudeDegrees>
              <LongitudeDegrees>-0.791136659681797027587890625</LongitudeDegrees>
            </Position>
            <AltitudeMeters>352.399993896484375</AltitudeMeters>
            <DistanceMeters>7514.9592407473</DistanceMeters>
          </Trackpoint>
          <Trackpoint>
            <Time>2022-06-01T18:21:33.000Z</Time>
            <Position>
              <LatitudeDegrees>39.4135140068829059600830078125</LatitudeDegrees>
              <LongitudeDegrees>-0.7911591231822967529296875</LongitudeDegrees>
            </Position>
            <AltitudeMeters>351.399993896484375</AltitudeMeters>
            <DistanceMeters>7518.0589183654</DistanceMeters>
          </Trackpoint>
          <Trackpoint>
            <Time>2022-06-01T18:21:34.000Z</Time>
            <Position>
              <LatitudeDegrees>39.41352934576570987701416015625</LatitudeDegrees>
              <LongitudeDegrees>-0.7911837659776210784912109375</LongitudeDegrees>
            </Position>
            <AltitudeMeters>350.399993896484375</AltitudeMeters>
            <DistanceMeters>7520.7817280835</DistanceMeters>
          </Trackpoint>
          <Trackpoint>
            <Time>2022-06-01T18:21:35.000Z</Time>
            <Position>
              <LatitudeDegrees>39.41354828886687755584716796875</LatitudeDegrees>
              <LongitudeDegrees>-0.79121251590549945831298828125</LongitudeDegrees>
            </Position>
            <AltitudeMeters>349.20001220703125</AltitudeMeters>
            <DistanceMeters>7524.032141817</DistanceMeters>
          </Trackpoint>
          <Trackpoint>
            <Time>2022-06-01T18:21:37.000Z</Time>
            <Position>
              <LatitudeDegrees>39.4135921262204647064208984375</LatitudeDegrees>
              <LongitudeDegrees>-0.79127554781734943389892578125</LongitudeDegrees>
            </Position>
            <AltitudeMeters>347.600006103515625</AltitudeMeters>
            <DistanceMeters>7531.3250939117</DistanceMeters>
          </Trackpoint>
          <Trackpoint>
            <Time>2022-06-01T18:21:39.000Z</Time>
            <Position>
              <LatitudeDegrees>39.4136373884975910186767578125</LatitudeDegrees>
              <LongitudeDegrees>-0.7913346402347087860107421875</LongitudeDegrees>
            </Position>
            <AltitudeMeters>346.399993896484375</AltitudeMeters>
            <DistanceMeters>7538.4805487146</DistanceMeters>
          </Trackpoint>
          <Trackpoint>
            <Time>2022-06-01T18:21:40.000Z</Time>
            <Position>
              <LatitudeDegrees>39.41365909762680530548095703125</LatitudeDegrees>
              <LongitudeDegrees>-0.7913591153919696807861328125</LongitudeDegrees>
            </Position>
            <AltitudeMeters>346</AltitudeMeters>
            <DistanceMeters>7541.6862041848</DistanceMeters>
          </Trackpoint>
          <Trackpoint>
            <Time>2022-06-01T18:21:45.000Z</Time>
            <Position>
              <LatitudeDegrees>39.41376420669257640838623046875</LatitudeDegrees>
              <LongitudeDegrees>-0.79152985475957393646240234375</LongitudeDegrees>
            </Position>
            <AltitudeMeters>345.20001220703125</AltitudeMeters>
            <DistanceMeters>7560.4592120273</DistanceMeters>
          </Trackpoint>
          <Trackpoint>
            <Time>2022-06-01T18:21:46.000Z</Time>
            <Position>
              <LatitudeDegrees>39.4137869216501712799072265625</LatitudeDegrees>
              <LongitudeDegrees>-0.79155407845973968505859375</LongitudeDegrees>
            </Position>
            <AltitudeMeters>344.79998779296875</AltitudeMeters>
            <DistanceMeters>7563.7345335101</DistanceMeters>
          </Trackpoint>
          <Trackpoint>
            <Time>2022-06-01T18:21:47.000Z</Time>
            <Position>
              <LatitudeDegrees>39.41381298936903476715087890625</LatitudeDegrees>
              <LongitudeDegrees>-0.79157327301800251007080078125</LongitudeDegrees>
            </Position>
            <AltitudeMeters>344.600006103515625</AltitudeMeters>
            <DistanceMeters>7567.0713110357</DistanceMeters>
          </Trackpoint>
          <Trackpoint>
            <Time>2022-06-01T18:21:50.000Z</Time>
            <Position>
              <LatitudeDegrees>39.41390871070325374603271484375</LatitudeDegrees>
              <LongitudeDegrees>-0.79160730354487895965576171875</LongitudeDegrees>
            </Position>
            <AltitudeMeters>344.399993896484375</AltitudeMeters>
            <DistanceMeters>7578.1197757874</DistanceMeters>
          </Trackpoint>
          <Trackpoint>
            <Time>2022-06-01T18:21:51.000Z</Time>
            <Position>
              <LatitudeDegrees>39.413940645754337310791015625</LatitudeDegrees>
              <LongitudeDegrees>-0.79160629771649837493896484375</LongitudeDegrees>
            </Position>
            <AltitudeMeters>344</AltitudeMeters>
            <DistanceMeters>7581.675349865</DistanceMeters>
          </Trackpoint>
          <Trackpoint>
            <Time>2022-06-01T18:21:55.000Z</Time>
            <Position>
              <LatitudeDegrees>39.41406444646418094635009765625</LatitudeDegrees>
              <LongitudeDegrees>-0.79158131964504718780517578125</LongitudeDegrees>
            </Position>
            <AltitudeMeters>342.600006103515625</AltitudeMeters>
            <DistanceMeters>7595.6213093676</DistanceMeters>
          </Trackpoint>
          <Trackpoint>
            <Time>2022-06-01T18:21:58.000Z</Time>
            <Position>
              <LatitudeDegrees>39.41414323635399341583251953125</LatitudeDegrees>
              <LongitudeDegrees>-0.79152063466608524322509765625</LongitudeDegrees>
            </Position>
            <AltitudeMeters>341.600006103515625</AltitudeMeters>
            <DistanceMeters>7605.8259574043</DistanceMeters>
          </Trackpoint>
          <Trackpoint>
            <Time>2022-06-01T18:21:59.000Z</Time>
            <Position>
              <LatitudeDegrees>39.41416938789188861846923828125</LatitudeDegrees>
              <LongitudeDegrees>-0.79149775207042694091796875</LongitudeDegrees>
            </Position>
            <AltitudeMeters>341.399993896484375</AltitudeMeters>
            <DistanceMeters>7609.3406614566</DistanceMeters>
          </Trackpoint>
          <Trackpoint>
            <Time>2022-06-01T18:22:00.000Z</Time>
            <Position>
              <LatitudeDegrees>39.41419654525816440582275390625</LatitudeDegrees>
              <LongitudeDegrees>-0.79147017560899257659912109375</LongitudeDegrees>
            </Position>
            <AltitudeMeters>341.399993896484375</AltitudeMeters>
            <DistanceMeters>7613.1842541851</DistanceMeters>
          </Trackpoint>
          <Trackpoint>
            <Time>2022-06-01T18:22:06.000Z</Time>
            <Position>
              <LatitudeDegrees>39.41435211338102817535400390625</LatitudeDegrees>
              <LongitudeDegrees>-0.79129767604172229766845703125</LongitudeDegrees>
            </Position>
            <AltitudeMeters>341.399993896484375</AltitudeMeters>
            <DistanceMeters>7635.9843296395</DistanceMeters>
          </Trackpoint>
          <Trackpoint>
            <Time>2022-06-01T18:22:08.000Z</Time>
            <Position>
              <LatitudeDegrees>39.414389915764331817626953125</LatitudeDegrees>
              <LongitudeDegrees>-0.791243277490139007568359375</LongitudeDegrees>
            </Position>
            <AltitudeMeters>341.399993896484375</AltitudeMeters>
            <DistanceMeters>7642.2755000436</DistanceMeters>
          </Trackpoint>
          <Trackpoint>
            <Time>2022-06-01T18:22:12.000Z</Time>
            <Position>
              <LatitudeDegrees>39.41446074284613132476806640625</LatitudeDegrees>
              <LongitudeDegrees>-0.7911314629018306732177734375</LongitudeDegrees>
            </Position>
            <AltitudeMeters>341.20001220703125</AltitudeMeters>
            <DistanceMeters>7654.708757004</DistanceMeters>
          </Trackpoint>
          <Trackpoint>
            <Time>2022-06-01T18:22:18.000Z</Time>
            <Position>
              <LatitudeDegrees>39.41456249915063381195068359375</LatitudeDegrees>
              <LongitudeDegrees>-0.7909820973873138427734375</LongitudeDegrees>
            </Position>
            <AltitudeMeters>341.79998779296875</AltitudeMeters>
            <DistanceMeters>7671.832824055</DistanceMeters>
          </Trackpoint>
          <Trackpoint>
            <Time>2022-06-01T18:22:23.000Z</Time>
            <Position>
              <LatitudeDegrees>39.4146613217890262603759765625</LatitudeDegrees>
              <LongitudeDegrees>-0.790879167616367340087890625</LongitudeDegrees>
            </Position>
            <AltitudeMeters>342.600006103515625</AltitudeMeters>
            <DistanceMeters>7685.9506088412</DistanceMeters>
          </Trackpoint>
          <Trackpoint>
            <Time>2022-06-01T18:22:25.000Z</Time>
            <Position>
              <LatitudeDegrees>39.4146995432674884796142578125</LatitudeDegrees>
              <LongitudeDegrees>-0.79083180986344814300537109375</LongitudeDegrees>
            </Position>
            <AltitudeMeters>343</AltitudeMeters>
            <DistanceMeters>7691.8391989564</DistanceMeters>
          </Trackpoint>
          <Trackpoint>
            <Time>2022-06-01T18:22:28.000Z</Time>
            <Position>
              <LatitudeDegrees>39.41475612111389636993408203125</LatitudeDegrees>
              <LongitudeDegrees>-0.79075838439166545867919921875</LongitudeDegrees>
            </Position>
            <AltitudeMeters>343.600006103515625</AltitudeMeters>
            <DistanceMeters>7700.7565333768</DistanceMeters>
          </Trackpoint>
          <Trackpoint>
            <Time>2022-06-01T18:22:30.000Z</Time>
            <Position>
              <LatitudeDegrees>39.41480423323810100555419921875</LatitudeDegrees>
              <LongitudeDegrees>-0.7907244376838207244873046875</LongitudeDegrees>
            </Position>
            <AltitudeMeters>344.20001220703125</AltitudeMeters>
            <DistanceMeters>7706.8560345818</DistanceMeters>
          </Trackpoint>
          <Trackpoint>
            <Time>2022-06-01T18:22:34.000Z</Time>
            <Position>
              <LatitudeDegrees>39.4148943386971950531005859375</LatitudeDegrees>
              <LongitudeDegrees>-0.79065713100135326385498046875</LongitudeDegrees>
            </Position>
            <AltitudeMeters>345</AltitudeMeters>
            <DistanceMeters>7718.435264912</DistanceMeters>
          </Trackpoint>
          <Trackpoint>
            <Time>2022-06-01T18:22:36.000Z</Time>
            <Position>
              <LatitudeDegrees>39.41493046469986438751220703125</LatitudeDegrees>
              <LongitudeDegrees>-0.79061287455260753631591796875</LongitudeDegrees>
            </Position>
            <AltitudeMeters>345.399993896484375</AltitudeMeters>
            <DistanceMeters>7723.9713356712</DistanceMeters>
          </Trackpoint>
          <Trackpoint>
            <Time>2022-06-01T18:22:38.000Z</Time>
            <Position>
              <LatitudeDegrees>39.414966590702533721923828125</LatitudeDegrees>
              <LongitudeDegrees>-0.79056560061872005462646484375</LongitudeDegrees>
            </Position>
            <AltitudeMeters>346.20001220703125</AltitudeMeters>
            <DistanceMeters>7729.6887543831</DistanceMeters>
          </Trackpoint>
          <Trackpoint>
            <Time>2022-06-01T18:22:41.000Z</Time>
            <Position>
              <LatitudeDegrees>39.41501411609351634979248046875</LatitudeDegrees>
              <LongitudeDegrees>-0.79050608910620212554931640625</LongitudeDegrees>
            </Position>
            <AltitudeMeters>347</AltitudeMeters>
            <DistanceMeters>7737.0482651352</DistanceMeters>
          </Trackpoint>
          <Trackpoint>
            <Time>2022-06-01T18:22:44.000Z</Time>
            <Position>
              <LatitudeDegrees>39.41506725735962390899658203125</LatitudeDegrees>
              <LongitudeDegrees>-0.79044758342206478118896484375</LongitudeDegrees>
            </Position>
            <AltitudeMeters>347.600006103515625</AltitudeMeters>
            <DistanceMeters>7744.8125932027</DistanceMeters>
          </Trackpoint>
          <Trackpoint>
            <Time>2022-06-01T18:22:45.000Z</Time>
            <Position>
              <LatitudeDegrees>39.41507195122539997100830078125</LatitudeDegrees>
              <LongitudeDegrees>-0.79040902666747570037841796875</LongitudeDegrees>
            </Position>
            <AltitudeMeters>348</AltitudeMeters>
            <DistanceMeters>7748.1696060716</DistanceMeters>
          </Trackpoint>
          <Trackpoint>
            <Time>2022-06-01T18:22:46.000Z</Time>
            <Position>
              <LatitudeDegrees>39.4150820933282375335693359375</LatitudeDegrees>
              <LongitudeDegrees>-0.7903824560344219207763671875</LongitudeDegrees>
            </Position>
            <AltitudeMeters>348.20001220703125</AltitudeMeters>
            <DistanceMeters>7750.7194403877</DistanceMeters>
          </Trackpoint>
          <Trackpoint>
            <Time>2022-06-01T18:22:48.000Z</Time>
            <Position>
              <LatitudeDegrees>39.4151162914931774139404296875</LatitudeDegrees>
              <LongitudeDegrees>-0.7903428934514522552490234375</LongitudeDegrees>
            </Position>
            <AltitudeMeters>348.79998779296875</AltitudeMeters>
            <DistanceMeters>7755.8244184109</DistanceMeters>
          </Trackpoint>
          <Trackpoint>
            <Time>2022-06-01T18:22:52.000Z</Time>
            <Position>
              <LatitudeDegrees>39.4152031280100345611572265625</LatitudeDegrees>
              <LongitudeDegrees>-0.7902768440544605255126953125</LongitudeDegrees>
            </Position>
            <AltitudeMeters>349.79998779296875</AltitudeMeters>
            <DistanceMeters>7767.0351545128</DistanceMeters>
          </Trackpoint>
          <Trackpoint>
            <Time>2022-06-01T18:22:53.000Z</Time>
            <Position>
              <LatitudeDegrees>39.4152264297008514404296875</LatitudeDegrees>
              <LongitudeDegrees>-0.7902590744197368621826171875</LongitudeDegrees>
            </Position>
            <AltitudeMeters>350</AltitudeMeters>
            <DistanceMeters>7770.0461670916</DistanceMeters>
          </Trackpoint>
          <Trackpoint>
            <Time>2022-06-01T18:22:57.000Z</Time>
            <Position>
              <LatitudeDegrees>39.41532340832054615020751953125</LatitudeDegrees>
              <LongitudeDegrees>-0.7901973836123943328857421875</LongitudeDegrees>
            </Position>
            <AltitudeMeters>351</AltitudeMeters>
            <DistanceMeters>7782.0729606992</DistanceMeters>
          </Trackpoint>
          <Trackpoint>
            <Time>2022-06-01T18:22:58.000Z</Time>
            <Position>
              <LatitudeDegrees>39.41534603945910930633544921875</LatitudeDegrees>
              <LongitudeDegrees>-0.79018414020538330078125</LongitudeDegrees>
            </Position>
            <AltitudeMeters>351.20001220703125</AltitudeMeters>
            <DistanceMeters>7784.8385482947</DistanceMeters>
          </Trackpoint>
          <Trackpoint>
            <Time>2022-06-01T18:23:03.000Z</Time>
            <Position>
              <LatitudeDegrees>39.4154544174671173095703125</LatitudeDegrees>
              <LongitudeDegrees>-0.79013929702341556549072265625</LongitudeDegrees>
            </Position>
            <AltitudeMeters>351.79998779296875</AltitudeMeters>
            <DistanceMeters>7797.5024401785</DistanceMeters>
          </Trackpoint>
          <Trackpoint>
            <Time>2022-06-01T18:23:07.000Z</Time>
            <Position>
              <LatitudeDegrees>39.41556480713188648223876953125</LatitudeDegrees>
              <LongitudeDegrees>-0.790118761360645294189453125</LongitudeDegrees>
            </Position>
            <AltitudeMeters>352.20001220703125</AltitudeMeters>
            <DistanceMeters>7809.9153445269</DistanceMeters>
          </Trackpoint>
          <Trackpoint>
            <Time>2022-06-01T18:23:09.000Z</Time>
            <Position>
              <LatitudeDegrees>39.41561979241669178009033203125</LatitudeDegrees>
              <LongitudeDegrees>-0.79010828398168087005615234375</LongitudeDegrees>
            </Position>
            <AltitudeMeters>352.600006103515625</AltitudeMeters>
            <DistanceMeters>7816.1015763339</DistanceMeters>
          </Trackpoint>
          <Trackpoint>
            <Time>2022-06-01T18:23:11.000Z</Time>
            <Position>
              <LatitudeDegrees>39.4156768731772899627685546875</LatitudeDegrees>
              <LongitudeDegrees>-0.79007685184478759765625</LongitudeDegrees>
            </Position>
            <AltitudeMeters>352.79998779296875</AltitudeMeters>
            <DistanceMeters>7823.0052524177</DistanceMeters>
          </Trackpoint>
          <Trackpoint>
            <Time>2022-06-01T18:23:14.000Z</Time>
            <Position>
              <LatitudeDegrees>39.4157613627612590789794921875</LatitudeDegrees>
              <LongitudeDegrees>-0.790047012269496917724609375</LongitudeDegrees>
            </Position>
            <AltitudeMeters>352.79998779296875</AltitudeMeters>
            <DistanceMeters>7832.7527887395</DistanceMeters>
          </Trackpoint>
          <Trackpoint>
            <Time>2022-06-01T18:23:16.000Z</Time>
            <Position>
              <LatitudeDegrees>39.4158103130757808685302734375</LatitudeDegrees>
              <LongitudeDegrees>-0.79003569670021533966064453125</LongitudeDegrees>
            </Position>
            <AltitudeMeters>353.20001220703125</AltitudeMeters>
            <DistanceMeters>7838.2864122559</DistanceMeters>
          </Trackpoint>
          <Trackpoint>
            <Time>2022-06-01T18:23:19.000Z</Time>
            <Position>
              <LatitudeDegrees>39.41588549874722957611083984375</LatitudeDegrees>
              <LongitudeDegrees>-0.7900320924818515777587890625</LongitudeDegrees>
            </Position>
            <AltitudeMeters>353.79998779296875</AltitudeMeters>
            <DistanceMeters>7846.6606330354</DistanceMeters>
          </Trackpoint>
          <Trackpoint>
            <Time>2022-06-01T18:23:21.000Z</Time>
            <Position>
              <LatitudeDegrees>39.415940232574939727783203125</LatitudeDegrees>
              <LongitudeDegrees>-0.790014155209064483642578125</LongitudeDegrees>
            </Position>
            <AltitudeMeters>354.399993896484375</AltitudeMeters>
            <DistanceMeters>7852.9439040158</DistanceMeters>
          </Trackpoint>
          <Trackpoint>
            <Time>2022-06-01T18:23:24.000Z</Time>
            <Position>
              <LatitudeDegrees>39.41601608879864215850830078125</LatitudeDegrees>
              <LongitudeDegrees>-0.78999437391757965087890625</LongitudeDegrees>
            </Position>
            <AltitudeMeters>355</AltitudeMeters>
            <DistanceMeters>7861.5562816149</DistanceMeters>
          </Trackpoint>
          <Trackpoint>
            <Time>2022-06-01T18:23:25.000Z</Time>
            <Position>
              <LatitudeDegrees>39.416039474308490753173828125</LatitudeDegrees>
              <LongitudeDegrees>-0.78998959623277187347412109375</LongitudeDegrees>
            </Position>
            <AltitudeMeters>355.600006103515625</AltitudeMeters>
            <DistanceMeters>7864.1914531056</DistanceMeters>
          </Trackpoint>
          <Trackpoint>
            <Time>2022-06-01T18:23:28.000Z</Time>
            <Position>
              <LatitudeDegrees>39.41610728390514850616455078125</LatitudeDegrees>
              <LongitudeDegrees>-0.78997400589287281036376953125</LongitudeDegrees>
            </Position>
            <AltitudeMeters>357.20001220703125</AltitudeMeters>
            <DistanceMeters>7871.8568759525</DistanceMeters>
          </Trackpoint>
          <Trackpoint>
            <Time>2022-06-01T18:23:29.000Z</Time>
            <Position>
              <LatitudeDegrees>39.416129328310489654541015625</LatitudeDegrees>
              <LongitudeDegrees>-0.789967887103557586669921875</LongitudeDegrees>
            </Position>
            <AltitudeMeters>357.600006103515625</AltitudeMeters>
            <DistanceMeters>7874.363852858</DistanceMeters>
          </Trackpoint>
          <Trackpoint>
            <Time>2022-06-01T18:23:31.000Z</Time>
            <Position>
              <LatitudeDegrees>39.416179955005645751953125</LatitudeDegrees>
              <LongitudeDegrees>-0.789961516857147216796875</LongitudeDegrees>
            </Position>
            <AltitudeMeters>358.600006103515625</AltitudeMeters>
            <DistanceMeters>7880.0241276944</DistanceMeters>
          </Trackpoint>
          <Trackpoint>
            <Time>2022-06-01T18:23:35.000Z</Time>
            <Position>
              <LatitudeDegrees>39.41626134328544139862060546875</LatitudeDegrees>
              <LongitudeDegrees>-0.79000116325914859771728515625</LongitudeDegrees>
            </Position>
            <AltitudeMeters>358.79998779296875</AltitudeMeters>
            <DistanceMeters>7889.7028679549</DistanceMeters>
          </Trackpoint>
          <Trackpoint>
            <Time>2022-06-01T18:23:36.000Z</Time>
            <Position>
              <LatitudeDegrees>39.41628615371882915496826171875</LatitudeDegrees>
              <LongitudeDegrees>-0.790037624537944793701171875</LongitudeDegrees>
            </Position>
            <AltitudeMeters>358.79998779296875</AltitudeMeters>
            <DistanceMeters>7893.8797217576</DistanceMeters>
          </Trackpoint>
          <Trackpoint>
            <Time>2022-06-01T18:23:38.000Z</Time>
            <Position>
              <LatitudeDegrees>39.4163209386169910430908203125</LatitudeDegrees>
              <LongitudeDegrees>-0.79011850990355014801025390625</LongitudeDegrees>
            </Position>
            <AltitudeMeters>358.79998779296875</AltitudeMeters>
            <DistanceMeters>7901.8404426096</DistanceMeters>
          </Trackpoint>
          <Trackpoint>
            <Time>2022-06-01T18:23:39.000Z</Time>
            <Position>
              <LatitudeDegrees>39.41633761860430240631103515625</LatitudeDegrees>
              <LongitudeDegrees>-0.790154300630092620849609375</LongitudeDegrees>
            </Position>
            <AltitudeMeters>358.79998779296875</AltitudeMeters>
            <DistanceMeters>7905.4339101989</DistanceMeters>
          </Trackpoint>
          <Trackpoint>
            <Time>2022-06-01T18:23:41.000Z</Time>
            <Position>
              <LatitudeDegrees>39.41638556309044361114501953125</LatitudeDegrees>
              <LongitudeDegrees>-0.79026116989552974700927734375</LongitudeDegrees>
            </Position>
            <AltitudeMeters>358.79998779296875</AltitudeMeters>
            <DistanceMeters>7916.0603444989</DistanceMeters>
          </Trackpoint>
          <Trackpoint>
            <Time>2022-06-01T18:23:43.000Z</Time>
            <Position>
              <LatitudeDegrees>39.41640500910580158233642578125</LatitudeDegrees>
              <LongitudeDegrees>-0.79033099114894866943359375</LongitudeDegrees>
            </Position>
            <AltitudeMeters>359.79998779296875</AltitudeMeters>
            <DistanceMeters>7922.4420092317</DistanceMeters>
          </Trackpoint>
          <Trackpoint>
            <Time>2022-06-01T18:23:45.000Z</Time>
            <Position>
              <LatitudeDegrees>39.4163889996707439422607421875</LatitudeDegrees>
              <LongitudeDegrees>-0.79033576883375644683837890625</LongitudeDegrees>
            </Position>
            <AltitudeMeters>359.79998779296875</AltitudeMeters>
            <DistanceMeters>7924.2723530138</DistanceMeters>
          </Trackpoint>
        </Track>
      </Lap>
    </Activity>
  </Activities>
</TrainingCenterDatabase>
